<?xml version="1.0" encoding="UTF-8" standalone="no" ?>
<gpx xmlns="http://www.topografix.com/GPX/1/1" xmlns:xsi="http://www.w3.org/2001/XMLSchema-instance" xsi:schemaLocation="http://www.topografix.com/GPX/1/1 http://www.topografix.com/GPX/1/1/gpx.xsd" version="1.1" creator="VisuGPX - https://www.visugpx.com">
  <metadata>
    <name>Le Queyrelet depuis le bas de roche rousse</name>
    <desc><![CDATA[Rando facile offrant un joli point de vue à 360°.
Du haut, on peut y voir les arrivées de TMX de roche rousse et drouvet 2, la pointé des Estaris,le roc diolon,et derrière le saut du Laire au dessus de Prapic.
Retour par le rocher des Estaris.]]></desc>
  </metadata>
  <trk>
    <name><![CDATA[Randonnée, 2026-07-10]]></name>
    <trkseg>
      <trkpt lat="44.69758" lon="6.32674">
        <ele>1850.7</ele>
        <time>2026-07-10T08:00:48+00:00</time>
      </trkpt>
      <trkpt lat="44.69749" lon="6.32668">
        <ele>1849.7</ele>
        <time>2026-07-10T08:00:54+00:00</time>
      </trkpt>
      <trkpt lat="44.69741" lon="6.32663">
        <ele>1848.8</ele>
        <time>2026-07-10T08:00:59+00:00</time>
      </trkpt>
      <trkpt lat="44.69735" lon="6.32653">
        <ele>1848.1</ele>
        <time>2026-07-10T08:01:05+00:00</time>
      </trkpt>
      <trkpt lat="44.69728" lon="6.32643">
        <ele>1847</ele>
        <time>2026-07-10T08:01:10+00:00</time>
      </trkpt>
      <trkpt lat="44.69733" lon="6.32631">
        <ele>1847.8</ele>
        <time>2026-07-10T08:01:20+00:00</time>
      </trkpt>
      <trkpt lat="44.6974" lon="6.32622">
        <ele>1848.8</ele>
        <time>2026-07-10T08:01:22+00:00</time>
      </trkpt>
      <trkpt lat="44.69748" lon="6.32616">
        <ele>1849.9</ele>
        <time>2026-07-10T08:01:28+00:00</time>
      </trkpt>
      <trkpt lat="44.69752" lon="6.32604">
        <ele>1850.8</ele>
        <time>2026-07-10T08:01:49+00:00</time>
      </trkpt>
      <trkpt lat="44.69761" lon="6.32601">
        <ele>1853.3</ele>
        <time>2026-07-10T08:01:59+00:00</time>
      </trkpt>
      <trkpt lat="44.6977" lon="6.32603">
        <ele>1855.5</ele>
        <time>2026-07-10T08:02:05+00:00</time>
      </trkpt>
      <trkpt lat="44.69779" lon="6.32603">
        <ele>1858</ele>
        <time>2026-07-10T08:02:12+00:00</time>
      </trkpt>
      <trkpt lat="44.69789" lon="6.32608">
        <ele>1860.8</ele>
        <time>2026-07-10T08:02:18+00:00</time>
      </trkpt>
      <trkpt lat="44.69798" lon="6.32619">
        <ele>1863.1</ele>
        <time>2026-07-10T08:02:20+00:00</time>
      </trkpt>
      <trkpt lat="44.69807" lon="6.32624">
        <ele>1865.5</ele>
        <time>2026-07-10T08:02:26+00:00</time>
      </trkpt>
      <trkpt lat="44.69814" lon="6.32617">
        <ele>1868.1</ele>
        <time>2026-07-10T08:02:44+00:00</time>
      </trkpt>
      <trkpt lat="44.69821" lon="6.32608">
        <ele>1870.4</ele>
        <time>2026-07-10T08:02:52+00:00</time>
      </trkpt>
      <trkpt lat="44.69831" lon="6.32617">
        <ele>1873.3</ele>
        <time>2026-07-10T08:02:58+00:00</time>
      </trkpt>
      <trkpt lat="44.6984" lon="6.32619">
        <ele>1875.7</ele>
        <time>2026-07-10T08:03:04+00:00</time>
      </trkpt>
      <trkpt lat="44.69849" lon="6.32617">
        <ele>1878.1</ele>
        <time>2026-07-10T08:03:14+00:00</time>
      </trkpt>
      <trkpt lat="44.69854" lon="6.32619">
        <ele>1879.4</ele>
        <time>2026-07-10T08:03:21+00:00</time>
      </trkpt>
      <trkpt lat="44.69863" lon="6.32617">
        <ele>1881.7</ele>
        <time>2026-07-10T08:03:33+00:00</time>
      </trkpt>
      <trkpt lat="44.69873" lon="6.32615">
        <ele>1884.2</ele>
        <time>2026-07-10T08:03:41+00:00</time>
      </trkpt>
      <trkpt lat="44.69883" lon="6.32618">
        <ele>1887</ele>
        <time>2026-07-10T08:03:49+00:00</time>
      </trkpt>
      <trkpt lat="44.69891" lon="6.32623">
        <ele>1889.3</ele>
        <time>2026-07-10T08:03:56+00:00</time>
      </trkpt>
      <trkpt lat="44.69901" lon="6.32624">
        <ele>1891.7</ele>
        <time>2026-07-10T08:04:04+00:00</time>
      </trkpt>
      <trkpt lat="44.69909" lon="6.32631">
        <ele>1894.3</ele>
        <time>2026-07-10T08:04:16+00:00</time>
      </trkpt>
      <trkpt lat="44.69919" lon="6.32631">
        <ele>1896.7</ele>
        <time>2026-07-10T08:04:26+00:00</time>
      </trkpt>
      <trkpt lat="44.69929" lon="6.32633">
        <ele>1899</ele>
        <time>2026-07-10T08:04:34+00:00</time>
      </trkpt>
      <trkpt lat="44.69937" lon="6.32629">
        <ele>1900.3</ele>
        <time>2026-07-10T08:04:39+00:00</time>
      </trkpt>
      <trkpt lat="44.69946" lon="6.32623">
        <ele>1901.6</ele>
        <time>2026-07-10T08:04:46+00:00</time>
      </trkpt>
      <trkpt lat="44.69955" lon="6.32616">
        <ele>1905</ele>
        <time>2026-07-10T08:04:57+00:00</time>
      </trkpt>
      <trkpt lat="44.69961" lon="6.32606">
        <ele>1903</ele>
        <time>2026-07-10T08:05:03+00:00</time>
      </trkpt>
      <trkpt lat="44.69972" lon="6.32607">
        <ele>1905.5</ele>
        <time>2026-07-10T08:05:15+00:00</time>
      </trkpt>
      <trkpt lat="44.69974" lon="6.3262">
        <ele>1907.2</ele>
        <time>2026-07-10T08:05:34+00:00</time>
      </trkpt>
      <trkpt lat="44.69981" lon="6.32631">
        <ele>1909.8</ele>
        <time>2026-07-10T08:05:45+00:00</time>
      </trkpt>
      <trkpt lat="44.69987" lon="6.3264">
        <ele>1911.9</ele>
        <time>2026-07-10T08:05:52+00:00</time>
      </trkpt>
      <trkpt lat="44.69998" lon="6.3264">
        <ele>1914.7</ele>
        <time>2026-07-10T08:06:01+00:00</time>
      </trkpt>
      <trkpt lat="44.70008" lon="6.32639">
        <ele>1917.6</ele>
        <time>2026-07-10T08:06:10+00:00</time>
      </trkpt>
      <trkpt lat="44.70015" lon="6.32647">
        <ele>1921</ele>
        <time>2026-07-10T08:06:25+00:00</time>
      </trkpt>
      <trkpt lat="44.70024" lon="6.3265">
        <ele>1924.1</ele>
        <time>2026-07-10T08:06:35+00:00</time>
      </trkpt>
      <trkpt lat="44.70034" lon="6.32647">
        <ele>1926.9</ele>
        <time>2026-07-10T08:06:43+00:00</time>
      </trkpt>
      <trkpt lat="44.70043" lon="6.32648">
        <ele>1929.9</ele>
        <time>2026-07-10T08:06:55+00:00</time>
      </trkpt>
      <trkpt lat="44.7005" lon="6.32656">
        <ele>1932.4</ele>
        <time>2026-07-10T08:07:03+00:00</time>
      </trkpt>
      <trkpt lat="44.70059" lon="6.32653">
        <ele>1935.1</ele>
        <time>2026-07-10T08:07:13+00:00</time>
      </trkpt>
      <trkpt lat="44.70068" lon="6.32658">
        <ele>1938</ele>
        <time>2026-07-10T08:07:26+00:00</time>
      </trkpt>
      <trkpt lat="44.70077" lon="6.3266">
        <ele>1940.9</ele>
        <time>2026-07-10T08:07:35+00:00</time>
      </trkpt>
      <trkpt lat="44.70086" lon="6.32666">
        <ele>1943.6</ele>
        <time>2026-07-10T08:07:45+00:00</time>
      </trkpt>
      <trkpt lat="44.70094" lon="6.32665">
        <ele>1945.3</ele>
        <time>2026-07-10T08:07:58+00:00</time>
      </trkpt>
      <trkpt lat="44.70103" lon="6.3267">
        <ele>1947.1</ele>
        <time>2026-07-10T08:08:09+00:00</time>
      </trkpt>
      <trkpt lat="44.70111" lon="6.32674">
        <ele>1948.7</ele>
        <time>2026-07-10T08:08:15+00:00</time>
      </trkpt>
      <trkpt lat="44.70121" lon="6.32679">
        <ele>1950.7</ele>
        <time>2026-07-10T08:08:40+00:00</time>
      </trkpt>
      <trkpt lat="44.70153" lon="6.32715">
        <ele>1955</ele>
        <time>2026-07-10T08:09:09+00:00</time>
      </trkpt>
      <trkpt lat="44.70161" lon="6.32708">
        <ele>1957.7</ele>
        <time>2026-07-10T08:09:22+00:00</time>
      </trkpt>
      <trkpt lat="44.70164" lon="6.32711">
        <ele>1958</ele>
        <time>2026-07-10T08:09:24+00:00</time>
      </trkpt>
      <trkpt lat="44.70166" lon="6.32713">
        <ele>1958.2</ele>
        <time>2026-07-10T08:09:26+00:00</time>
      </trkpt>
      <trkpt lat="44.70169" lon="6.32714">
        <ele>1959.1</ele>
        <time>2026-07-10T08:09:28+00:00</time>
      </trkpt>
      <trkpt lat="44.70171" lon="6.32715">
        <ele>1959.8</ele>
        <time>2026-07-10T08:09:31+00:00</time>
      </trkpt>
      <trkpt lat="44.70173" lon="6.32718">
        <ele>1960.2</ele>
        <time>2026-07-10T08:09:33+00:00</time>
      </trkpt>
      <trkpt lat="44.70174" lon="6.32719">
        <ele>1963</ele>
        <time>2026-07-10T08:09:37+00:00</time>
      </trkpt>
      <trkpt lat="44.70176" lon="6.32722">
        <ele>1960.7</ele>
        <time>2026-07-10T08:09:40+00:00</time>
      </trkpt>
      <trkpt lat="44.70177" lon="6.32724">
        <ele>1960.8</ele>
        <time>2026-07-10T08:09:43+00:00</time>
      </trkpt>
      <trkpt lat="44.7018" lon="6.32725">
        <ele>1961.8</ele>
        <time>2026-07-10T08:09:46+00:00</time>
      </trkpt>
      <trkpt lat="44.70182" lon="6.32727">
        <ele>1962.3</ele>
        <time>2026-07-10T08:09:48+00:00</time>
      </trkpt>
      <trkpt lat="44.70184" lon="6.32728">
        <ele>1962.9</ele>
        <time>2026-07-10T08:09:50+00:00</time>
      </trkpt>
      <trkpt lat="44.70186" lon="6.3273">
        <ele>1963.2</ele>
        <time>2026-07-10T08:09:53+00:00</time>
      </trkpt>
      <trkpt lat="44.70188" lon="6.32732">
        <ele>1963.6</ele>
        <time>2026-07-10T08:09:55+00:00</time>
      </trkpt>
      <trkpt lat="44.70189" lon="6.32734">
        <ele>1966</ele>
        <time>2026-07-10T08:09:57+00:00</time>
      </trkpt>
      <trkpt lat="44.70191" lon="6.32736">
        <ele>1963.8</ele>
        <time>2026-07-10T08:09:59+00:00</time>
      </trkpt>
      <trkpt lat="44.70193" lon="6.32738">
        <ele>1964.1</ele>
        <time>2026-07-10T08:10:01+00:00</time>
      </trkpt>
      <trkpt lat="44.70195" lon="6.3274">
        <ele>1964.4</ele>
        <time>2026-07-10T08:10:03+00:00</time>
      </trkpt>
      <trkpt lat="44.70197" lon="6.32743">
        <ele>1964.5</ele>
        <time>2026-07-10T08:10:04+00:00</time>
      </trkpt>
      <trkpt lat="44.70199" lon="6.32745">
        <ele>1964.8</ele>
        <time>2026-07-10T08:10:06+00:00</time>
      </trkpt>
      <trkpt lat="44.70201" lon="6.32745">
        <ele>1965.5</ele>
        <time>2026-07-10T08:10:09+00:00</time>
      </trkpt>
      <trkpt lat="44.70203" lon="6.32746">
        <ele>1966</ele>
        <time>2026-07-10T08:10:11+00:00</time>
      </trkpt>
      <trkpt lat="44.70205" lon="6.32748">
        <ele>1966.3</ele>
        <time>2026-07-10T08:10:12+00:00</time>
      </trkpt>
      <trkpt lat="44.70207" lon="6.3275">
        <ele>1966.5</ele>
        <time>2026-07-10T08:10:15+00:00</time>
      </trkpt>
      <trkpt lat="44.70209" lon="6.32751">
        <ele>1972</ele>
        <time>2026-07-10T08:10:17+00:00</time>
      </trkpt>
      <trkpt lat="44.70211" lon="6.32753">
        <ele>1967.6</ele>
        <time>2026-07-10T08:10:19+00:00</time>
      </trkpt>
      <trkpt lat="44.70212" lon="6.32755">
        <ele>1967.8</ele>
        <time>2026-07-10T08:10:20+00:00</time>
      </trkpt>
      <trkpt lat="44.70214" lon="6.32757">
        <ele>1968.3</ele>
        <time>2026-07-10T08:10:23+00:00</time>
      </trkpt>
      <trkpt lat="44.70216" lon="6.32759">
        <ele>1968.8</ele>
        <time>2026-07-10T08:10:24+00:00</time>
      </trkpt>
      <trkpt lat="44.70218" lon="6.3276">
        <ele>1974</ele>
        <time>2026-07-10T08:10:27+00:00</time>
      </trkpt>
      <trkpt lat="44.70219" lon="6.32761">
        <ele>1969.7</ele>
        <time>2026-07-10T08:10:29+00:00</time>
      </trkpt>
      <trkpt lat="44.70221" lon="6.32763">
        <ele>1970.2</ele>
        <time>2026-07-10T08:10:30+00:00</time>
      </trkpt>
      <trkpt lat="44.70223" lon="6.32764">
        <ele>1970.7</ele>
        <time>2026-07-10T08:10:33+00:00</time>
      </trkpt>
      <trkpt lat="44.70224" lon="6.32766">
        <ele>1970.7</ele>
        <time>2026-07-10T08:10:35+00:00</time>
      </trkpt>
      <trkpt lat="44.70226" lon="6.32768">
        <ele>1970.9</ele>
        <time>2026-07-10T08:10:36+00:00</time>
      </trkpt>
      <trkpt lat="44.70228" lon="6.3277">
        <ele>1971.1</ele>
        <time>2026-07-10T08:10:38+00:00</time>
      </trkpt>
      <trkpt lat="44.7023" lon="6.32771">
        <ele>1971.4</ele>
        <time>2026-07-10T08:10:42+00:00</time>
      </trkpt>
      <trkpt lat="44.70232" lon="6.32772">
        <ele>1971.7</ele>
        <time>2026-07-10T08:10:44+00:00</time>
      </trkpt>
      <trkpt lat="44.70234" lon="6.32774">
        <ele>1971.8</ele>
        <time>2026-07-10T08:10:46+00:00</time>
      </trkpt>
      <trkpt lat="44.70237" lon="6.32777">
        <ele>1971.8</ele>
        <time>2026-07-10T08:10:49+00:00</time>
      </trkpt>
      <trkpt lat="44.7024" lon="6.32779">
        <ele>1972.1</ele>
        <time>2026-07-10T08:10:51+00:00</time>
      </trkpt>
      <trkpt lat="44.70242" lon="6.3278">
        <ele>1972.4</ele>
        <time>2026-07-10T08:10:53+00:00</time>
      </trkpt>
      <trkpt lat="44.70244" lon="6.32782">
        <ele>1972.5</ele>
        <time>2026-07-10T08:10:54+00:00</time>
      </trkpt>
      <trkpt lat="44.70247" lon="6.32784">
        <ele>1977</ele>
        <time>2026-07-10T08:10:57+00:00</time>
      </trkpt>
      <trkpt lat="44.70249" lon="6.32785">
        <ele>1973.1</ele>
        <time>2026-07-10T08:10:59+00:00</time>
      </trkpt>
      <trkpt lat="44.70251" lon="6.32787">
        <ele>1973.2</ele>
        <time>2026-07-10T08:11:00+00:00</time>
      </trkpt>
      <trkpt lat="44.70253" lon="6.32789">
        <ele>1973.3</ele>
        <time>2026-07-10T08:11:02+00:00</time>
      </trkpt>
      <trkpt lat="44.70255" lon="6.3279">
        <ele>1973.5</ele>
        <time>2026-07-10T08:11:05+00:00</time>
      </trkpt>
      <trkpt lat="44.70257" lon="6.32791">
        <ele>1978</ele>
        <time>2026-07-10T08:11:07+00:00</time>
      </trkpt>
      <trkpt lat="44.70259" lon="6.32791">
        <ele>1974.1</ele>
        <time>2026-07-10T08:11:08+00:00</time>
      </trkpt>
      <trkpt lat="44.70261" lon="6.32792">
        <ele>1974.2</ele>
        <time>2026-07-10T08:11:10+00:00</time>
      </trkpt>
      <trkpt lat="44.70264" lon="6.32793">
        <ele>1974.6</ele>
        <time>2026-07-10T08:11:12+00:00</time>
      </trkpt>
      <trkpt lat="44.70266" lon="6.32794">
        <ele>1974.7</ele>
        <time>2026-07-10T08:11:15+00:00</time>
      </trkpt>
      <trkpt lat="44.70268" lon="6.32795">
        <ele>1974.8</ele>
        <time>2026-07-10T08:11:16+00:00</time>
      </trkpt>
      <trkpt lat="44.70271" lon="6.32797">
        <ele>1974.9</ele>
        <time>2026-07-10T08:11:18+00:00</time>
      </trkpt>
      <trkpt lat="44.70274" lon="6.32798">
        <ele>1975.1</ele>
        <time>2026-07-10T08:11:20+00:00</time>
      </trkpt>
      <trkpt lat="44.70276" lon="6.32799">
        <ele>1975.2</ele>
        <time>2026-07-10T08:11:23+00:00</time>
      </trkpt>
      <trkpt lat="44.70279" lon="6.32799">
        <ele>1975.7</ele>
        <time>2026-07-10T08:11:24+00:00</time>
      </trkpt>
      <trkpt lat="44.70281" lon="6.328">
        <ele>1975.9</ele>
        <time>2026-07-10T08:11:26+00:00</time>
      </trkpt>
      <trkpt lat="44.70284" lon="6.32802">
        <ele>1976.1</ele>
        <time>2026-07-10T08:11:29+00:00</time>
      </trkpt>
      <trkpt lat="44.70286" lon="6.32802">
        <ele>1976.6</ele>
        <time>2026-07-10T08:11:31+00:00</time>
      </trkpt>
      <trkpt lat="44.70288" lon="6.32803">
        <ele>1976.8</ele>
        <time>2026-07-10T08:11:32+00:00</time>
      </trkpt>
      <trkpt lat="44.70291" lon="6.32806">
        <ele>1976.8</ele>
        <time>2026-07-10T08:11:35+00:00</time>
      </trkpt>
      <trkpt lat="44.70293" lon="6.32808">
        <ele>1981</ele>
        <time>2026-07-10T08:11:37+00:00</time>
      </trkpt>
      <trkpt lat="44.70296" lon="6.32809">
        <ele>1977.1</ele>
        <time>2026-07-10T08:11:38+00:00</time>
      </trkpt>
      <trkpt lat="44.70299" lon="6.32811">
        <ele>1977.4</ele>
        <time>2026-07-10T08:11:41+00:00</time>
      </trkpt>
      <trkpt lat="44.70301" lon="6.32812">
        <ele>1977.6</ele>
        <time>2026-07-10T08:11:42+00:00</time>
      </trkpt>
      <trkpt lat="44.70303" lon="6.32813">
        <ele>1977.8</ele>
        <time>2026-07-10T08:11:44+00:00</time>
      </trkpt>
      <trkpt lat="44.70306" lon="6.32815">
        <ele>1978.1</ele>
        <time>2026-07-10T08:11:46+00:00</time>
      </trkpt>
      <trkpt lat="44.70309" lon="6.32817">
        <ele>1978.5</ele>
        <time>2026-07-10T08:11:48+00:00</time>
      </trkpt>
      <trkpt lat="44.7031" lon="6.32819">
        <ele>1978.3</ele>
        <time>2026-07-10T08:11:50+00:00</time>
      </trkpt>
      <trkpt lat="44.70313" lon="6.32821">
        <ele>1978.7</ele>
        <time>2026-07-10T08:11:53+00:00</time>
      </trkpt>
      <trkpt lat="44.70315" lon="6.32823">
        <ele>1978.7</ele>
        <time>2026-07-10T08:11:54+00:00</time>
      </trkpt>
      <trkpt lat="44.70317" lon="6.32826">
        <ele>1982</ele>
        <time>2026-07-10T08:11:57+00:00</time>
      </trkpt>
      <trkpt lat="44.70319" lon="6.32829">
        <ele>1978.4</ele>
        <time>2026-07-10T08:12:00+00:00</time>
      </trkpt>
      <trkpt lat="44.70321" lon="6.32831">
        <ele>1978.4</ele>
        <time>2026-07-10T08:12:02+00:00</time>
      </trkpt>
      <trkpt lat="44.70323" lon="6.32834">
        <ele>1978.3</ele>
        <time>2026-07-10T08:12:05+00:00</time>
      </trkpt>
      <trkpt lat="44.70325" lon="6.32837">
        <ele>1982</ele>
        <time>2026-07-10T08:12:07+00:00</time>
      </trkpt>
      <trkpt lat="44.70327" lon="6.3284">
        <ele>1979</ele>
        <time>2026-07-10T08:12:08+00:00</time>
      </trkpt>
      <trkpt lat="44.70328" lon="6.32842">
        <ele>1979.2</ele>
        <time>2026-07-10T08:12:09+00:00</time>
      </trkpt>
      <trkpt lat="44.7033" lon="6.32846">
        <ele>1979.5</ele>
        <time>2026-07-10T08:12:11+00:00</time>
      </trkpt>
      <trkpt lat="44.70332" lon="6.32849">
        <ele>1980</ele>
        <time>2026-07-10T08:12:14+00:00</time>
      </trkpt>
      <trkpt lat="44.70334" lon="6.32853">
        <ele>1980.6</ele>
        <time>2026-07-10T08:12:15+00:00</time>
      </trkpt>
      <trkpt lat="44.70335" lon="6.32856">
        <ele>1984</ele>
        <time>2026-07-10T08:12:17+00:00</time>
      </trkpt>
      <trkpt lat="44.70336" lon="6.3286">
        <ele>1981.2</ele>
        <time>2026-07-10T08:12:19+00:00</time>
      </trkpt>
      <trkpt lat="44.70337" lon="6.32864">
        <ele>1981.6</ele>
        <time>2026-07-10T08:12:21+00:00</time>
      </trkpt>
      <trkpt lat="44.70338" lon="6.32867">
        <ele>1982</ele>
        <time>2026-07-10T08:12:24+00:00</time>
      </trkpt>
      <trkpt lat="44.70338" lon="6.32871">
        <ele>1982</ele>
        <time>2026-07-10T08:12:25+00:00</time>
      </trkpt>
      <trkpt lat="44.70339" lon="6.32874">
        <ele>1985</ele>
        <time>2026-07-10T08:12:27+00:00</time>
      </trkpt>
      <trkpt lat="44.7034" lon="6.32878">
        <ele>1982.7</ele>
        <time>2026-07-10T08:12:30+00:00</time>
      </trkpt>
      <trkpt lat="44.70341" lon="6.32882">
        <ele>1983.1</ele>
        <time>2026-07-10T08:12:31+00:00</time>
      </trkpt>
      <trkpt lat="44.70341" lon="6.32886">
        <ele>1983.1</ele>
        <time>2026-07-10T08:12:34+00:00</time>
      </trkpt>
      <trkpt lat="44.70342" lon="6.32889">
        <ele>1983.4</ele>
        <time>2026-07-10T08:12:36+00:00</time>
      </trkpt>
      <trkpt lat="44.70343" lon="6.32893">
        <ele>1983.4</ele>
        <time>2026-07-10T08:12:38+00:00</time>
      </trkpt>
      <trkpt lat="44.70344" lon="6.32896">
        <ele>1983.5</ele>
        <time>2026-07-10T08:12:39+00:00</time>
      </trkpt>
      <trkpt lat="44.70345" lon="6.32899">
        <ele>1983.5</ele>
        <time>2026-07-10T08:12:41+00:00</time>
      </trkpt>
      <trkpt lat="44.70346" lon="6.32902">
        <ele>1983.6</ele>
        <time>2026-07-10T08:12:44+00:00</time>
      </trkpt>
      <trkpt lat="44.70347" lon="6.32905">
        <ele>1983.7</ele>
        <time>2026-07-10T08:12:46+00:00</time>
      </trkpt>
      <trkpt lat="44.70349" lon="6.32909">
        <ele>1984</ele>
        <time>2026-07-10T08:12:48+00:00</time>
      </trkpt>
      <trkpt lat="44.70351" lon="6.32912">
        <ele>1984.5</ele>
        <time>2026-07-10T08:12:49+00:00</time>
      </trkpt>
      <trkpt lat="44.70352" lon="6.32915">
        <ele>1984.6</ele>
        <time>2026-07-10T08:12:51+00:00</time>
      </trkpt>
      <trkpt lat="44.70354" lon="6.32919">
        <ele>1984.8</ele>
        <time>2026-07-10T08:12:54+00:00</time>
      </trkpt>
      <trkpt lat="44.70356" lon="6.32922">
        <ele>1985</ele>
        <time>2026-07-10T08:12:56+00:00</time>
      </trkpt>
      <trkpt lat="44.70358" lon="6.32925">
        <ele>1985.3</ele>
        <time>2026-07-10T08:12:58+00:00</time>
      </trkpt>
      <trkpt lat="44.7036" lon="6.32927">
        <ele>1985.7</ele>
        <time>2026-07-10T08:13:00+00:00</time>
      </trkpt>
      <trkpt lat="44.70362" lon="6.32929">
        <ele>1986</ele>
        <time>2026-07-10T08:13:02+00:00</time>
      </trkpt>
      <trkpt lat="44.70364" lon="6.32931">
        <ele>1986</ele>
        <time>2026-07-10T08:13:04+00:00</time>
      </trkpt>
      <trkpt lat="44.70366" lon="6.32933">
        <ele>1986</ele>
        <time>2026-07-10T08:13:05+00:00</time>
      </trkpt>
      <trkpt lat="44.70369" lon="6.32934">
        <ele>1986.3</ele>
        <time>2026-07-10T08:13:08+00:00</time>
      </trkpt>
      <trkpt lat="44.7037" lon="6.32935">
        <ele>1986.3</ele>
        <time>2026-07-10T08:13:10+00:00</time>
      </trkpt>
      <trkpt lat="44.70372" lon="6.32936">
        <ele>1986.4</ele>
        <time>2026-07-10T08:13:12+00:00</time>
      </trkpt>
      <trkpt lat="44.70375" lon="6.32937">
        <ele>1986.7</ele>
        <time>2026-07-10T08:13:13+00:00</time>
      </trkpt>
      <trkpt lat="44.70378" lon="6.32938">
        <ele>1987</ele>
        <time>2026-07-10T08:13:15+00:00</time>
      </trkpt>
      <trkpt lat="44.7038" lon="6.32939">
        <ele>1987.1</ele>
        <time>2026-07-10T08:13:18+00:00</time>
      </trkpt>
      <trkpt lat="44.70383" lon="6.3294">
        <ele>1987.3</ele>
        <time>2026-07-10T08:13:20+00:00</time>
      </trkpt>
      <trkpt lat="44.70386" lon="6.3294">
        <ele>1987.8</ele>
        <time>2026-07-10T08:13:22+00:00</time>
      </trkpt>
      <trkpt lat="44.70388" lon="6.32941">
        <ele>1987.9</ele>
        <time>2026-07-10T08:13:23+00:00</time>
      </trkpt>
      <trkpt lat="44.70391" lon="6.32942">
        <ele>1987.8</ele>
        <time>2026-07-10T08:13:26+00:00</time>
      </trkpt>
      <trkpt lat="44.70393" lon="6.32942">
        <ele>1993</ele>
        <time>2026-07-10T08:13:27+00:00</time>
      </trkpt>
      <trkpt lat="44.70396" lon="6.32943">
        <ele>1987.7</ele>
        <time>2026-07-10T08:13:30+00:00</time>
      </trkpt>
      <trkpt lat="44.70399" lon="6.32943">
        <ele>1987.8</ele>
        <time>2026-07-10T08:13:32+00:00</time>
      </trkpt>
      <trkpt lat="44.70401" lon="6.32942">
        <ele>1988.3</ele>
        <time>2026-07-10T08:13:34+00:00</time>
      </trkpt>
      <trkpt lat="44.70404" lon="6.32942">
        <ele>1988.4</ele>
        <time>2026-07-10T08:13:35+00:00</time>
      </trkpt>
      <trkpt lat="44.70406" lon="6.32942">
        <ele>1988.5</ele>
        <time>2026-07-10T08:13:38+00:00</time>
      </trkpt>
      <trkpt lat="44.70409" lon="6.32942">
        <ele>1988.6</ele>
        <time>2026-07-10T08:13:39+00:00</time>
      </trkpt>
      <trkpt lat="44.70411" lon="6.32942">
        <ele>1988.7</ele>
        <time>2026-07-10T08:13:41+00:00</time>
      </trkpt>
      <trkpt lat="44.70415" lon="6.3294">
        <ele>1989.7</ele>
        <time>2026-07-10T08:13:44+00:00</time>
      </trkpt>
      <trkpt lat="44.70418" lon="6.3294">
        <ele>1994</ele>
        <time>2026-07-10T08:13:47+00:00</time>
      </trkpt>
      <trkpt lat="44.7042" lon="6.3294">
        <ele>1990.5</ele>
        <time>2026-07-10T08:13:48+00:00</time>
      </trkpt>
      <trkpt lat="44.70424" lon="6.3294">
        <ele>1991.4</ele>
        <time>2026-07-10T08:13:50+00:00</time>
      </trkpt>
      <trkpt lat="44.70426" lon="6.32941">
        <ele>1991.5</ele>
        <time>2026-07-10T08:13:52+00:00</time>
      </trkpt>
      <trkpt lat="44.70429" lon="6.32942">
        <ele>1991.9</ele>
        <time>2026-07-10T08:13:54+00:00</time>
      </trkpt>
      <trkpt lat="44.70432" lon="6.32944">
        <ele>1992</ele>
        <time>2026-07-10T08:13:56+00:00</time>
      </trkpt>
      <trkpt lat="44.70434" lon="6.32946">
        <ele>1992.3</ele>
        <time>2026-07-10T08:13:58+00:00</time>
      </trkpt>
      <trkpt lat="44.70436" lon="6.32948">
        <ele>1992.8</ele>
        <time>2026-07-10T08:14:00+00:00</time>
      </trkpt>
      <trkpt lat="44.70439" lon="6.32951">
        <ele>1993.5</ele>
        <time>2026-07-10T08:14:02+00:00</time>
      </trkpt>
      <trkpt lat="44.70441" lon="6.32954">
        <ele>1994</ele>
        <time>2026-07-10T08:14:05+00:00</time>
      </trkpt>
      <trkpt lat="44.70442" lon="6.32958">
        <ele>1997</ele>
        <time>2026-07-10T08:14:07+00:00</time>
      </trkpt>
      <trkpt lat="44.70443" lon="6.32961">
        <ele>1994.6</ele>
        <time>2026-07-10T08:14:08+00:00</time>
      </trkpt>
      <trkpt lat="44.70443" lon="6.32964">
        <ele>1994.6</ele>
        <time>2026-07-10T08:14:10+00:00</time>
      </trkpt>
      <trkpt lat="44.70443" lon="6.32968">
        <ele>1994.5</ele>
        <time>2026-07-10T08:14:13+00:00</time>
      </trkpt>
      <trkpt lat="44.70442" lon="6.32972">
        <ele>1994.2</ele>
        <time>2026-07-10T08:14:15+00:00</time>
      </trkpt>
      <trkpt lat="44.70442" lon="6.32976">
        <ele>1994.5</ele>
        <time>2026-07-10T08:14:16+00:00</time>
      </trkpt>
      <trkpt lat="44.70441" lon="6.3298">
        <ele>1994.5</ele>
        <time>2026-07-10T08:14:18+00:00</time>
      </trkpt>
      <trkpt lat="44.70441" lon="6.32984">
        <ele>1994.8</ele>
        <time>2026-07-10T08:14:21+00:00</time>
      </trkpt>
      <trkpt lat="44.7044" lon="6.32987">
        <ele>1994.7</ele>
        <time>2026-07-10T08:14:23+00:00</time>
      </trkpt>
      <trkpt lat="44.70439" lon="6.32992">
        <ele>1994.8</ele>
        <time>2026-07-10T08:14:24+00:00</time>
      </trkpt>
      <trkpt lat="44.70439" lon="6.32996">
        <ele>1995.1</ele>
        <time>2026-07-10T08:14:26+00:00</time>
      </trkpt>
      <trkpt lat="44.70438" lon="6.32999">
        <ele>1995.1</ele>
        <time>2026-07-10T08:14:29+00:00</time>
      </trkpt>
      <trkpt lat="44.70437" lon="6.33004">
        <ele>1995.1</ele>
        <time>2026-07-10T08:14:31+00:00</time>
      </trkpt>
      <trkpt lat="44.70436" lon="6.33007">
        <ele>1995.1</ele>
        <time>2026-07-10T08:14:33+00:00</time>
      </trkpt>
      <trkpt lat="44.70435" lon="6.33011">
        <ele>1995.1</ele>
        <time>2026-07-10T08:14:34+00:00</time>
      </trkpt>
      <trkpt lat="44.70435" lon="6.33015">
        <ele>1999</ele>
        <time>2026-07-10T08:14:37+00:00</time>
      </trkpt>
      <trkpt lat="44.70434" lon="6.33019">
        <ele>1995.4</ele>
        <time>2026-07-10T08:14:39+00:00</time>
      </trkpt>
      <trkpt lat="44.70433" lon="6.33024">
        <ele>1995.4</ele>
        <time>2026-07-10T08:14:40+00:00</time>
      </trkpt>
      <trkpt lat="44.70433" lon="6.33028">
        <ele>1995.7</ele>
        <time>2026-07-10T08:14:42+00:00</time>
      </trkpt>
      <trkpt lat="44.70432" lon="6.33032">
        <ele>1995.8</ele>
        <time>2026-07-10T08:14:44+00:00</time>
      </trkpt>
      <trkpt lat="44.70431" lon="6.33036">
        <ele>2000</ele>
        <time>2026-07-10T08:14:47+00:00</time>
      </trkpt>
      <trkpt lat="44.70431" lon="6.33041">
        <ele>1996.3</ele>
        <time>2026-07-10T08:14:48+00:00</time>
      </trkpt>
      <trkpt lat="44.70432" lon="6.33045">
        <ele>1996.9</ele>
        <time>2026-07-10T08:14:50+00:00</time>
      </trkpt>
      <trkpt lat="44.70431" lon="6.33048">
        <ele>1996.9</ele>
        <time>2026-07-10T08:14:52+00:00</time>
      </trkpt>
      <trkpt lat="44.70431" lon="6.33052">
        <ele>1997.3</ele>
        <time>2026-07-10T08:14:55+00:00</time>
      </trkpt>
      <trkpt lat="44.70432" lon="6.33056">
        <ele>2000</ele>
        <time>2026-07-10T08:14:57+00:00</time>
      </trkpt>
      <trkpt lat="44.70432" lon="6.3306">
        <ele>1997.9</ele>
        <time>2026-07-10T08:14:59+00:00</time>
      </trkpt>
      <trkpt lat="44.70432" lon="6.33064">
        <ele>1998</ele>
        <time>2026-07-10T08:15:00+00:00</time>
      </trkpt>
      <trkpt lat="44.70433" lon="6.33068">
        <ele>1998.3</ele>
        <time>2026-07-10T08:15:02+00:00</time>
      </trkpt>
      <trkpt lat="44.70433" lon="6.33072">
        <ele>1998.4</ele>
        <time>2026-07-10T08:15:04+00:00</time>
      </trkpt>
      <trkpt lat="44.70434" lon="6.33076">
        <ele>1998.6</ele>
        <time>2026-07-10T08:15:06+00:00</time>
      </trkpt>
      <trkpt lat="44.70435" lon="6.3308">
        <ele>1998.9</ele>
        <time>2026-07-10T08:15:09+00:00</time>
      </trkpt>
      <trkpt lat="44.70436" lon="6.33084">
        <ele>1999.1</ele>
        <time>2026-07-10T08:15:11+00:00</time>
      </trkpt>
      <trkpt lat="44.70436" lon="6.33087">
        <ele>1999</ele>
        <time>2026-07-10T08:15:12+00:00</time>
      </trkpt>
      <trkpt lat="44.70437" lon="6.33091">
        <ele>1999.1</ele>
        <time>2026-07-10T08:15:14+00:00</time>
      </trkpt>
      <trkpt lat="44.70438" lon="6.33095">
        <ele>1999.2</ele>
        <time>2026-07-10T08:15:16+00:00</time>
      </trkpt>
      <trkpt lat="44.70439" lon="6.33099">
        <ele>1999.4</ele>
        <time>2026-07-10T08:15:19+00:00</time>
      </trkpt>
      <trkpt lat="44.70439" lon="6.33103">
        <ele>1999.3</ele>
        <time>2026-07-10T08:15:21+00:00</time>
      </trkpt>
      <trkpt lat="44.7044" lon="6.33107">
        <ele>1999.5</ele>
        <time>2026-07-10T08:15:22+00:00</time>
      </trkpt>
      <trkpt lat="44.70441" lon="6.33111">
        <ele>1999.8</ele>
        <time>2026-07-10T08:15:24+00:00</time>
      </trkpt>
      <trkpt lat="44.70442" lon="6.33116">
        <ele>1999.9</ele>
        <time>2026-07-10T08:15:26+00:00</time>
      </trkpt>
      <trkpt lat="44.70442" lon="6.3312">
        <ele>1999.7</ele>
        <time>2026-07-10T08:15:28+00:00</time>
      </trkpt>
      <trkpt lat="44.70443" lon="6.33124">
        <ele>1999.9</ele>
        <time>2026-07-10T08:15:31+00:00</time>
      </trkpt>
      <trkpt lat="44.70444" lon="6.33128">
        <ele>2000.2</ele>
        <time>2026-07-10T08:15:33+00:00</time>
      </trkpt>
      <trkpt lat="44.70445" lon="6.33132">
        <ele>2000.6</ele>
        <time>2026-07-10T08:15:35+00:00</time>
      </trkpt>
      <trkpt lat="44.70446" lon="6.33136">
        <ele>2002</ele>
        <time>2026-07-10T08:15:37+00:00</time>
      </trkpt>
      <trkpt lat="44.70446" lon="6.3314">
        <ele>2001</ele>
        <time>2026-07-10T08:15:38+00:00</time>
      </trkpt>
      <trkpt lat="44.70447" lon="6.33144">
        <ele>2001.7</ele>
        <time>2026-07-10T08:15:41+00:00</time>
      </trkpt>
      <trkpt lat="44.70447" lon="6.33148">
        <ele>2001.8</ele>
        <time>2026-07-10T08:15:42+00:00</time>
      </trkpt>
      <trkpt lat="44.70447" lon="6.33152">
        <ele>2001.9</ele>
        <time>2026-07-10T08:15:44+00:00</time>
      </trkpt>
      <trkpt lat="44.70448" lon="6.33156">
        <ele>2004</ele>
        <time>2026-07-10T08:15:47+00:00</time>
      </trkpt>
      <trkpt lat="44.70448" lon="6.3316">
        <ele>2002.7</ele>
        <time>2026-07-10T08:15:48+00:00</time>
      </trkpt>
      <trkpt lat="44.70448" lon="6.33164">
        <ele>2002.8</ele>
        <time>2026-07-10T08:15:50+00:00</time>
      </trkpt>
      <trkpt lat="44.70448" lon="6.33168">
        <ele>2003</ele>
        <time>2026-07-10T08:15:53+00:00</time>
      </trkpt>
      <trkpt lat="44.70448" lon="6.33172">
        <ele>2003.2</ele>
        <time>2026-07-10T08:15:55+00:00</time>
      </trkpt>
      <trkpt lat="44.70448" lon="6.33176">
        <ele>2005</ele>
        <time>2026-07-10T08:15:57+00:00</time>
      </trkpt>
      <trkpt lat="44.70447" lon="6.3318">
        <ele>2002.9</ele>
        <time>2026-07-10T08:15:58+00:00</time>
      </trkpt>
      <trkpt lat="44.70447" lon="6.33184">
        <ele>2003.1</ele>
        <time>2026-07-10T08:16:00+00:00</time>
      </trkpt>
      <trkpt lat="44.70447" lon="6.33188">
        <ele>2003.3</ele>
        <time>2026-07-10T08:16:02+00:00</time>
      </trkpt>
      <trkpt lat="44.70447" lon="6.33192">
        <ele>2003.5</ele>
        <time>2026-07-10T08:16:04+00:00</time>
      </trkpt>
      <trkpt lat="44.70447" lon="6.33196">
        <ele>2003.6</ele>
        <time>2026-07-10T08:16:06+00:00</time>
      </trkpt>
      <trkpt lat="44.70447" lon="6.332">
        <ele>2003.8</ele>
        <time>2026-07-10T08:16:09+00:00</time>
      </trkpt>
      <trkpt lat="44.70447" lon="6.33204">
        <ele>2004</ele>
        <time>2026-07-10T08:16:11+00:00</time>
      </trkpt>
      <trkpt lat="44.70447" lon="6.33209">
        <ele>2004.2</ele>
        <time>2026-07-10T08:16:12+00:00</time>
      </trkpt>
      <trkpt lat="44.70447" lon="6.33213">
        <ele>2004.4</ele>
        <time>2026-07-10T08:16:14+00:00</time>
      </trkpt>
      <trkpt lat="44.70447" lon="6.33217">
        <ele>2005</ele>
        <time>2026-07-10T08:16:17+00:00</time>
      </trkpt>
      <trkpt lat="44.70447" lon="6.33221">
        <ele>2004.7</ele>
        <time>2026-07-10T08:16:18+00:00</time>
      </trkpt>
      <trkpt lat="44.70446" lon="6.33225">
        <ele>2004.4</ele>
        <time>2026-07-10T08:16:20+00:00</time>
      </trkpt>
      <trkpt lat="44.70446" lon="6.33229">
        <ele>2004.8</ele>
        <time>2026-07-10T08:16:22+00:00</time>
      </trkpt>
      <trkpt lat="44.70446" lon="6.33232">
        <ele>2005.2</ele>
        <time>2026-07-10T08:16:24+00:00</time>
      </trkpt>
      <trkpt lat="44.70446" lon="6.33235">
        <ele>2007</ele>
        <time>2026-07-10T08:16:27+00:00</time>
      </trkpt>
      <trkpt lat="44.70445" lon="6.33238">
        <ele>2005.1</ele>
        <time>2026-07-10T08:16:36+00:00</time>
      </trkpt>
      <trkpt lat="44.70446" lon="6.33241">
        <ele>2006.2</ele>
        <time>2026-07-10T08:16:38+00:00</time>
      </trkpt>
      <trkpt lat="44.70445" lon="6.33245">
        <ele>2005.9</ele>
        <time>2026-07-10T08:16:39+00:00</time>
      </trkpt>
      <trkpt lat="44.70446" lon="6.33249">
        <ele>2007.1</ele>
        <time>2026-07-10T08:16:42+00:00</time>
      </trkpt>
      <trkpt lat="44.70446" lon="6.33253">
        <ele>2007.3</ele>
        <time>2026-07-10T08:16:43+00:00</time>
      </trkpt>
      <trkpt lat="44.70445" lon="6.33256">
        <ele>2006.6</ele>
        <time>2026-07-10T08:16:45+00:00</time>
      </trkpt>
      <trkpt lat="44.70446" lon="6.3326">
        <ele>2007.6</ele>
        <time>2026-07-10T08:16:48+00:00</time>
      </trkpt>
      <trkpt lat="44.70446" lon="6.33264">
        <ele>2007.7</ele>
        <time>2026-07-10T08:16:50+00:00</time>
      </trkpt>
      <trkpt lat="44.70446" lon="6.33268">
        <ele>2007.9</ele>
        <time>2026-07-10T08:16:51+00:00</time>
      </trkpt>
      <trkpt lat="44.70446" lon="6.33271">
        <ele>2008</ele>
        <time>2026-07-10T08:16:54+00:00</time>
      </trkpt>
      <trkpt lat="44.70447" lon="6.33274">
        <ele>2008.9</ele>
        <time>2026-07-10T08:16:56+00:00</time>
      </trkpt>
      <trkpt lat="44.70447" lon="6.33277">
        <ele>2009</ele>
        <time>2026-07-10T08:16:57+00:00</time>
      </trkpt>
      <trkpt lat="44.70447" lon="6.3328">
        <ele>2009.1</ele>
        <time>2026-07-10T08:16:59+00:00</time>
      </trkpt>
      <trkpt lat="44.70447" lon="6.33284">
        <ele>2009.1</ele>
        <time>2026-07-10T08:17:01+00:00</time>
      </trkpt>
      <trkpt lat="44.70447" lon="6.33288">
        <ele>2009.2</ele>
        <time>2026-07-10T08:17:03+00:00</time>
      </trkpt>
      <trkpt lat="44.70447" lon="6.33291">
        <ele>2009.3</ele>
        <time>2026-07-10T08:17:05+00:00</time>
      </trkpt>
      <trkpt lat="44.70447" lon="6.33295">
        <ele>2010</ele>
        <time>2026-07-10T08:17:07+00:00</time>
      </trkpt>
      <trkpt lat="44.70448" lon="6.33299">
        <ele>2010.1</ele>
        <time>2026-07-10T08:17:09+00:00</time>
      </trkpt>
      <trkpt lat="44.70448" lon="6.33302">
        <ele>2010.1</ele>
        <time>2026-07-10T08:17:11+00:00</time>
      </trkpt>
      <trkpt lat="44.70448" lon="6.33306">
        <ele>2010.2</ele>
        <time>2026-07-10T08:17:14+00:00</time>
      </trkpt>
      <trkpt lat="44.70449" lon="6.33309">
        <ele>2011</ele>
        <time>2026-07-10T08:17:16+00:00</time>
      </trkpt>
      <trkpt lat="44.70449" lon="6.33312">
        <ele>2014</ele>
        <time>2026-07-10T08:17:17+00:00</time>
      </trkpt>
      <trkpt lat="44.70449" lon="6.33316">
        <ele>2011.3</ele>
        <time>2026-07-10T08:17:19+00:00</time>
      </trkpt>
      <trkpt lat="44.7045" lon="6.3332">
        <ele>2012</ele>
        <time>2026-07-10T08:17:21+00:00</time>
      </trkpt>
      <trkpt lat="44.70451" lon="6.33324">
        <ele>2012.7</ele>
        <time>2026-07-10T08:17:23+00:00</time>
      </trkpt>
      <trkpt lat="44.70451" lon="6.33327">
        <ele>2012.8</ele>
        <time>2026-07-10T08:17:25+00:00</time>
      </trkpt>
      <trkpt lat="44.70451" lon="6.33331">
        <ele>2015</ele>
        <time>2026-07-10T08:17:27+00:00</time>
      </trkpt>
      <trkpt lat="44.70452" lon="6.33335">
        <ele>2013.8</ele>
        <time>2026-07-10T08:17:29+00:00</time>
      </trkpt>
      <trkpt lat="44.70452" lon="6.33338">
        <ele>2014.3</ele>
        <time>2026-07-10T08:17:31+00:00</time>
      </trkpt>
      <trkpt lat="44.70452" lon="6.33342">
        <ele>2015</ele>
        <time>2026-07-10T08:17:33+00:00</time>
      </trkpt>
      <trkpt lat="44.70452" lon="6.33346">
        <ele>2015.6</ele>
        <time>2026-07-10T08:17:35+00:00</time>
      </trkpt>
      <trkpt lat="44.70451" lon="6.33349">
        <ele>2015</ele>
        <time>2026-07-10T08:17:37+00:00</time>
      </trkpt>
      <trkpt lat="44.7045" lon="6.33353">
        <ele>2015.7</ele>
        <time>2026-07-10T08:17:39+00:00</time>
      </trkpt>
      <trkpt lat="44.70449" lon="6.33357">
        <ele>2015.8</ele>
        <time>2026-07-10T08:17:41+00:00</time>
      </trkpt>
      <trkpt lat="44.70449" lon="6.3336">
        <ele>2016.3</ele>
        <time>2026-07-10T08:17:43+00:00</time>
      </trkpt>
      <trkpt lat="44.70448" lon="6.33364">
        <ele>2016.9</ele>
        <time>2026-07-10T08:17:45+00:00</time>
      </trkpt>
      <trkpt lat="44.70448" lon="6.33369">
        <ele>2018.7</ele>
        <time>2026-07-10T08:17:48+00:00</time>
      </trkpt>
      <trkpt lat="44.70446" lon="6.33372">
        <ele>2018.5</ele>
        <time>2026-07-10T08:17:50+00:00</time>
      </trkpt>
      <trkpt lat="44.70445" lon="6.33375">
        <ele>2018.9</ele>
        <time>2026-07-10T08:17:51+00:00</time>
      </trkpt>
      <trkpt lat="44.70444" lon="6.33378">
        <ele>2019.3</ele>
        <time>2026-07-10T08:17:53+00:00</time>
      </trkpt>
      <trkpt lat="44.70442" lon="6.33382">
        <ele>2019.8</ele>
        <time>2026-07-10T08:17:56+00:00</time>
      </trkpt>
      <trkpt lat="44.7044" lon="6.33385">
        <ele>2020.1</ele>
        <time>2026-07-10T08:17:58+00:00</time>
      </trkpt>
      <trkpt lat="44.70433" lon="6.33394">
        <ele>2021</ele>
        <time>2026-07-10T08:18:06+00:00</time>
      </trkpt>
      <trkpt lat="44.70431" lon="6.33398">
        <ele>2021.9</ele>
        <time>2026-07-10T08:18:08+00:00</time>
      </trkpt>
      <trkpt lat="44.70429" lon="6.334">
        <ele>2022</ele>
        <time>2026-07-10T08:18:11+00:00</time>
      </trkpt>
      <trkpt lat="44.70427" lon="6.33403">
        <ele>2022.4</ele>
        <time>2026-07-10T08:18:13+00:00</time>
      </trkpt>
      <trkpt lat="44.70425" lon="6.33405">
        <ele>2022.3</ele>
        <time>2026-07-10T08:18:15+00:00</time>
      </trkpt>
      <trkpt lat="44.70423" lon="6.33407">
        <ele>2022</ele>
        <time>2026-07-10T08:18:17+00:00</time>
      </trkpt>
      <trkpt lat="44.70421" lon="6.33409">
        <ele>2022.1</ele>
        <time>2026-07-10T08:18:19+00:00</time>
      </trkpt>
      <trkpt lat="44.70419" lon="6.33412">
        <ele>2022.4</ele>
        <time>2026-07-10T08:18:20+00:00</time>
      </trkpt>
      <trkpt lat="44.70417" lon="6.33414">
        <ele>2022.2</ele>
        <time>2026-07-10T08:18:23+00:00</time>
      </trkpt>
      <trkpt lat="44.70415" lon="6.33417">
        <ele>2022.7</ele>
        <time>2026-07-10T08:18:25+00:00</time>
      </trkpt>
      <trkpt lat="44.70414" lon="6.33418">
        <ele>2022.9</ele>
        <time>2026-07-10T08:18:26+00:00</time>
      </trkpt>
      <trkpt lat="44.70411" lon="6.33421">
        <ele>2023.4</ele>
        <time>2026-07-10T08:18:29+00:00</time>
      </trkpt>
      <trkpt lat="44.7041" lon="6.33424">
        <ele>2024.4</ele>
        <time>2026-07-10T08:18:30+00:00</time>
      </trkpt>
      <trkpt lat="44.70408" lon="6.33426">
        <ele>2024.7</ele>
        <time>2026-07-10T08:18:32+00:00</time>
      </trkpt>
      <trkpt lat="44.70406" lon="6.33428">
        <ele>2025.1</ele>
        <time>2026-07-10T08:18:34+00:00</time>
      </trkpt>
      <trkpt lat="44.70404" lon="6.33431">
        <ele>2025.8</ele>
        <time>2026-07-10T08:18:36+00:00</time>
      </trkpt>
      <trkpt lat="44.70403" lon="6.33433">
        <ele>2026.3</ele>
        <time>2026-07-10T08:18:38+00:00</time>
      </trkpt>
      <trkpt lat="44.70402" lon="6.33436">
        <ele>2027.3</ele>
        <time>2026-07-10T08:18:40+00:00</time>
      </trkpt>
      <trkpt lat="44.70401" lon="6.33439">
        <ele>2028.2</ele>
        <time>2026-07-10T08:18:43+00:00</time>
      </trkpt>
      <trkpt lat="44.704" lon="6.33442">
        <ele>2029.2</ele>
        <time>2026-07-10T08:18:44+00:00</time>
      </trkpt>
      <trkpt lat="44.70399" lon="6.33444">
        <ele>2029.7</ele>
        <time>2026-07-10T08:18:46+00:00</time>
      </trkpt>
      <trkpt lat="44.70398" lon="6.33447">
        <ele>2030.1</ele>
        <time>2026-07-10T08:18:49+00:00</time>
      </trkpt>
      <trkpt lat="44.70397" lon="6.3345">
        <ele>2030.5</ele>
        <time>2026-07-10T08:18:50+00:00</time>
      </trkpt>
      <trkpt lat="44.70396" lon="6.33453">
        <ele>2030.8</ele>
        <time>2026-07-10T08:18:52+00:00</time>
      </trkpt>
      <trkpt lat="44.70396" lon="6.33456">
        <ele>2031.4</ele>
        <time>2026-07-10T08:18:55+00:00</time>
      </trkpt>
      <trkpt lat="44.70395" lon="6.33459">
        <ele>2033</ele>
        <time>2026-07-10T08:18:57+00:00</time>
      </trkpt>
      <trkpt lat="44.70395" lon="6.33462">
        <ele>2032.4</ele>
        <time>2026-07-10T08:18:59+00:00</time>
      </trkpt>
      <trkpt lat="44.70394" lon="6.33465">
        <ele>2032.8</ele>
        <time>2026-07-10T08:19:00+00:00</time>
      </trkpt>
      <trkpt lat="44.70394" lon="6.33468">
        <ele>2033.4</ele>
        <time>2026-07-10T08:19:02+00:00</time>
      </trkpt>
      <trkpt lat="44.70393" lon="6.33471">
        <ele>2033.8</ele>
        <time>2026-07-10T08:19:04+00:00</time>
      </trkpt>
      <trkpt lat="44.70393" lon="6.33474">
        <ele>2034.1</ele>
        <time>2026-07-10T08:19:06+00:00</time>
      </trkpt>
      <trkpt lat="44.70393" lon="6.33477">
        <ele>2034.3</ele>
        <time>2026-07-10T08:19:08+00:00</time>
      </trkpt>
      <trkpt lat="44.70393" lon="6.3348">
        <ele>2034.4</ele>
        <time>2026-07-10T08:19:10+00:00</time>
      </trkpt>
      <trkpt lat="44.70393" lon="6.33483">
        <ele>2034.5</ele>
        <time>2026-07-10T08:19:12+00:00</time>
      </trkpt>
      <trkpt lat="44.70396" lon="6.33486">
        <ele>2035.1</ele>
        <time>2026-07-10T08:19:15+00:00</time>
      </trkpt>
      <trkpt lat="44.70398" lon="6.33489">
        <ele>2035.5</ele>
        <time>2026-07-10T08:19:16+00:00</time>
      </trkpt>
      <trkpt lat="44.70399" lon="6.33491">
        <ele>2035.7</ele>
        <time>2026-07-10T08:19:18+00:00</time>
      </trkpt>
      <trkpt lat="44.704" lon="6.33493">
        <ele>2035.8</ele>
        <time>2026-07-10T08:19:21+00:00</time>
      </trkpt>
      <trkpt lat="44.70401" lon="6.33497">
        <ele>2035.9</ele>
        <time>2026-07-10T08:19:22+00:00</time>
      </trkpt>
      <trkpt lat="44.70402" lon="6.33499">
        <ele>2036</ele>
        <time>2026-07-10T08:19:24+00:00</time>
      </trkpt>
      <trkpt lat="44.70403" lon="6.33502">
        <ele>2035.8</ele>
        <time>2026-07-10T08:19:26+00:00</time>
      </trkpt>
      <trkpt lat="44.70403" lon="6.33506">
        <ele>2035.4</ele>
        <time>2026-07-10T08:19:29+00:00</time>
      </trkpt>
      <trkpt lat="44.70404" lon="6.33508">
        <ele>2035.2</ele>
        <time>2026-07-10T08:19:30+00:00</time>
      </trkpt>
      <trkpt lat="44.70406" lon="6.33511">
        <ele>2035</ele>
        <time>2026-07-10T08:19:31+00:00</time>
      </trkpt>
      <trkpt lat="44.70407" lon="6.33514">
        <ele>2034.6</ele>
        <time>2026-07-10T08:19:34+00:00</time>
      </trkpt>
      <trkpt lat="44.70409" lon="6.33516">
        <ele>2034.5</ele>
        <time>2026-07-10T08:19:35+00:00</time>
      </trkpt>
      <trkpt lat="44.70411" lon="6.33518">
        <ele>2037</ele>
        <time>2026-07-10T08:19:37+00:00</time>
      </trkpt>
      <trkpt lat="44.70412" lon="6.33521">
        <ele>2033.9</ele>
        <time>2026-07-10T08:19:40+00:00</time>
      </trkpt>
      <trkpt lat="44.70414" lon="6.33523">
        <ele>2033.7</ele>
        <time>2026-07-10T08:19:42+00:00</time>
      </trkpt>
      <trkpt lat="44.70416" lon="6.33524">
        <ele>2033.5</ele>
        <time>2026-07-10T08:19:44+00:00</time>
      </trkpt>
      <trkpt lat="44.70418" lon="6.33526">
        <ele>2033.4</ele>
        <time>2026-07-10T08:19:46+00:00</time>
      </trkpt>
      <trkpt lat="44.7042" lon="6.33527">
        <ele>2037</ele>
        <time>2026-07-10T08:19:47+00:00</time>
      </trkpt>
      <trkpt lat="44.70422" lon="6.33527">
        <ele>2033.7</ele>
        <time>2026-07-10T08:19:50+00:00</time>
      </trkpt>
      <trkpt lat="44.70424" lon="6.33528">
        <ele>2033.7</ele>
        <time>2026-07-10T08:19:52+00:00</time>
      </trkpt>
      <trkpt lat="44.70425" lon="6.3353">
        <ele>2033.5</ele>
        <time>2026-07-10T08:19:53+00:00</time>
      </trkpt>
      <trkpt lat="44.70427" lon="6.33532">
        <ele>2033.2</ele>
        <time>2026-07-10T08:19:55+00:00</time>
      </trkpt>
      <trkpt lat="44.70429" lon="6.33535">
        <ele>2036</ele>
        <time>2026-07-10T08:19:57+00:00</time>
      </trkpt>
      <trkpt lat="44.70432" lon="6.33537">
        <ele>2032.6</ele>
        <time>2026-07-10T08:20:00+00:00</time>
      </trkpt>
      <trkpt lat="44.70433" lon="6.33538">
        <ele>2032.5</ele>
        <time>2026-07-10T08:20:01+00:00</time>
      </trkpt>
      <trkpt lat="44.70436" lon="6.33541">
        <ele>2032</ele>
        <time>2026-07-10T08:20:03+00:00</time>
      </trkpt>
      <trkpt lat="44.70438" lon="6.33543">
        <ele>2031.7</ele>
        <time>2026-07-10T08:20:05+00:00</time>
      </trkpt>
      <trkpt lat="44.7044" lon="6.33545">
        <ele>2034</ele>
        <time>2026-07-10T08:20:07+00:00</time>
      </trkpt>
      <trkpt lat="44.70442" lon="6.33546">
        <ele>2031.3</ele>
        <time>2026-07-10T08:20:09+00:00</time>
      </trkpt>
      <trkpt lat="44.70445" lon="6.33549">
        <ele>2030.8</ele>
        <time>2026-07-10T08:20:11+00:00</time>
      </trkpt>
      <trkpt lat="44.70446" lon="6.3355">
        <ele>2030.7</ele>
        <time>2026-07-10T08:20:12+00:00</time>
      </trkpt>
      <trkpt lat="44.70449" lon="6.33553">
        <ele>2030.6</ele>
        <time>2026-07-10T08:20:14+00:00</time>
      </trkpt>
      <trkpt lat="44.70451" lon="6.33554">
        <ele>2030.8</ele>
        <time>2026-07-10T08:20:15+00:00</time>
      </trkpt>
      <trkpt lat="44.70454" lon="6.33556">
        <ele>2034</ele>
        <time>2026-07-10T08:20:17+00:00</time>
      </trkpt>
      <trkpt lat="44.70462" lon="6.33562">
        <ele>2031.3</ele>
        <time>2026-07-10T08:20:23+00:00</time>
      </trkpt>
      <trkpt lat="44.70467" lon="6.33565">
        <ele>2033</ele>
        <time>2026-07-10T08:20:27+00:00</time>
      </trkpt>
      <trkpt lat="44.70475" lon="6.33573">
        <ele>2031.6</ele>
        <time>2026-07-10T08:20:35+00:00</time>
      </trkpt>
      <trkpt lat="44.70476" lon="6.33576">
        <ele>2032</ele>
        <time>2026-07-10T08:20:37+00:00</time>
      </trkpt>
      <trkpt lat="44.70478" lon="6.33578">
        <ele>2031.4</ele>
        <time>2026-07-10T08:20:40+00:00</time>
      </trkpt>
      <trkpt lat="44.7048" lon="6.33579">
        <ele>2031.9</ele>
        <time>2026-07-10T08:20:41+00:00</time>
      </trkpt>
      <trkpt lat="44.70481" lon="6.33582">
        <ele>2031.5</ele>
        <time>2026-07-10T08:20:44+00:00</time>
      </trkpt>
      <trkpt lat="44.70483" lon="6.33585">
        <ele>2031.4</ele>
        <time>2026-07-10T08:20:46+00:00</time>
      </trkpt>
      <trkpt lat="44.70485" lon="6.33588">
        <ele>2032</ele>
        <time>2026-07-10T08:20:47+00:00</time>
      </trkpt>
      <trkpt lat="44.70486" lon="6.3359">
        <ele>2031</ele>
        <time>2026-07-10T08:20:49+00:00</time>
      </trkpt>
      <trkpt lat="44.70488" lon="6.33593">
        <ele>2030.9</ele>
        <time>2026-07-10T08:20:52+00:00</time>
      </trkpt>
      <trkpt lat="44.70489" lon="6.33596">
        <ele>2030.4</ele>
        <time>2026-07-10T08:20:53+00:00</time>
      </trkpt>
      <trkpt lat="44.70491" lon="6.33598">
        <ele>2030.5</ele>
        <time>2026-07-10T08:20:55+00:00</time>
      </trkpt>
      <trkpt lat="44.70499" lon="6.33607">
        <ele>2030.8</ele>
        <time>2026-07-10T08:21:04+00:00</time>
      </trkpt>
      <trkpt lat="44.70502" lon="6.3361">
        <ele>2031</ele>
        <time>2026-07-10T08:21:06+00:00</time>
      </trkpt>
      <trkpt lat="44.70504" lon="6.33612">
        <ele>2031.1</ele>
        <time>2026-07-10T08:21:08+00:00</time>
      </trkpt>
      <trkpt lat="44.70506" lon="6.33613">
        <ele>2031.5</ele>
        <time>2026-07-10T08:21:11+00:00</time>
      </trkpt>
      <trkpt lat="44.70507" lon="6.33615">
        <ele>2031.4</ele>
        <time>2026-07-10T08:21:12+00:00</time>
      </trkpt>
      <trkpt lat="44.70509" lon="6.33618">
        <ele>2031.3</ele>
        <time>2026-07-10T08:21:14+00:00</time>
      </trkpt>
      <trkpt lat="44.70511" lon="6.33621">
        <ele>2031.1</ele>
        <time>2026-07-10T08:21:16+00:00</time>
      </trkpt>
      <trkpt lat="44.70512" lon="6.33624">
        <ele>2030.7</ele>
        <time>2026-07-10T08:21:19+00:00</time>
      </trkpt>
      <trkpt lat="44.70514" lon="6.33626">
        <ele>2030.8</ele>
        <time>2026-07-10T08:21:20+00:00</time>
      </trkpt>
      <trkpt lat="44.70515" lon="6.33628">
        <ele>2030.6</ele>
        <time>2026-07-10T08:21:22+00:00</time>
      </trkpt>
      <trkpt lat="44.70516" lon="6.33631">
        <ele>2030.1</ele>
        <time>2026-07-10T08:21:24+00:00</time>
      </trkpt>
      <trkpt lat="44.70517" lon="6.33634">
        <ele>2029.6</ele>
        <time>2026-07-10T08:21:26+00:00</time>
      </trkpt>
      <trkpt lat="44.70519" lon="6.33636">
        <ele>2029.6</ele>
        <time>2026-07-10T08:21:29+00:00</time>
      </trkpt>
      <trkpt lat="44.70521" lon="6.33638">
        <ele>2029.5</ele>
        <time>2026-07-10T08:21:30+00:00</time>
      </trkpt>
      <trkpt lat="44.70523" lon="6.33639">
        <ele>2029.8</ele>
        <time>2026-07-10T08:21:32+00:00</time>
      </trkpt>
      <trkpt lat="44.70525" lon="6.33641">
        <ele>2029.8</ele>
        <time>2026-07-10T08:21:34+00:00</time>
      </trkpt>
      <trkpt lat="44.70528" lon="6.33642">
        <ele>2032</ele>
        <time>2026-07-10T08:21:37+00:00</time>
      </trkpt>
      <trkpt lat="44.7053" lon="6.33643">
        <ele>2030.3</ele>
        <time>2026-07-10T08:21:38+00:00</time>
      </trkpt>
      <trkpt lat="44.70531" lon="6.33645">
        <ele>2029.9</ele>
        <time>2026-07-10T08:21:41+00:00</time>
      </trkpt>
      <trkpt lat="44.70533" lon="6.33646">
        <ele>2030</ele>
        <time>2026-07-10T08:21:42+00:00</time>
      </trkpt>
      <trkpt lat="44.70536" lon="6.33647">
        <ele>2030.1</ele>
        <time>2026-07-10T08:21:45+00:00</time>
      </trkpt>
      <trkpt lat="44.70538" lon="6.33648">
        <ele>2030.2</ele>
        <time>2026-07-10T08:21:46+00:00</time>
      </trkpt>
      <trkpt lat="44.70541" lon="6.33649">
        <ele>2030.4</ele>
        <time>2026-07-10T08:21:50+00:00</time>
      </trkpt>
      <trkpt lat="44.70543" lon="6.3365">
        <ele>2030.4</ele>
        <time>2026-07-10T08:21:51+00:00</time>
      </trkpt>
      <trkpt lat="44.70545" lon="6.33651">
        <ele>2030.4</ele>
        <time>2026-07-10T08:21:53+00:00</time>
      </trkpt>
      <trkpt lat="44.70547" lon="6.33652">
        <ele>2030.5</ele>
        <time>2026-07-10T08:21:55+00:00</time>
      </trkpt>
      <trkpt lat="44.70549" lon="6.33652">
        <ele>2030.8</ele>
        <time>2026-07-10T08:21:58+00:00</time>
      </trkpt>
      <trkpt lat="44.70552" lon="6.33653">
        <ele>2030.9</ele>
        <time>2026-07-10T08:22:00+00:00</time>
      </trkpt>
      <trkpt lat="44.70554" lon="6.33654">
        <ele>2031</ele>
        <time>2026-07-10T08:22:01+00:00</time>
      </trkpt>
      <trkpt lat="44.70556" lon="6.33655">
        <ele>2031</ele>
        <time>2026-07-10T08:22:03+00:00</time>
      </trkpt>
      <trkpt lat="44.70558" lon="6.33656">
        <ele>2031.1</ele>
        <time>2026-07-10T08:22:06+00:00</time>
      </trkpt>
      <trkpt lat="44.7056" lon="6.33657">
        <ele>2031</ele>
        <time>2026-07-10T08:22:07+00:00</time>
      </trkpt>
      <trkpt lat="44.70561" lon="6.3366">
        <ele>2030.8</ele>
        <time>2026-07-10T08:22:09+00:00</time>
      </trkpt>
      <trkpt lat="44.70562" lon="6.33662">
        <ele>2030.5</ele>
        <time>2026-07-10T08:22:12+00:00</time>
      </trkpt>
      <trkpt lat="44.70562" lon="6.33665">
        <ele>2029.8</ele>
        <time>2026-07-10T08:22:14+00:00</time>
      </trkpt>
      <trkpt lat="44.70563" lon="6.3367">
        <ele>2030.3</ele>
        <time>2026-07-10T08:22:16+00:00</time>
      </trkpt>
      <trkpt lat="44.70563" lon="6.33673">
        <ele>2031</ele>
        <time>2026-07-10T08:22:19+00:00</time>
      </trkpt>
      <trkpt lat="44.70564" lon="6.33676">
        <ele>2031.8</ele>
        <time>2026-07-10T08:22:21+00:00</time>
      </trkpt>
      <trkpt lat="44.70564" lon="6.33678">
        <ele>2032.3</ele>
        <time>2026-07-10T08:22:22+00:00</time>
      </trkpt>
      <trkpt lat="44.70563" lon="6.33681">
        <ele>2032.7</ele>
        <time>2026-07-10T08:22:24+00:00</time>
      </trkpt>
      <trkpt lat="44.70562" lon="6.33685">
        <ele>2035</ele>
        <time>2026-07-10T08:22:27+00:00</time>
      </trkpt>
      <trkpt lat="44.70561" lon="6.33689">
        <ele>2034</ele>
        <time>2026-07-10T08:22:29+00:00</time>
      </trkpt>
      <trkpt lat="44.70561" lon="6.33692">
        <ele>2034.6</ele>
        <time>2026-07-10T08:22:30+00:00</time>
      </trkpt>
      <trkpt lat="44.7056" lon="6.33694">
        <ele>2034.9</ele>
        <time>2026-07-10T08:22:33+00:00</time>
      </trkpt>
      <trkpt lat="44.7056" lon="6.33698">
        <ele>2035.7</ele>
        <time>2026-07-10T08:22:34+00:00</time>
      </trkpt>
      <trkpt lat="44.70559" lon="6.337">
        <ele>2035</ele>
        <time>2026-07-10T08:22:37+00:00</time>
      </trkpt>
      <trkpt lat="44.70558" lon="6.33703">
        <ele>2036.4</ele>
        <time>2026-07-10T08:22:39+00:00</time>
      </trkpt>
      <trkpt lat="44.70557" lon="6.33705">
        <ele>2036.6</ele>
        <time>2026-07-10T08:22:40+00:00</time>
      </trkpt>
      <trkpt lat="44.70556" lon="6.33707">
        <ele>2036.8</ele>
        <time>2026-07-10T08:22:42+00:00</time>
      </trkpt>
      <trkpt lat="44.70555" lon="6.3371">
        <ele>2037.3</ele>
        <time>2026-07-10T08:22:46+00:00</time>
      </trkpt>
      <trkpt lat="44.70554" lon="6.33713">
        <ele>2037.7</ele>
        <time>2026-07-10T08:22:53+00:00</time>
      </trkpt>
      <trkpt lat="44.70553" lon="6.33715">
        <ele>2038</ele>
        <time>2026-07-10T08:22:54+00:00</time>
      </trkpt>
      <trkpt lat="44.70552" lon="6.33718">
        <ele>2040</ele>
        <time>2026-07-10T08:22:57+00:00</time>
      </trkpt>
      <trkpt lat="44.70552" lon="6.3372">
        <ele>2038.9</ele>
        <time>2026-07-10T08:22:59+00:00</time>
      </trkpt>
      <trkpt lat="44.70551" lon="6.33724">
        <ele>2039.6</ele>
        <time>2026-07-10T08:23:01+00:00</time>
      </trkpt>
      <trkpt lat="44.70551" lon="6.33727">
        <ele>2040.3</ele>
        <time>2026-07-10T08:23:02+00:00</time>
      </trkpt>
      <trkpt lat="44.70552" lon="6.3373">
        <ele>2041.2</ele>
        <time>2026-07-10T08:23:05+00:00</time>
      </trkpt>
      <trkpt lat="44.70554" lon="6.33731">
        <ele>2042</ele>
        <time>2026-07-10T08:23:07+00:00</time>
      </trkpt>
      <trkpt lat="44.70557" lon="6.33731">
        <ele>2042.5</ele>
        <time>2026-07-10T08:23:09+00:00</time>
      </trkpt>
      <trkpt lat="44.70559" lon="6.33731">
        <ele>2043</ele>
        <time>2026-07-10T08:23:11+00:00</time>
      </trkpt>
      <trkpt lat="44.70561" lon="6.33732">
        <ele>2043.6</ele>
        <time>2026-07-10T08:23:14+00:00</time>
      </trkpt>
      <trkpt lat="44.70563" lon="6.33732">
        <ele>2044.1</ele>
        <time>2026-07-10T08:23:16+00:00</time>
      </trkpt>
      <trkpt lat="44.70565" lon="6.33733">
        <ele>2044.8</ele>
        <time>2026-07-10T08:23:18+00:00</time>
      </trkpt>
      <trkpt lat="44.70566" lon="6.33736">
        <ele>2045.7</ele>
        <time>2026-07-10T08:23:21+00:00</time>
      </trkpt>
      <trkpt lat="44.70566" lon="6.33739">
        <ele>2046.5</ele>
        <time>2026-07-10T08:23:23+00:00</time>
      </trkpt>
      <trkpt lat="44.70565" lon="6.33741">
        <ele>2046.8</ele>
        <time>2026-07-10T08:23:26+00:00</time>
      </trkpt>
      <trkpt lat="44.70565" lon="6.33744">
        <ele>2047.5</ele>
        <time>2026-07-10T08:23:29+00:00</time>
      </trkpt>
      <trkpt lat="44.70566" lon="6.33746">
        <ele>2048.2</ele>
        <time>2026-07-10T08:23:32+00:00</time>
      </trkpt>
      <trkpt lat="44.70567" lon="6.33749">
        <ele>2049.2</ele>
        <time>2026-07-10T08:23:34+00:00</time>
      </trkpt>
      <trkpt lat="44.70569" lon="6.33752">
        <ele>2051</ele>
        <time>2026-07-10T08:23:37+00:00</time>
      </trkpt>
      <trkpt lat="44.70571" lon="6.33753">
        <ele>2051.1</ele>
        <time>2026-07-10T08:23:38+00:00</time>
      </trkpt>
      <trkpt lat="44.70574" lon="6.33754">
        <ele>2052</ele>
        <time>2026-07-10T08:23:41+00:00</time>
      </trkpt>
      <trkpt lat="44.70576" lon="6.33756">
        <ele>2052.9</ele>
        <time>2026-07-10T08:23:43+00:00</time>
      </trkpt>
      <trkpt lat="44.70577" lon="6.33759">
        <ele>2053.9</ele>
        <time>2026-07-10T08:23:46+00:00</time>
      </trkpt>
      <trkpt lat="44.70577" lon="6.33763">
        <ele>2054.9</ele>
        <time>2026-07-10T08:23:50+00:00</time>
      </trkpt>
      <trkpt lat="44.70577" lon="6.33766">
        <ele>2055.7</ele>
        <time>2026-07-10T08:23:53+00:00</time>
      </trkpt>
      <trkpt lat="44.70577" lon="6.33769">
        <ele>2056.4</ele>
        <time>2026-07-10T08:23:55+00:00</time>
      </trkpt>
      <trkpt lat="44.70576" lon="6.33771">
        <ele>2054</ele>
        <time>2026-07-10T08:23:57+00:00</time>
      </trkpt>
      <trkpt lat="44.70575" lon="6.33774">
        <ele>2057.2</ele>
        <time>2026-07-10T08:23:58+00:00</time>
      </trkpt>
      <trkpt lat="44.70574" lon="6.33777">
        <ele>2057.8</ele>
        <time>2026-07-10T08:24:01+00:00</time>
      </trkpt>
      <trkpt lat="44.70573" lon="6.33779">
        <ele>2058</ele>
        <time>2026-07-10T08:24:02+00:00</time>
      </trkpt>
      <trkpt lat="44.70572" lon="6.33781">
        <ele>2058.2</ele>
        <time>2026-07-10T08:24:05+00:00</time>
      </trkpt>
      <trkpt lat="44.7057" lon="6.33783">
        <ele>2057</ele>
        <time>2026-07-10T08:24:07+00:00</time>
      </trkpt>
      <trkpt lat="44.70568" lon="6.33785">
        <ele>2058.1</ele>
        <time>2026-07-10T08:24:08+00:00</time>
      </trkpt>
      <trkpt lat="44.70567" lon="6.33787">
        <ele>2058.2</ele>
        <time>2026-07-10T08:24:10+00:00</time>
      </trkpt>
      <trkpt lat="44.70567" lon="6.33789">
        <ele>2058.6</ele>
        <time>2026-07-10T08:24:12+00:00</time>
      </trkpt>
      <trkpt lat="44.70566" lon="6.33793">
        <ele>2059.1</ele>
        <time>2026-07-10T08:24:15+00:00</time>
      </trkpt>
      <trkpt lat="44.70565" lon="6.33796">
        <ele>2059.3</ele>
        <time>2026-07-10T08:24:16+00:00</time>
      </trkpt>
      <trkpt lat="44.70564" lon="6.33799">
        <ele>2059.6</ele>
        <time>2026-07-10T08:24:19+00:00</time>
      </trkpt>
      <trkpt lat="44.70564" lon="6.33802">
        <ele>2060.1</ele>
        <time>2026-07-10T08:24:20+00:00</time>
      </trkpt>
      <trkpt lat="44.70564" lon="6.33805">
        <ele>2060.6</ele>
        <time>2026-07-10T08:24:22+00:00</time>
      </trkpt>
      <trkpt lat="44.70564" lon="6.33807">
        <ele>2061</ele>
        <time>2026-07-10T08:24:25+00:00</time>
      </trkpt>
      <trkpt lat="44.70564" lon="6.3381">
        <ele>2062</ele>
        <time>2026-07-10T08:24:27+00:00</time>
      </trkpt>
      <trkpt lat="44.70564" lon="6.33813">
        <ele>2062.2</ele>
        <time>2026-07-10T08:24:29+00:00</time>
      </trkpt>
      <trkpt lat="44.70564" lon="6.33816">
        <ele>2062.8</ele>
        <time>2026-07-10T08:24:31+00:00</time>
      </trkpt>
      <trkpt lat="44.70565" lon="6.33819">
        <ele>2063.8</ele>
        <time>2026-07-10T08:24:32+00:00</time>
      </trkpt>
      <trkpt lat="44.70565" lon="6.33822">
        <ele>2064.4</ele>
        <time>2026-07-10T08:24:35+00:00</time>
      </trkpt>
      <trkpt lat="44.70564" lon="6.33825">
        <ele>2062</ele>
        <time>2026-07-10T08:24:37+00:00</time>
      </trkpt>
      <trkpt lat="44.70564" lon="6.33828">
        <ele>2065.3</ele>
        <time>2026-07-10T08:24:38+00:00</time>
      </trkpt>
      <trkpt lat="44.70564" lon="6.33831">
        <ele>2065.9</ele>
        <time>2026-07-10T08:24:40+00:00</time>
      </trkpt>
      <trkpt lat="44.70564" lon="6.33834">
        <ele>2066.5</ele>
        <time>2026-07-10T08:24:42+00:00</time>
      </trkpt>
      <trkpt lat="44.70563" lon="6.33837">
        <ele>2066.6</ele>
        <time>2026-07-10T08:24:44+00:00</time>
      </trkpt>
      <trkpt lat="44.70563" lon="6.3384">
        <ele>2067.2</ele>
        <time>2026-07-10T08:24:46+00:00</time>
      </trkpt>
      <trkpt lat="44.70562" lon="6.33842">
        <ele>2067.2</ele>
        <time>2026-07-10T08:24:48+00:00</time>
      </trkpt>
      <trkpt lat="44.70562" lon="6.33845">
        <ele>2067.7</ele>
        <time>2026-07-10T08:24:50+00:00</time>
      </trkpt>
      <trkpt lat="44.70561" lon="6.33848">
        <ele>2067.9</ele>
        <time>2026-07-10T08:24:53+00:00</time>
      </trkpt>
      <trkpt lat="44.70561" lon="6.3385">
        <ele>2068.3</ele>
        <time>2026-07-10T08:24:55+00:00</time>
      </trkpt>
      <trkpt lat="44.7056" lon="6.33853">
        <ele>2067</ele>
        <time>2026-07-10T08:24:57+00:00</time>
      </trkpt>
      <trkpt lat="44.7056" lon="6.33856">
        <ele>2069</ele>
        <time>2026-07-10T08:24:58+00:00</time>
      </trkpt>
      <trkpt lat="44.70561" lon="6.33859">
        <ele>2070</ele>
        <time>2026-07-10T08:25:00+00:00</time>
      </trkpt>
      <trkpt lat="44.70561" lon="6.33862">
        <ele>2070.5</ele>
        <time>2026-07-10T08:25:03+00:00</time>
      </trkpt>
      <trkpt lat="44.70562" lon="6.33865">
        <ele>2071.5</ele>
        <time>2026-07-10T08:25:05+00:00</time>
      </trkpt>
      <trkpt lat="44.70563" lon="6.33868">
        <ele>2070</ele>
        <time>2026-07-10T08:25:07+00:00</time>
      </trkpt>
      <trkpt lat="44.70564" lon="6.3387">
        <ele>2073.3</ele>
        <time>2026-07-10T08:25:09+00:00</time>
      </trkpt>
      <trkpt lat="44.70565" lon="6.33873">
        <ele>2074.4</ele>
        <time>2026-07-10T08:25:12+00:00</time>
      </trkpt>
      <trkpt lat="44.70565" lon="6.33876">
        <ele>2074.9</ele>
        <time>2026-07-10T08:25:14+00:00</time>
      </trkpt>
      <trkpt lat="44.70566" lon="6.33879">
        <ele>2076</ele>
        <time>2026-07-10T08:25:15+00:00</time>
      </trkpt>
      <trkpt lat="44.70568" lon="6.33881">
        <ele>2077.3</ele>
        <time>2026-07-10T08:25:19+00:00</time>
      </trkpt>
      <trkpt lat="44.7057" lon="6.33882">
        <ele>2078.4</ele>
        <time>2026-07-10T08:25:21+00:00</time>
      </trkpt>
      <trkpt lat="44.70572" lon="6.33882">
        <ele>2079.3</ele>
        <time>2026-07-10T08:25:24+00:00</time>
      </trkpt>
      <trkpt lat="44.70573" lon="6.33881">
        <ele>2079.6</ele>
        <time>2026-07-10T08:25:26+00:00</time>
      </trkpt>
      <trkpt lat="44.70574" lon="6.33883">
        <ele>2080.4</ele>
        <time>2026-07-10T08:25:29+00:00</time>
      </trkpt>
      <trkpt lat="44.70573" lon="6.33885">
        <ele>2080.4</ele>
        <time>2026-07-10T08:25:32+00:00</time>
      </trkpt>
      <trkpt lat="44.70573" lon="6.33888">
        <ele>2081</ele>
        <time>2026-07-10T08:25:33+00:00</time>
      </trkpt>
      <trkpt lat="44.70572" lon="6.3389">
        <ele>2080.9</ele>
        <time>2026-07-10T08:25:36+00:00</time>
      </trkpt>
      <trkpt lat="44.70572" lon="6.33893">
        <ele>2081.4</ele>
        <time>2026-07-10T08:25:39+00:00</time>
      </trkpt>
      <trkpt lat="44.70571" lon="6.33896">
        <ele>2081.5</ele>
        <time>2026-07-10T08:25:43+00:00</time>
      </trkpt>
      <trkpt lat="44.70572" lon="6.33899">
        <ele>2082.5</ele>
        <time>2026-07-10T08:25:48+00:00</time>
      </trkpt>
      <trkpt lat="44.70571" lon="6.33901">
        <ele>2082.4</ele>
        <time>2026-07-10T08:25:51+00:00</time>
      </trkpt>
      <trkpt lat="44.7057" lon="6.33904">
        <ele>2082.5</ele>
        <time>2026-07-10T08:25:53+00:00</time>
      </trkpt>
      <trkpt lat="44.70569" lon="6.33907">
        <ele>2082.6</ele>
        <time>2026-07-10T08:25:54+00:00</time>
      </trkpt>
      <trkpt lat="44.70568" lon="6.3391">
        <ele>2082.6</ele>
        <time>2026-07-10T08:25:56+00:00</time>
      </trkpt>
      <trkpt lat="44.70569" lon="6.33913">
        <ele>2083.6</ele>
        <time>2026-07-10T08:25:59+00:00</time>
      </trkpt>
      <trkpt lat="44.7057" lon="6.33915">
        <ele>2084.5</ele>
        <time>2026-07-10T08:26:01+00:00</time>
      </trkpt>
      <trkpt lat="44.70571" lon="6.33919">
        <ele>2085.7</ele>
        <time>2026-07-10T08:26:03+00:00</time>
      </trkpt>
      <trkpt lat="44.70572" lon="6.33921">
        <ele>2086.5</ele>
        <time>2026-07-10T08:26:05+00:00</time>
      </trkpt>
      <trkpt lat="44.70573" lon="6.33925">
        <ele>2087.7</ele>
        <time>2026-07-10T08:26:08+00:00</time>
      </trkpt>
      <trkpt lat="44.70573" lon="6.33928">
        <ele>2088.3</ele>
        <time>2026-07-10T08:26:11+00:00</time>
      </trkpt>
      <trkpt lat="44.70574" lon="6.3393">
        <ele>2089.2</ele>
        <time>2026-07-10T08:26:13+00:00</time>
      </trkpt>
      <trkpt lat="44.70573" lon="6.33933">
        <ele>2089.3</ele>
        <time>2026-07-10T08:26:14+00:00</time>
      </trkpt>
      <trkpt lat="44.70573" lon="6.33936">
        <ele>2086</ele>
        <time>2026-07-10T08:26:17+00:00</time>
      </trkpt>
      <trkpt lat="44.70573" lon="6.33939">
        <ele>2090.4</ele>
        <time>2026-07-10T08:26:19+00:00</time>
      </trkpt>
      <trkpt lat="44.70573" lon="6.33942">
        <ele>2091</ele>
        <time>2026-07-10T08:26:21+00:00</time>
      </trkpt>
      <trkpt lat="44.70573" lon="6.33946">
        <ele>2091.7</ele>
        <time>2026-07-10T08:26:25+00:00</time>
      </trkpt>
      <trkpt lat="44.70573" lon="6.33949">
        <ele>2089</ele>
        <time>2026-07-10T08:26:27+00:00</time>
      </trkpt>
      <trkpt lat="44.70573" lon="6.33952">
        <ele>2092.7</ele>
        <time>2026-07-10T08:26:29+00:00</time>
      </trkpt>
      <trkpt lat="44.70573" lon="6.33955">
        <ele>2093.3</ele>
        <time>2026-07-10T08:26:32+00:00</time>
      </trkpt>
      <trkpt lat="44.70574" lon="6.33958">
        <ele>2094.4</ele>
        <time>2026-07-10T08:26:35+00:00</time>
      </trkpt>
      <trkpt lat="44.70574" lon="6.33961">
        <ele>2094.9</ele>
        <time>2026-07-10T08:26:38+00:00</time>
      </trkpt>
      <trkpt lat="44.70575" lon="6.33965">
        <ele>2096.3</ele>
        <time>2026-07-10T08:26:41+00:00</time>
      </trkpt>
      <trkpt lat="44.70575" lon="6.33967">
        <ele>2096.6</ele>
        <time>2026-07-10T08:26:43+00:00</time>
      </trkpt>
      <trkpt lat="44.70575" lon="6.33971">
        <ele>2097.4</ele>
        <time>2026-07-10T08:26:46+00:00</time>
      </trkpt>
      <trkpt lat="44.70576" lon="6.33975">
        <ele>2098.8</ele>
        <time>2026-07-10T08:26:48+00:00</time>
      </trkpt>
      <trkpt lat="44.70576" lon="6.33978">
        <ele>2099.4</ele>
        <time>2026-07-10T08:26:50+00:00</time>
      </trkpt>
      <trkpt lat="44.70576" lon="6.33981">
        <ele>2100</ele>
        <time>2026-07-10T08:26:52+00:00</time>
      </trkpt>
      <trkpt lat="44.70577" lon="6.33983">
        <ele>2101</ele>
        <time>2026-07-10T08:26:54+00:00</time>
      </trkpt>
      <trkpt lat="44.70577" lon="6.33986">
        <ele>2097</ele>
        <time>2026-07-10T08:26:57+00:00</time>
      </trkpt>
      <trkpt lat="44.70578" lon="6.33989">
        <ele>2102.8</ele>
        <time>2026-07-10T08:26:59+00:00</time>
      </trkpt>
      <trkpt lat="44.70578" lon="6.33992">
        <ele>2103.4</ele>
        <time>2026-07-10T08:27:02+00:00</time>
      </trkpt>
      <trkpt lat="44.70577" lon="6.33994">
        <ele>2103.2</ele>
        <time>2026-07-10T08:27:04+00:00</time>
      </trkpt>
      <trkpt lat="44.70576" lon="6.33997">
        <ele>2103.2</ele>
        <time>2026-07-10T08:27:06+00:00</time>
      </trkpt>
      <trkpt lat="44.70576" lon="6.33999">
        <ele>2099</ele>
        <time>2026-07-10T08:27:07+00:00</time>
      </trkpt>
      <trkpt lat="44.70575" lon="6.34002">
        <ele>2103.9</ele>
        <time>2026-07-10T08:27:09+00:00</time>
      </trkpt>
      <trkpt lat="44.70574" lon="6.34005">
        <ele>2104.3</ele>
        <time>2026-07-10T08:27:11+00:00</time>
      </trkpt>
      <trkpt lat="44.70573" lon="6.34007">
        <ele>2104.4</ele>
        <time>2026-07-10T08:27:13+00:00</time>
      </trkpt>
      <trkpt lat="44.70572" lon="6.34009">
        <ele>2104.6</ele>
        <time>2026-07-10T08:27:16+00:00</time>
      </trkpt>
      <trkpt lat="44.70571" lon="6.34011">
        <ele>2104.8</ele>
        <time>2026-07-10T08:27:18+00:00</time>
      </trkpt>
      <trkpt lat="44.7057" lon="6.34014">
        <ele>2105.3</ele>
        <time>2026-07-10T08:27:19+00:00</time>
      </trkpt>
      <trkpt lat="44.70569" lon="6.34018">
        <ele>2106.3</ele>
        <time>2026-07-10T08:27:23+00:00</time>
      </trkpt>
      <trkpt lat="44.70568" lon="6.34021">
        <ele>2106.9</ele>
        <time>2026-07-10T08:27:24+00:00</time>
      </trkpt>
      <trkpt lat="44.70568" lon="6.34024">
        <ele>2108</ele>
        <time>2026-07-10T08:27:26+00:00</time>
      </trkpt>
      <trkpt lat="44.70569" lon="6.34027">
        <ele>2109.5</ele>
        <time>2026-07-10T08:27:28+00:00</time>
      </trkpt>
      <trkpt lat="44.70568" lon="6.3403">
        <ele>2110.4</ele>
        <time>2026-07-10T08:27:30+00:00</time>
      </trkpt>
      <trkpt lat="44.70568" lon="6.34032">
        <ele>2111.3</ele>
        <time>2026-07-10T08:27:32+00:00</time>
      </trkpt>
      <trkpt lat="44.70566" lon="6.34034">
        <ele>2111.4</ele>
        <time>2026-07-10T08:27:34+00:00</time>
      </trkpt>
      <trkpt lat="44.70564" lon="6.34037">
        <ele>2112</ele>
        <time>2026-07-10T08:27:39+00:00</time>
      </trkpt>
      <trkpt lat="44.70562" lon="6.34039">
        <ele>2112.2</ele>
        <time>2026-07-10T08:27:42+00:00</time>
      </trkpt>
      <trkpt lat="44.7056" lon="6.3404">
        <ele>2111.9</ele>
        <time>2026-07-10T08:27:44+00:00</time>
      </trkpt>
      <trkpt lat="44.70559" lon="6.34042">
        <ele>2107</ele>
        <time>2026-07-10T08:27:47+00:00</time>
      </trkpt>
      <trkpt lat="44.70558" lon="6.34044">
        <ele>2113.1</ele>
        <time>2026-07-10T08:27:49+00:00</time>
      </trkpt>
      <trkpt lat="44.70556" lon="6.34046">
        <ele>2113.3</ele>
        <time>2026-07-10T08:27:51+00:00</time>
      </trkpt>
      <trkpt lat="44.70554" lon="6.34048">
        <ele>2113.6</ele>
        <time>2026-07-10T08:27:52+00:00</time>
      </trkpt>
      <trkpt lat="44.70552" lon="6.3405">
        <ele>2113.9</ele>
        <time>2026-07-10T08:27:54+00:00</time>
      </trkpt>
      <trkpt lat="44.70551" lon="6.34053">
        <ele>2115</ele>
        <time>2026-07-10T08:27:56+00:00</time>
      </trkpt>
      <trkpt lat="44.70549" lon="6.34056">
        <ele>2115.6</ele>
        <time>2026-07-10T08:27:59+00:00</time>
      </trkpt>
      <trkpt lat="44.70548" lon="6.34058">
        <ele>2115.9</ele>
        <time>2026-07-10T08:28:00+00:00</time>
      </trkpt>
      <trkpt lat="44.70546" lon="6.3406">
        <ele>2115.8</ele>
        <time>2026-07-10T08:28:02+00:00</time>
      </trkpt>
      <trkpt lat="44.70545" lon="6.34062">
        <ele>2116.1</ele>
        <time>2026-07-10T08:28:05+00:00</time>
      </trkpt>
      <trkpt lat="44.70544" lon="6.34064">
        <ele>2112</ele>
        <time>2026-07-10T08:28:07+00:00</time>
      </trkpt>
      <trkpt lat="44.70542" lon="6.34066">
        <ele>2116.2</ele>
        <time>2026-07-10T08:28:08+00:00</time>
      </trkpt>
      <trkpt lat="44.70541" lon="6.34068">
        <ele>2116.5</ele>
        <time>2026-07-10T08:28:11+00:00</time>
      </trkpt>
      <trkpt lat="44.70539" lon="6.3407">
        <ele>2116.2</ele>
        <time>2026-07-10T08:28:13+00:00</time>
      </trkpt>
      <trkpt lat="44.70538" lon="6.34072">
        <ele>2116.4</ele>
        <time>2026-07-10T08:28:15+00:00</time>
      </trkpt>
      <trkpt lat="44.70538" lon="6.34074">
        <ele>2117.1</ele>
        <time>2026-07-10T08:28:16+00:00</time>
      </trkpt>
      <trkpt lat="44.70536" lon="6.34077">
        <ele>2117.1</ele>
        <time>2026-07-10T08:28:18+00:00</time>
      </trkpt>
      <trkpt lat="44.70536" lon="6.3408">
        <ele>2118.1</ele>
        <time>2026-07-10T08:28:21+00:00</time>
      </trkpt>
      <trkpt lat="44.70535" lon="6.34082">
        <ele>2118.2</ele>
        <time>2026-07-10T08:28:22+00:00</time>
      </trkpt>
      <trkpt lat="44.70534" lon="6.34086">
        <ele>2118.7</ele>
        <time>2026-07-10T08:28:25+00:00</time>
      </trkpt>
      <trkpt lat="44.70534" lon="6.34088">
        <ele>2116</ele>
        <time>2026-07-10T08:28:27+00:00</time>
      </trkpt>
      <trkpt lat="44.70533" lon="6.34091">
        <ele>2119.2</ele>
        <time>2026-07-10T08:28:28+00:00</time>
      </trkpt>
      <trkpt lat="44.70533" lon="6.34095">
        <ele>2120</ele>
        <time>2026-07-10T08:28:30+00:00</time>
      </trkpt>
      <trkpt lat="44.70532" lon="6.34098">
        <ele>2120.1</ele>
        <time>2026-07-10T08:28:32+00:00</time>
      </trkpt>
      <trkpt lat="44.70532" lon="6.34101">
        <ele>2120.7</ele>
        <time>2026-07-10T08:28:35+00:00</time>
      </trkpt>
      <trkpt lat="44.70531" lon="6.34104">
        <ele>2118</ele>
        <time>2026-07-10T08:28:37+00:00</time>
      </trkpt>
      <trkpt lat="44.70531" lon="6.34108">
        <ele>2121.5</ele>
        <time>2026-07-10T08:28:38+00:00</time>
      </trkpt>
      <trkpt lat="44.70531" lon="6.34111">
        <ele>2122.1</ele>
        <time>2026-07-10T08:28:40+00:00</time>
      </trkpt>
      <trkpt lat="44.7053" lon="6.34115">
        <ele>2121.9</ele>
        <time>2026-07-10T08:28:42+00:00</time>
      </trkpt>
      <trkpt lat="44.7053" lon="6.34118">
        <ele>2122.2</ele>
        <time>2026-07-10T08:28:44+00:00</time>
      </trkpt>
      <trkpt lat="44.70531" lon="6.34121">
        <ele>2123.2</ele>
        <time>2026-07-10T08:28:46+00:00</time>
      </trkpt>
      <trkpt lat="44.70531" lon="6.34124">
        <ele>2123.6</ele>
        <time>2026-07-10T08:28:48+00:00</time>
      </trkpt>
      <trkpt lat="44.70531" lon="6.34127">
        <ele>2123.9</ele>
        <time>2026-07-10T08:28:50+00:00</time>
      </trkpt>
      <trkpt lat="44.70531" lon="6.3413">
        <ele>2124.3</ele>
        <time>2026-07-10T08:28:53+00:00</time>
      </trkpt>
      <trkpt lat="44.70532" lon="6.34133">
        <ele>2125.3</ele>
        <time>2026-07-10T08:28:54+00:00</time>
      </trkpt>
      <trkpt lat="44.70532" lon="6.34135">
        <ele>2125.6</ele>
        <time>2026-07-10T08:28:56+00:00</time>
      </trkpt>
      <trkpt lat="44.70532" lon="6.34138">
        <ele>2125.9</ele>
        <time>2026-07-10T08:28:58+00:00</time>
      </trkpt>
      <trkpt lat="44.70532" lon="6.34142">
        <ele>2126.2</ele>
        <time>2026-07-10T08:29:00+00:00</time>
      </trkpt>
      <trkpt lat="44.70533" lon="6.34145">
        <ele>2127.1</ele>
        <time>2026-07-10T08:29:03+00:00</time>
      </trkpt>
      <trkpt lat="44.70533" lon="6.34148">
        <ele>2127.3</ele>
        <time>2026-07-10T08:29:05+00:00</time>
      </trkpt>
      <trkpt lat="44.70533" lon="6.34151">
        <ele>2127.5</ele>
        <time>2026-07-10T08:29:06+00:00</time>
      </trkpt>
      <trkpt lat="44.70533" lon="6.34154">
        <ele>2127.6</ele>
        <time>2026-07-10T08:29:08+00:00</time>
      </trkpt>
      <trkpt lat="44.70534" lon="6.34157">
        <ele>2128.5</ele>
        <time>2026-07-10T08:29:11+00:00</time>
      </trkpt>
      <trkpt lat="44.70535" lon="6.3416">
        <ele>2129.3</ele>
        <time>2026-07-10T08:29:12+00:00</time>
      </trkpt>
      <trkpt lat="44.70535" lon="6.34162">
        <ele>2129.4</ele>
        <time>2026-07-10T08:29:14+00:00</time>
      </trkpt>
      <trkpt lat="44.70536" lon="6.34165">
        <ele>2124</ele>
        <time>2026-07-10T08:29:17+00:00</time>
      </trkpt>
      <trkpt lat="44.70538" lon="6.34165">
        <ele>2131.5</ele>
        <time>2026-07-10T08:29:19+00:00</time>
      </trkpt>
      <trkpt lat="44.70539" lon="6.34168">
        <ele>2132.6</ele>
        <time>2026-07-10T08:29:20+00:00</time>
      </trkpt>
      <trkpt lat="44.70541" lon="6.3417">
        <ele>2134.2</ele>
        <time>2026-07-10T08:29:23+00:00</time>
      </trkpt>
      <trkpt lat="44.70543" lon="6.34173">
        <ele>2128</ele>
        <time>2026-07-10T08:29:27+00:00</time>
      </trkpt>
      <trkpt lat="44.70544" lon="6.34176">
        <ele>2136.6</ele>
        <time>2026-07-10T08:29:30+00:00</time>
      </trkpt>
      <trkpt lat="44.70545" lon="6.34178">
        <ele>2137.3</ele>
        <time>2026-07-10T08:29:32+00:00</time>
      </trkpt>
      <trkpt lat="44.70546" lon="6.34181">
        <ele>2137.9</ele>
        <time>2026-07-10T08:29:33+00:00</time>
      </trkpt>
      <trkpt lat="44.70547" lon="6.34183">
        <ele>2138.4</ele>
        <time>2026-07-10T08:29:36+00:00</time>
      </trkpt>
      <trkpt lat="44.70548" lon="6.34186">
        <ele>2138.9</ele>
        <time>2026-07-10T08:29:38+00:00</time>
      </trkpt>
      <trkpt lat="44.7055" lon="6.34189">
        <ele>2139.4</ele>
        <time>2026-07-10T08:29:41+00:00</time>
      </trkpt>
      <trkpt lat="44.70551" lon="6.34192">
        <ele>2139.6</ele>
        <time>2026-07-10T08:29:43+00:00</time>
      </trkpt>
      <trkpt lat="44.70552" lon="6.34194">
        <ele>2139.6</ele>
        <time>2026-07-10T08:29:46+00:00</time>
      </trkpt>
      <trkpt lat="44.70554" lon="6.34198">
        <ele>2140.4</ele>
        <time>2026-07-10T08:29:49+00:00</time>
      </trkpt>
      <trkpt lat="44.70557" lon="6.34199">
        <ele>2141.6</ele>
        <time>2026-07-10T08:29:51+00:00</time>
      </trkpt>
      <trkpt lat="44.70558" lon="6.34201">
        <ele>2142.4</ele>
        <time>2026-07-10T08:29:53+00:00</time>
      </trkpt>
      <trkpt lat="44.7056" lon="6.34203">
        <ele>2143.9</ele>
        <time>2026-07-10T08:29:55+00:00</time>
      </trkpt>
      <trkpt lat="44.70561" lon="6.34206">
        <ele>2135</ele>
        <time>2026-07-10T08:29:57+00:00</time>
      </trkpt>
      <trkpt lat="44.70562" lon="6.34207">
        <ele>2145.4</ele>
        <time>2026-07-10T08:29:59+00:00</time>
      </trkpt>
      <trkpt lat="44.70564" lon="6.3421">
        <ele>2146.7</ele>
        <time>2026-07-10T08:30:01+00:00</time>
      </trkpt>
      <trkpt lat="44.70565" lon="6.34212">
        <ele>2147.3</ele>
        <time>2026-07-10T08:30:03+00:00</time>
      </trkpt>
      <trkpt lat="44.70566" lon="6.34215">
        <ele>2147.9</ele>
        <time>2026-07-10T08:30:06+00:00</time>
      </trkpt>
      <trkpt lat="44.70567" lon="6.34218">
        <ele>2148.4</ele>
        <time>2026-07-10T08:30:08+00:00</time>
      </trkpt>
      <trkpt lat="44.70568" lon="6.34221">
        <ele>2148.9</ele>
        <time>2026-07-10T08:30:12+00:00</time>
      </trkpt>
      <trkpt lat="44.70569" lon="6.34224">
        <ele>2149.5</ele>
        <time>2026-07-10T08:30:14+00:00</time>
      </trkpt>
      <trkpt lat="44.70569" lon="6.34227">
        <ele>2149.8</ele>
        <time>2026-07-10T08:30:15+00:00</time>
      </trkpt>
      <trkpt lat="44.7057" lon="6.3423">
        <ele>2141</ele>
        <time>2026-07-10T08:30:17+00:00</time>
      </trkpt>
      <trkpt lat="44.70572" lon="6.34232">
        <ele>2151</ele>
        <time>2026-07-10T08:30:20+00:00</time>
      </trkpt>
      <trkpt lat="44.70573" lon="6.34235">
        <ele>2151.3</ele>
        <time>2026-07-10T08:30:22+00:00</time>
      </trkpt>
      <trkpt lat="44.70573" lon="6.34238">
        <ele>2151.4</ele>
        <time>2026-07-10T08:30:23+00:00</time>
      </trkpt>
      <trkpt lat="44.70575" lon="6.3424">
        <ele>2151.6</ele>
        <time>2026-07-10T08:30:25+00:00</time>
      </trkpt>
      <trkpt lat="44.70576" lon="6.34243">
        <ele>2151.7</ele>
        <time>2026-07-10T08:30:28+00:00</time>
      </trkpt>
      <trkpt lat="44.70578" lon="6.34245">
        <ele>2151.7</ele>
        <time>2026-07-10T08:30:29+00:00</time>
      </trkpt>
      <trkpt lat="44.70579" lon="6.34248">
        <ele>2151.5</ele>
        <time>2026-07-10T08:30:31+00:00</time>
      </trkpt>
      <trkpt lat="44.70581" lon="6.34249">
        <ele>2151.3</ele>
        <time>2026-07-10T08:30:33+00:00</time>
      </trkpt>
      <trkpt lat="44.70582" lon="6.34251">
        <ele>2151.3</ele>
        <time>2026-07-10T08:30:35+00:00</time>
      </trkpt>
      <trkpt lat="44.70584" lon="6.34253">
        <ele>2151.9</ele>
        <time>2026-07-10T08:30:38+00:00</time>
      </trkpt>
      <trkpt lat="44.70586" lon="6.34254">
        <ele>2152.9</ele>
        <time>2026-07-10T08:30:39+00:00</time>
      </trkpt>
      <trkpt lat="44.70589" lon="6.34256">
        <ele>2154.4</ele>
        <time>2026-07-10T08:30:41+00:00</time>
      </trkpt>
      <trkpt lat="44.7059" lon="6.34258">
        <ele>2154.9</ele>
        <time>2026-07-10T08:30:43+00:00</time>
      </trkpt>
      <trkpt lat="44.70592" lon="6.3426">
        <ele>2155.8</ele>
        <time>2026-07-10T08:30:46+00:00</time>
      </trkpt>
      <trkpt lat="44.70594" lon="6.34262">
        <ele>2156.4</ele>
        <time>2026-07-10T08:30:48+00:00</time>
      </trkpt>
      <trkpt lat="44.70596" lon="6.34263">
        <ele>2157</ele>
        <time>2026-07-10T08:30:50+00:00</time>
      </trkpt>
      <trkpt lat="44.70598" lon="6.34264">
        <ele>2157.4</ele>
        <time>2026-07-10T08:30:51+00:00</time>
      </trkpt>
      <trkpt lat="44.706" lon="6.34265">
        <ele>2157.8</ele>
        <time>2026-07-10T08:30:53+00:00</time>
      </trkpt>
      <trkpt lat="44.70602" lon="6.34267">
        <ele>2158.1</ele>
        <time>2026-07-10T08:30:55+00:00</time>
      </trkpt>
      <trkpt lat="44.70604" lon="6.34269">
        <ele>2149</ele>
        <time>2026-07-10T08:30:57+00:00</time>
      </trkpt>
      <trkpt lat="44.70605" lon="6.34271">
        <ele>2158</ele>
        <time>2026-07-10T08:30:59+00:00</time>
      </trkpt>
      <trkpt lat="44.70606" lon="6.34273">
        <ele>2157.8</ele>
        <time>2026-07-10T08:31:01+00:00</time>
      </trkpt>
      <trkpt lat="44.70608" lon="6.34276">
        <ele>2157.4</ele>
        <time>2026-07-10T08:31:03+00:00</time>
      </trkpt>
      <trkpt lat="44.7061" lon="6.34278">
        <ele>2157</ele>
        <time>2026-07-10T08:31:06+00:00</time>
      </trkpt>
      <trkpt lat="44.7061" lon="6.34281">
        <ele>2151</ele>
        <time>2026-07-10T08:31:07+00:00</time>
      </trkpt>
      <trkpt lat="44.70612" lon="6.34283">
        <ele>2157.9</ele>
        <time>2026-07-10T08:31:10+00:00</time>
      </trkpt>
      <trkpt lat="44.70615" lon="6.34285">
        <ele>2159.1</ele>
        <time>2026-07-10T08:31:11+00:00</time>
      </trkpt>
      <trkpt lat="44.70617" lon="6.34287">
        <ele>2159.8</ele>
        <time>2026-07-10T08:31:14+00:00</time>
      </trkpt>
      <trkpt lat="44.70618" lon="6.34291">
        <ele>2160.1</ele>
        <time>2026-07-10T08:31:16+00:00</time>
      </trkpt>
      <trkpt lat="44.7062" lon="6.34294">
        <ele>2160.5</ele>
        <time>2026-07-10T08:31:18+00:00</time>
      </trkpt>
      <trkpt lat="44.70621" lon="6.34297">
        <ele>2160.6</ele>
        <time>2026-07-10T08:31:19+00:00</time>
      </trkpt>
      <trkpt lat="44.70623" lon="6.34299">
        <ele>2160.8</ele>
        <time>2026-07-10T08:31:22+00:00</time>
      </trkpt>
      <trkpt lat="44.70624" lon="6.34302">
        <ele>2160.7</ele>
        <time>2026-07-10T08:31:23+00:00</time>
      </trkpt>
      <trkpt lat="44.70627" lon="6.34304">
        <ele>2160.8</ele>
        <time>2026-07-10T08:31:25+00:00</time>
      </trkpt>
      <trkpt lat="44.70629" lon="6.34306">
        <ele>2160.7</ele>
        <time>2026-07-10T08:31:28+00:00</time>
      </trkpt>
      <trkpt lat="44.70632" lon="6.34308">
        <ele>2160.8</ele>
        <time>2026-07-10T08:31:30+00:00</time>
      </trkpt>
      <trkpt lat="44.70634" lon="6.34309">
        <ele>2160.9</ele>
        <time>2026-07-10T08:31:31+00:00</time>
      </trkpt>
      <trkpt lat="44.70636" lon="6.34312">
        <ele>2160.8</ele>
        <time>2026-07-10T08:31:34+00:00</time>
      </trkpt>
      <trkpt lat="44.70637" lon="6.34314">
        <ele>2154</ele>
        <time>2026-07-10T08:31:37+00:00</time>
      </trkpt>
      <trkpt lat="44.70636" lon="6.34317">
        <ele>2160.8</ele>
        <time>2026-07-10T08:31:44+00:00</time>
      </trkpt>
      <trkpt lat="44.70637" lon="6.3432">
        <ele>2155</ele>
        <time>2026-07-10T08:31:47+00:00</time>
      </trkpt>
      <trkpt lat="44.70638" lon="6.34323">
        <ele>2160.5</ele>
        <time>2026-07-10T08:31:49+00:00</time>
      </trkpt>
      <trkpt lat="44.70639" lon="6.34326">
        <ele>2160.3</ele>
        <time>2026-07-10T08:31:50+00:00</time>
      </trkpt>
      <trkpt lat="44.70639" lon="6.34329">
        <ele>2160.2</ele>
        <time>2026-07-10T08:31:53+00:00</time>
      </trkpt>
      <trkpt lat="44.7064" lon="6.34332">
        <ele>2160.1</ele>
        <time>2026-07-10T08:31:54+00:00</time>
      </trkpt>
      <trkpt lat="44.70641" lon="6.34335">
        <ele>2156</ele>
        <time>2026-07-10T08:31:57+00:00</time>
      </trkpt>
      <trkpt lat="44.70642" lon="6.34337">
        <ele>2160.9</ele>
        <time>2026-07-10T08:31:59+00:00</time>
      </trkpt>
      <trkpt lat="44.70644" lon="6.34339">
        <ele>2161.4</ele>
        <time>2026-07-10T08:32:00+00:00</time>
      </trkpt>
      <trkpt lat="44.70645" lon="6.34341">
        <ele>2161.8</ele>
        <time>2026-07-10T08:32:02+00:00</time>
      </trkpt>
      <trkpt lat="44.70646" lon="6.34344">
        <ele>2162.3</ele>
        <time>2026-07-10T08:32:06+00:00</time>
      </trkpt>
      <trkpt lat="44.70647" lon="6.34347">
        <ele>2162.8</ele>
        <time>2026-07-10T08:32:08+00:00</time>
      </trkpt>
      <trkpt lat="44.70648" lon="6.3435">
        <ele>2163.3</ele>
        <time>2026-07-10T08:32:11+00:00</time>
      </trkpt>
      <trkpt lat="44.70649" lon="6.34352">
        <ele>2163.5</ele>
        <time>2026-07-10T08:32:13+00:00</time>
      </trkpt>
      <trkpt lat="44.7065" lon="6.34356">
        <ele>2164.1</ele>
        <time>2026-07-10T08:32:14+00:00</time>
      </trkpt>
      <trkpt lat="44.70651" lon="6.34359">
        <ele>2163</ele>
        <time>2026-07-10T08:32:17+00:00</time>
      </trkpt>
      <trkpt lat="44.70651" lon="6.34362">
        <ele>2164.8</ele>
        <time>2026-07-10T08:32:19+00:00</time>
      </trkpt>
      <trkpt lat="44.70652" lon="6.34366">
        <ele>2165</ele>
        <time>2026-07-10T08:32:21+00:00</time>
      </trkpt>
      <trkpt lat="44.70652" lon="6.34369">
        <ele>2165.3</ele>
        <time>2026-07-10T08:32:23+00:00</time>
      </trkpt>
      <trkpt lat="44.70652" lon="6.34372">
        <ele>2165.6</ele>
        <time>2026-07-10T08:32:24+00:00</time>
      </trkpt>
      <trkpt lat="44.70651" lon="6.34376">
        <ele>2166.1</ele>
        <time>2026-07-10T08:32:26+00:00</time>
      </trkpt>
      <trkpt lat="44.7065" lon="6.34378">
        <ele>2166.4</ele>
        <time>2026-07-10T08:32:29+00:00</time>
      </trkpt>
      <trkpt lat="44.7065" lon="6.34381">
        <ele>2166.7</ele>
        <time>2026-07-10T08:32:31+00:00</time>
      </trkpt>
      <trkpt lat="44.7065" lon="6.34384">
        <ele>2166.9</ele>
        <time>2026-07-10T08:32:32+00:00</time>
      </trkpt>
      <trkpt lat="44.7065" lon="6.34388">
        <ele>2167.3</ele>
        <time>2026-07-10T08:32:34+00:00</time>
      </trkpt>
      <trkpt lat="44.7065" lon="6.34391">
        <ele>2164</ele>
        <time>2026-07-10T08:32:37+00:00</time>
      </trkpt>
      <trkpt lat="44.70651" lon="6.34394">
        <ele>2167.7</ele>
        <time>2026-07-10T08:32:39+00:00</time>
      </trkpt>
      <trkpt lat="44.7065" lon="6.34398">
        <ele>2168.2</ele>
        <time>2026-07-10T08:32:41+00:00</time>
      </trkpt>
      <trkpt lat="44.70652" lon="6.34402">
        <ele>2168.3</ele>
        <time>2026-07-10T08:32:42+00:00</time>
      </trkpt>
      <trkpt lat="44.70651" lon="6.34405">
        <ele>2168.7</ele>
        <time>2026-07-10T08:32:44+00:00</time>
      </trkpt>
      <trkpt lat="44.70651" lon="6.34409">
        <ele>2169</ele>
        <time>2026-07-10T08:32:46+00:00</time>
      </trkpt>
      <trkpt lat="44.7065" lon="6.34412">
        <ele>2169.4</ele>
        <time>2026-07-10T08:32:48+00:00</time>
      </trkpt>
      <trkpt lat="44.7065" lon="6.34415">
        <ele>2169.7</ele>
        <time>2026-07-10T08:32:50+00:00</time>
      </trkpt>
      <trkpt lat="44.70649" lon="6.34419">
        <ele>2170.1</ele>
        <time>2026-07-10T08:32:52+00:00</time>
      </trkpt>
      <trkpt lat="44.70649" lon="6.34423">
        <ele>2170.5</ele>
        <time>2026-07-10T08:32:54+00:00</time>
      </trkpt>
      <trkpt lat="44.70649" lon="6.34427">
        <ele>2170.9</ele>
        <time>2026-07-10T08:32:56+00:00</time>
      </trkpt>
      <trkpt lat="44.70649" lon="6.3443">
        <ele>2171.2</ele>
        <time>2026-07-10T08:32:58+00:00</time>
      </trkpt>
      <trkpt lat="44.7065" lon="6.34434">
        <ele>2171.4</ele>
        <time>2026-07-10T08:33:01+00:00</time>
      </trkpt>
      <trkpt lat="44.7065" lon="6.34437">
        <ele>2171.7</ele>
        <time>2026-07-10T08:33:03+00:00</time>
      </trkpt>
      <trkpt lat="44.7065" lon="6.34441">
        <ele>2172.1</ele>
        <time>2026-07-10T08:33:05+00:00</time>
      </trkpt>
      <trkpt lat="44.7065" lon="6.34445">
        <ele>2172.4</ele>
        <time>2026-07-10T08:33:06+00:00</time>
      </trkpt>
      <trkpt lat="44.7065" lon="6.34449">
        <ele>2172.8</ele>
        <time>2026-07-10T08:33:08+00:00</time>
      </trkpt>
      <trkpt lat="44.7065" lon="6.34452">
        <ele>2173.1</ele>
        <time>2026-07-10T08:33:10+00:00</time>
      </trkpt>
      <trkpt lat="44.7065" lon="6.34456">
        <ele>2173.4</ele>
        <time>2026-07-10T08:33:12+00:00</time>
      </trkpt>
      <trkpt lat="44.7065" lon="6.3446">
        <ele>2173.7</ele>
        <time>2026-07-10T08:33:15+00:00</time>
      </trkpt>
      <trkpt lat="44.7065" lon="6.34463">
        <ele>2168</ele>
        <time>2026-07-10T08:33:17+00:00</time>
      </trkpt>
      <trkpt lat="44.7065" lon="6.34466">
        <ele>2174.3</ele>
        <time>2026-07-10T08:33:19+00:00</time>
      </trkpt>
      <trkpt lat="44.7065" lon="6.3447">
        <ele>2174.6</ele>
        <time>2026-07-10T08:33:21+00:00</time>
      </trkpt>
      <trkpt lat="44.70649" lon="6.34473">
        <ele>2175</ele>
        <time>2026-07-10T08:33:22+00:00</time>
      </trkpt>
      <trkpt lat="44.70648" lon="6.34476">
        <ele>2175.3</ele>
        <time>2026-07-10T08:33:24+00:00</time>
      </trkpt>
      <trkpt lat="44.70645" lon="6.34477">
        <ele>2171</ele>
        <time>2026-07-10T08:33:27+00:00</time>
      </trkpt>
      <trkpt lat="44.70642" lon="6.34478">
        <ele>2175.9</ele>
        <time>2026-07-10T08:33:29+00:00</time>
      </trkpt>
      <trkpt lat="44.7064" lon="6.34479">
        <ele>2176.2</ele>
        <time>2026-07-10T08:33:30+00:00</time>
      </trkpt>
      <trkpt lat="44.70638" lon="6.34477">
        <ele>2176.6</ele>
        <time>2026-07-10T08:33:32+00:00</time>
      </trkpt>
      <trkpt lat="44.70635" lon="6.34475">
        <ele>2177.8</ele>
        <time>2026-07-10T08:33:34+00:00</time>
      </trkpt>
      <trkpt lat="44.70633" lon="6.34473">
        <ele>2178.6</ele>
        <time>2026-07-10T08:33:36+00:00</time>
      </trkpt>
      <trkpt lat="44.70631" lon="6.34472">
        <ele>2179.4</ele>
        <time>2026-07-10T08:33:38+00:00</time>
      </trkpt>
      <trkpt lat="44.70629" lon="6.3447">
        <ele>2180.1</ele>
        <time>2026-07-10T08:33:41+00:00</time>
      </trkpt>
      <trkpt lat="44.70628" lon="6.34467">
        <ele>2180.2</ele>
        <time>2026-07-10T08:33:42+00:00</time>
      </trkpt>
      <trkpt lat="44.70626" lon="6.34465">
        <ele>2180.8</ele>
        <time>2026-07-10T08:33:44+00:00</time>
      </trkpt>
      <trkpt lat="44.70625" lon="6.34463">
        <ele>2181</ele>
        <time>2026-07-10T08:33:46+00:00</time>
      </trkpt>
      <trkpt lat="44.70623" lon="6.34461">
        <ele>2181.6</ele>
        <time>2026-07-10T08:33:48+00:00</time>
      </trkpt>
      <trkpt lat="44.70622" lon="6.34459">
        <ele>2181.8</ele>
        <time>2026-07-10T08:33:50+00:00</time>
      </trkpt>
      <trkpt lat="44.7062" lon="6.34456">
        <ele>2182.2</ele>
        <time>2026-07-10T08:33:54+00:00</time>
      </trkpt>
      <trkpt lat="44.70618" lon="6.34454">
        <ele>2182.7</ele>
        <time>2026-07-10T08:33:55+00:00</time>
      </trkpt>
      <trkpt lat="44.70617" lon="6.34452">
        <ele>2178</ele>
        <time>2026-07-10T08:33:57+00:00</time>
      </trkpt>
      <trkpt lat="44.70615" lon="6.3445">
        <ele>2183.3</ele>
        <time>2026-07-10T08:33:59+00:00</time>
      </trkpt>
      <trkpt lat="44.70613" lon="6.34448">
        <ele>2183.8</ele>
        <time>2026-07-10T08:34:02+00:00</time>
      </trkpt>
      <trkpt lat="44.70612" lon="6.34446">
        <ele>2183.9</ele>
        <time>2026-07-10T08:34:04+00:00</time>
      </trkpt>
      <trkpt lat="44.7061" lon="6.34444">
        <ele>2179</ele>
        <time>2026-07-10T08:34:07+00:00</time>
      </trkpt>
      <trkpt lat="44.70608" lon="6.34442">
        <ele>2185</ele>
        <time>2026-07-10T08:34:15+00:00</time>
      </trkpt>
      <trkpt lat="44.70606" lon="6.3444">
        <ele>2185.6</ele>
        <time>2026-07-10T08:34:19+00:00</time>
      </trkpt>
      <trkpt lat="44.70604" lon="6.34438">
        <ele>2186.1</ele>
        <time>2026-07-10T08:34:21+00:00</time>
      </trkpt>
      <trkpt lat="44.70602" lon="6.34435">
        <ele>2186.3</ele>
        <time>2026-07-10T08:34:23+00:00</time>
      </trkpt>
      <trkpt lat="44.706" lon="6.34434">
        <ele>2187</ele>
        <time>2026-07-10T08:34:25+00:00</time>
      </trkpt>
      <trkpt lat="44.70598" lon="6.34433">
        <ele>2187.7</ele>
        <time>2026-07-10T08:34:26+00:00</time>
      </trkpt>
      <trkpt lat="44.70596" lon="6.34431">
        <ele>2188.2</ele>
        <time>2026-07-10T08:34:29+00:00</time>
      </trkpt>
      <trkpt lat="44.70594" lon="6.34429">
        <ele>2188.6</ele>
        <time>2026-07-10T08:34:31+00:00</time>
      </trkpt>
      <trkpt lat="44.70592" lon="6.34428">
        <ele>2189.3</ele>
        <time>2026-07-10T08:34:32+00:00</time>
      </trkpt>
      <trkpt lat="44.70591" lon="6.34426">
        <ele>2189.2</ele>
        <time>2026-07-10T08:34:34+00:00</time>
      </trkpt>
      <trkpt lat="44.70589" lon="6.34425">
        <ele>2182</ele>
        <time>2026-07-10T08:34:37+00:00</time>
      </trkpt>
      <trkpt lat="44.70587" lon="6.34423">
        <ele>2190.2</ele>
        <time>2026-07-10T08:34:38+00:00</time>
      </trkpt>
      <trkpt lat="44.70585" lon="6.34421">
        <ele>2190.5</ele>
        <time>2026-07-10T08:34:41+00:00</time>
      </trkpt>
      <trkpt lat="44.70583" lon="6.3442">
        <ele>2191.1</ele>
        <time>2026-07-10T08:34:42+00:00</time>
      </trkpt>
      <trkpt lat="44.70581" lon="6.34418">
        <ele>2191.7</ele>
        <time>2026-07-10T08:34:45+00:00</time>
      </trkpt>
      <trkpt lat="44.7058" lon="6.34422">
        <ele>2193.4</ele>
        <time>2026-07-10T08:34:50+00:00</time>
      </trkpt>
      <trkpt lat="44.7058" lon="6.34425">
        <ele>2194.3</ele>
        <time>2026-07-10T08:34:52+00:00</time>
      </trkpt>
      <trkpt lat="44.70581" lon="6.34429">
        <ele>2194.9</ele>
        <time>2026-07-10T08:34:55+00:00</time>
      </trkpt>
      <trkpt lat="44.70582" lon="6.34432">
        <ele>2195.2</ele>
        <time>2026-07-10T08:34:56+00:00</time>
      </trkpt>
      <trkpt lat="44.70582" lon="6.34434">
        <ele>2195.8</ele>
        <time>2026-07-10T08:34:59+00:00</time>
      </trkpt>
      <trkpt lat="44.70583" lon="6.34437">
        <ele>2196.1</ele>
        <time>2026-07-10T08:35:00+00:00</time>
      </trkpt>
      <trkpt lat="44.70584" lon="6.3444">
        <ele>2196.4</ele>
        <time>2026-07-10T08:35:03+00:00</time>
      </trkpt>
      <trkpt lat="44.70585" lon="6.34442">
        <ele>2196.5</ele>
        <time>2026-07-10T08:35:05+00:00</time>
      </trkpt>
      <trkpt lat="44.70585" lon="6.34445">
        <ele>2197.3</ele>
        <time>2026-07-10T08:35:06+00:00</time>
      </trkpt>
      <trkpt lat="44.70585" lon="6.34448">
        <ele>2198.2</ele>
        <time>2026-07-10T08:35:09+00:00</time>
      </trkpt>
      <trkpt lat="44.70585" lon="6.34451">
        <ele>2199</ele>
        <time>2026-07-10T08:35:12+00:00</time>
      </trkpt>
      <trkpt lat="44.70585" lon="6.34454">
        <ele>2199.8</ele>
        <time>2026-07-10T08:35:13+00:00</time>
      </trkpt>
      <trkpt lat="44.70585" lon="6.34457">
        <ele>2193</ele>
        <time>2026-07-10T08:35:17+00:00</time>
      </trkpt>
      <trkpt lat="44.70585" lon="6.34459">
        <ele>2201.2</ele>
        <time>2026-07-10T08:35:19+00:00</time>
      </trkpt>
      <trkpt lat="44.70586" lon="6.34463">
        <ele>2201.7</ele>
        <time>2026-07-10T08:35:21+00:00</time>
      </trkpt>
      <trkpt lat="44.70586" lon="6.34466">
        <ele>2202.6</ele>
        <time>2026-07-10T08:35:24+00:00</time>
      </trkpt>
      <trkpt lat="44.70586" lon="6.3447">
        <ele>2194</ele>
        <time>2026-07-10T08:35:27+00:00</time>
      </trkpt>
      <trkpt lat="44.70587" lon="6.34473">
        <ele>2203.7</ele>
        <time>2026-07-10T08:35:29+00:00</time>
      </trkpt>
      <trkpt lat="44.70587" lon="6.34476">
        <ele>2204.2</ele>
        <time>2026-07-10T08:35:30+00:00</time>
      </trkpt>
      <trkpt lat="44.70586" lon="6.34479">
        <ele>2205.2</ele>
        <time>2026-07-10T08:35:32+00:00</time>
      </trkpt>
      <trkpt lat="44.70586" lon="6.34482">
        <ele>2205.7</ele>
        <time>2026-07-10T08:35:35+00:00</time>
      </trkpt>
      <trkpt lat="44.70586" lon="6.34484">
        <ele>2199</ele>
        <time>2026-07-10T08:35:37+00:00</time>
      </trkpt>
      <trkpt lat="44.70586" lon="6.34487">
        <ele>2206.4</ele>
        <time>2026-07-10T08:35:41+00:00</time>
      </trkpt>
      <trkpt lat="44.70586" lon="6.34491">
        <ele>2207</ele>
        <time>2026-07-10T08:35:44+00:00</time>
      </trkpt>
      <trkpt lat="44.70586" lon="6.34494">
        <ele>2207.4</ele>
        <time>2026-07-10T08:35:46+00:00</time>
      </trkpt>
      <trkpt lat="44.70586" lon="6.34497">
        <ele>2201</ele>
        <time>2026-07-10T08:35:47+00:00</time>
      </trkpt>
      <trkpt lat="44.70586" lon="6.345">
        <ele>2208.3</ele>
        <time>2026-07-10T08:35:50+00:00</time>
      </trkpt>
      <trkpt lat="44.70586" lon="6.34504">
        <ele>2208.4</ele>
        <time>2026-07-10T08:35:51+00:00</time>
      </trkpt>
      <trkpt lat="44.70585" lon="6.34507">
        <ele>2209.2</ele>
        <time>2026-07-10T08:35:54+00:00</time>
      </trkpt>
      <trkpt lat="44.70585" lon="6.3451">
        <ele>2209.3</ele>
        <time>2026-07-10T08:35:56+00:00</time>
      </trkpt>
      <trkpt lat="44.70584" lon="6.34514">
        <ele>2210.1</ele>
        <time>2026-07-10T08:35:59+00:00</time>
      </trkpt>
      <trkpt lat="44.70584" lon="6.34517">
        <ele>2210.2</ele>
        <time>2026-07-10T08:36:02+00:00</time>
      </trkpt>
      <trkpt lat="44.70584" lon="6.34521">
        <ele>2210.3</ele>
        <time>2026-07-10T08:36:05+00:00</time>
      </trkpt>
      <trkpt lat="44.70583" lon="6.34523">
        <ele>2211</ele>
        <time>2026-07-10T08:36:08+00:00</time>
      </trkpt>
      <trkpt lat="44.70582" lon="6.34526">
        <ele>2211.8</ele>
        <time>2026-07-10T08:36:10+00:00</time>
      </trkpt>
      <trkpt lat="44.70581" lon="6.34529">
        <ele>2212.3</ele>
        <time>2026-07-10T08:36:12+00:00</time>
      </trkpt>
      <trkpt lat="44.7058" lon="6.34531">
        <ele>2212.8</ele>
        <time>2026-07-10T08:36:15+00:00</time>
      </trkpt>
      <trkpt lat="44.70578" lon="6.34534">
        <ele>2208</ele>
        <time>2026-07-10T08:36:17+00:00</time>
      </trkpt>
      <trkpt lat="44.70577" lon="6.34537">
        <ele>2214</ele>
        <time>2026-07-10T08:36:19+00:00</time>
      </trkpt>
      <trkpt lat="44.70576" lon="6.34539">
        <ele>2214.4</ele>
        <time>2026-07-10T08:36:20+00:00</time>
      </trkpt>
      <trkpt lat="44.70575" lon="6.34542">
        <ele>2214.6</ele>
        <time>2026-07-10T08:36:22+00:00</time>
      </trkpt>
      <trkpt lat="44.70573" lon="6.34544">
        <ele>2215.5</ele>
        <time>2026-07-10T08:36:26+00:00</time>
      </trkpt>
      <trkpt lat="44.70572" lon="6.34546">
        <ele>2211</ele>
        <time>2026-07-10T08:36:27+00:00</time>
      </trkpt>
      <trkpt lat="44.7057" lon="6.34548">
        <ele>2216.7</ele>
        <time>2026-07-10T08:36:29+00:00</time>
      </trkpt>
      <trkpt lat="44.70569" lon="6.34552">
        <ele>2216.7</ele>
        <time>2026-07-10T08:36:32+00:00</time>
      </trkpt>
      <trkpt lat="44.70568" lon="6.34555">
        <ele>2216.8</ele>
        <time>2026-07-10T08:36:36+00:00</time>
      </trkpt>
      <trkpt lat="44.70567" lon="6.34557">
        <ele>2211</ele>
        <time>2026-07-10T08:36:37+00:00</time>
      </trkpt>
      <trkpt lat="44.70565" lon="6.34554">
        <ele>2218.5</ele>
        <time>2026-07-10T08:36:40+00:00</time>
      </trkpt>
      <trkpt lat="44.70565" lon="6.34551">
        <ele>2218.9</ele>
        <time>2026-07-10T08:36:42+00:00</time>
      </trkpt>
      <trkpt lat="44.70565" lon="6.34548">
        <ele>2219.3</ele>
        <time>2026-07-10T08:36:45+00:00</time>
      </trkpt>
      <trkpt lat="44.70566" lon="6.34545">
        <ele>2219.2</ele>
        <time>2026-07-10T08:36:58+00:00</time>
      </trkpt>
      <trkpt lat="44.70566" lon="6.34541">
        <ele>2219.8</ele>
        <time>2026-07-10T08:37:01+00:00</time>
      </trkpt>
      <trkpt lat="44.70566" lon="6.34538">
        <ele>2220.2</ele>
        <time>2026-07-10T08:37:03+00:00</time>
      </trkpt>
      <trkpt lat="44.70565" lon="6.34535">
        <ele>2221.2</ele>
        <time>2026-07-10T08:37:05+00:00</time>
      </trkpt>
      <trkpt lat="44.70565" lon="6.34532">
        <ele>2215</ele>
        <time>2026-07-10T08:37:07+00:00</time>
      </trkpt>
      <trkpt lat="44.70565" lon="6.34529">
        <ele>2222</ele>
        <time>2026-07-10T08:37:09+00:00</time>
      </trkpt>
      <trkpt lat="44.70564" lon="6.34526">
        <ele>2222.8</ele>
        <time>2026-07-10T08:37:12+00:00</time>
      </trkpt>
      <trkpt lat="44.70564" lon="6.34523">
        <ele>2222.8</ele>
        <time>2026-07-10T08:37:14+00:00</time>
      </trkpt>
      <trkpt lat="44.70563" lon="6.3452">
        <ele>2223.4</ele>
        <time>2026-07-10T08:37:15+00:00</time>
      </trkpt>
      <trkpt lat="44.70562" lon="6.34517">
        <ele>2224</ele>
        <time>2026-07-10T08:37:18+00:00</time>
      </trkpt>
      <trkpt lat="44.70562" lon="6.34514">
        <ele>2223.9</ele>
        <time>2026-07-10T08:37:19+00:00</time>
      </trkpt>
      <trkpt lat="44.70561" lon="6.34511">
        <ele>2224.5</ele>
        <time>2026-07-10T08:37:22+00:00</time>
      </trkpt>
      <trkpt lat="44.7056" lon="6.34508">
        <ele>2225.2</ele>
        <time>2026-07-10T08:37:24+00:00</time>
      </trkpt>
      <trkpt lat="44.70559" lon="6.34506">
        <ele>2225.8</ele>
        <time>2026-07-10T08:37:25+00:00</time>
      </trkpt>
      <trkpt lat="44.70557" lon="6.34503">
        <ele>2222</ele>
        <time>2026-07-10T08:37:27+00:00</time>
      </trkpt>
      <trkpt lat="44.70556" lon="6.34501">
        <ele>2227.7</ele>
        <time>2026-07-10T08:37:29+00:00</time>
      </trkpt>
      <trkpt lat="44.70555" lon="6.34499">
        <ele>2228.2</ele>
        <time>2026-07-10T08:37:31+00:00</time>
      </trkpt>
      <trkpt lat="44.70554" lon="6.34496">
        <ele>2228.3</ele>
        <time>2026-07-10T08:37:33+00:00</time>
      </trkpt>
      <trkpt lat="44.70553" lon="6.34493">
        <ele>2228.5</ele>
        <time>2026-07-10T08:37:38+00:00</time>
      </trkpt>
      <trkpt lat="44.70552" lon="6.34491">
        <ele>2228.8</ele>
        <time>2026-07-10T08:37:39+00:00</time>
      </trkpt>
      <trkpt lat="44.7055" lon="6.34489">
        <ele>2229.7</ele>
        <time>2026-07-10T08:37:41+00:00</time>
      </trkpt>
      <trkpt lat="44.70549" lon="6.34487">
        <ele>2230</ele>
        <time>2026-07-10T08:37:44+00:00</time>
      </trkpt>
      <trkpt lat="44.70547" lon="6.34485">
        <ele>2226</ele>
        <time>2026-07-10T08:37:47+00:00</time>
      </trkpt>
      <trkpt lat="44.70545" lon="6.34486">
        <ele>2232.5</ele>
        <time>2026-07-10T08:37:52+00:00</time>
      </trkpt>
      <trkpt lat="44.70545" lon="6.34489">
        <ele>2233.1</ele>
        <time>2026-07-10T08:37:54+00:00</time>
      </trkpt>
      <trkpt lat="44.70545" lon="6.34492">
        <ele>2233.7</ele>
        <time>2026-07-10T08:37:55+00:00</time>
      </trkpt>
      <trkpt lat="44.70544" lon="6.34495">
        <ele>2228</ele>
        <time>2026-07-10T08:37:57+00:00</time>
      </trkpt>
      <trkpt lat="44.70544" lon="6.34498">
        <ele>2235.5</ele>
        <time>2026-07-10T08:37:59+00:00</time>
      </trkpt>
      <trkpt lat="44.70543" lon="6.34502">
        <ele>2236.5</ele>
        <time>2026-07-10T08:38:02+00:00</time>
      </trkpt>
      <trkpt lat="44.70543" lon="6.34505">
        <ele>2236.3</ele>
        <time>2026-07-10T08:38:05+00:00</time>
      </trkpt>
      <trkpt lat="44.70543" lon="6.34508">
        <ele>2230</ele>
        <time>2026-07-10T08:38:07+00:00</time>
      </trkpt>
      <trkpt lat="44.70542" lon="6.34511">
        <ele>2236.7</ele>
        <time>2026-07-10T08:38:08+00:00</time>
      </trkpt>
      <trkpt lat="44.70542" lon="6.34514">
        <ele>2236.5</ele>
        <time>2026-07-10T08:38:11+00:00</time>
      </trkpt>
      <trkpt lat="44.70541" lon="6.34517">
        <ele>2237</ele>
        <time>2026-07-10T08:38:13+00:00</time>
      </trkpt>
      <trkpt lat="44.70541" lon="6.3452">
        <ele>2236.8</ele>
        <time>2026-07-10T08:38:14+00:00</time>
      </trkpt>
      <trkpt lat="44.70539" lon="6.34522">
        <ele>2237.9</ele>
        <time>2026-07-10T08:38:18+00:00</time>
      </trkpt>
      <trkpt lat="44.70538" lon="6.34525">
        <ele>2238.3</ele>
        <time>2026-07-10T08:38:20+00:00</time>
      </trkpt>
      <trkpt lat="44.70536" lon="6.34527">
        <ele>2239.3</ele>
        <time>2026-07-10T08:38:21+00:00</time>
      </trkpt>
      <trkpt lat="44.70535" lon="6.34529">
        <ele>2239.6</ele>
        <time>2026-07-10T08:38:23+00:00</time>
      </trkpt>
      <trkpt lat="44.70533" lon="6.34531">
        <ele>2240.3</ele>
        <time>2026-07-10T08:38:25+00:00</time>
      </trkpt>
      <trkpt lat="44.70531" lon="6.34532">
        <ele>2241.2</ele>
        <time>2026-07-10T08:38:28+00:00</time>
      </trkpt>
      <trkpt lat="44.70529" lon="6.34534">
        <ele>2242</ele>
        <time>2026-07-10T08:38:30+00:00</time>
      </trkpt>
      <trkpt lat="44.70527" lon="6.34536">
        <ele>2242.7</ele>
        <time>2026-07-10T08:38:32+00:00</time>
      </trkpt>
      <trkpt lat="44.70526" lon="6.34539">
        <ele>2242.7</ele>
        <time>2026-07-10T08:38:34+00:00</time>
      </trkpt>
      <trkpt lat="44.70524" lon="6.34541">
        <ele>2243.6</ele>
        <time>2026-07-10T08:38:35+00:00</time>
      </trkpt>
      <trkpt lat="44.70523" lon="6.34543">
        <ele>2235</ele>
        <time>2026-07-10T08:38:37+00:00</time>
      </trkpt>
      <trkpt lat="44.70522" lon="6.34545">
        <ele>2244.1</ele>
        <time>2026-07-10T08:38:40+00:00</time>
      </trkpt>
      <trkpt lat="44.7052" lon="6.34547">
        <ele>2245</ele>
        <time>2026-07-10T08:38:42+00:00</time>
      </trkpt>
      <trkpt lat="44.70518" lon="6.3455">
        <ele>2245.7</ele>
        <time>2026-07-10T08:38:44+00:00</time>
      </trkpt>
      <trkpt lat="44.70516" lon="6.34552">
        <ele>2240</ele>
        <time>2026-07-10T08:38:47+00:00</time>
      </trkpt>
      <trkpt lat="44.70515" lon="6.34554">
        <ele>2247</ele>
        <time>2026-07-10T08:38:50+00:00</time>
      </trkpt>
      <trkpt lat="44.70514" lon="6.34556">
        <ele>2247.3</ele>
        <time>2026-07-10T08:38:52+00:00</time>
      </trkpt>
      <trkpt lat="44.70512" lon="6.34558">
        <ele>2248.3</ele>
        <time>2026-07-10T08:38:55+00:00</time>
      </trkpt>
      <trkpt lat="44.7051" lon="6.34561">
        <ele>2249.1</ele>
        <time>2026-07-10T08:38:58+00:00</time>
      </trkpt>
      <trkpt lat="44.70509" lon="6.34563">
        <ele>2249.3</ele>
        <time>2026-07-10T08:39:01+00:00</time>
      </trkpt>
      <trkpt lat="44.70507" lon="6.34565">
        <ele>2250.3</ele>
        <time>2026-07-10T08:39:03+00:00</time>
      </trkpt>
      <trkpt lat="44.70507" lon="6.34562">
        <ele>2245</ele>
        <time>2026-07-10T08:39:07+00:00</time>
      </trkpt>
      <trkpt lat="44.70507" lon="6.34559">
        <ele>2251.5</ele>
        <time>2026-07-10T08:39:09+00:00</time>
      </trkpt>
      <trkpt lat="44.70507" lon="6.34555">
        <ele>2252.3</ele>
        <time>2026-07-10T08:39:12+00:00</time>
      </trkpt>
      <trkpt lat="44.70507" lon="6.34553">
        <ele>2252.6</ele>
        <time>2026-07-10T08:39:14+00:00</time>
      </trkpt>
      <trkpt lat="44.70507" lon="6.3455">
        <ele>2253.1</ele>
        <time>2026-07-10T08:39:16+00:00</time>
      </trkpt>
      <trkpt lat="44.70507" lon="6.34546">
        <ele>2253.8</ele>
        <time>2026-07-10T08:39:20+00:00</time>
      </trkpt>
      <trkpt lat="44.70507" lon="6.34543">
        <ele>2254.2</ele>
        <time>2026-07-10T08:39:22+00:00</time>
      </trkpt>
      <trkpt lat="44.70507" lon="6.34539">
        <ele>2254.9</ele>
        <time>2026-07-10T08:39:25+00:00</time>
      </trkpt>
      <trkpt lat="44.70508" lon="6.34536">
        <ele>2254.7</ele>
        <time>2026-07-10T08:39:26+00:00</time>
      </trkpt>
      <trkpt lat="44.70507" lon="6.34533">
        <ele>2255.9</ele>
        <time>2026-07-10T08:39:29+00:00</time>
      </trkpt>
      <trkpt lat="44.70507" lon="6.3453">
        <ele>2256.4</ele>
        <time>2026-07-10T08:39:31+00:00</time>
      </trkpt>
      <trkpt lat="44.70508" lon="6.34527">
        <ele>2256.2</ele>
        <time>2026-07-10T08:39:32+00:00</time>
      </trkpt>
      <trkpt lat="44.70508" lon="6.34524">
        <ele>2256.6</ele>
        <time>2026-07-10T08:39:34+00:00</time>
      </trkpt>
      <trkpt lat="44.70509" lon="6.34521">
        <ele>2251</ele>
        <time>2026-07-10T08:39:37+00:00</time>
      </trkpt>
      <trkpt lat="44.7051" lon="6.34518">
        <ele>2256.2</ele>
        <time>2026-07-10T08:39:39+00:00</time>
      </trkpt>
      <trkpt lat="44.7051" lon="6.34515">
        <ele>2256.6</ele>
        <time>2026-07-10T08:39:42+00:00</time>
      </trkpt>
      <trkpt lat="44.70511" lon="6.34512">
        <ele>2256.3</ele>
        <time>2026-07-10T08:39:44+00:00</time>
      </trkpt>
      <trkpt lat="44.70511" lon="6.34509">
        <ele>2256.7</ele>
        <time>2026-07-10T08:39:45+00:00</time>
      </trkpt>
      <trkpt lat="44.70512" lon="6.34506">
        <ele>2256.5</ele>
        <time>2026-07-10T08:39:48+00:00</time>
      </trkpt>
      <trkpt lat="44.70512" lon="6.34503">
        <ele>2256.8</ele>
        <time>2026-07-10T08:39:50+00:00</time>
      </trkpt>
      <trkpt lat="44.70512" lon="6.345">
        <ele>2257.2</ele>
        <time>2026-07-10T08:39:52+00:00</time>
      </trkpt>
      <trkpt lat="44.70511" lon="6.34496">
        <ele>2256.9</ele>
        <time>2026-07-10T08:39:56+00:00</time>
      </trkpt>
      <trkpt lat="44.7051" lon="6.34494">
        <ele>2254</ele>
        <time>2026-07-10T08:39:57+00:00</time>
      </trkpt>
      <trkpt lat="44.7051" lon="6.34491">
        <ele>2256.4</ele>
        <time>2026-07-10T08:40:01+00:00</time>
      </trkpt>
      <trkpt lat="44.70508" lon="6.34489">
        <ele>2257.2</ele>
        <time>2026-07-10T08:40:21+00:00</time>
      </trkpt>
      <trkpt lat="44.70506" lon="6.3449">
        <ele>2258.7</ele>
        <time>2026-07-10T08:40:25+00:00</time>
      </trkpt>
      <trkpt lat="44.70503" lon="6.34491">
        <ele>2260.8</ele>
        <time>2026-07-10T08:40:28+00:00</time>
      </trkpt>
      <trkpt lat="44.70501" lon="6.34492">
        <ele>2262.3</ele>
        <time>2026-07-10T08:40:30+00:00</time>
      </trkpt>
      <trkpt lat="44.70499" lon="6.34492">
        <ele>2263.3</ele>
        <time>2026-07-10T08:40:34+00:00</time>
      </trkpt>
      <trkpt lat="44.70497" lon="6.34494">
        <ele>2264.4</ele>
        <time>2026-07-10T08:40:36+00:00</time>
      </trkpt>
      <trkpt lat="44.70495" lon="6.34496">
        <ele>2265.4</ele>
        <time>2026-07-10T08:40:41+00:00</time>
      </trkpt>
      <trkpt lat="44.70494" lon="6.34498">
        <ele>2266.2</ele>
        <time>2026-07-10T08:40:44+00:00</time>
      </trkpt>
      <trkpt lat="44.70492" lon="6.34501">
        <ele>2264</ele>
        <time>2026-07-10T08:40:47+00:00</time>
      </trkpt>
      <trkpt lat="44.70491" lon="6.34504">
        <ele>2267.4</ele>
        <time>2026-07-10T08:40:49+00:00</time>
      </trkpt>
      <trkpt lat="44.7049" lon="6.34506">
        <ele>2267.6</ele>
        <time>2026-07-10T08:40:52+00:00</time>
      </trkpt>
      <trkpt lat="44.70488" lon="6.34508">
        <ele>2268.3</ele>
        <time>2026-07-10T08:40:54+00:00</time>
      </trkpt>
      <trkpt lat="44.70486" lon="6.34511">
        <ele>2269</ele>
        <time>2026-07-10T08:40:56+00:00</time>
      </trkpt>
      <trkpt lat="44.70485" lon="6.34513">
        <ele>2269.5</ele>
        <time>2026-07-10T08:40:59+00:00</time>
      </trkpt>
      <trkpt lat="44.70483" lon="6.34516">
        <ele>2270.4</ele>
        <time>2026-07-10T08:41:01+00:00</time>
      </trkpt>
      <trkpt lat="44.70481" lon="6.34518">
        <ele>2271.4</ele>
        <time>2026-07-10T08:41:05+00:00</time>
      </trkpt>
      <trkpt lat="44.7048" lon="6.3452">
        <ele>2270</ele>
        <time>2026-07-10T08:41:07+00:00</time>
      </trkpt>
      <trkpt lat="44.70478" lon="6.34522">
        <ele>2273.2</ele>
        <time>2026-07-10T08:41:11+00:00</time>
      </trkpt>
      <trkpt lat="44.70476" lon="6.34524">
        <ele>2274.4</ele>
        <time>2026-07-10T08:41:13+00:00</time>
      </trkpt>
      <trkpt lat="44.70475" lon="6.34526">
        <ele>2272</ele>
        <time>2026-07-10T08:41:17+00:00</time>
      </trkpt>
      <trkpt lat="44.70473" lon="6.34528">
        <ele>2276.5</ele>
        <time>2026-07-10T08:41:19+00:00</time>
      </trkpt>
      <trkpt lat="44.70471" lon="6.34531">
        <ele>2276.8</ele>
        <time>2026-07-10T08:41:26+00:00</time>
      </trkpt>
      <trkpt lat="44.7047" lon="6.34533">
        <ele>2276.8</ele>
        <time>2026-07-10T08:41:29+00:00</time>
      </trkpt>
      <trkpt lat="44.70469" lon="6.34535">
        <ele>2276.8</ele>
        <time>2026-07-10T08:41:31+00:00</time>
      </trkpt>
      <trkpt lat="44.70468" lon="6.34538">
        <ele>2276.9</ele>
        <time>2026-07-10T08:41:36+00:00</time>
      </trkpt>
      <trkpt lat="44.70466" lon="6.34541">
        <ele>2277.2</ele>
        <time>2026-07-10T08:41:39+00:00</time>
      </trkpt>
      <trkpt lat="44.70465" lon="6.34543">
        <ele>2277.5</ele>
        <time>2026-07-10T08:41:41+00:00</time>
      </trkpt>
      <trkpt lat="44.70463" lon="6.34545">
        <ele>2278.1</ele>
        <time>2026-07-10T08:41:44+00:00</time>
      </trkpt>
      <trkpt lat="44.70462" lon="6.34547">
        <ele>2279</ele>
        <time>2026-07-10T08:41:47+00:00</time>
      </trkpt>
      <trkpt lat="44.7046" lon="6.34549">
        <ele>2279.3</ele>
        <time>2026-07-10T08:41:50+00:00</time>
      </trkpt>
      <trkpt lat="44.70459" lon="6.34552">
        <ele>2280.1</ele>
        <time>2026-07-10T08:41:54+00:00</time>
      </trkpt>
      <trkpt lat="44.70457" lon="6.34555">
        <ele>2281.4</ele>
        <time>2026-07-10T08:41:56+00:00</time>
      </trkpt>
      <trkpt lat="44.70456" lon="6.34556">
        <ele>2281.8</ele>
        <time>2026-07-10T08:41:59+00:00</time>
      </trkpt>
      <trkpt lat="44.70454" lon="6.34558">
        <ele>2282.6</ele>
        <time>2026-07-10T08:42:02+00:00</time>
      </trkpt>
      <trkpt lat="44.70452" lon="6.3456">
        <ele>2283.5</ele>
        <time>2026-07-10T08:42:05+00:00</time>
      </trkpt>
      <trkpt lat="44.70451" lon="6.34562">
        <ele>2284</ele>
        <time>2026-07-10T08:42:09+00:00</time>
      </trkpt>
      <trkpt lat="44.70449" lon="6.34563">
        <ele>2284.9</ele>
        <time>2026-07-10T08:42:12+00:00</time>
      </trkpt>
      <trkpt lat="44.70448" lon="6.34566">
        <ele>2285.5</ele>
        <time>2026-07-10T08:42:13+00:00</time>
      </trkpt>
      <trkpt lat="44.70446" lon="6.34568">
        <ele>2286.6</ele>
        <time>2026-07-10T08:42:16+00:00</time>
      </trkpt>
      <trkpt lat="44.70445" lon="6.3457">
        <ele>2288</ele>
        <time>2026-07-10T08:42:17+00:00</time>
      </trkpt>
      <trkpt lat="44.70444" lon="6.34573">
        <ele>2287.8</ele>
        <time>2026-07-10T08:42:20+00:00</time>
      </trkpt>
      <trkpt lat="44.70443" lon="6.34576">
        <ele>2287.9</ele>
        <time>2026-07-10T08:42:22+00:00</time>
      </trkpt>
      <trkpt lat="44.70441" lon="6.34579">
        <ele>2287.8</ele>
        <time>2026-07-10T08:42:24+00:00</time>
      </trkpt>
      <trkpt lat="44.7044" lon="6.34582">
        <ele>2291</ele>
        <time>2026-07-10T08:42:27+00:00</time>
      </trkpt>
      <trkpt lat="44.70438" lon="6.34586">
        <ele>2287.7</ele>
        <time>2026-07-10T08:42:30+00:00</time>
      </trkpt>
      <trkpt lat="44.70437" lon="6.34588">
        <ele>2287.4</ele>
        <time>2026-07-10T08:42:32+00:00</time>
      </trkpt>
      <trkpt lat="44.70436" lon="6.34591">
        <ele>2287.2</ele>
        <time>2026-07-10T08:42:36+00:00</time>
      </trkpt>
      <trkpt lat="44.70435" lon="6.34592">
        <ele>2290</ele>
        <time>2026-07-10T08:42:46+00:00</time>
      </trkpt>
      <trkpt lat="44.70435" lon="6.34591">
        <ele>2295</ele>
        <time>2026-07-10T08:46:45+00:00</time>
      </trkpt>
      <trkpt lat="44.70435" lon="6.34594">
        <ele>2286.9</ele>
        <time>2026-07-10T08:46:50+00:00</time>
      </trkpt>
      <trkpt lat="44.70434" lon="6.34598">
        <ele>2286.7</ele>
        <time>2026-07-10T08:46:52+00:00</time>
      </trkpt>
      <trkpt lat="44.70433" lon="6.34602">
        <ele>2286.6</ele>
        <time>2026-07-10T08:46:53+00:00</time>
      </trkpt>
      <trkpt lat="44.70431" lon="6.34606">
        <ele>2286.5</ele>
        <time>2026-07-10T08:46:55+00:00</time>
      </trkpt>
      <trkpt lat="44.7043" lon="6.3461">
        <ele>2286.5</ele>
        <time>2026-07-10T08:46:57+00:00</time>
      </trkpt>
      <trkpt lat="44.7043" lon="6.34614">
        <ele>2286.3</ele>
        <time>2026-07-10T08:47:00+00:00</time>
      </trkpt>
      <trkpt lat="44.70428" lon="6.34617">
        <ele>2286.2</ele>
        <time>2026-07-10T08:47:02+00:00</time>
      </trkpt>
      <trkpt lat="44.70428" lon="6.3462">
        <ele>2294</ele>
        <time>2026-07-10T08:47:04+00:00</time>
      </trkpt>
      <trkpt lat="44.70427" lon="6.34624">
        <ele>2285.9</ele>
        <time>2026-07-10T08:47:05+00:00</time>
      </trkpt>
      <trkpt lat="44.70427" lon="6.34628">
        <ele>2285.7</ele>
        <time>2026-07-10T08:47:07+00:00</time>
      </trkpt>
      <trkpt lat="44.70427" lon="6.34632">
        <ele>2285.4</ele>
        <time>2026-07-10T08:47:09+00:00</time>
      </trkpt>
      <trkpt lat="44.70426" lon="6.34636">
        <ele>2285.5</ele>
        <time>2026-07-10T08:47:23+00:00</time>
      </trkpt>
      <trkpt lat="44.70425" lon="6.34639">
        <ele>2296</ele>
        <time>2026-07-10T08:47:24+00:00</time>
      </trkpt>
      <trkpt lat="44.70425" lon="6.34642">
        <ele>2285.4</ele>
        <time>2026-07-10T08:47:26+00:00</time>
      </trkpt>
      <trkpt lat="44.70424" lon="6.34646">
        <ele>2285.6</ele>
        <time>2026-07-10T08:47:28+00:00</time>
      </trkpt>
      <trkpt lat="44.70423" lon="6.34649">
        <ele>2285.8</ele>
        <time>2026-07-10T08:47:30+00:00</time>
      </trkpt>
      <trkpt lat="44.70422" lon="6.34652">
        <ele>2286</ele>
        <time>2026-07-10T08:47:32+00:00</time>
      </trkpt>
      <trkpt lat="44.70421" lon="6.34654">
        <ele>2296</ele>
        <time>2026-07-10T08:47:34+00:00</time>
      </trkpt>
      <trkpt lat="44.7042" lon="6.34657">
        <ele>2286.6</ele>
        <time>2026-07-10T08:47:37+00:00</time>
      </trkpt>
      <trkpt lat="44.70419" lon="6.3466">
        <ele>2287</ele>
        <time>2026-07-10T08:47:39+00:00</time>
      </trkpt>
      <trkpt lat="44.70418" lon="6.34664">
        <ele>2287.4</ele>
        <time>2026-07-10T08:47:41+00:00</time>
      </trkpt>
      <trkpt lat="44.70417" lon="6.34667">
        <ele>2287.8</ele>
        <time>2026-07-10T08:47:42+00:00</time>
      </trkpt>
      <trkpt lat="44.70416" lon="6.34671">
        <ele>2287</ele>
        <time>2026-07-10T08:47:45+00:00</time>
      </trkpt>
      <trkpt lat="44.70415" lon="6.34675">
        <ele>2286</ele>
        <time>2026-07-10T08:47:46+00:00</time>
      </trkpt>
      <trkpt lat="44.70414" lon="6.34678">
        <ele>2285.1</ele>
        <time>2026-07-10T08:47:48+00:00</time>
      </trkpt>
      <trkpt lat="44.70414" lon="6.34682">
        <ele>2284.8</ele>
        <time>2026-07-10T08:47:51+00:00</time>
      </trkpt>
      <trkpt lat="44.70413" lon="6.34685">
        <ele>2284</ele>
        <time>2026-07-10T08:47:52+00:00</time>
      </trkpt>
      <trkpt lat="44.70412" lon="6.34689">
        <ele>2283.2</ele>
        <time>2026-07-10T08:47:55+00:00</time>
      </trkpt>
      <trkpt lat="44.70411" lon="6.34691">
        <ele>2282.7</ele>
        <time>2026-07-10T08:47:57+00:00</time>
      </trkpt>
      <trkpt lat="44.70411" lon="6.34694">
        <ele>2282.6</ele>
        <time>2026-07-10T08:48:15+00:00</time>
      </trkpt>
      <trkpt lat="44.70411" lon="6.34697">
        <ele>2282.2</ele>
        <time>2026-07-10T08:48:17+00:00</time>
      </trkpt>
      <trkpt lat="44.7041" lon="6.347">
        <ele>2281.3</ele>
        <time>2026-07-10T08:48:18+00:00</time>
      </trkpt>
      <trkpt lat="44.70409" lon="6.34703">
        <ele>2280.5</ele>
        <time>2026-07-10T08:48:21+00:00</time>
      </trkpt>
      <trkpt lat="44.70409" lon="6.34706">
        <ele>2280.1</ele>
        <time>2026-07-10T08:48:23+00:00</time>
      </trkpt>
      <trkpt lat="44.70409" lon="6.34709">
        <ele>2294</ele>
        <time>2026-07-10T08:48:24+00:00</time>
      </trkpt>
      <trkpt lat="44.70408" lon="6.34712">
        <ele>2279</ele>
        <time>2026-07-10T08:48:26+00:00</time>
      </trkpt>
      <trkpt lat="44.70408" lon="6.34715">
        <ele>2278.7</ele>
        <time>2026-07-10T08:48:28+00:00</time>
      </trkpt>
      <trkpt lat="44.70408" lon="6.34719">
        <ele>2278.2</ele>
        <time>2026-07-10T08:48:31+00:00</time>
      </trkpt>
      <trkpt lat="44.70407" lon="6.34723">
        <ele>2277.5</ele>
        <time>2026-07-10T08:48:33+00:00</time>
      </trkpt>
      <trkpt lat="44.70407" lon="6.34727">
        <ele>2276.7</ele>
        <time>2026-07-10T08:48:35+00:00</time>
      </trkpt>
      <trkpt lat="44.70406" lon="6.34731">
        <ele>2275.8</ele>
        <time>2026-07-10T08:48:37+00:00</time>
      </trkpt>
      <trkpt lat="44.70405" lon="6.34735">
        <ele>2275.1</ele>
        <time>2026-07-10T08:48:38+00:00</time>
      </trkpt>
      <trkpt lat="44.70404" lon="6.34738">
        <ele>2274.7</ele>
        <time>2026-07-10T08:48:41+00:00</time>
      </trkpt>
      <trkpt lat="44.70403" lon="6.34742">
        <ele>2274.1</ele>
        <time>2026-07-10T08:48:42+00:00</time>
      </trkpt>
      <trkpt lat="44.70402" lon="6.34746">
        <ele>2273.7</ele>
        <time>2026-07-10T08:48:45+00:00</time>
      </trkpt>
      <trkpt lat="44.704" lon="6.34749">
        <ele>2273.7</ele>
        <time>2026-07-10T08:48:46+00:00</time>
      </trkpt>
      <trkpt lat="44.70399" lon="6.34753">
        <ele>2273.5</ele>
        <time>2026-07-10T08:48:48+00:00</time>
      </trkpt>
      <trkpt lat="44.70397" lon="6.34757">
        <ele>2273.8</ele>
        <time>2026-07-10T08:48:51+00:00</time>
      </trkpt>
      <trkpt lat="44.70396" lon="6.3476">
        <ele>2273.9</ele>
        <time>2026-07-10T08:48:53+00:00</time>
      </trkpt>
      <trkpt lat="44.70394" lon="6.34763">
        <ele>2274.5</ele>
        <time>2026-07-10T08:48:55+00:00</time>
      </trkpt>
      <trkpt lat="44.70392" lon="6.34767">
        <ele>2275.3</ele>
        <time>2026-07-10T08:48:57+00:00</time>
      </trkpt>
      <trkpt lat="44.70391" lon="6.34771">
        <ele>2275.7</ele>
        <time>2026-07-10T08:48:58+00:00</time>
      </trkpt>
      <trkpt lat="44.7039" lon="6.34775">
        <ele>2276.3</ele>
        <time>2026-07-10T08:49:00+00:00</time>
      </trkpt>
      <trkpt lat="44.70388" lon="6.34778">
        <ele>2276.7</ele>
        <time>2026-07-10T08:49:03+00:00</time>
      </trkpt>
      <trkpt lat="44.70386" lon="6.34781">
        <ele>2285</ele>
        <time>2026-07-10T08:49:04+00:00</time>
      </trkpt>
      <trkpt lat="44.70383" lon="6.34783">
        <ele>2274.8</ele>
        <time>2026-07-10T08:49:06+00:00</time>
      </trkpt>
      <trkpt lat="44.70382" lon="6.34785">
        <ele>2274.4</ele>
        <time>2026-07-10T08:49:09+00:00</time>
      </trkpt>
      <trkpt lat="44.70379" lon="6.34787">
        <ele>2273.8</ele>
        <time>2026-07-10T08:49:11+00:00</time>
      </trkpt>
      <trkpt lat="44.70377" lon="6.34789">
        <ele>2273.5</ele>
        <time>2026-07-10T08:49:12+00:00</time>
      </trkpt>
      <trkpt lat="44.70376" lon="6.34791">
        <ele>2285</ele>
        <time>2026-07-10T08:49:14+00:00</time>
      </trkpt>
      <trkpt lat="44.70374" lon="6.34794">
        <ele>2273.2</ele>
        <time>2026-07-10T08:49:16+00:00</time>
      </trkpt>
      <trkpt lat="44.70372" lon="6.34796">
        <ele>2273.2</ele>
        <time>2026-07-10T08:49:18+00:00</time>
      </trkpt>
      <trkpt lat="44.70371" lon="6.34798">
        <ele>2273.3</ele>
        <time>2026-07-10T08:49:21+00:00</time>
      </trkpt>
      <trkpt lat="44.70369" lon="6.34801">
        <ele>2273.6</ele>
        <time>2026-07-10T08:49:23+00:00</time>
      </trkpt>
      <trkpt lat="44.70367" lon="6.34804">
        <ele>2274</ele>
        <time>2026-07-10T08:49:25+00:00</time>
      </trkpt>
      <trkpt lat="44.70365" lon="6.34807">
        <ele>2274.4</ele>
        <time>2026-07-10T08:49:26+00:00</time>
      </trkpt>
      <trkpt lat="44.70364" lon="6.3481">
        <ele>2274.4</ele>
        <time>2026-07-10T08:49:28+00:00</time>
      </trkpt>
      <trkpt lat="44.70362" lon="6.34813">
        <ele>2274.8</ele>
        <time>2026-07-10T08:49:31+00:00</time>
      </trkpt>
      <trkpt lat="44.70361" lon="6.34817">
        <ele>2275</ele>
        <time>2026-07-10T08:49:33+00:00</time>
      </trkpt>
      <trkpt lat="44.70359" lon="6.3482">
        <ele>2279</ele>
        <time>2026-07-10T08:49:34+00:00</time>
      </trkpt>
      <trkpt lat="44.70356" lon="6.34822">
        <ele>2275.1</ele>
        <time>2026-07-10T08:49:37+00:00</time>
      </trkpt>
      <trkpt lat="44.70354" lon="6.34823">
        <ele>2275.3</ele>
        <time>2026-07-10T08:49:38+00:00</time>
      </trkpt>
      <trkpt lat="44.70353" lon="6.34826">
        <ele>2275.9</ele>
        <time>2026-07-10T08:49:41+00:00</time>
      </trkpt>
      <trkpt lat="44.70351" lon="6.34829">
        <ele>2276.9</ele>
        <time>2026-07-10T08:49:43+00:00</time>
      </trkpt>
      <trkpt lat="44.7035" lon="6.34831">
        <ele>2283</ele>
        <time>2026-07-10T08:49:44+00:00</time>
      </trkpt>
      <trkpt lat="44.70348" lon="6.34832">
        <ele>2278.4</ele>
        <time>2026-07-10T08:49:47+00:00</time>
      </trkpt>
      <trkpt lat="44.70346" lon="6.34834">
        <ele>2279.4</ele>
        <time>2026-07-10T08:49:49+00:00</time>
      </trkpt>
      <trkpt lat="44.70345" lon="6.34837">
        <ele>2279.7</ele>
        <time>2026-07-10T08:49:51+00:00</time>
      </trkpt>
      <trkpt lat="44.70343" lon="6.34839">
        <ele>2280.5</ele>
        <time>2026-07-10T08:49:56+00:00</time>
      </trkpt>
      <trkpt lat="44.70341" lon="6.34841">
        <ele>2281.3</ele>
        <time>2026-07-10T08:49:58+00:00</time>
      </trkpt>
      <trkpt lat="44.70339" lon="6.34843">
        <ele>2282.2</ele>
        <time>2026-07-10T08:50:02+00:00</time>
      </trkpt>
      <trkpt lat="44.70338" lon="6.34846">
        <ele>2282.9</ele>
        <time>2026-07-10T08:50:06+00:00</time>
      </trkpt>
      <trkpt lat="44.70337" lon="6.34848">
        <ele>2283.5</ele>
        <time>2026-07-10T08:50:08+00:00</time>
      </trkpt>
      <trkpt lat="44.70335" lon="6.3485">
        <ele>2284.6</ele>
        <time>2026-07-10T08:50:10+00:00</time>
      </trkpt>
      <trkpt lat="44.70334" lon="6.34853">
        <ele>2285.5</ele>
        <time>2026-07-10T08:50:13+00:00</time>
      </trkpt>
      <trkpt lat="44.70332" lon="6.34855">
        <ele>2292</ele>
        <time>2026-07-10T08:50:14+00:00</time>
      </trkpt>
      <trkpt lat="44.70331" lon="6.34858">
        <ele>2286.2</ele>
        <time>2026-07-10T08:50:16+00:00</time>
      </trkpt>
      <trkpt lat="44.70329" lon="6.34861">
        <ele>2286.4</ele>
        <time>2026-07-10T08:50:18+00:00</time>
      </trkpt>
      <trkpt lat="44.70328" lon="6.34864">
        <ele>2285.8</ele>
        <time>2026-07-10T08:50:20+00:00</time>
      </trkpt>
      <trkpt lat="44.70327" lon="6.34867">
        <ele>2285.3</ele>
        <time>2026-07-10T08:50:22+00:00</time>
      </trkpt>
      <trkpt lat="44.70325" lon="6.3487">
        <ele>2284.7</ele>
        <time>2026-07-10T08:50:25+00:00</time>
      </trkpt>
      <trkpt lat="44.70323" lon="6.34873">
        <ele>2284.4</ele>
        <time>2026-07-10T08:50:27+00:00</time>
      </trkpt>
      <trkpt lat="44.70322" lon="6.34876">
        <ele>2284.1</ele>
        <time>2026-07-10T08:50:29+00:00</time>
      </trkpt>
      <trkpt lat="44.70321" lon="6.34879">
        <ele>2283.9</ele>
        <time>2026-07-10T08:50:30+00:00</time>
      </trkpt>
      <trkpt lat="44.7032" lon="6.34882">
        <ele>2283.8</ele>
        <time>2026-07-10T08:50:33+00:00</time>
      </trkpt>
      <trkpt lat="44.70319" lon="6.34886">
        <ele>2292</ele>
        <time>2026-07-10T08:50:34+00:00</time>
      </trkpt>
      <trkpt lat="44.70319" lon="6.34889">
        <ele>2283.6</ele>
        <time>2026-07-10T08:50:36+00:00</time>
      </trkpt>
      <trkpt lat="44.70318" lon="6.34891">
        <ele>2283.4</ele>
        <time>2026-07-10T08:50:38+00:00</time>
      </trkpt>
      <trkpt lat="44.70317" lon="6.34894">
        <ele>2283.1</ele>
        <time>2026-07-10T08:50:40+00:00</time>
      </trkpt>
      <trkpt lat="44.70316" lon="6.34896">
        <ele>2283.1</ele>
        <time>2026-07-10T08:50:43+00:00</time>
      </trkpt>
      <trkpt lat="44.70315" lon="6.34899">
        <ele>2282.9</ele>
        <time>2026-07-10T08:50:59+00:00</time>
      </trkpt>
      <trkpt lat="44.70314" lon="6.34903">
        <ele>2282.7</ele>
        <time>2026-07-10T08:51:02+00:00</time>
      </trkpt>
      <trkpt lat="44.70313" lon="6.34905">
        <ele>2282.8</ele>
        <time>2026-07-10T08:51:05+00:00</time>
      </trkpt>
      <trkpt lat="44.70312" lon="6.34908">
        <ele>2282.9</ele>
        <time>2026-07-10T08:51:07+00:00</time>
      </trkpt>
      <trkpt lat="44.7031" lon="6.34911">
        <ele>2283.4</ele>
        <time>2026-07-10T08:51:08+00:00</time>
      </trkpt>
      <trkpt lat="44.70309" lon="6.34914">
        <ele>2283.6</ele>
        <time>2026-07-10T08:51:10+00:00</time>
      </trkpt>
      <trkpt lat="44.70308" lon="6.34917">
        <ele>2283.8</ele>
        <time>2026-07-10T08:51:12+00:00</time>
      </trkpt>
      <trkpt lat="44.70306" lon="6.34921">
        <ele>2290</ele>
        <time>2026-07-10T08:51:14+00:00</time>
      </trkpt>
      <trkpt lat="44.70306" lon="6.34925">
        <ele>2283</ele>
        <time>2026-07-10T08:51:17+00:00</time>
      </trkpt>
      <trkpt lat="44.70304" lon="6.34928">
        <ele>2282.8</ele>
        <time>2026-07-10T08:51:18+00:00</time>
      </trkpt>
      <trkpt lat="44.70304" lon="6.34931">
        <ele>2282.2</ele>
        <time>2026-07-10T08:51:21+00:00</time>
      </trkpt>
      <trkpt lat="44.70303" lon="6.34934">
        <ele>2281.8</ele>
        <time>2026-07-10T08:51:23+00:00</time>
      </trkpt>
      <trkpt lat="44.70301" lon="6.34937">
        <ele>2281.7</ele>
        <time>2026-07-10T08:51:25+00:00</time>
      </trkpt>
      <trkpt lat="44.70299" lon="6.34938">
        <ele>2282.1</ele>
        <time>2026-07-10T08:51:26+00:00</time>
      </trkpt>
      <trkpt lat="44.70296" lon="6.3494">
        <ele>2282.6</ele>
        <time>2026-07-10T08:51:29+00:00</time>
      </trkpt>
      <trkpt lat="44.70294" lon="6.34941">
        <ele>2283.1</ele>
        <time>2026-07-10T08:51:31+00:00</time>
      </trkpt>
      <trkpt lat="44.70292" lon="6.34943">
        <ele>2283.5</ele>
        <time>2026-07-10T08:51:33+00:00</time>
      </trkpt>
      <trkpt lat="44.7029" lon="6.34946">
        <ele>2288</ele>
        <time>2026-07-10T08:51:34+00:00</time>
      </trkpt>
      <trkpt lat="44.70288" lon="6.34948">
        <ele>2284.3</ele>
        <time>2026-07-10T08:51:36+00:00</time>
      </trkpt>
      <trkpt lat="44.70287" lon="6.34951">
        <ele>2284.3</ele>
        <time>2026-07-10T08:51:38+00:00</time>
      </trkpt>
      <trkpt lat="44.70285" lon="6.34954">
        <ele>2284.8</ele>
        <time>2026-07-10T08:51:41+00:00</time>
      </trkpt>
      <trkpt lat="44.70283" lon="6.34957">
        <ele>2285.3</ele>
        <time>2026-07-10T08:51:42+00:00</time>
      </trkpt>
      <trkpt lat="44.7028" lon="6.34959">
        <ele>2286.5</ele>
        <time>2026-07-10T08:51:45+00:00</time>
      </trkpt>
      <trkpt lat="44.70278" lon="6.34961">
        <ele>2287.3</ele>
        <time>2026-07-10T08:51:47+00:00</time>
      </trkpt>
      <trkpt lat="44.70276" lon="6.34964">
        <ele>2287.4</ele>
        <time>2026-07-10T08:51:48+00:00</time>
      </trkpt>
      <trkpt lat="44.70274" lon="6.34965">
        <ele>2287.4</ele>
        <time>2026-07-10T08:51:50+00:00</time>
      </trkpt>
      <trkpt lat="44.70272" lon="6.34966">
        <ele>2287.5</ele>
        <time>2026-07-10T08:51:52+00:00</time>
      </trkpt>
      <trkpt lat="44.7027" lon="6.34968">
        <ele>2287.7</ele>
        <time>2026-07-10T08:51:55+00:00</time>
      </trkpt>
      <trkpt lat="44.70268" lon="6.34971">
        <ele>2288</ele>
        <time>2026-07-10T08:51:56+00:00</time>
      </trkpt>
      <trkpt lat="44.70266" lon="6.34974">
        <ele>2288</ele>
        <time>2026-07-10T08:51:59+00:00</time>
      </trkpt>
      <trkpt lat="44.70265" lon="6.34976">
        <ele>2287.8</ele>
        <time>2026-07-10T08:52:01+00:00</time>
      </trkpt>
      <trkpt lat="44.70263" lon="6.34978">
        <ele>2287.8</ele>
        <time>2026-07-10T08:52:03+00:00</time>
      </trkpt>
      <trkpt lat="44.70261" lon="6.34979">
        <ele>2288</ele>
        <time>2026-07-10T08:52:06+00:00</time>
      </trkpt>
      <trkpt lat="44.70259" lon="6.34981">
        <ele>2288.2</ele>
        <time>2026-07-10T08:52:08+00:00</time>
      </trkpt>
      <trkpt lat="44.70257" lon="6.34982">
        <ele>2288.5</ele>
        <time>2026-07-10T08:52:10+00:00</time>
      </trkpt>
      <trkpt lat="44.70255" lon="6.34983">
        <ele>2288.9</ele>
        <time>2026-07-10T08:52:11+00:00</time>
      </trkpt>
      <trkpt lat="44.70253" lon="6.34985">
        <ele>2295</ele>
        <time>2026-07-10T08:52:14+00:00</time>
      </trkpt>
      <trkpt lat="44.70251" lon="6.34986">
        <ele>2289.7</ele>
        <time>2026-07-10T08:52:15+00:00</time>
      </trkpt>
      <trkpt lat="44.70249" lon="6.34987">
        <ele>2289.8</ele>
        <time>2026-07-10T08:52:18+00:00</time>
      </trkpt>
      <trkpt lat="44.70247" lon="6.34989">
        <ele>2289.5</ele>
        <time>2026-07-10T08:52:20+00:00</time>
      </trkpt>
      <trkpt lat="44.70245" lon="6.34991">
        <ele>2289.2</ele>
        <time>2026-07-10T08:52:21+00:00</time>
      </trkpt>
      <trkpt lat="44.70244" lon="6.34993">
        <ele>2297</ele>
        <time>2026-07-10T08:52:24+00:00</time>
      </trkpt>
      <trkpt lat="44.70242" lon="6.34994">
        <ele>2288.9</ele>
        <time>2026-07-10T08:52:25+00:00</time>
      </trkpt>
      <trkpt lat="44.7024" lon="6.34996">
        <ele>2288.7</ele>
        <time>2026-07-10T08:52:28+00:00</time>
      </trkpt>
      <trkpt lat="44.70238" lon="6.34998">
        <ele>2288.6</ele>
        <time>2026-07-10T08:52:29+00:00</time>
      </trkpt>
      <trkpt lat="44.70236" lon="6.35001">
        <ele>2288.4</ele>
        <time>2026-07-10T08:52:32+00:00</time>
      </trkpt>
      <trkpt lat="44.70235" lon="6.35004">
        <ele>2300</ele>
        <time>2026-07-10T08:52:34+00:00</time>
      </trkpt>
      <trkpt lat="44.70235" lon="6.35007">
        <ele>2287.9</ele>
        <time>2026-07-10T08:52:43+00:00</time>
      </trkpt>
      <trkpt lat="44.70235" lon="6.35011">
        <ele>2287.6</ele>
        <time>2026-07-10T08:52:46+00:00</time>
      </trkpt>
      <trkpt lat="44.70235" lon="6.35014">
        <ele>2301</ele>
        <time>2026-07-10T08:52:54+00:00</time>
      </trkpt>
      <trkpt lat="44.70234" lon="6.35017">
        <ele>2287.3</ele>
        <time>2026-07-10T08:52:56+00:00</time>
      </trkpt>
      <trkpt lat="44.70234" lon="6.35021">
        <ele>2287</ele>
        <time>2026-07-10T08:52:57+00:00</time>
      </trkpt>
      <trkpt lat="44.70233" lon="6.35025">
        <ele>2287</ele>
        <time>2026-07-10T08:52:59+00:00</time>
      </trkpt>
      <trkpt lat="44.70232" lon="6.35028">
        <ele>2287.2</ele>
        <time>2026-07-10T08:53:01+00:00</time>
      </trkpt>
      <trkpt lat="44.70231" lon="6.35032">
        <ele>2299</ele>
        <time>2026-07-10T08:53:04+00:00</time>
      </trkpt>
      <trkpt lat="44.7023" lon="6.35035">
        <ele>2287.3</ele>
        <time>2026-07-10T08:53:06+00:00</time>
      </trkpt>
      <trkpt lat="44.70228" lon="6.35038">
        <ele>2287.9</ele>
        <time>2026-07-10T08:53:07+00:00</time>
      </trkpt>
      <trkpt lat="44.70227" lon="6.35041">
        <ele>2288.1</ele>
        <time>2026-07-10T08:53:10+00:00</time>
      </trkpt>
      <trkpt lat="44.70226" lon="6.35045">
        <ele>2288.4</ele>
        <time>2026-07-10T08:53:11+00:00</time>
      </trkpt>
      <trkpt lat="44.70225" lon="6.35048">
        <ele>2288.8</ele>
        <time>2026-07-10T08:53:13+00:00</time>
      </trkpt>
      <trkpt lat="44.70225" lon="6.35051">
        <ele>2288.7</ele>
        <time>2026-07-10T08:53:16+00:00</time>
      </trkpt>
      <trkpt lat="44.70225" lon="6.35054">
        <ele>2288.6</ele>
        <time>2026-07-10T08:53:18+00:00</time>
      </trkpt>
      <trkpt lat="44.70224" lon="6.35057">
        <ele>2289.1</ele>
        <time>2026-07-10T08:53:20+00:00</time>
      </trkpt>
      <trkpt lat="44.70225" lon="6.3506">
        <ele>2288.5</ele>
        <time>2026-07-10T08:53:22+00:00</time>
      </trkpt>
      <trkpt lat="44.70225" lon="6.35063">
        <ele>2288.5</ele>
        <time>2026-07-10T08:53:23+00:00</time>
      </trkpt>
      <trkpt lat="44.70225" lon="6.35066">
        <ele>2288.4</ele>
        <time>2026-07-10T08:53:25+00:00</time>
      </trkpt>
      <trkpt lat="44.70225" lon="6.35069">
        <ele>2288.4</ele>
        <time>2026-07-10T08:53:27+00:00</time>
      </trkpt>
      <trkpt lat="44.70224" lon="6.35071">
        <ele>2289</ele>
        <time>2026-07-10T08:53:29+00:00</time>
      </trkpt>
      <trkpt lat="44.70225" lon="6.35074">
        <ele>2288.3</ele>
        <time>2026-07-10T08:53:31+00:00</time>
      </trkpt>
      <trkpt lat="44.70224" lon="6.35077">
        <ele>2288.9</ele>
        <time>2026-07-10T08:53:33+00:00</time>
      </trkpt>
      <trkpt lat="44.70225" lon="6.35081">
        <ele>2288.2</ele>
        <time>2026-07-10T08:53:36+00:00</time>
      </trkpt>
      <trkpt lat="44.70225" lon="6.35085">
        <ele>2288</ele>
        <time>2026-07-10T08:53:38+00:00</time>
      </trkpt>
      <trkpt lat="44.70224" lon="6.35088">
        <ele>2288.3</ele>
        <time>2026-07-10T08:53:39+00:00</time>
      </trkpt>
      <trkpt lat="44.70224" lon="6.35092">
        <ele>2287.9</ele>
        <time>2026-07-10T08:53:42+00:00</time>
      </trkpt>
      <trkpt lat="44.70223" lon="6.35096">
        <ele>2294</ele>
        <time>2026-07-10T08:53:44+00:00</time>
      </trkpt>
      <trkpt lat="44.70222" lon="6.351">
        <ele>2288.2</ele>
        <time>2026-07-10T08:53:45+00:00</time>
      </trkpt>
      <trkpt lat="44.70221" lon="6.35104">
        <ele>2287.9</ele>
        <time>2026-07-10T08:53:47+00:00</time>
      </trkpt>
      <trkpt lat="44.70219" lon="6.35107">
        <ele>2287.9</ele>
        <time>2026-07-10T08:53:50+00:00</time>
      </trkpt>
      <trkpt lat="44.70218" lon="6.3511">
        <ele>2287.9</ele>
        <time>2026-07-10T08:53:52+00:00</time>
      </trkpt>
      <trkpt lat="44.70217" lon="6.35113">
        <ele>2293</ele>
        <time>2026-07-10T08:53:54+00:00</time>
      </trkpt>
      <trkpt lat="44.70215" lon="6.35116">
        <ele>2287.7</ele>
        <time>2026-07-10T08:53:56+00:00</time>
      </trkpt>
      <trkpt lat="44.70214" lon="6.3512">
        <ele>2287.2</ele>
        <time>2026-07-10T08:53:57+00:00</time>
      </trkpt>
      <trkpt lat="44.70213" lon="6.35123">
        <ele>2287</ele>
        <time>2026-07-10T08:53:59+00:00</time>
      </trkpt>
      <trkpt lat="44.70211" lon="6.35125">
        <ele>2287.2</ele>
        <time>2026-07-10T08:54:01+00:00</time>
      </trkpt>
      <trkpt lat="44.7021" lon="6.35128">
        <ele>2294</ele>
        <time>2026-07-10T08:54:04+00:00</time>
      </trkpt>
      <trkpt lat="44.70208" lon="6.35131">
        <ele>2287.2</ele>
        <time>2026-07-10T08:54:06+00:00</time>
      </trkpt>
      <trkpt lat="44.70206" lon="6.35134">
        <ele>2287.5</ele>
        <time>2026-07-10T08:54:07+00:00</time>
      </trkpt>
      <trkpt lat="44.70203" lon="6.35137">
        <ele>2288.1</ele>
        <time>2026-07-10T08:54:09+00:00</time>
      </trkpt>
      <trkpt lat="44.70201" lon="6.35139">
        <ele>2288.6</ele>
        <time>2026-07-10T08:54:11+00:00</time>
      </trkpt>
      <trkpt lat="44.70199" lon="6.35142">
        <ele>2288.9</ele>
        <time>2026-07-10T08:54:13+00:00</time>
      </trkpt>
      <trkpt lat="44.70198" lon="6.35144">
        <ele>2288.9</ele>
        <time>2026-07-10T08:54:15+00:00</time>
      </trkpt>
      <trkpt lat="44.70196" lon="6.35147">
        <ele>2289.2</ele>
        <time>2026-07-10T08:54:18+00:00</time>
      </trkpt>
      <trkpt lat="44.70194" lon="6.3515">
        <ele>2289.3</ele>
        <time>2026-07-10T08:54:20+00:00</time>
      </trkpt>
      <trkpt lat="44.70192" lon="6.35153">
        <ele>2288.4</ele>
        <time>2026-07-10T08:54:21+00:00</time>
      </trkpt>
      <trkpt lat="44.7019" lon="6.35156">
        <ele>2287.7</ele>
        <time>2026-07-10T08:54:23+00:00</time>
      </trkpt>
      <trkpt lat="44.70188" lon="6.35159">
        <ele>2287.2</ele>
        <time>2026-07-10T08:54:26+00:00</time>
      </trkpt>
      <trkpt lat="44.70186" lon="6.35161">
        <ele>2286.8</ele>
        <time>2026-07-10T08:54:27+00:00</time>
      </trkpt>
      <trkpt lat="44.70184" lon="6.35163">
        <ele>2286.6</ele>
        <time>2026-07-10T08:54:29+00:00</time>
      </trkpt>
      <trkpt lat="44.70182" lon="6.35166">
        <ele>2286.5</ele>
        <time>2026-07-10T08:54:31+00:00</time>
      </trkpt>
      <trkpt lat="44.7018" lon="6.35168">
        <ele>2295</ele>
        <time>2026-07-10T08:54:34+00:00</time>
      </trkpt>
      <trkpt lat="44.70179" lon="6.35171">
        <ele>2286.2</ele>
        <time>2026-07-10T08:54:35+00:00</time>
      </trkpt>
      <trkpt lat="44.70177" lon="6.35173">
        <ele>2286.1</ele>
        <time>2026-07-10T08:54:38+00:00</time>
      </trkpt>
      <trkpt lat="44.70175" lon="6.35175">
        <ele>2286.1</ele>
        <time>2026-07-10T08:54:40+00:00</time>
      </trkpt>
      <trkpt lat="44.70173" lon="6.35177">
        <ele>2286.1</ele>
        <time>2026-07-10T08:54:41+00:00</time>
      </trkpt>
      <trkpt lat="44.70172" lon="6.35178">
        <ele>2286.1</ele>
        <time>2026-07-10T08:54:43+00:00</time>
      </trkpt>
      <trkpt lat="44.70169" lon="6.3518">
        <ele>2286.3</ele>
        <time>2026-07-10T08:55:06+00:00</time>
      </trkpt>
      <trkpt lat="44.70167" lon="6.35181">
        <ele>2286.5</ele>
        <time>2026-07-10T08:55:08+00:00</time>
      </trkpt>
      <trkpt lat="44.70165" lon="6.35181">
        <ele>2286.1</ele>
        <time>2026-07-10T08:55:10+00:00</time>
      </trkpt>
      <trkpt lat="44.70162" lon="6.35182">
        <ele>2285.4</ele>
        <time>2026-07-10T08:55:12+00:00</time>
      </trkpt>
      <trkpt lat="44.7016" lon="6.35182">
        <ele>2294</ele>
        <time>2026-07-10T08:55:14+00:00</time>
      </trkpt>
      <trkpt lat="44.70158" lon="6.35182">
        <ele>2284.4</ele>
        <time>2026-07-10T08:55:16+00:00</time>
      </trkpt>
      <trkpt lat="44.70156" lon="6.35183">
        <ele>2284</ele>
        <time>2026-07-10T08:55:18+00:00</time>
      </trkpt>
      <trkpt lat="44.70153" lon="6.35183">
        <ele>2283.2</ele>
        <time>2026-07-10T08:55:20+00:00</time>
      </trkpt>
      <trkpt lat="44.70152" lon="6.35183">
        <ele>2283</ele>
        <time>2026-07-10T08:55:22+00:00</time>
      </trkpt>
      <trkpt lat="44.70149" lon="6.35184">
        <ele>2291</ele>
        <time>2026-07-10T08:55:24+00:00</time>
      </trkpt>
      <trkpt lat="44.70147" lon="6.35185">
        <ele>2281.9</ele>
        <time>2026-07-10T08:55:27+00:00</time>
      </trkpt>
      <trkpt lat="44.70145" lon="6.35185">
        <ele>2281.4</ele>
        <time>2026-07-10T08:55:29+00:00</time>
      </trkpt>
      <trkpt lat="44.70142" lon="6.35186">
        <ele>2280.8</ele>
        <time>2026-07-10T08:55:30+00:00</time>
      </trkpt>
      <trkpt lat="44.7014" lon="6.35188">
        <ele>2280.6</ele>
        <time>2026-07-10T08:55:32+00:00</time>
      </trkpt>
      <trkpt lat="44.70137" lon="6.35189">
        <ele>2280</ele>
        <time>2026-07-10T08:55:35+00:00</time>
      </trkpt>
      <trkpt lat="44.70134" lon="6.3519">
        <ele>2279.4</ele>
        <time>2026-07-10T08:55:37+00:00</time>
      </trkpt>
      <trkpt lat="44.70131" lon="6.35191">
        <ele>2278.9</ele>
        <time>2026-07-10T08:55:38+00:00</time>
      </trkpt>
      <trkpt lat="44.70129" lon="6.35193">
        <ele>2278.7</ele>
        <time>2026-07-10T08:55:40+00:00</time>
      </trkpt>
      <trkpt lat="44.70126" lon="6.35194">
        <ele>2278.2</ele>
        <time>2026-07-10T08:55:43+00:00</time>
      </trkpt>
      <trkpt lat="44.70123" lon="6.35195">
        <ele>2284</ele>
        <time>2026-07-10T08:55:44+00:00</time>
      </trkpt>
      <trkpt lat="44.7012" lon="6.35196">
        <ele>2276.7</ele>
        <time>2026-07-10T08:55:46+00:00</time>
      </trkpt>
      <trkpt lat="44.70118" lon="6.35198">
        <ele>2275.9</ele>
        <time>2026-07-10T08:55:49+00:00</time>
      </trkpt>
      <trkpt lat="44.70116" lon="6.35199">
        <ele>2275.3</ele>
        <time>2026-07-10T08:55:51+00:00</time>
      </trkpt>
      <trkpt lat="44.70114" lon="6.35199">
        <ele>2274.9</ele>
        <time>2026-07-10T08:55:52+00:00</time>
      </trkpt>
      <trkpt lat="44.70112" lon="6.35199">
        <ele>2281</ele>
        <time>2026-07-10T08:55:54+00:00</time>
      </trkpt>
      <trkpt lat="44.70109" lon="6.352">
        <ele>2273.7</ele>
        <time>2026-07-10T08:55:56+00:00</time>
      </trkpt>
      <trkpt lat="44.70107" lon="6.35199">
        <ele>2273.4</ele>
        <time>2026-07-10T08:55:58+00:00</time>
      </trkpt>
      <trkpt lat="44.70104" lon="6.35199">
        <ele>2272.7</ele>
        <time>2026-07-10T08:56:00+00:00</time>
      </trkpt>
      <trkpt lat="44.70102" lon="6.35198">
        <ele>2272.3</ele>
        <time>2026-07-10T08:56:02+00:00</time>
      </trkpt>
      <trkpt lat="44.70099" lon="6.35199">
        <ele>2271.5</ele>
        <time>2026-07-10T08:56:05+00:00</time>
      </trkpt>
      <trkpt lat="44.70097" lon="6.352">
        <ele>2270.9</ele>
        <time>2026-07-10T08:56:07+00:00</time>
      </trkpt>
      <trkpt lat="44.70094" lon="6.352">
        <ele>2270.3</ele>
        <time>2026-07-10T08:56:08+00:00</time>
      </trkpt>
      <trkpt lat="44.70092" lon="6.35202">
        <ele>2269.7</ele>
        <time>2026-07-10T08:56:11+00:00</time>
      </trkpt>
      <trkpt lat="44.7009" lon="6.35203">
        <ele>2269.2</ele>
        <time>2026-07-10T08:56:13+00:00</time>
      </trkpt>
      <trkpt lat="44.70087" lon="6.35204">
        <ele>2275</ele>
        <time>2026-07-10T08:56:14+00:00</time>
      </trkpt>
      <trkpt lat="44.70085" lon="6.35205">
        <ele>2268</ele>
        <time>2026-07-10T08:56:16+00:00</time>
      </trkpt>
      <trkpt lat="44.70082" lon="6.35206">
        <ele>2267.1</ele>
        <time>2026-07-10T08:56:18+00:00</time>
      </trkpt>
      <trkpt lat="44.7008" lon="6.35208">
        <ele>2266.4</ele>
        <time>2026-07-10T08:56:21+00:00</time>
      </trkpt>
      <trkpt lat="44.70078" lon="6.35209">
        <ele>2265.7</ele>
        <time>2026-07-10T08:56:22+00:00</time>
      </trkpt>
      <trkpt lat="44.70076" lon="6.35211">
        <ele>2273</ele>
        <time>2026-07-10T08:56:24+00:00</time>
      </trkpt>
      <trkpt lat="44.70074" lon="6.35212">
        <ele>2264.3</ele>
        <time>2026-07-10T08:56:27+00:00</time>
      </trkpt>
      <trkpt lat="44.70071" lon="6.35214">
        <ele>2263.3</ele>
        <time>2026-07-10T08:56:29+00:00</time>
      </trkpt>
      <trkpt lat="44.70069" lon="6.35215">
        <ele>2262.7</ele>
        <time>2026-07-10T08:56:31+00:00</time>
      </trkpt>
      <trkpt lat="44.70067" lon="6.35217">
        <ele>2262.2</ele>
        <time>2026-07-10T08:56:32+00:00</time>
      </trkpt>
      <trkpt lat="44.70065" lon="6.35218">
        <ele>2272</ele>
        <time>2026-07-10T08:56:34+00:00</time>
      </trkpt>
      <trkpt lat="44.70062" lon="6.35219">
        <ele>2260.7</ele>
        <time>2026-07-10T08:56:36+00:00</time>
      </trkpt>
      <trkpt lat="44.7006" lon="6.35219">
        <ele>2260.1</ele>
        <time>2026-07-10T08:56:38+00:00</time>
      </trkpt>
      <trkpt lat="44.70058" lon="6.35219">
        <ele>2259.5</ele>
        <time>2026-07-10T08:56:40+00:00</time>
      </trkpt>
      <trkpt lat="44.70055" lon="6.35218">
        <ele>2258.5</ele>
        <time>2026-07-10T08:56:42+00:00</time>
      </trkpt>
      <trkpt lat="44.70053" lon="6.35218">
        <ele>2257.7</ele>
        <time>2026-07-10T08:56:45+00:00</time>
      </trkpt>
      <trkpt lat="44.70051" lon="6.35217">
        <ele>2256.8</ele>
        <time>2026-07-10T08:56:47+00:00</time>
      </trkpt>
      <trkpt lat="44.70048" lon="6.35217">
        <ele>2255.6</ele>
        <time>2026-07-10T08:56:49+00:00</time>
      </trkpt>
      <trkpt lat="44.70045" lon="6.35218">
        <ele>2254.5</ele>
        <time>2026-07-10T08:56:51+00:00</time>
      </trkpt>
      <trkpt lat="44.70043" lon="6.35218">
        <ele>2253.7</ele>
        <time>2026-07-10T08:56:52+00:00</time>
      </trkpt>
      <trkpt lat="44.7004" lon="6.35218">
        <ele>2262</ele>
        <time>2026-07-10T08:56:54+00:00</time>
      </trkpt>
      <trkpt lat="44.70037" lon="6.35218">
        <ele>2251.2</ele>
        <time>2026-07-10T08:56:56+00:00</time>
      </trkpt>
      <trkpt lat="44.70035" lon="6.35219">
        <ele>2250.5</ele>
        <time>2026-07-10T08:56:58+00:00</time>
      </trkpt>
      <trkpt lat="44.70033" lon="6.35219">
        <ele>2249.7</ele>
        <time>2026-07-10T08:57:00+00:00</time>
      </trkpt>
      <trkpt lat="44.70031" lon="6.35218">
        <ele>2248.8</ele>
        <time>2026-07-10T08:57:13+00:00</time>
      </trkpt>
      <trkpt lat="44.70028" lon="6.35218">
        <ele>2260</ele>
        <time>2026-07-10T08:57:14+00:00</time>
      </trkpt>
      <trkpt lat="44.70026" lon="6.35218">
        <ele>2247.1</ele>
        <time>2026-07-10T08:57:17+00:00</time>
      </trkpt>
      <trkpt lat="44.70023" lon="6.35218">
        <ele>2246.3</ele>
        <time>2026-07-10T08:57:18+00:00</time>
      </trkpt>
      <trkpt lat="44.7002" lon="6.35219">
        <ele>2245.7</ele>
        <time>2026-07-10T08:57:20+00:00</time>
      </trkpt>
      <trkpt lat="44.70018" lon="6.35218">
        <ele>2245.1</ele>
        <time>2026-07-10T08:57:23+00:00</time>
      </trkpt>
      <trkpt lat="44.70015" lon="6.35218">
        <ele>2257</ele>
        <time>2026-07-10T08:57:24+00:00</time>
      </trkpt>
      <trkpt lat="44.70012" lon="6.35218">
        <ele>2243.6</ele>
        <time>2026-07-10T08:57:26+00:00</time>
      </trkpt>
      <trkpt lat="44.70009" lon="6.35218">
        <ele>2242.8</ele>
        <time>2026-07-10T08:57:28+00:00</time>
      </trkpt>
      <trkpt lat="44.70007" lon="6.35218">
        <ele>2242.3</ele>
        <time>2026-07-10T08:57:30+00:00</time>
      </trkpt>
      <trkpt lat="44.70004" lon="6.35218">
        <ele>2241.6</ele>
        <time>2026-07-10T08:57:32+00:00</time>
      </trkpt>
      <trkpt lat="44.70001" lon="6.35218">
        <ele>2255</ele>
        <time>2026-07-10T08:57:34+00:00</time>
      </trkpt>
      <trkpt lat="44.69999" lon="6.35217">
        <ele>2240.1</ele>
        <time>2026-07-10T08:57:37+00:00</time>
      </trkpt>
      <trkpt lat="44.69997" lon="6.35217">
        <ele>2239.4</ele>
        <time>2026-07-10T08:57:39+00:00</time>
      </trkpt>
      <trkpt lat="44.69994" lon="6.35216">
        <ele>2238.2</ele>
        <time>2026-07-10T08:57:41+00:00</time>
      </trkpt>
      <trkpt lat="44.69992" lon="6.35216">
        <ele>2253</ele>
        <time>2026-07-10T08:57:44+00:00</time>
      </trkpt>
      <trkpt lat="44.6999" lon="6.35216">
        <ele>2236.7</ele>
        <time>2026-07-10T08:57:47+00:00</time>
      </trkpt>
      <trkpt lat="44.6999" lon="6.35218">
        <ele>2236.9</ele>
        <time>2026-07-10T08:58:00+00:00</time>
      </trkpt>
      <trkpt lat="44.69989" lon="6.35216">
        <ele>2236.4</ele>
        <time>2026-07-10T08:58:05+00:00</time>
      </trkpt>
      <trkpt lat="44.69987" lon="6.35216">
        <ele>2235.6</ele>
        <time>2026-07-10T08:58:09+00:00</time>
      </trkpt>
      <trkpt lat="44.69985" lon="6.35215">
        <ele>2234.8</ele>
        <time>2026-07-10T08:58:15+00:00</time>
      </trkpt>
      <trkpt lat="44.69987" lon="6.35214">
        <ele>2235.4</ele>
        <time>2026-07-10T08:58:23+00:00</time>
      </trkpt>
      <trkpt lat="44.69989" lon="6.35212">
        <ele>2235.9</ele>
        <time>2026-07-10T08:58:28+00:00</time>
      </trkpt>
      <trkpt lat="44.69987" lon="6.35211">
        <ele>2249</ele>
        <time>2026-07-10T08:58:34+00:00</time>
      </trkpt>
      <trkpt lat="44.69985" lon="6.3521">
        <ele>2234.3</ele>
        <time>2026-07-10T08:58:36+00:00</time>
      </trkpt>
      <trkpt lat="44.69983" lon="6.3521">
        <ele>2233.6</ele>
        <time>2026-07-10T08:58:39+00:00</time>
      </trkpt>
      <trkpt lat="44.69982" lon="6.35211">
        <ele>2233.3</ele>
        <time>2026-07-10T08:58:40+00:00</time>
      </trkpt>
      <trkpt lat="44.69979" lon="6.35212">
        <ele>2247</ele>
        <time>2026-07-10T08:58:44+00:00</time>
      </trkpt>
      <trkpt lat="44.69977" lon="6.35212">
        <ele>2231.6</ele>
        <time>2026-07-10T08:58:46+00:00</time>
      </trkpt>
      <trkpt lat="44.69975" lon="6.35212">
        <ele>2230.9</ele>
        <time>2026-07-10T08:58:49+00:00</time>
      </trkpt>
      <trkpt lat="44.69973" lon="6.35213">
        <ele>2230.3</ele>
        <time>2026-07-10T08:58:51+00:00</time>
      </trkpt>
      <trkpt lat="44.69971" lon="6.35214">
        <ele>2229.9</ele>
        <time>2026-07-10T08:58:53+00:00</time>
      </trkpt>
      <trkpt lat="44.69968" lon="6.35214">
        <ele>2229.2</ele>
        <time>2026-07-10T08:58:56+00:00</time>
      </trkpt>
      <trkpt lat="44.69965" lon="6.35215">
        <ele>2228.7</ele>
        <time>2026-07-10T08:58:57+00:00</time>
      </trkpt>
      <trkpt lat="44.69962" lon="6.35215">
        <ele>2228.1</ele>
        <time>2026-07-10T08:58:59+00:00</time>
      </trkpt>
      <trkpt lat="44.69959" lon="6.35216">
        <ele>2227.6</ele>
        <time>2026-07-10T08:59:02+00:00</time>
      </trkpt>
      <trkpt lat="44.69956" lon="6.35216">
        <ele>2227</ele>
        <time>2026-07-10T08:59:03+00:00</time>
      </trkpt>
      <trkpt lat="44.69954" lon="6.35217">
        <ele>2226.6</ele>
        <time>2026-07-10T08:59:06+00:00</time>
      </trkpt>
      <trkpt lat="44.69951" lon="6.35217">
        <ele>2226</ele>
        <time>2026-07-10T08:59:08+00:00</time>
      </trkpt>
      <trkpt lat="44.69948" lon="6.35217">
        <ele>2225.4</ele>
        <time>2026-07-10T08:59:09+00:00</time>
      </trkpt>
      <trkpt lat="44.69945" lon="6.35218">
        <ele>2224.8</ele>
        <time>2026-07-10T08:59:11+00:00</time>
      </trkpt>
      <trkpt lat="44.69943" lon="6.35219">
        <ele>2224.4</ele>
        <time>2026-07-10T08:59:13+00:00</time>
      </trkpt>
      <trkpt lat="44.69941" lon="6.3522">
        <ele>2224</ele>
        <time>2026-07-10T08:59:15+00:00</time>
      </trkpt>
      <trkpt lat="44.69938" lon="6.35221">
        <ele>2223.3</ele>
        <time>2026-07-10T08:59:18+00:00</time>
      </trkpt>
      <trkpt lat="44.69935" lon="6.35222">
        <ele>2222.6</ele>
        <time>2026-07-10T08:59:20+00:00</time>
      </trkpt>
      <trkpt lat="44.69932" lon="6.35222">
        <ele>2221.9</ele>
        <time>2026-07-10T08:59:21+00:00</time>
      </trkpt>
      <trkpt lat="44.6993" lon="6.35222">
        <ele>2221.4</ele>
        <time>2026-07-10T08:59:23+00:00</time>
      </trkpt>
      <trkpt lat="44.69927" lon="6.35221">
        <ele>2220.6</ele>
        <time>2026-07-10T08:59:25+00:00</time>
      </trkpt>
      <trkpt lat="44.69925" lon="6.35221">
        <ele>2220.1</ele>
        <time>2026-07-10T08:59:27+00:00</time>
      </trkpt>
      <trkpt lat="44.69923" lon="6.3522">
        <ele>2219.6</ele>
        <time>2026-07-10T08:59:29+00:00</time>
      </trkpt>
      <trkpt lat="44.69921" lon="6.35218">
        <ele>2219.2</ele>
        <time>2026-07-10T08:59:32+00:00</time>
      </trkpt>
      <trkpt lat="44.6992" lon="6.35218">
        <ele>2233</ele>
        <time>2026-07-10T08:59:34+00:00</time>
      </trkpt>
      <trkpt lat="44.69917" lon="6.35217">
        <ele>2218.3</ele>
        <time>2026-07-10T08:59:35+00:00</time>
      </trkpt>
      <trkpt lat="44.69915" lon="6.35216">
        <ele>2217.6</ele>
        <time>2026-07-10T08:59:37+00:00</time>
      </trkpt>
      <trkpt lat="44.69913" lon="6.35216">
        <ele>2216.9</ele>
        <time>2026-07-10T08:59:40+00:00</time>
      </trkpt>
      <trkpt lat="44.6991" lon="6.35215">
        <ele>2215.9</ele>
        <time>2026-07-10T08:59:42+00:00</time>
      </trkpt>
      <trkpt lat="44.69908" lon="6.35215">
        <ele>2215.2</ele>
        <time>2026-07-10T08:59:43+00:00</time>
      </trkpt>
      <trkpt lat="44.69905" lon="6.35215">
        <ele>2214.2</ele>
        <time>2026-07-10T08:59:45+00:00</time>
      </trkpt>
      <trkpt lat="44.69902" lon="6.35216">
        <ele>2213</ele>
        <time>2026-07-10T08:59:47+00:00</time>
      </trkpt>
      <trkpt lat="44.699" lon="6.35216">
        <ele>2212.3</ele>
        <time>2026-07-10T08:59:49+00:00</time>
      </trkpt>
      <trkpt lat="44.69898" lon="6.35216">
        <ele>2211.6</ele>
        <time>2026-07-10T08:59:51+00:00</time>
      </trkpt>
      <trkpt lat="44.69896" lon="6.35214">
        <ele>2211.2</ele>
        <time>2026-07-10T08:59:53+00:00</time>
      </trkpt>
      <trkpt lat="44.69894" lon="6.35213">
        <ele>2210.7</ele>
        <time>2026-07-10T08:59:55+00:00</time>
      </trkpt>
      <trkpt lat="44.69892" lon="6.35212">
        <ele>2210.2</ele>
        <time>2026-07-10T08:59:57+00:00</time>
      </trkpt>
      <trkpt lat="44.6989" lon="6.35211">
        <ele>2209.8</ele>
        <time>2026-07-10T09:00:00+00:00</time>
      </trkpt>
      <trkpt lat="44.69888" lon="6.3521">
        <ele>2208.8</ele>
        <time>2026-07-10T09:00:02+00:00</time>
      </trkpt>
      <trkpt lat="44.69885" lon="6.35208">
        <ele>2206.5</ele>
        <time>2026-07-10T09:00:03+00:00</time>
      </trkpt>
      <trkpt lat="44.69884" lon="6.35207">
        <ele>2205.9</ele>
        <time>2026-07-10T09:00:05+00:00</time>
      </trkpt>
      <trkpt lat="44.69882" lon="6.35205">
        <ele>2204.7</ele>
        <time>2026-07-10T09:00:07+00:00</time>
      </trkpt>
      <trkpt lat="44.69881" lon="6.35203">
        <ele>2204.4</ele>
        <time>2026-07-10T09:00:09+00:00</time>
      </trkpt>
      <trkpt lat="44.69879" lon="6.35201">
        <ele>2203.4</ele>
        <time>2026-07-10T09:00:12+00:00</time>
      </trkpt>
      <trkpt lat="44.69878" lon="6.352">
        <ele>2218</ele>
        <time>2026-07-10T09:00:14+00:00</time>
      </trkpt>
      <trkpt lat="44.69876" lon="6.35198">
        <ele>2202</ele>
        <time>2026-07-10T09:00:15+00:00</time>
      </trkpt>
      <trkpt lat="44.69875" lon="6.35197">
        <ele>2201.5</ele>
        <time>2026-07-10T09:00:18+00:00</time>
      </trkpt>
      <trkpt lat="44.69872" lon="6.35196">
        <ele>2199.6</ele>
        <time>2026-07-10T09:00:21+00:00</time>
      </trkpt>
      <trkpt lat="44.6987" lon="6.35194">
        <ele>2198.7</ele>
        <time>2026-07-10T09:00:23+00:00</time>
      </trkpt>
      <trkpt lat="44.69869" lon="6.35192">
        <ele>2214</ele>
        <time>2026-07-10T09:00:24+00:00</time>
      </trkpt>
      <trkpt lat="44.69868" lon="6.3519">
        <ele>2197</ele>
        <time>2026-07-10T09:00:27+00:00</time>
      </trkpt>
      <trkpt lat="44.69866" lon="6.35188">
        <ele>2195.6</ele>
        <time>2026-07-10T09:00:28+00:00</time>
      </trkpt>
      <trkpt lat="44.69865" lon="6.35186">
        <ele>2194.9</ele>
        <time>2026-07-10T09:00:31+00:00</time>
      </trkpt>
      <trkpt lat="44.69864" lon="6.35183">
        <ele>2194.2</ele>
        <time>2026-07-10T09:00:33+00:00</time>
      </trkpt>
      <trkpt lat="44.69862" lon="6.35181">
        <ele>2193</ele>
        <time>2026-07-10T09:00:36+00:00</time>
      </trkpt>
      <trkpt lat="44.6986" lon="6.3518">
        <ele>2191.5</ele>
        <time>2026-07-10T09:00:38+00:00</time>
      </trkpt>
      <trkpt lat="44.69858" lon="6.35178">
        <ele>2189.8</ele>
        <time>2026-07-10T09:00:40+00:00</time>
      </trkpt>
      <trkpt lat="44.69856" lon="6.35176">
        <ele>2188.2</ele>
        <time>2026-07-10T09:00:42+00:00</time>
      </trkpt>
      <trkpt lat="44.69855" lon="6.35174">
        <ele>2187.5</ele>
        <time>2026-07-10T09:00:43+00:00</time>
      </trkpt>
      <trkpt lat="44.69853" lon="6.35171">
        <ele>2186.3</ele>
        <time>2026-07-10T09:00:47+00:00</time>
      </trkpt>
      <trkpt lat="44.69852" lon="6.3517">
        <ele>2185.6</ele>
        <time>2026-07-10T09:00:49+00:00</time>
      </trkpt>
      <trkpt lat="44.6985" lon="6.35168">
        <ele>2184.4</ele>
        <time>2026-07-10T09:00:50+00:00</time>
      </trkpt>
      <trkpt lat="44.69848" lon="6.35167">
        <ele>2183</ele>
        <time>2026-07-10T09:00:52+00:00</time>
      </trkpt>
      <trkpt lat="44.69847" lon="6.35166">
        <ele>2182.4</ele>
        <time>2026-07-10T09:00:55+00:00</time>
      </trkpt>
      <trkpt lat="44.69845" lon="6.35163">
        <ele>2181.1</ele>
        <time>2026-07-10T09:00:57+00:00</time>
      </trkpt>
      <trkpt lat="44.69844" lon="6.3516">
        <ele>2180.6</ele>
        <time>2026-07-10T09:00:59+00:00</time>
      </trkpt>
      <trkpt lat="44.69843" lon="6.35158">
        <ele>2197</ele>
        <time>2026-07-10T09:01:04+00:00</time>
      </trkpt>
      <trkpt lat="44.69841" lon="6.35156">
        <ele>2179.2</ele>
        <time>2026-07-10T09:01:07+00:00</time>
      </trkpt>
      <trkpt lat="44.69839" lon="6.35153">
        <ele>2178.5</ele>
        <time>2026-07-10T09:01:09+00:00</time>
      </trkpt>
      <trkpt lat="44.69838" lon="6.35152">
        <ele>2178.2</ele>
        <time>2026-07-10T09:01:11+00:00</time>
      </trkpt>
      <trkpt lat="44.69836" lon="6.3515">
        <ele>2177.5</ele>
        <time>2026-07-10T09:01:13+00:00</time>
      </trkpt>
      <trkpt lat="44.69833" lon="6.35148">
        <ele>2176.5</ele>
        <time>2026-07-10T09:01:16+00:00</time>
      </trkpt>
      <trkpt lat="44.69831" lon="6.35146">
        <ele>2175.8</ele>
        <time>2026-07-10T09:01:18+00:00</time>
      </trkpt>
      <trkpt lat="44.6983" lon="6.35146">
        <ele>2175.2</ele>
        <time>2026-07-10T09:01:20+00:00</time>
      </trkpt>
      <trkpt lat="44.69827" lon="6.35145">
        <ele>2173.8</ele>
        <time>2026-07-10T09:01:21+00:00</time>
      </trkpt>
      <trkpt lat="44.69825" lon="6.35145">
        <ele>2172.6</ele>
        <time>2026-07-10T09:01:25+00:00</time>
      </trkpt>
      <trkpt lat="44.69823" lon="6.35144">
        <ele>2171.8</ele>
        <time>2026-07-10T09:01:27+00:00</time>
      </trkpt>
      <trkpt lat="44.69821" lon="6.35142">
        <ele>2171.5</ele>
        <time>2026-07-10T09:01:58+00:00</time>
      </trkpt>
      <trkpt lat="44.69819" lon="6.35141">
        <ele>2170.9</ele>
        <time>2026-07-10T09:02:01+00:00</time>
      </trkpt>
      <trkpt lat="44.69817" lon="6.3514">
        <ele>2170.3</ele>
        <time>2026-07-10T09:02:03+00:00</time>
      </trkpt>
      <trkpt lat="44.69814" lon="6.35139">
        <ele>2190</ele>
        <time>2026-07-10T09:02:04+00:00</time>
      </trkpt>
      <trkpt lat="44.69812" lon="6.35137">
        <ele>2168.3</ele>
        <time>2026-07-10T09:02:07+00:00</time>
      </trkpt>
      <trkpt lat="44.6981" lon="6.35136">
        <ele>2167.4</ele>
        <time>2026-07-10T09:02:08+00:00</time>
      </trkpt>
      <trkpt lat="44.69807" lon="6.35135">
        <ele>2166.1</ele>
        <time>2026-07-10T09:02:10+00:00</time>
      </trkpt>
      <trkpt lat="44.69804" lon="6.35134">
        <ele>2164.8</ele>
        <time>2026-07-10T09:02:13+00:00</time>
      </trkpt>
      <trkpt lat="44.69802" lon="6.35132">
        <ele>2188</ele>
        <time>2026-07-10T09:02:14+00:00</time>
      </trkpt>
      <trkpt lat="44.69799" lon="6.35131">
        <ele>2162.9</ele>
        <time>2026-07-10T09:02:17+00:00</time>
      </trkpt>
      <trkpt lat="44.69797" lon="6.35131">
        <ele>2162</ele>
        <time>2026-07-10T09:02:19+00:00</time>
      </trkpt>
      <trkpt lat="44.69795" lon="6.3513">
        <ele>2161.4</ele>
        <time>2026-07-10T09:02:20+00:00</time>
      </trkpt>
      <trkpt lat="44.69793" lon="6.35128">
        <ele>2161</ele>
        <time>2026-07-10T09:02:23+00:00</time>
      </trkpt>
      <trkpt lat="44.6979" lon="6.35129">
        <ele>2159.5</ele>
        <time>2026-07-10T09:02:25+00:00</time>
      </trkpt>
      <trkpt lat="44.69788" lon="6.35129">
        <ele>2158.6</ele>
        <time>2026-07-10T09:02:27+00:00</time>
      </trkpt>
      <trkpt lat="44.69785" lon="6.35128">
        <ele>2157.7</ele>
        <time>2026-07-10T09:02:28+00:00</time>
      </trkpt>
      <trkpt lat="44.69783" lon="6.35126">
        <ele>2157.6</ele>
        <time>2026-07-10T09:02:31+00:00</time>
      </trkpt>
      <trkpt lat="44.69781" lon="6.35124">
        <ele>2157.6</ele>
        <time>2026-07-10T09:02:33+00:00</time>
      </trkpt>
      <trkpt lat="44.6978" lon="6.35122">
        <ele>2182</ele>
        <time>2026-07-10T09:02:34+00:00</time>
      </trkpt>
      <trkpt lat="44.69778" lon="6.35119">
        <ele>2158.7</ele>
        <time>2026-07-10T09:02:37+00:00</time>
      </trkpt>
      <trkpt lat="44.69777" lon="6.35118">
        <ele>2158.8</ele>
        <time>2026-07-10T09:02:38+00:00</time>
      </trkpt>
      <trkpt lat="44.69774" lon="6.35116">
        <ele>2158.6</ele>
        <time>2026-07-10T09:02:40+00:00</time>
      </trkpt>
      <trkpt lat="44.69772" lon="6.35114">
        <ele>2158.9</ele>
        <time>2026-07-10T09:02:42+00:00</time>
      </trkpt>
      <trkpt lat="44.6977" lon="6.35113">
        <ele>2178</ele>
        <time>2026-07-10T09:02:44+00:00</time>
      </trkpt>
      <trkpt lat="44.69768" lon="6.35111">
        <ele>2158.8</ele>
        <time>2026-07-10T09:02:47+00:00</time>
      </trkpt>
      <trkpt lat="44.69765" lon="6.35109">
        <ele>2157.5</ele>
        <time>2026-07-10T09:02:48+00:00</time>
      </trkpt>
      <trkpt lat="44.69763" lon="6.35108">
        <ele>2156.7</ele>
        <time>2026-07-10T09:02:51+00:00</time>
      </trkpt>
      <trkpt lat="44.69761" lon="6.35107">
        <ele>2156</ele>
        <time>2026-07-10T09:02:53+00:00</time>
      </trkpt>
      <trkpt lat="44.69758" lon="6.35105">
        <ele>2174</ele>
        <time>2026-07-10T09:02:54+00:00</time>
      </trkpt>
      <trkpt lat="44.69756" lon="6.35105">
        <ele>2154.4</ele>
        <time>2026-07-10T09:02:56+00:00</time>
      </trkpt>
      <trkpt lat="44.69754" lon="6.35103">
        <ele>2153.7</ele>
        <time>2026-07-10T09:03:02+00:00</time>
      </trkpt>
      <trkpt lat="44.69753" lon="6.351">
        <ele>2153.3</ele>
        <time>2026-07-10T09:03:05+00:00</time>
      </trkpt>
      <trkpt lat="44.69754" lon="6.35097">
        <ele>2153.3</ele>
        <time>2026-07-10T09:03:06+00:00</time>
      </trkpt>
      <trkpt lat="44.69757" lon="6.35094">
        <ele>2153.6</ele>
        <time>2026-07-10T09:03:09+00:00</time>
      </trkpt>
      <trkpt lat="44.69759" lon="6.35091">
        <ele>2153.5</ele>
        <time>2026-07-10T09:03:10+00:00</time>
      </trkpt>
      <trkpt lat="44.69761" lon="6.35089">
        <ele>2153.6</ele>
        <time>2026-07-10T09:03:12+00:00</time>
      </trkpt>
      <trkpt lat="44.69762" lon="6.35087">
        <ele>2153.4</ele>
        <time>2026-07-10T09:03:15+00:00</time>
      </trkpt>
      <trkpt lat="44.6976" lon="6.35087">
        <ele>2165</ele>
        <time>2026-07-10T09:03:34+00:00</time>
      </trkpt>
      <trkpt lat="44.69758" lon="6.35087">
        <ele>2153</ele>
        <time>2026-07-10T09:03:48+00:00</time>
      </trkpt>
      <trkpt lat="44.69756" lon="6.35087">
        <ele>2152.8</ele>
        <time>2026-07-10T09:03:49+00:00</time>
      </trkpt>
      <trkpt lat="44.69753" lon="6.35086">
        <ele>2152.4</ele>
        <time>2026-07-10T09:03:52+00:00</time>
      </trkpt>
      <trkpt lat="44.69749" lon="6.35085">
        <ele>2165</ele>
        <time>2026-07-10T09:03:54+00:00</time>
      </trkpt>
      <trkpt lat="44.69746" lon="6.35085">
        <ele>2150.5</ele>
        <time>2026-07-10T09:03:56+00:00</time>
      </trkpt>
      <trkpt lat="44.69743" lon="6.35084">
        <ele>2149.3</ele>
        <time>2026-07-10T09:03:57+00:00</time>
      </trkpt>
      <trkpt lat="44.6974" lon="6.35083">
        <ele>2147.9</ele>
        <time>2026-07-10T09:03:59+00:00</time>
      </trkpt>
      <trkpt lat="44.69737" lon="6.35083">
        <ele>2146.7</ele>
        <time>2026-07-10T09:04:02+00:00</time>
      </trkpt>
      <trkpt lat="44.69735" lon="6.35083">
        <ele>2160</ele>
        <time>2026-07-10T09:04:04+00:00</time>
      </trkpt>
      <trkpt lat="44.69732" lon="6.35084">
        <ele>2144.9</ele>
        <time>2026-07-10T09:04:05+00:00</time>
      </trkpt>
      <trkpt lat="44.69729" lon="6.35085">
        <ele>2143.7</ele>
        <time>2026-07-10T09:04:07+00:00</time>
      </trkpt>
      <trkpt lat="44.69727" lon="6.35086">
        <ele>2143</ele>
        <time>2026-07-10T09:04:10+00:00</time>
      </trkpt>
      <trkpt lat="44.69724" lon="6.35088">
        <ele>2141.9</ele>
        <time>2026-07-10T09:04:11+00:00</time>
      </trkpt>
      <trkpt lat="44.69722" lon="6.3509">
        <ele>2157</ele>
        <time>2026-07-10T09:04:14+00:00</time>
      </trkpt>
      <trkpt lat="44.6972" lon="6.35093">
        <ele>2140.1</ele>
        <time>2026-07-10T09:04:16+00:00</time>
      </trkpt>
      <trkpt lat="44.69718" lon="6.35095">
        <ele>2139.1</ele>
        <time>2026-07-10T09:04:18+00:00</time>
      </trkpt>
      <trkpt lat="44.69715" lon="6.35098">
        <ele>2137.6</ele>
        <time>2026-07-10T09:04:19+00:00</time>
      </trkpt>
      <trkpt lat="44.69713" lon="6.351">
        <ele>2136.7</ele>
        <time>2026-07-10T09:04:21+00:00</time>
      </trkpt>
      <trkpt lat="44.69711" lon="6.35103">
        <ele>2135.8</ele>
        <time>2026-07-10T09:04:23+00:00</time>
      </trkpt>
      <trkpt lat="44.69709" lon="6.35105">
        <ele>2134.9</ele>
        <time>2026-07-10T09:04:26+00:00</time>
      </trkpt>
      <trkpt lat="44.69707" lon="6.35109">
        <ele>2134.2</ele>
        <time>2026-07-10T09:04:28+00:00</time>
      </trkpt>
      <trkpt lat="44.69707" lon="6.35113">
        <ele>2134</ele>
        <time>2026-07-10T09:04:30+00:00</time>
      </trkpt>
      <trkpt lat="44.69706" lon="6.35117">
        <ele>2132.8</ele>
        <time>2026-07-10T09:04:31+00:00</time>
      </trkpt>
      <trkpt lat="44.69706" lon="6.35121">
        <ele>2147</ele>
        <time>2026-07-10T09:04:34+00:00</time>
      </trkpt>
      <trkpt lat="44.69706" lon="6.35125">
        <ele>2131.4</ele>
        <time>2026-07-10T09:04:35+00:00</time>
      </trkpt>
      <trkpt lat="44.69704" lon="6.35127">
        <ele>2130.3</ele>
        <time>2026-07-10T09:04:38+00:00</time>
      </trkpt>
      <trkpt lat="44.69701" lon="6.35126">
        <ele>2129.3</ele>
        <time>2026-07-10T09:04:40+00:00</time>
      </trkpt>
      <trkpt lat="44.697" lon="6.35123">
        <ele>2129.3</ele>
        <time>2026-07-10T09:04:41+00:00</time>
      </trkpt>
      <trkpt lat="44.69698" lon="6.35119">
        <ele>2144</ele>
        <time>2026-07-10T09:04:44+00:00</time>
      </trkpt>
      <trkpt lat="44.69697" lon="6.35116">
        <ele>2128.8</ele>
        <time>2026-07-10T09:04:45+00:00</time>
      </trkpt>
      <trkpt lat="44.69696" lon="6.35109">
        <ele>2128.6</ele>
        <time>2026-07-10T09:04:48+00:00</time>
      </trkpt>
      <trkpt lat="44.69695" lon="6.35105">
        <ele>2127.6</ele>
        <time>2026-07-10T09:04:51+00:00</time>
      </trkpt>
      <trkpt lat="44.69695" lon="6.35101">
        <ele>2127.2</ele>
        <time>2026-07-10T09:04:52+00:00</time>
      </trkpt>
      <trkpt lat="44.69695" lon="6.35097">
        <ele>2126.8</ele>
        <time>2026-07-10T09:04:55+00:00</time>
      </trkpt>
      <trkpt lat="44.69693" lon="6.35092">
        <ele>2125.1</ele>
        <time>2026-07-10T09:04:56+00:00</time>
      </trkpt>
      <trkpt lat="44.69693" lon="6.35089">
        <ele>2124.7</ele>
        <time>2026-07-10T09:04:58+00:00</time>
      </trkpt>
      <trkpt lat="44.69692" lon="6.35084">
        <ele>2123.6</ele>
        <time>2026-07-10T09:05:01+00:00</time>
      </trkpt>
      <trkpt lat="44.69691" lon="6.35081">
        <ele>2122.6</ele>
        <time>2026-07-10T09:05:03+00:00</time>
      </trkpt>
      <trkpt lat="44.6969" lon="6.35077">
        <ele>2137</ele>
        <time>2026-07-10T09:05:04+00:00</time>
      </trkpt>
      <trkpt lat="44.6969" lon="6.35073">
        <ele>2121.2</ele>
        <time>2026-07-10T09:05:06+00:00</time>
      </trkpt>
      <trkpt lat="44.69689" lon="6.35069">
        <ele>2120.1</ele>
        <time>2026-07-10T09:05:08+00:00</time>
      </trkpt>
      <trkpt lat="44.69688" lon="6.35065">
        <ele>2119.1</ele>
        <time>2026-07-10T09:05:11+00:00</time>
      </trkpt>
      <trkpt lat="44.69688" lon="6.35061">
        <ele>2118.6</ele>
        <time>2026-07-10T09:05:12+00:00</time>
      </trkpt>
      <trkpt lat="44.69688" lon="6.35057">
        <ele>2118.2</ele>
        <time>2026-07-10T09:05:15+00:00</time>
      </trkpt>
      <trkpt lat="44.69688" lon="6.35054">
        <ele>2117.7</ele>
        <time>2026-07-10T09:05:17+00:00</time>
      </trkpt>
      <trkpt lat="44.69687" lon="6.3505">
        <ele>2116.2</ele>
        <time>2026-07-10T09:05:18+00:00</time>
      </trkpt>
      <trkpt lat="44.69687" lon="6.35046">
        <ele>2115.3</ele>
        <time>2026-07-10T09:05:20+00:00</time>
      </trkpt>
      <trkpt lat="44.69688" lon="6.35041">
        <ele>2114.8</ele>
        <time>2026-07-10T09:05:23+00:00</time>
      </trkpt>
      <trkpt lat="44.6969" lon="6.35038">
        <ele>2115.2</ele>
        <time>2026-07-10T09:05:25+00:00</time>
      </trkpt>
      <trkpt lat="44.6969" lon="6.35034">
        <ele>2114.2</ele>
        <time>2026-07-10T09:05:26+00:00</time>
      </trkpt>
      <trkpt lat="44.69691" lon="6.35031">
        <ele>2114</ele>
        <time>2026-07-10T09:05:28+00:00</time>
      </trkpt>
      <trkpt lat="44.69693" lon="6.35027">
        <ele>2113.9</ele>
        <time>2026-07-10T09:05:30+00:00</time>
      </trkpt>
      <trkpt lat="44.69695" lon="6.35025">
        <ele>2113.9</ele>
        <time>2026-07-10T09:05:32+00:00</time>
      </trkpt>
      <trkpt lat="44.69697" lon="6.35023">
        <ele>2128</ele>
        <time>2026-07-10T09:05:34+00:00</time>
      </trkpt>
      <trkpt lat="44.69698" lon="6.35021">
        <ele>2112.8</ele>
        <time>2026-07-10T09:05:37+00:00</time>
      </trkpt>
      <trkpt lat="44.69697" lon="6.35019">
        <ele>2111.7</ele>
        <time>2026-07-10T09:05:39+00:00</time>
      </trkpt>
      <trkpt lat="44.69694" lon="6.35018">
        <ele>2110.6</ele>
        <time>2026-07-10T09:05:42+00:00</time>
      </trkpt>
      <trkpt lat="44.69691" lon="6.35018">
        <ele>2109.3</ele>
        <time>2026-07-10T09:05:43+00:00</time>
      </trkpt>
      <trkpt lat="44.69688" lon="6.35018">
        <ele>2108.1</ele>
        <time>2026-07-10T09:05:46+00:00</time>
      </trkpt>
      <trkpt lat="44.69685" lon="6.3502">
        <ele>2107.5</ele>
        <time>2026-07-10T09:05:48+00:00</time>
      </trkpt>
      <trkpt lat="44.69682" lon="6.35021">
        <ele>2106.6</ele>
        <time>2026-07-10T09:05:50+00:00</time>
      </trkpt>
      <trkpt lat="44.69679" lon="6.35021">
        <ele>2105.2</ele>
        <time>2026-07-10T09:05:51+00:00</time>
      </trkpt>
      <trkpt lat="44.69676" lon="6.35022">
        <ele>2119</ele>
        <time>2026-07-10T09:05:54+00:00</time>
      </trkpt>
      <trkpt lat="44.69673" lon="6.35023">
        <ele>2103.1</ele>
        <time>2026-07-10T09:05:55+00:00</time>
      </trkpt>
      <trkpt lat="44.69674" lon="6.35019">
        <ele>2102.5</ele>
        <time>2026-07-10T09:05:57+00:00</time>
      </trkpt>
      <trkpt lat="44.69674" lon="6.35015">
        <ele>2101.5</ele>
        <time>2026-07-10T09:05:59+00:00</time>
      </trkpt>
      <trkpt lat="44.69675" lon="6.35011">
        <ele>2100.9</ele>
        <time>2026-07-10T09:06:01+00:00</time>
      </trkpt>
      <trkpt lat="44.69675" lon="6.35007">
        <ele>2099.9</ele>
        <time>2026-07-10T09:06:03+00:00</time>
      </trkpt>
      <trkpt lat="44.69675" lon="6.35004">
        <ele>2099.1</ele>
        <time>2026-07-10T09:06:05+00:00</time>
      </trkpt>
      <trkpt lat="44.69674" lon="6.35">
        <ele>2097.8</ele>
        <time>2026-07-10T09:06:07+00:00</time>
      </trkpt>
      <trkpt lat="44.69675" lon="6.34997">
        <ele>2097.5</ele>
        <time>2026-07-10T09:06:09+00:00</time>
      </trkpt>
      <trkpt lat="44.69677" lon="6.34994">
        <ele>2097.3</ele>
        <time>2026-07-10T09:06:11+00:00</time>
      </trkpt>
      <trkpt lat="44.69679" lon="6.34992">
        <ele>2097.3</ele>
        <time>2026-07-10T09:06:13+00:00</time>
      </trkpt>
      <trkpt lat="44.6968" lon="6.34989">
        <ele>2096.8</ele>
        <time>2026-07-10T09:06:28+00:00</time>
      </trkpt>
      <trkpt lat="44.69681" lon="6.34987">
        <ele>2096.5</ele>
        <time>2026-07-10T09:06:31+00:00</time>
      </trkpt>
      <trkpt lat="44.69683" lon="6.34985">
        <ele>2096.4</ele>
        <time>2026-07-10T09:07:11+00:00</time>
      </trkpt>
      <trkpt lat="44.69687" lon="6.34985">
        <ele>2097</ele>
        <time>2026-07-10T09:07:13+00:00</time>
      </trkpt>
      <trkpt lat="44.69688" lon="6.34986">
        <ele>2097.4</ele>
        <time>2026-07-10T09:07:15+00:00</time>
      </trkpt>
      <trkpt lat="44.6969" lon="6.34987">
        <ele>2098</ele>
        <time>2026-07-10T09:07:16+00:00</time>
      </trkpt>
      <trkpt lat="44.69694" lon="6.34988">
        <ele>2099</ele>
        <time>2026-07-10T09:07:17+00:00</time>
      </trkpt>
      <trkpt lat="44.69696" lon="6.34989">
        <ele>2099.4</ele>
        <time>2026-07-10T09:07:18+00:00</time>
      </trkpt>
      <trkpt lat="44.69699" lon="6.34989">
        <ele>2099.4</ele>
        <time>2026-07-10T09:07:21+00:00</time>
      </trkpt>
      <trkpt lat="44.69701" lon="6.3499">
        <ele>2099.8</ele>
        <time>2026-07-10T09:07:22+00:00</time>
      </trkpt>
      <trkpt lat="44.69704" lon="6.3499">
        <ele>2109</ele>
        <time>2026-07-10T09:07:24+00:00</time>
      </trkpt>
      <trkpt lat="44.69707" lon="6.34988">
        <ele>2099</ele>
        <time>2026-07-10T09:07:26+00:00</time>
      </trkpt>
      <trkpt lat="44.69711" lon="6.34987">
        <ele>2098.6</ele>
        <time>2026-07-10T09:07:28+00:00</time>
      </trkpt>
      <trkpt lat="44.69714" lon="6.34986">
        <ele>2098.1</ele>
        <time>2026-07-10T09:07:29+00:00</time>
      </trkpt>
      <trkpt lat="44.69717" lon="6.34986">
        <ele>2098</ele>
        <time>2026-07-10T09:07:32+00:00</time>
      </trkpt>
      <trkpt lat="44.6972" lon="6.34985">
        <ele>2107</ele>
        <time>2026-07-10T09:07:34+00:00</time>
      </trkpt>
      <trkpt lat="44.69724" lon="6.34985">
        <ele>2097.6</ele>
        <time>2026-07-10T09:07:35+00:00</time>
      </trkpt>
      <trkpt lat="44.69727" lon="6.34984">
        <ele>2097.3</ele>
        <time>2026-07-10T09:07:37+00:00</time>
      </trkpt>
      <trkpt lat="44.6973" lon="6.34983">
        <ele>2096.9</ele>
        <time>2026-07-10T09:07:40+00:00</time>
      </trkpt>
      <trkpt lat="44.69733" lon="6.34982">
        <ele>2096.6</ele>
        <time>2026-07-10T09:07:41+00:00</time>
      </trkpt>
      <trkpt lat="44.69736" lon="6.34981">
        <ele>2107</ele>
        <time>2026-07-10T09:07:44+00:00</time>
      </trkpt>
      <trkpt lat="44.69739" lon="6.34981">
        <ele>2096.4</ele>
        <time>2026-07-10T09:07:45+00:00</time>
      </trkpt>
      <trkpt lat="44.69742" lon="6.3498">
        <ele>2096</ele>
        <time>2026-07-10T09:07:47+00:00</time>
      </trkpt>
      <trkpt lat="44.69746" lon="6.34979">
        <ele>2095.7</ele>
        <time>2026-07-10T09:07:50+00:00</time>
      </trkpt>
      <trkpt lat="44.69749" lon="6.34979">
        <ele>2095.9</ele>
        <time>2026-07-10T09:07:52+00:00</time>
      </trkpt>
      <trkpt lat="44.69752" lon="6.34978">
        <ele>2095.7</ele>
        <time>2026-07-10T09:07:53+00:00</time>
      </trkpt>
      <trkpt lat="44.69755" lon="6.34978">
        <ele>2096.2</ele>
        <time>2026-07-10T09:07:55+00:00</time>
      </trkpt>
      <trkpt lat="44.69757" lon="6.34977">
        <ele>2096</ele>
        <time>2026-07-10T09:07:57+00:00</time>
      </trkpt>
      <trkpt lat="44.69761" lon="6.34977">
        <ele>2096.7</ele>
        <time>2026-07-10T09:08:00+00:00</time>
      </trkpt>
      <trkpt lat="44.69763" lon="6.34976">
        <ele>2096.5</ele>
        <time>2026-07-10T09:08:01+00:00</time>
      </trkpt>
      <trkpt lat="44.69766" lon="6.34975">
        <ele>2096.4</ele>
        <time>2026-07-10T09:08:03+00:00</time>
      </trkpt>
      <trkpt lat="44.69769" lon="6.34974">
        <ele>2096.4</ele>
        <time>2026-07-10T09:08:06+00:00</time>
      </trkpt>
      <trkpt lat="44.69771" lon="6.34973">
        <ele>2096.2</ele>
        <time>2026-07-10T09:08:07+00:00</time>
      </trkpt>
      <trkpt lat="44.69774" lon="6.34973">
        <ele>2096.7</ele>
        <time>2026-07-10T09:08:09+00:00</time>
      </trkpt>
      <trkpt lat="44.69776" lon="6.34972">
        <ele>2096.6</ele>
        <time>2026-07-10T09:08:11+00:00</time>
      </trkpt>
      <trkpt lat="44.6978" lon="6.34972">
        <ele>2097.1</ele>
        <time>2026-07-10T09:08:13+00:00</time>
      </trkpt>
      <trkpt lat="44.69782" lon="6.34971">
        <ele>2096.8</ele>
        <time>2026-07-10T09:08:15+00:00</time>
      </trkpt>
      <trkpt lat="44.69785" lon="6.34971">
        <ele>2097.2</ele>
        <time>2026-07-10T09:08:17+00:00</time>
      </trkpt>
      <trkpt lat="44.69788" lon="6.34971">
        <ele>2097.5</ele>
        <time>2026-07-10T09:08:19+00:00</time>
      </trkpt>
      <trkpt lat="44.69791" lon="6.3497">
        <ele>2097.3</ele>
        <time>2026-07-10T09:08:21+00:00</time>
      </trkpt>
      <trkpt lat="44.69794" lon="6.3497">
        <ele>2097.7</ele>
        <time>2026-07-10T09:08:23+00:00</time>
      </trkpt>
      <trkpt lat="44.69797" lon="6.3497">
        <ele>2098</ele>
        <time>2026-07-10T09:08:26+00:00</time>
      </trkpt>
      <trkpt lat="44.69799" lon="6.3497">
        <ele>2098.3</ele>
        <time>2026-07-10T09:08:28+00:00</time>
      </trkpt>
      <trkpt lat="44.69802" lon="6.34971">
        <ele>2099.1</ele>
        <time>2026-07-10T09:08:29+00:00</time>
      </trkpt>
      <trkpt lat="44.69805" lon="6.34971">
        <ele>2099.4</ele>
        <time>2026-07-10T09:08:32+00:00</time>
      </trkpt>
      <trkpt lat="44.69808" lon="6.34971">
        <ele>2109</ele>
        <time>2026-07-10T09:08:34+00:00</time>
      </trkpt>
      <trkpt lat="44.6981" lon="6.3497">
        <ele>2100.3</ele>
        <time>2026-07-10T09:08:35+00:00</time>
      </trkpt>
      <trkpt lat="44.69813" lon="6.34969">
        <ele>2100.7</ele>
        <time>2026-07-10T09:08:37+00:00</time>
      </trkpt>
      <trkpt lat="44.69815" lon="6.34967">
        <ele>2100.3</ele>
        <time>2026-07-10T09:08:39+00:00</time>
      </trkpt>
      <trkpt lat="44.69818" lon="6.34966">
        <ele>2100.7</ele>
        <time>2026-07-10T09:08:42+00:00</time>
      </trkpt>
      <trkpt lat="44.6982" lon="6.34965">
        <ele>2109</ele>
        <time>2026-07-10T09:08:44+00:00</time>
      </trkpt>
      <trkpt lat="44.69823" lon="6.34964">
        <ele>2101.1</ele>
        <time>2026-07-10T09:08:45+00:00</time>
      </trkpt>
      <trkpt lat="44.69825" lon="6.34962">
        <ele>2100.7</ele>
        <time>2026-07-10T09:08:48+00:00</time>
      </trkpt>
      <trkpt lat="44.69828" lon="6.3496">
        <ele>2100.5</ele>
        <time>2026-07-10T09:08:50+00:00</time>
      </trkpt>
      <trkpt lat="44.6983" lon="6.34958">
        <ele>2100</ele>
        <time>2026-07-10T09:08:51+00:00</time>
      </trkpt>
      <trkpt lat="44.69833" lon="6.34956">
        <ele>2109</ele>
        <time>2026-07-10T09:08:54+00:00</time>
      </trkpt>
      <trkpt lat="44.69836" lon="6.34954">
        <ele>2099.5</ele>
        <time>2026-07-10T09:08:56+00:00</time>
      </trkpt>
      <trkpt lat="44.69838" lon="6.34952">
        <ele>2099.1</ele>
        <time>2026-07-10T09:08:58+00:00</time>
      </trkpt>
      <trkpt lat="44.69841" lon="6.34951">
        <ele>2099.4</ele>
        <time>2026-07-10T09:08:59+00:00</time>
      </trkpt>
      <trkpt lat="44.69844" lon="6.34949">
        <ele>2099.2</ele>
        <time>2026-07-10T09:09:01+00:00</time>
      </trkpt>
      <trkpt lat="44.69847" lon="6.34948">
        <ele>2099.6</ele>
        <time>2026-07-10T09:09:03+00:00</time>
      </trkpt>
      <trkpt lat="44.6985" lon="6.34948">
        <ele>2100.4</ele>
        <time>2026-07-10T09:09:06+00:00</time>
      </trkpt>
      <trkpt lat="44.69853" lon="6.34947">
        <ele>2100.8</ele>
        <time>2026-07-10T09:09:08+00:00</time>
      </trkpt>
      <trkpt lat="44.69856" lon="6.34945">
        <ele>2100.8</ele>
        <time>2026-07-10T09:09:10+00:00</time>
      </trkpt>
      <trkpt lat="44.69858" lon="6.34943">
        <ele>2100.5</ele>
        <time>2026-07-10T09:09:11+00:00</time>
      </trkpt>
      <trkpt lat="44.69859" lon="6.3494">
        <ele>2099.4</ele>
        <time>2026-07-10T09:09:13+00:00</time>
      </trkpt>
      <trkpt lat="44.6986" lon="6.34937">
        <ele>2098.4</ele>
        <time>2026-07-10T09:09:15+00:00</time>
      </trkpt>
      <trkpt lat="44.69862" lon="6.34934">
        <ele>2097.8</ele>
        <time>2026-07-10T09:09:17+00:00</time>
      </trkpt>
      <trkpt lat="44.69864" lon="6.34932">
        <ele>2097.6</ele>
        <time>2026-07-10T09:09:20+00:00</time>
      </trkpt>
      <trkpt lat="44.69867" lon="6.34931">
        <ele>2098.1</ele>
        <time>2026-07-10T09:09:21+00:00</time>
      </trkpt>
      <trkpt lat="44.6987" lon="6.3493">
        <ele>2098.6</ele>
        <time>2026-07-10T09:09:23+00:00</time>
      </trkpt>
      <trkpt lat="44.69872" lon="6.34928">
        <ele>2098.4</ele>
        <time>2026-07-10T09:09:25+00:00</time>
      </trkpt>
      <trkpt lat="44.69874" lon="6.34925">
        <ele>2097.6</ele>
        <time>2026-07-10T09:09:27+00:00</time>
      </trkpt>
      <trkpt lat="44.69876" lon="6.34923">
        <ele>2097.3</ele>
        <time>2026-07-10T09:09:30+00:00</time>
      </trkpt>
      <trkpt lat="44.69879" lon="6.34921">
        <ele>2097.2</ele>
        <time>2026-07-10T09:09:32+00:00</time>
      </trkpt>
      <trkpt lat="44.69881" lon="6.34919">
        <ele>2106</ele>
        <time>2026-07-10T09:09:34+00:00</time>
      </trkpt>
      <trkpt lat="44.69884" lon="6.34917">
        <ele>2096.8</ele>
        <time>2026-07-10T09:09:36+00:00</time>
      </trkpt>
      <trkpt lat="44.69886" lon="6.34915">
        <ele>2096.2</ele>
        <time>2026-07-10T09:09:38+00:00</time>
      </trkpt>
      <trkpt lat="44.69889" lon="6.34914">
        <ele>2096.4</ele>
        <time>2026-07-10T09:09:39+00:00</time>
      </trkpt>
      <trkpt lat="44.69892" lon="6.34913">
        <ele>2096.5</ele>
        <time>2026-07-10T09:09:41+00:00</time>
      </trkpt>
      <trkpt lat="44.69895" lon="6.34912">
        <ele>2106</ele>
        <time>2026-07-10T09:09:44+00:00</time>
      </trkpt>
      <trkpt lat="44.69898" lon="6.34911">
        <ele>2096.6</ele>
        <time>2026-07-10T09:09:46+00:00</time>
      </trkpt>
      <trkpt lat="44.69901" lon="6.3491">
        <ele>2096.7</ele>
        <time>2026-07-10T09:09:47+00:00</time>
      </trkpt>
      <trkpt lat="44.69904" lon="6.3491">
        <ele>2097.4</ele>
        <time>2026-07-10T09:09:50+00:00</time>
      </trkpt>
      <trkpt lat="44.69906" lon="6.34911">
        <ele>2098.5</ele>
        <time>2026-07-10T09:09:51+00:00</time>
      </trkpt>
      <trkpt lat="44.69908" lon="6.34911">
        <ele>2107</ele>
        <time>2026-07-10T09:09:54+00:00</time>
      </trkpt>
      <trkpt lat="44.6991" lon="6.34912">
        <ele>2100</ele>
        <time>2026-07-10T09:09:55+00:00</time>
      </trkpt>
      <trkpt lat="44.69912" lon="6.34911">
        <ele>2099.9</ele>
        <time>2026-07-10T09:09:57+00:00</time>
      </trkpt>
      <trkpt lat="44.69914" lon="6.34909">
        <ele>2099.2</ele>
        <time>2026-07-10T09:09:59+00:00</time>
      </trkpt>
      <trkpt lat="44.69916" lon="6.34908">
        <ele>2099.2</ele>
        <time>2026-07-10T09:10:01+00:00</time>
      </trkpt>
      <trkpt lat="44.69919" lon="6.34907">
        <ele>2107</ele>
        <time>2026-07-10T09:10:04+00:00</time>
      </trkpt>
      <trkpt lat="44.69922" lon="6.34905">
        <ele>2098.8</ele>
        <time>2026-07-10T09:10:05+00:00</time>
      </trkpt>
      <trkpt lat="44.69925" lon="6.34903">
        <ele>2098.4</ele>
        <time>2026-07-10T09:10:08+00:00</time>
      </trkpt>
      <trkpt lat="44.69927" lon="6.34902">
        <ele>2098.3</ele>
        <time>2026-07-10T09:10:09+00:00</time>
      </trkpt>
      <trkpt lat="44.6993" lon="6.349">
        <ele>2098</ele>
        <time>2026-07-10T09:10:11+00:00</time>
      </trkpt>
      <trkpt lat="44.69932" lon="6.34899">
        <ele>2097.9</ele>
        <time>2026-07-10T09:10:13+00:00</time>
      </trkpt>
      <trkpt lat="44.69935" lon="6.34897">
        <ele>2097.6</ele>
        <time>2026-07-10T09:10:15+00:00</time>
      </trkpt>
      <trkpt lat="44.69938" lon="6.34897">
        <ele>2098.3</ele>
        <time>2026-07-10T09:10:17+00:00</time>
      </trkpt>
      <trkpt lat="44.69941" lon="6.34896">
        <ele>2098.5</ele>
        <time>2026-07-10T09:10:19+00:00</time>
      </trkpt>
      <trkpt lat="44.69943" lon="6.34896">
        <ele>2099</ele>
        <time>2026-07-10T09:10:21+00:00</time>
      </trkpt>
      <trkpt lat="44.69946" lon="6.34896">
        <ele>2108</ele>
        <time>2026-07-10T09:10:24+00:00</time>
      </trkpt>
      <trkpt lat="44.69949" lon="6.34894">
        <ele>2099.4</ele>
        <time>2026-07-10T09:10:26+00:00</time>
      </trkpt>
      <trkpt lat="44.6995" lon="6.34893">
        <ele>2099.1</ele>
        <time>2026-07-10T09:10:27+00:00</time>
      </trkpt>
      <trkpt lat="44.69954" lon="6.34892">
        <ele>2099.5</ele>
        <time>2026-07-10T09:10:29+00:00</time>
      </trkpt>
      <trkpt lat="44.69956" lon="6.34892">
        <ele>2100</ele>
        <time>2026-07-10T09:10:31+00:00</time>
      </trkpt>
      <trkpt lat="44.69958" lon="6.34892">
        <ele>2100.4</ele>
        <time>2026-07-10T09:10:33+00:00</time>
      </trkpt>
      <trkpt lat="44.69961" lon="6.34894">
        <ele>2102</ele>
        <time>2026-07-10T09:10:38+00:00</time>
      </trkpt>
      <trkpt lat="44.69963" lon="6.34894">
        <ele>2102.4</ele>
        <time>2026-07-10T09:10:39+00:00</time>
      </trkpt>
      <trkpt lat="44.69965" lon="6.34895">
        <ele>2103.3</ele>
        <time>2026-07-10T09:10:41+00:00</time>
      </trkpt>
      <trkpt lat="44.69968" lon="6.34895">
        <ele>2103.9</ele>
        <time>2026-07-10T09:10:43+00:00</time>
      </trkpt>
      <trkpt lat="44.6997" lon="6.34893">
        <ele>2103.4</ele>
        <time>2026-07-10T09:10:46+00:00</time>
      </trkpt>
      <trkpt lat="44.69972" lon="6.34891">
        <ele>2102.9</ele>
        <time>2026-07-10T09:10:49+00:00</time>
      </trkpt>
      <trkpt lat="44.69973" lon="6.34888">
        <ele>2101.9</ele>
        <time>2026-07-10T09:10:50+00:00</time>
      </trkpt>
      <trkpt lat="44.69975" lon="6.34886">
        <ele>2101.9</ele>
        <time>2026-07-10T09:10:53+00:00</time>
      </trkpt>
      <trkpt lat="44.69976" lon="6.34882">
        <ele>2101.1</ele>
        <time>2026-07-10T09:10:55+00:00</time>
      </trkpt>
      <trkpt lat="44.69978" lon="6.3488">
        <ele>2101.1</ele>
        <time>2026-07-10T09:10:58+00:00</time>
      </trkpt>
      <trkpt lat="44.69979" lon="6.34878">
        <ele>2100.9</ele>
        <time>2026-07-10T09:10:59+00:00</time>
      </trkpt>
      <trkpt lat="44.69982" lon="6.34876">
        <ele>2101.2</ele>
        <time>2026-07-10T09:11:12+00:00</time>
      </trkpt>
      <trkpt lat="44.69984" lon="6.34873">
        <ele>2101.1</ele>
        <time>2026-07-10T09:11:15+00:00</time>
      </trkpt>
      <trkpt lat="44.69986" lon="6.34872">
        <ele>2101.5</ele>
        <time>2026-07-10T09:11:16+00:00</time>
      </trkpt>
      <trkpt lat="44.69988" lon="6.3487">
        <ele>2101.7</ele>
        <time>2026-07-10T09:11:18+00:00</time>
      </trkpt>
      <trkpt lat="44.69991" lon="6.34868">
        <ele>2102.2</ele>
        <time>2026-07-10T09:11:20+00:00</time>
      </trkpt>
      <trkpt lat="44.69992" lon="6.34866">
        <ele>2102.2</ele>
        <time>2026-07-10T09:11:22+00:00</time>
      </trkpt>
      <trkpt lat="44.69992" lon="6.34864">
        <ele>2108</ele>
        <time>2026-07-10T09:11:24+00:00</time>
      </trkpt>
      <trkpt lat="44.69992" lon="6.34862">
        <ele>2101.3</ele>
        <time>2026-07-10T09:11:27+00:00</time>
      </trkpt>
      <trkpt lat="44.69991" lon="6.34859">
        <ele>2100.5</ele>
        <time>2026-07-10T09:11:29+00:00</time>
      </trkpt>
      <trkpt lat="44.6999" lon="6.34857">
        <ele>2099.9</ele>
        <time>2026-07-10T09:11:31+00:00</time>
      </trkpt>
      <trkpt lat="44.69989" lon="6.34855">
        <ele>2099.3</ele>
        <time>2026-07-10T09:11:32+00:00</time>
      </trkpt>
      <trkpt lat="44.69987" lon="6.34852">
        <ele>2106</ele>
        <time>2026-07-10T09:11:34+00:00</time>
      </trkpt>
      <trkpt lat="44.69986" lon="6.34849">
        <ele>2097.2</ele>
        <time>2026-07-10T09:11:36+00:00</time>
      </trkpt>
      <trkpt lat="44.69985" lon="6.34846">
        <ele>2096.3</ele>
        <time>2026-07-10T09:11:39+00:00</time>
      </trkpt>
      <trkpt lat="44.69984" lon="6.34842">
        <ele>2095.3</ele>
        <time>2026-07-10T09:11:41+00:00</time>
      </trkpt>
      <trkpt lat="44.69984" lon="6.34839">
        <ele>2094.8</ele>
        <time>2026-07-10T09:11:42+00:00</time>
      </trkpt>
      <trkpt lat="44.69984" lon="6.34836">
        <ele>2106</ele>
        <time>2026-07-10T09:11:44+00:00</time>
      </trkpt>
      <trkpt lat="44.69984" lon="6.34832">
        <ele>2093.9</ele>
        <time>2026-07-10T09:11:47+00:00</time>
      </trkpt>
      <trkpt lat="44.69985" lon="6.34828">
        <ele>2094.4</ele>
        <time>2026-07-10T09:11:48+00:00</time>
      </trkpt>
      <trkpt lat="44.69985" lon="6.34824">
        <ele>2094.4</ele>
        <time>2026-07-10T09:11:50+00:00</time>
      </trkpt>
      <trkpt lat="44.69986" lon="6.3482">
        <ele>2094.9</ele>
        <time>2026-07-10T09:11:52+00:00</time>
      </trkpt>
      <trkpt lat="44.69986" lon="6.34816">
        <ele>2106</ele>
        <time>2026-07-10T09:11:54+00:00</time>
      </trkpt>
      <trkpt lat="44.69986" lon="6.34812">
        <ele>2094.9</ele>
        <time>2026-07-10T09:11:57+00:00</time>
      </trkpt>
      <trkpt lat="44.69987" lon="6.34808">
        <ele>2095.4</ele>
        <time>2026-07-10T09:11:59+00:00</time>
      </trkpt>
      <trkpt lat="44.69988" lon="6.34804">
        <ele>2096.1</ele>
        <time>2026-07-10T09:12:00+00:00</time>
      </trkpt>
      <trkpt lat="44.69987" lon="6.348">
        <ele>2095.9</ele>
        <time>2026-07-10T09:12:03+00:00</time>
      </trkpt>
      <trkpt lat="44.69987" lon="6.34796">
        <ele>2105</ele>
        <time>2026-07-10T09:12:04+00:00</time>
      </trkpt>
      <trkpt lat="44.69986" lon="6.34793">
        <ele>2096.1</ele>
        <time>2026-07-10T09:12:07+00:00</time>
      </trkpt>
      <trkpt lat="44.69985" lon="6.3479">
        <ele>2095.9</ele>
        <time>2026-07-10T09:12:09+00:00</time>
      </trkpt>
      <trkpt lat="44.69984" lon="6.34787">
        <ele>2095.7</ele>
        <time>2026-07-10T09:12:11+00:00</time>
      </trkpt>
      <trkpt lat="44.69984" lon="6.34784">
        <ele>2095.9</ele>
        <time>2026-07-10T09:12:12+00:00</time>
      </trkpt>
      <trkpt lat="44.69985" lon="6.34781">
        <ele>2106</ele>
        <time>2026-07-10T09:12:14+00:00</time>
      </trkpt>
      <trkpt lat="44.69986" lon="6.34777">
        <ele>2097.5</ele>
        <time>2026-07-10T09:12:17+00:00</time>
      </trkpt>
      <trkpt lat="44.69986" lon="6.34775">
        <ele>2097.6</ele>
        <time>2026-07-10T09:12:19+00:00</time>
      </trkpt>
      <trkpt lat="44.69987" lon="6.34772">
        <ele>2098.2</ele>
        <time>2026-07-10T09:12:21+00:00</time>
      </trkpt>
      <trkpt lat="44.69987" lon="6.34768">
        <ele>2098.5</ele>
        <time>2026-07-10T09:12:22+00:00</time>
      </trkpt>
      <trkpt lat="44.69988" lon="6.34764">
        <ele>2106</ele>
        <time>2026-07-10T09:12:24+00:00</time>
      </trkpt>
      <trkpt lat="44.69988" lon="6.3476">
        <ele>2099.4</ele>
        <time>2026-07-10T09:12:26+00:00</time>
      </trkpt>
      <trkpt lat="44.69989" lon="6.34755">
        <ele>2100.2</ele>
        <time>2026-07-10T09:12:28+00:00</time>
      </trkpt>
      <trkpt lat="44.6999" lon="6.34752">
        <ele>2100.8</ele>
        <time>2026-07-10T09:12:30+00:00</time>
      </trkpt>
      <trkpt lat="44.69989" lon="6.34748">
        <ele>2100.5</ele>
        <time>2026-07-10T09:12:32+00:00</time>
      </trkpt>
      <trkpt lat="44.69988" lon="6.34745">
        <ele>2100</ele>
        <time>2026-07-10T09:12:35+00:00</time>
      </trkpt>
      <trkpt lat="44.69986" lon="6.34742">
        <ele>2098.9</ele>
        <time>2026-07-10T09:12:37+00:00</time>
      </trkpt>
      <trkpt lat="44.69986" lon="6.34739">
        <ele>2098.9</ele>
        <time>2026-07-10T09:12:38+00:00</time>
      </trkpt>
      <trkpt lat="44.69985" lon="6.34734">
        <ele>2098.4</ele>
        <time>2026-07-10T09:12:41+00:00</time>
      </trkpt>
      <trkpt lat="44.69985" lon="6.3473">
        <ele>2098.4</ele>
        <time>2026-07-10T09:12:42+00:00</time>
      </trkpt>
      <trkpt lat="44.69984" lon="6.34727">
        <ele>2105</ele>
        <time>2026-07-10T09:12:44+00:00</time>
      </trkpt>
      <trkpt lat="44.69984" lon="6.34723">
        <ele>2097.8</ele>
        <time>2026-07-10T09:12:46+00:00</time>
      </trkpt>
      <trkpt lat="44.69984" lon="6.34719">
        <ele>2097.3</ele>
        <time>2026-07-10T09:12:48+00:00</time>
      </trkpt>
      <trkpt lat="44.69984" lon="6.34715">
        <ele>2096.7</ele>
        <time>2026-07-10T09:12:50+00:00</time>
      </trkpt>
      <trkpt lat="44.69983" lon="6.34712">
        <ele>2095.7</ele>
        <time>2026-07-10T09:12:52+00:00</time>
      </trkpt>
      <trkpt lat="44.69983" lon="6.34708">
        <ele>2105</ele>
        <time>2026-07-10T09:12:54+00:00</time>
      </trkpt>
      <trkpt lat="44.69983" lon="6.34704">
        <ele>2094.4</ele>
        <time>2026-07-10T09:12:57+00:00</time>
      </trkpt>
      <trkpt lat="44.69984" lon="6.347">
        <ele>2094.5</ele>
        <time>2026-07-10T09:12:59+00:00</time>
      </trkpt>
      <trkpt lat="44.69985" lon="6.34696">
        <ele>2094.5</ele>
        <time>2026-07-10T09:13:01+00:00</time>
      </trkpt>
      <trkpt lat="44.69987" lon="6.34692">
        <ele>2095</ele>
        <time>2026-07-10T09:13:02+00:00</time>
      </trkpt>
      <trkpt lat="44.69989" lon="6.34689">
        <ele>2101</ele>
        <time>2026-07-10T09:13:04+00:00</time>
      </trkpt>
      <trkpt lat="44.6999" lon="6.34685">
        <ele>2095.2</ele>
        <time>2026-07-10T09:13:07+00:00</time>
      </trkpt>
      <trkpt lat="44.69991" lon="6.34681">
        <ele>2094.8</ele>
        <time>2026-07-10T09:13:08+00:00</time>
      </trkpt>
      <trkpt lat="44.69992" lon="6.34678">
        <ele>2094.6</ele>
        <time>2026-07-10T09:13:10+00:00</time>
      </trkpt>
      <trkpt lat="44.69993" lon="6.34675">
        <ele>2094.4</ele>
        <time>2026-07-10T09:13:13+00:00</time>
      </trkpt>
      <trkpt lat="44.69995" lon="6.34672">
        <ele>2094.7</ele>
        <time>2026-07-10T09:13:15+00:00</time>
      </trkpt>
      <trkpt lat="44.69996" lon="6.34668">
        <ele>2094.2</ele>
        <time>2026-07-10T09:13:17+00:00</time>
      </trkpt>
      <trkpt lat="44.69998" lon="6.34665">
        <ele>2094.5</ele>
        <time>2026-07-10T09:13:19+00:00</time>
      </trkpt>
      <trkpt lat="44.7" lon="6.34662">
        <ele>2094.7</ele>
        <time>2026-07-10T09:13:20+00:00</time>
      </trkpt>
      <trkpt lat="44.70002" lon="6.34659">
        <ele>2094.5</ele>
        <time>2026-07-10T09:13:23+00:00</time>
      </trkpt>
      <trkpt lat="44.70004" lon="6.34656">
        <ele>2103</ele>
        <time>2026-07-10T09:13:24+00:00</time>
      </trkpt>
      <trkpt lat="44.70005" lon="6.34653">
        <ele>2093.9</ele>
        <time>2026-07-10T09:13:26+00:00</time>
      </trkpt>
      <trkpt lat="44.70007" lon="6.3465">
        <ele>2093.7</ele>
        <time>2026-07-10T09:13:28+00:00</time>
      </trkpt>
      <trkpt lat="44.7001" lon="6.34647">
        <ele>2093.8</ele>
        <time>2026-07-10T09:13:35+00:00</time>
      </trkpt>
      <trkpt lat="44.70012" lon="6.34644">
        <ele>2093.5</ele>
        <time>2026-07-10T09:13:36+00:00</time>
      </trkpt>
      <trkpt lat="44.70015" lon="6.34641">
        <ele>2093.6</ele>
        <time>2026-07-10T09:13:39+00:00</time>
      </trkpt>
      <trkpt lat="44.70018" lon="6.34638">
        <ele>2093.5</ele>
        <time>2026-07-10T09:13:40+00:00</time>
      </trkpt>
      <trkpt lat="44.70021" lon="6.34636">
        <ele>2093.6</ele>
        <time>2026-07-10T09:13:42+00:00</time>
      </trkpt>
      <trkpt lat="44.70024" lon="6.34634">
        <ele>2105</ele>
        <time>2026-07-10T09:13:44+00:00</time>
      </trkpt>
      <trkpt lat="44.70027" lon="6.34633">
        <ele>2094</ele>
        <time>2026-07-10T09:13:46+00:00</time>
      </trkpt>
      <trkpt lat="44.7003" lon="6.34632">
        <ele>2094.3</ele>
        <time>2026-07-10T09:13:48+00:00</time>
      </trkpt>
      <trkpt lat="44.70033" lon="6.34631">
        <ele>2094.5</ele>
        <time>2026-07-10T09:13:51+00:00</time>
      </trkpt>
      <trkpt lat="44.70036" lon="6.3463">
        <ele>2094.7</ele>
        <time>2026-07-10T09:13:52+00:00</time>
      </trkpt>
      <trkpt lat="44.70039" lon="6.3463">
        <ele>2095.4</ele>
        <time>2026-07-10T09:13:55+00:00</time>
      </trkpt>
      <trkpt lat="44.70041" lon="6.34629">
        <ele>2095.4</ele>
        <time>2026-07-10T09:13:56+00:00</time>
      </trkpt>
      <trkpt lat="44.70042" lon="6.34627">
        <ele>2094.7</ele>
        <time>2026-07-10T09:13:58+00:00</time>
      </trkpt>
      <trkpt lat="44.70044" lon="6.34625">
        <ele>2094.3</ele>
        <time>2026-07-10T09:14:01+00:00</time>
      </trkpt>
      <trkpt lat="44.70046" lon="6.34623">
        <ele>2093.9</ele>
        <time>2026-07-10T09:14:02+00:00</time>
      </trkpt>
      <trkpt lat="44.70049" lon="6.34622">
        <ele>2105</ele>
        <time>2026-07-10T09:14:04+00:00</time>
      </trkpt>
      <trkpt lat="44.70051" lon="6.34621">
        <ele>2094.2</ele>
        <time>2026-07-10T09:14:07+00:00</time>
      </trkpt>
      <trkpt lat="44.70054" lon="6.34619">
        <ele>2094</ele>
        <time>2026-07-10T09:14:09+00:00</time>
      </trkpt>
      <trkpt lat="44.70056" lon="6.34617">
        <ele>2093.7</ele>
        <time>2026-07-10T09:14:12+00:00</time>
      </trkpt>
      <trkpt lat="44.70058" lon="6.34616">
        <ele>2105</ele>
        <time>2026-07-10T09:14:14+00:00</time>
      </trkpt>
      <trkpt lat="44.70061" lon="6.34615">
        <ele>2094.9</ele>
        <time>2026-07-10T09:14:15+00:00</time>
      </trkpt>
      <trkpt lat="44.70064" lon="6.34615">
        <ele>2096.2</ele>
        <time>2026-07-10T09:14:18+00:00</time>
      </trkpt>
      <trkpt lat="44.70067" lon="6.34616">
        <ele>2097.8</ele>
        <time>2026-07-10T09:14:20+00:00</time>
      </trkpt>
      <trkpt lat="44.70069" lon="6.34614">
        <ele>2097.9</ele>
        <time>2026-07-10T09:14:21+00:00</time>
      </trkpt>
      <trkpt lat="44.7007" lon="6.34611">
        <ele>2097.2</ele>
        <time>2026-07-10T09:14:23+00:00</time>
      </trkpt>
      <trkpt lat="44.70071" lon="6.34608">
        <ele>2096.5</ele>
        <time>2026-07-10T09:14:26+00:00</time>
      </trkpt>
      <trkpt lat="44.70072" lon="6.34604">
        <ele>2095.5</ele>
        <time>2026-07-10T09:14:28+00:00</time>
      </trkpt>
      <trkpt lat="44.70073" lon="6.346">
        <ele>2094.4</ele>
        <time>2026-07-10T09:14:30+00:00</time>
      </trkpt>
      <trkpt lat="44.70073" lon="6.34597">
        <ele>2093.3</ele>
        <time>2026-07-10T09:14:31+00:00</time>
      </trkpt>
      <trkpt lat="44.70074" lon="6.34594">
        <ele>2092.6</ele>
        <time>2026-07-10T09:14:33+00:00</time>
      </trkpt>
      <trkpt lat="44.70076" lon="6.34591">
        <ele>2092.3</ele>
        <time>2026-07-10T09:14:36+00:00</time>
      </trkpt>
      <trkpt lat="44.70079" lon="6.3459">
        <ele>2093</ele>
        <time>2026-07-10T09:14:38+00:00</time>
      </trkpt>
      <trkpt lat="44.70082" lon="6.34589">
        <ele>2093.7</ele>
        <time>2026-07-10T09:14:40+00:00</time>
      </trkpt>
      <trkpt lat="44.70084" lon="6.34587">
        <ele>2093.6</ele>
        <time>2026-07-10T09:14:41+00:00</time>
      </trkpt>
      <trkpt lat="44.70087" lon="6.34587">
        <ele>2094.4</ele>
        <time>2026-07-10T09:14:43+00:00</time>
      </trkpt>
      <trkpt lat="44.70089" lon="6.34587">
        <ele>2094.9</ele>
        <time>2026-07-10T09:14:46+00:00</time>
      </trkpt>
      <trkpt lat="44.70092" lon="6.34587">
        <ele>2095.7</ele>
        <time>2026-07-10T09:14:48+00:00</time>
      </trkpt>
      <trkpt lat="44.70095" lon="6.34586">
        <ele>2096.1</ele>
        <time>2026-07-10T09:14:49+00:00</time>
      </trkpt>
      <trkpt lat="44.70097" lon="6.34586">
        <ele>2096.6</ele>
        <time>2026-07-10T09:14:52+00:00</time>
      </trkpt>
      <trkpt lat="44.701" lon="6.34584">
        <ele>2102</ele>
        <time>2026-07-10T09:14:54+00:00</time>
      </trkpt>
      <trkpt lat="44.70103" lon="6.34583">
        <ele>2096.8</ele>
        <time>2026-07-10T09:14:55+00:00</time>
      </trkpt>
      <trkpt lat="44.70105" lon="6.34581">
        <ele>2096.3</ele>
        <time>2026-07-10T09:14:57+00:00</time>
      </trkpt>
      <trkpt lat="44.70107" lon="6.34578">
        <ele>2095.3</ele>
        <time>2026-07-10T09:14:59+00:00</time>
      </trkpt>
      <trkpt lat="44.7011" lon="6.34576">
        <ele>2095</ele>
        <time>2026-07-10T09:15:02+00:00</time>
      </trkpt>
      <trkpt lat="44.70112" lon="6.34575">
        <ele>2095</ele>
        <time>2026-07-10T09:15:03+00:00</time>
      </trkpt>
      <trkpt lat="44.70114" lon="6.34572">
        <ele>2093.9</ele>
        <time>2026-07-10T09:15:05+00:00</time>
      </trkpt>
      <trkpt lat="44.70116" lon="6.3457">
        <ele>2093.3</ele>
        <time>2026-07-10T09:15:08+00:00</time>
      </trkpt>
      <trkpt lat="44.70118" lon="6.34568">
        <ele>2092.8</ele>
        <time>2026-07-10T09:15:09+00:00</time>
      </trkpt>
      <trkpt lat="44.70121" lon="6.34566">
        <ele>2092.5</ele>
        <time>2026-07-10T09:15:12+00:00</time>
      </trkpt>
      <trkpt lat="44.70123" lon="6.34563">
        <ele>2101</ele>
        <time>2026-07-10T09:15:14+00:00</time>
      </trkpt>
      <trkpt lat="44.70125" lon="6.3456">
        <ele>2090.6</ele>
        <time>2026-07-10T09:15:16+00:00</time>
      </trkpt>
      <trkpt lat="44.70128" lon="6.34559">
        <ele>2090.8</ele>
        <time>2026-07-10T09:15:17+00:00</time>
      </trkpt>
      <trkpt lat="44.70131" lon="6.34557">
        <ele>2090.7</ele>
        <time>2026-07-10T09:15:19+00:00</time>
      </trkpt>
      <trkpt lat="44.70133" lon="6.34555">
        <ele>2090.4</ele>
        <time>2026-07-10T09:15:21+00:00</time>
      </trkpt>
      <trkpt lat="44.70136" lon="6.34554">
        <ele>2100</ele>
        <time>2026-07-10T09:15:24+00:00</time>
      </trkpt>
      <trkpt lat="44.70139" lon="6.34553">
        <ele>2091.4</ele>
        <time>2026-07-10T09:15:26+00:00</time>
      </trkpt>
      <trkpt lat="44.70141" lon="6.34552">
        <ele>2092</ele>
        <time>2026-07-10T09:15:27+00:00</time>
      </trkpt>
      <trkpt lat="44.70143" lon="6.34551">
        <ele>2092.7</ele>
        <time>2026-07-10T09:15:29+00:00</time>
      </trkpt>
      <trkpt lat="44.70146" lon="6.3455">
        <ele>2093.8</ele>
        <time>2026-07-10T09:15:33+00:00</time>
      </trkpt>
      <trkpt lat="44.70147" lon="6.34546">
        <ele>2093.6</ele>
        <time>2026-07-10T09:15:35+00:00</time>
      </trkpt>
      <trkpt lat="44.70146" lon="6.34543">
        <ele>2092.6</ele>
        <time>2026-07-10T09:15:37+00:00</time>
      </trkpt>
      <trkpt lat="44.70146" lon="6.3454">
        <ele>2092</ele>
        <time>2026-07-10T09:15:40+00:00</time>
      </trkpt>
      <trkpt lat="44.70147" lon="6.34537">
        <ele>2092.1</ele>
        <time>2026-07-10T09:15:42+00:00</time>
      </trkpt>
      <trkpt lat="44.70145" lon="6.34545">
        <ele>2092.4</ele>
        <time>2026-07-10T09:16:57+00:00</time>
      </trkpt>
      <trkpt lat="44.70146" lon="6.34542">
        <ele>2092.4</ele>
        <time>2026-07-10T09:17:08+00:00</time>
      </trkpt>
      <trkpt lat="44.70147" lon="6.3454">
        <ele>2092.6</ele>
        <time>2026-07-10T09:17:15+00:00</time>
      </trkpt>
      <trkpt lat="44.70147" lon="6.34536">
        <ele>2091.9</ele>
        <time>2026-07-10T09:17:30+00:00</time>
      </trkpt>
      <trkpt lat="44.70147" lon="6.34533">
        <ele>2091.4</ele>
        <time>2026-07-10T09:17:33+00:00</time>
      </trkpt>
      <trkpt lat="44.70147" lon="6.34528">
        <ele>2098</ele>
        <time>2026-07-10T09:17:34+00:00</time>
      </trkpt>
      <trkpt lat="44.70147" lon="6.34526">
        <ele>2090.9</ele>
        <time>2026-07-10T09:17:36+00:00</time>
      </trkpt>
      <trkpt lat="44.70145" lon="6.34521">
        <ele>2090.4</ele>
        <time>2026-07-10T09:17:38+00:00</time>
      </trkpt>
      <trkpt lat="44.70144" lon="6.34517">
        <ele>2090.5</ele>
        <time>2026-07-10T09:17:39+00:00</time>
      </trkpt>
      <trkpt lat="44.70135" lon="6.34509">
        <ele>2087.4</ele>
        <time>2026-07-10T09:17:45+00:00</time>
      </trkpt>
      <trkpt lat="44.70132" lon="6.34502">
        <ele>2087.4</ele>
        <time>2026-07-10T09:17:48+00:00</time>
      </trkpt>
      <trkpt lat="44.70131" lon="6.34499">
        <ele>2087.4</ele>
        <time>2026-07-10T09:17:50+00:00</time>
      </trkpt>
      <trkpt lat="44.70128" lon="6.34495">
        <ele>2086.7</ele>
        <time>2026-07-10T09:17:53+00:00</time>
      </trkpt>
      <trkpt lat="44.70126" lon="6.34493">
        <ele>2097</ele>
        <time>2026-07-10T09:17:54+00:00</time>
      </trkpt>
      <trkpt lat="44.70124" lon="6.34489">
        <ele>2085.9</ele>
        <time>2026-07-10T09:17:57+00:00</time>
      </trkpt>
      <trkpt lat="44.70123" lon="6.34485">
        <ele>2086.1</ele>
        <time>2026-07-10T09:17:59+00:00</time>
      </trkpt>
      <trkpt lat="44.70122" lon="6.34482">
        <ele>2086.2</ele>
        <time>2026-07-10T09:18:00+00:00</time>
      </trkpt>
      <trkpt lat="44.70121" lon="6.34477">
        <ele>2086.7</ele>
        <time>2026-07-10T09:18:03+00:00</time>
      </trkpt>
      <trkpt lat="44.70121" lon="6.34473">
        <ele>2087.4</ele>
        <time>2026-07-10T09:18:05+00:00</time>
      </trkpt>
      <trkpt lat="44.70121" lon="6.34468">
        <ele>2087.4</ele>
        <time>2026-07-10T09:18:06+00:00</time>
      </trkpt>
      <trkpt lat="44.70123" lon="6.34464">
        <ele>2087.9</ele>
        <time>2026-07-10T09:18:09+00:00</time>
      </trkpt>
      <trkpt lat="44.70123" lon="6.34459">
        <ele>2087.7</ele>
        <time>2026-07-10T09:18:10+00:00</time>
      </trkpt>
      <trkpt lat="44.70124" lon="6.34455">
        <ele>2087.8</ele>
        <time>2026-07-10T09:18:13+00:00</time>
      </trkpt>
      <trkpt lat="44.70126" lon="6.34452">
        <ele>2088.2</ele>
        <time>2026-07-10T09:18:15+00:00</time>
      </trkpt>
      <trkpt lat="44.70127" lon="6.34448">
        <ele>2088.2</ele>
        <time>2026-07-10T09:18:17+00:00</time>
      </trkpt>
      <trkpt lat="44.70129" lon="6.34444">
        <ele>2088.4</ele>
        <time>2026-07-10T09:18:19+00:00</time>
      </trkpt>
      <trkpt lat="44.70131" lon="6.3444">
        <ele>2088.3</ele>
        <time>2026-07-10T09:18:21+00:00</time>
      </trkpt>
      <trkpt lat="44.70134" lon="6.34438">
        <ele>2088.6</ele>
        <time>2026-07-10T09:18:22+00:00</time>
      </trkpt>
      <trkpt lat="44.70135" lon="6.34434">
        <ele>2088.2</ele>
        <time>2026-07-10T09:18:25+00:00</time>
      </trkpt>
      <trkpt lat="44.70138" lon="6.3443">
        <ele>2088.2</ele>
        <time>2026-07-10T09:18:27+00:00</time>
      </trkpt>
      <trkpt lat="44.7014" lon="6.34427">
        <ele>2088.1</ele>
        <time>2026-07-10T09:18:29+00:00</time>
      </trkpt>
      <trkpt lat="44.70142" lon="6.34423">
        <ele>2087.8</ele>
        <time>2026-07-10T09:18:30+00:00</time>
      </trkpt>
      <trkpt lat="44.70144" lon="6.3442">
        <ele>2087.6</ele>
        <time>2026-07-10T09:18:32+00:00</time>
      </trkpt>
      <trkpt lat="44.70146" lon="6.34417">
        <ele>2087.3</ele>
        <time>2026-07-10T09:18:35+00:00</time>
      </trkpt>
      <trkpt lat="44.70148" lon="6.34414">
        <ele>2087.2</ele>
        <time>2026-07-10T09:18:37+00:00</time>
      </trkpt>
      <trkpt lat="44.7015" lon="6.34411">
        <ele>2087</ele>
        <time>2026-07-10T09:18:38+00:00</time>
      </trkpt>
      <trkpt lat="44.70153" lon="6.34409">
        <ele>2087.2</ele>
        <time>2026-07-10T09:18:40+00:00</time>
      </trkpt>
      <trkpt lat="44.70155" lon="6.34406">
        <ele>2087</ele>
        <time>2026-07-10T09:18:42+00:00</time>
      </trkpt>
      <trkpt lat="44.70158" lon="6.34404">
        <ele>2096</ele>
        <time>2026-07-10T09:18:44+00:00</time>
      </trkpt>
      <trkpt lat="44.70161" lon="6.34403">
        <ele>2087.5</ele>
        <time>2026-07-10T09:18:46+00:00</time>
      </trkpt>
      <trkpt lat="44.70163" lon="6.344">
        <ele>2087.3</ele>
        <time>2026-07-10T09:18:48+00:00</time>
      </trkpt>
      <trkpt lat="44.70166" lon="6.34399">
        <ele>2087.7</ele>
        <time>2026-07-10T09:18:50+00:00</time>
      </trkpt>
      <trkpt lat="44.70169" lon="6.34397">
        <ele>2088</ele>
        <time>2026-07-10T09:18:52+00:00</time>
      </trkpt>
      <trkpt lat="44.7017" lon="6.34395">
        <ele>2087.8</ele>
        <time>2026-07-10T09:18:53+00:00</time>
      </trkpt>
      <trkpt lat="44.70171" lon="6.34391">
        <ele>2087.3</ele>
        <time>2026-07-10T09:18:56+00:00</time>
      </trkpt>
      <trkpt lat="44.70173" lon="6.34388">
        <ele>2087.2</ele>
        <time>2026-07-10T09:18:57+00:00</time>
      </trkpt>
      <trkpt lat="44.70175" lon="6.34385">
        <ele>2087.1</ele>
        <time>2026-07-10T09:19:00+00:00</time>
      </trkpt>
      <trkpt lat="44.70177" lon="6.34382">
        <ele>2087</ele>
        <time>2026-07-10T09:19:01+00:00</time>
      </trkpt>
      <trkpt lat="44.70179" lon="6.34378">
        <ele>2086.7</ele>
        <time>2026-07-10T09:19:03+00:00</time>
      </trkpt>
      <trkpt lat="44.70181" lon="6.34375">
        <ele>2086.6</ele>
        <time>2026-07-10T09:19:05+00:00</time>
      </trkpt>
      <trkpt lat="44.70182" lon="6.34372">
        <ele>2086.3</ele>
        <time>2026-07-10T09:19:07+00:00</time>
      </trkpt>
      <trkpt lat="44.70184" lon="6.34368">
        <ele>2086</ele>
        <time>2026-07-10T09:19:10+00:00</time>
      </trkpt>
      <trkpt lat="44.70185" lon="6.34364">
        <ele>2085.5</ele>
        <time>2026-07-10T09:19:11+00:00</time>
      </trkpt>
      <trkpt lat="44.70187" lon="6.34361">
        <ele>2094</ele>
        <time>2026-07-10T09:19:14+00:00</time>
      </trkpt>
      <trkpt lat="44.70189" lon="6.34358">
        <ele>2085.3</ele>
        <time>2026-07-10T09:19:16+00:00</time>
      </trkpt>
      <trkpt lat="44.7019" lon="6.34355">
        <ele>2085</ele>
        <time>2026-07-10T09:19:17+00:00</time>
      </trkpt>
      <trkpt lat="44.7019" lon="6.34351">
        <ele>2084.3</ele>
        <time>2026-07-10T09:19:20+00:00</time>
      </trkpt>
      <trkpt lat="44.70192" lon="6.34347">
        <ele>2084</ele>
        <time>2026-07-10T09:19:22+00:00</time>
      </trkpt>
      <trkpt lat="44.70194" lon="6.34344">
        <ele>2093</ele>
        <time>2026-07-10T09:19:24+00:00</time>
      </trkpt>
      <trkpt lat="44.70197" lon="6.34341">
        <ele>2083.6</ele>
        <time>2026-07-10T09:19:27+00:00</time>
      </trkpt>
      <trkpt lat="44.70199" lon="6.34339">
        <ele>2083.4</ele>
        <time>2026-07-10T09:19:29+00:00</time>
      </trkpt>
      <trkpt lat="44.70202" lon="6.34336">
        <ele>2083.1</ele>
        <time>2026-07-10T09:19:31+00:00</time>
      </trkpt>
      <trkpt lat="44.70205" lon="6.34334">
        <ele>2082.9</ele>
        <time>2026-07-10T09:19:33+00:00</time>
      </trkpt>
      <trkpt lat="44.70208" lon="6.34333">
        <ele>2082.9</ele>
        <time>2026-07-10T09:19:35+00:00</time>
      </trkpt>
      <trkpt lat="44.70211" lon="6.34332">
        <ele>2082.8</ele>
        <time>2026-07-10T09:19:38+00:00</time>
      </trkpt>
      <trkpt lat="44.70215" lon="6.34332">
        <ele>2083.1</ele>
        <time>2026-07-10T09:19:40+00:00</time>
      </trkpt>
      <trkpt lat="44.70217" lon="6.34332">
        <ele>2083.2</ele>
        <time>2026-07-10T09:19:41+00:00</time>
      </trkpt>
      <trkpt lat="44.7022" lon="6.34331">
        <ele>2083.1</ele>
        <time>2026-07-10T09:19:42+00:00</time>
      </trkpt>
      <trkpt lat="44.70223" lon="6.34331">
        <ele>2092</ele>
        <time>2026-07-10T09:19:44+00:00</time>
      </trkpt>
      <trkpt lat="44.70227" lon="6.3433">
        <ele>2083.8</ele>
        <time>2026-07-10T09:19:47+00:00</time>
      </trkpt>
      <trkpt lat="44.7023" lon="6.34328">
        <ele>2083.7</ele>
        <time>2026-07-10T09:19:48+00:00</time>
      </trkpt>
      <trkpt lat="44.70233" lon="6.34327">
        <ele>2083.9</ele>
        <time>2026-07-10T09:19:51+00:00</time>
      </trkpt>
      <trkpt lat="44.70236" lon="6.34326">
        <ele>2084.1</ele>
        <time>2026-07-10T09:19:52+00:00</time>
      </trkpt>
      <trkpt lat="44.70238" lon="6.34324">
        <ele>2083.8</ele>
        <time>2026-07-10T09:19:55+00:00</time>
      </trkpt>
      <trkpt lat="44.7024" lon="6.34321">
        <ele>2083.2</ele>
        <time>2026-07-10T09:19:56+00:00</time>
      </trkpt>
      <trkpt lat="44.70242" lon="6.34317">
        <ele>2082.3</ele>
        <time>2026-07-10T09:19:58+00:00</time>
      </trkpt>
      <trkpt lat="44.70244" lon="6.34314">
        <ele>2081.7</ele>
        <time>2026-07-10T09:20:00+00:00</time>
      </trkpt>
      <trkpt lat="44.70247" lon="6.34311">
        <ele>2081.2</ele>
        <time>2026-07-10T09:20:02+00:00</time>
      </trkpt>
      <trkpt lat="44.70248" lon="6.34309">
        <ele>2090</ele>
        <time>2026-07-10T09:20:04+00:00</time>
      </trkpt>
      <trkpt lat="44.70251" lon="6.34306">
        <ele>2080.4</ele>
        <time>2026-07-10T09:20:07+00:00</time>
      </trkpt>
      <trkpt lat="44.70253" lon="6.34304">
        <ele>2080.1</ele>
        <time>2026-07-10T09:20:08+00:00</time>
      </trkpt>
      <trkpt lat="44.70256" lon="6.34302">
        <ele>2080</ele>
        <time>2026-07-10T09:20:10+00:00</time>
      </trkpt>
      <trkpt lat="44.70261" lon="6.34299">
        <ele>2080</ele>
        <time>2026-07-10T09:20:15+00:00</time>
      </trkpt>
      <trkpt lat="44.70264" lon="6.34299">
        <ele>2080.7</ele>
        <time>2026-07-10T09:20:18+00:00</time>
      </trkpt>
      <trkpt lat="44.70267" lon="6.34298">
        <ele>2081</ele>
        <time>2026-07-10T09:20:19+00:00</time>
      </trkpt>
      <trkpt lat="44.70271" lon="6.34296">
        <ele>2081.1</ele>
        <time>2026-07-10T09:20:21+00:00</time>
      </trkpt>
      <trkpt lat="44.70272" lon="6.34295">
        <ele>2081</ele>
        <time>2026-07-10T09:20:22+00:00</time>
      </trkpt>
      <trkpt lat="44.70275" lon="6.34291">
        <ele>2080.2</ele>
        <time>2026-07-10T09:20:25+00:00</time>
      </trkpt>
      <trkpt lat="44.70277" lon="6.34287">
        <ele>2079.2</ele>
        <time>2026-07-10T09:20:26+00:00</time>
      </trkpt>
      <trkpt lat="44.70278" lon="6.34283">
        <ele>2078</ele>
        <time>2026-07-10T09:20:28+00:00</time>
      </trkpt>
      <trkpt lat="44.7028" lon="6.3428">
        <ele>2078</ele>
        <time>2026-07-10T09:20:30+00:00</time>
      </trkpt>
      <trkpt lat="44.70282" lon="6.34277">
        <ele>2078.1</ele>
        <time>2026-07-10T09:20:32+00:00</time>
      </trkpt>
      <trkpt lat="44.70284" lon="6.34274">
        <ele>2087</ele>
        <time>2026-07-10T09:20:34+00:00</time>
      </trkpt>
      <trkpt lat="44.70287" lon="6.34271">
        <ele>2078.9</ele>
        <time>2026-07-10T09:20:37+00:00</time>
      </trkpt>
      <trkpt lat="44.70288" lon="6.34268">
        <ele>2078.4</ele>
        <time>2026-07-10T09:20:38+00:00</time>
      </trkpt>
      <trkpt lat="44.70291" lon="6.34265">
        <ele>2078.8</ele>
        <time>2026-07-10T09:20:40+00:00</time>
      </trkpt>
      <trkpt lat="44.70293" lon="6.34262">
        <ele>2078.7</ele>
        <time>2026-07-10T09:20:42+00:00</time>
      </trkpt>
      <trkpt lat="44.70296" lon="6.34259">
        <ele>2078.9</ele>
        <time>2026-07-10T09:20:45+00:00</time>
      </trkpt>
      <trkpt lat="44.70298" lon="6.34256">
        <ele>2078.6</ele>
        <time>2026-07-10T09:20:46+00:00</time>
      </trkpt>
      <trkpt lat="44.70301" lon="6.34253">
        <ele>2078.6</ele>
        <time>2026-07-10T09:20:48+00:00</time>
      </trkpt>
      <trkpt lat="44.70304" lon="6.34251">
        <ele>2078.9</ele>
        <time>2026-07-10T09:20:50+00:00</time>
      </trkpt>
      <trkpt lat="44.70307" lon="6.3425">
        <ele>2079.6</ele>
        <time>2026-07-10T09:20:52+00:00</time>
      </trkpt>
      <trkpt lat="44.70309" lon="6.34249">
        <ele>2080.1</ele>
        <time>2026-07-10T09:20:55+00:00</time>
      </trkpt>
      <trkpt lat="44.70311" lon="6.34247">
        <ele>2080.1</ele>
        <time>2026-07-10T09:20:57+00:00</time>
      </trkpt>
      <trkpt lat="44.70313" lon="6.34244">
        <ele>2079.8</ele>
        <time>2026-07-10T09:20:59+00:00</time>
      </trkpt>
      <trkpt lat="44.70315" lon="6.34241">
        <ele>2079.4</ele>
        <time>2026-07-10T09:21:01+00:00</time>
      </trkpt>
      <trkpt lat="44.70317" lon="6.34239">
        <ele>2079.4</ele>
        <time>2026-07-10T09:21:03+00:00</time>
      </trkpt>
      <trkpt lat="44.70319" lon="6.34236">
        <ele>2087</ele>
        <time>2026-07-10T09:21:04+00:00</time>
      </trkpt>
      <trkpt lat="44.70321" lon="6.34233">
        <ele>2078.6</ele>
        <time>2026-07-10T09:21:07+00:00</time>
      </trkpt>
      <trkpt lat="44.70324" lon="6.34231">
        <ele>2079</ele>
        <time>2026-07-10T09:21:08+00:00</time>
      </trkpt>
      <trkpt lat="44.70327" lon="6.3423">
        <ele>2079.8</ele>
        <time>2026-07-10T09:21:10+00:00</time>
      </trkpt>
      <trkpt lat="44.7033" lon="6.34229">
        <ele>2080.6</ele>
        <time>2026-07-10T09:21:13+00:00</time>
      </trkpt>
      <trkpt lat="44.70333" lon="6.34228">
        <ele>2081.4</ele>
        <time>2026-07-10T09:21:15+00:00</time>
      </trkpt>
      <trkpt lat="44.70336" lon="6.34227">
        <ele>2082.6</ele>
        <time>2026-07-10T09:21:16+00:00</time>
      </trkpt>
      <trkpt lat="44.70338" lon="6.34224">
        <ele>2082.6</ele>
        <time>2026-07-10T09:21:20+00:00</time>
      </trkpt>
      <trkpt lat="44.70338" lon="6.3422">
        <ele>2081.3</ele>
        <time>2026-07-10T09:21:23+00:00</time>
      </trkpt>
      <trkpt lat="44.7034" lon="6.34216">
        <ele>2088</ele>
        <time>2026-07-10T09:21:24+00:00</time>
      </trkpt>
      <trkpt lat="44.7034" lon="6.34211">
        <ele>2080.4</ele>
        <time>2026-07-10T09:21:26+00:00</time>
      </trkpt>
      <trkpt lat="44.70341" lon="6.34208">
        <ele>2080.2</ele>
        <time>2026-07-10T09:21:29+00:00</time>
      </trkpt>
      <trkpt lat="44.70341" lon="6.34204">
        <ele>2079.2</ele>
        <time>2026-07-10T09:21:31+00:00</time>
      </trkpt>
      <trkpt lat="44.70343" lon="6.342">
        <ele>2079.3</ele>
        <time>2026-07-10T09:21:33+00:00</time>
      </trkpt>
      <trkpt lat="44.70345" lon="6.34197">
        <ele>2079.5</ele>
        <time>2026-07-10T09:21:35+00:00</time>
      </trkpt>
      <trkpt lat="44.70348" lon="6.34194">
        <ele>2080.2</ele>
        <time>2026-07-10T09:21:36+00:00</time>
      </trkpt>
      <trkpt lat="44.70349" lon="6.34192">
        <ele>2080</ele>
        <time>2026-07-10T09:21:39+00:00</time>
      </trkpt>
      <trkpt lat="44.70351" lon="6.34189">
        <ele>2079.9</ele>
        <time>2026-07-10T09:21:41+00:00</time>
      </trkpt>
      <trkpt lat="44.70354" lon="6.34186">
        <ele>2080.4</ele>
        <time>2026-07-10T09:21:43+00:00</time>
      </trkpt>
      <trkpt lat="44.70357" lon="6.34184">
        <ele>2081.2</ele>
        <time>2026-07-10T09:21:45+00:00</time>
      </trkpt>
      <trkpt lat="44.70359" lon="6.34181">
        <ele>2081.1</ele>
        <time>2026-07-10T09:21:48+00:00</time>
      </trkpt>
      <trkpt lat="44.70361" lon="6.34179">
        <ele>2081.4</ele>
        <time>2026-07-10T09:21:50+00:00</time>
      </trkpt>
      <trkpt lat="44.70363" lon="6.34176">
        <ele>2081.5</ele>
        <time>2026-07-10T09:21:51+00:00</time>
      </trkpt>
      <trkpt lat="44.70364" lon="6.34172">
        <ele>2080.7</ele>
        <time>2026-07-10T09:21:53+00:00</time>
      </trkpt>
      <trkpt lat="44.70366" lon="6.34169">
        <ele>2080.8</ele>
        <time>2026-07-10T09:21:55+00:00</time>
      </trkpt>
      <trkpt lat="44.70367" lon="6.34165">
        <ele>2080.1</ele>
        <time>2026-07-10T09:21:57+00:00</time>
      </trkpt>
      <trkpt lat="44.70369" lon="6.34162">
        <ele>2080.3</ele>
        <time>2026-07-10T09:21:59+00:00</time>
      </trkpt>
      <trkpt lat="44.70372" lon="6.34159">
        <ele>2081</ele>
        <time>2026-07-10T09:22:01+00:00</time>
      </trkpt>
      <trkpt lat="44.70374" lon="6.34155">
        <ele>2080.7</ele>
        <time>2026-07-10T09:22:03+00:00</time>
      </trkpt>
      <trkpt lat="44.70375" lon="6.34152">
        <ele>2080.2</ele>
        <time>2026-07-10T09:22:05+00:00</time>
      </trkpt>
      <trkpt lat="44.70377" lon="6.34149">
        <ele>2080.2</ele>
        <time>2026-07-10T09:22:08+00:00</time>
      </trkpt>
      <trkpt lat="44.7038" lon="6.34145">
        <ele>2080.2</ele>
        <time>2026-07-10T09:22:10+00:00</time>
      </trkpt>
      <trkpt lat="44.70382" lon="6.34143">
        <ele>2080.4</ele>
        <time>2026-07-10T09:22:11+00:00</time>
      </trkpt>
      <trkpt lat="44.70384" lon="6.34141">
        <ele>2090</ele>
        <time>2026-07-10T09:22:14+00:00</time>
      </trkpt>
      <trkpt lat="44.70387" lon="6.34139">
        <ele>2081.2</ele>
        <time>2026-07-10T09:22:15+00:00</time>
      </trkpt>
      <trkpt lat="44.7039" lon="6.34137">
        <ele>2081.7</ele>
        <time>2026-07-10T09:22:17+00:00</time>
      </trkpt>
      <trkpt lat="44.70392" lon="6.34135">
        <ele>2081.7</ele>
        <time>2026-07-10T09:22:19+00:00</time>
      </trkpt>
      <trkpt lat="44.70395" lon="6.34133">
        <ele>2082.1</ele>
        <time>2026-07-10T09:22:22+00:00</time>
      </trkpt>
      <trkpt lat="44.70397" lon="6.3413">
        <ele>2090</ele>
        <time>2026-07-10T09:22:24+00:00</time>
      </trkpt>
      <trkpt lat="44.70399" lon="6.34128">
        <ele>2081.7</ele>
        <time>2026-07-10T09:22:25+00:00</time>
      </trkpt>
      <trkpt lat="44.70402" lon="6.34127">
        <ele>2082.4</ele>
        <time>2026-07-10T09:22:30+00:00</time>
      </trkpt>
      <trkpt lat="44.70405" lon="6.34124">
        <ele>2082.4</ele>
        <time>2026-07-10T09:22:32+00:00</time>
      </trkpt>
      <trkpt lat="44.70407" lon="6.34122">
        <ele>2091</ele>
        <time>2026-07-10T09:22:34+00:00</time>
      </trkpt>
      <trkpt lat="44.7041" lon="6.34121">
        <ele>2083</ele>
        <time>2026-07-10T09:22:40+00:00</time>
      </trkpt>
      <trkpt lat="44.70413" lon="6.34119">
        <ele>2083.4</ele>
        <time>2026-07-10T09:22:42+00:00</time>
      </trkpt>
      <trkpt lat="44.70415" lon="6.34118">
        <ele>2083.7</ele>
        <time>2026-07-10T09:22:45+00:00</time>
      </trkpt>
      <trkpt lat="44.70419" lon="6.34118">
        <ele>2084.7</ele>
        <time>2026-07-10T09:22:48+00:00</time>
      </trkpt>
      <trkpt lat="44.70422" lon="6.34117">
        <ele>2084.9</ele>
        <time>2026-07-10T09:22:50+00:00</time>
      </trkpt>
      <trkpt lat="44.70425" lon="6.34115">
        <ele>2084.8</ele>
        <time>2026-07-10T09:22:51+00:00</time>
      </trkpt>
      <trkpt lat="44.70427" lon="6.34114">
        <ele>2084.8</ele>
        <time>2026-07-10T09:22:53+00:00</time>
      </trkpt>
      <trkpt lat="44.70428" lon="6.34113">
        <ele>2092</ele>
        <time>2026-07-10T09:22:54+00:00</time>
      </trkpt>
      <trkpt lat="44.70432" lon="6.34112">
        <ele>2085</ele>
        <time>2026-07-10T09:22:56+00:00</time>
      </trkpt>
      <trkpt lat="44.70435" lon="6.34111">
        <ele>2085.3</ele>
        <time>2026-07-10T09:22:57+00:00</time>
      </trkpt>
      <trkpt lat="44.70438" lon="6.3411">
        <ele>2085.4</ele>
        <time>2026-07-10T09:23:00+00:00</time>
      </trkpt>
      <trkpt lat="44.70442" lon="6.34109">
        <ele>2085.7</ele>
        <time>2026-07-10T09:23:01+00:00</time>
      </trkpt>
      <trkpt lat="44.70445" lon="6.34109">
        <ele>2086.2</ele>
        <time>2026-07-10T09:23:03+00:00</time>
      </trkpt>
      <trkpt lat="44.70448" lon="6.34109">
        <ele>2086.5</ele>
        <time>2026-07-10T09:23:05+00:00</time>
      </trkpt>
      <trkpt lat="44.70451" lon="6.3411">
        <ele>2087.1</ele>
        <time>2026-07-10T09:23:08+00:00</time>
      </trkpt>
      <trkpt lat="44.70454" lon="6.34112">
        <ele>2088</ele>
        <time>2026-07-10T09:23:09+00:00</time>
      </trkpt>
      <trkpt lat="44.70457" lon="6.34112">
        <ele>2088.2</ele>
        <time>2026-07-10T09:23:12+00:00</time>
      </trkpt>
      <trkpt lat="44.7046" lon="6.34111">
        <ele>2088.1</ele>
        <time>2026-07-10T09:23:13+00:00</time>
      </trkpt>
      <trkpt lat="44.70463" lon="6.34109">
        <ele>2087.8</ele>
        <time>2026-07-10T09:23:16+00:00</time>
      </trkpt>
      <trkpt lat="44.70464" lon="6.34105">
        <ele>2086.9</ele>
        <time>2026-07-10T09:23:17+00:00</time>
      </trkpt>
      <trkpt lat="44.70466" lon="6.34101">
        <ele>2086.2</ele>
        <time>2026-07-10T09:23:20+00:00</time>
      </trkpt>
      <trkpt lat="44.70467" lon="6.34097">
        <ele>2085.5</ele>
        <time>2026-07-10T09:23:22+00:00</time>
      </trkpt>
      <trkpt lat="44.70468" lon="6.34092">
        <ele>2084.6</ele>
        <time>2026-07-10T09:23:23+00:00</time>
      </trkpt>
      <trkpt lat="44.70469" lon="6.34089">
        <ele>2084.2</ele>
        <time>2026-07-10T09:23:26+00:00</time>
      </trkpt>
      <trkpt lat="44.70469" lon="6.34085">
        <ele>2083.4</ele>
        <time>2026-07-10T09:23:28+00:00</time>
      </trkpt>
      <trkpt lat="44.7047" lon="6.3408">
        <ele>2082.8</ele>
        <time>2026-07-10T09:23:29+00:00</time>
      </trkpt>
      <trkpt lat="44.7047" lon="6.34076">
        <ele>2082.2</ele>
        <time>2026-07-10T09:23:31+00:00</time>
      </trkpt>
      <trkpt lat="44.7047" lon="6.34072">
        <ele>2092</ele>
        <time>2026-07-10T09:23:34+00:00</time>
      </trkpt>
      <trkpt lat="44.7047" lon="6.34068">
        <ele>2080.8</ele>
        <time>2026-07-10T09:23:35+00:00</time>
      </trkpt>
      <trkpt lat="44.70471" lon="6.34064">
        <ele>2080.6</ele>
        <time>2026-07-10T09:23:37+00:00</time>
      </trkpt>
      <trkpt lat="44.70471" lon="6.34059">
        <ele>2079.9</ele>
        <time>2026-07-10T09:23:39+00:00</time>
      </trkpt>
      <trkpt lat="44.70471" lon="6.34055">
        <ele>2079.2</ele>
        <time>2026-07-10T09:23:42+00:00</time>
      </trkpt>
      <trkpt lat="44.70472" lon="6.34051">
        <ele>2090</ele>
        <time>2026-07-10T09:23:44+00:00</time>
      </trkpt>
      <trkpt lat="44.70473" lon="6.34047">
        <ele>2078.5</ele>
        <time>2026-07-10T09:23:45+00:00</time>
      </trkpt>
      <trkpt lat="44.70475" lon="6.34044">
        <ele>2078.8</ele>
        <time>2026-07-10T09:23:47+00:00</time>
      </trkpt>
      <trkpt lat="44.70476" lon="6.34041">
        <ele>2078.5</ele>
        <time>2026-07-10T09:23:49+00:00</time>
      </trkpt>
      <trkpt lat="44.70478" lon="6.34037">
        <ele>2078.5</ele>
        <time>2026-07-10T09:23:51+00:00</time>
      </trkpt>
      <trkpt lat="44.7048" lon="6.34034">
        <ele>2088</ele>
        <time>2026-07-10T09:23:54+00:00</time>
      </trkpt>
      <trkpt lat="44.70482" lon="6.34031">
        <ele>2078.7</ele>
        <time>2026-07-10T09:23:56+00:00</time>
      </trkpt>
      <trkpt lat="44.70483" lon="6.34028">
        <ele>2078.3</ele>
        <time>2026-07-10T09:23:57+00:00</time>
      </trkpt>
      <trkpt lat="44.70485" lon="6.34025">
        <ele>2078.1</ele>
        <time>2026-07-10T09:24:00+00:00</time>
      </trkpt>
      <trkpt lat="44.70487" lon="6.34022">
        <ele>2077.9</ele>
        <time>2026-07-10T09:24:01+00:00</time>
      </trkpt>
      <trkpt lat="44.70489" lon="6.34019">
        <ele>2077.6</ele>
        <time>2026-07-10T09:24:03+00:00</time>
      </trkpt>
      <trkpt lat="44.70491" lon="6.34017">
        <ele>2077.7</ele>
        <time>2026-07-10T09:24:06+00:00</time>
      </trkpt>
      <trkpt lat="44.70493" lon="6.34014">
        <ele>2077.4</ele>
        <time>2026-07-10T09:24:08+00:00</time>
      </trkpt>
      <trkpt lat="44.70494" lon="6.34011">
        <ele>2076.7</ele>
        <time>2026-07-10T09:24:10+00:00</time>
      </trkpt>
      <trkpt lat="44.70497" lon="6.34008">
        <ele>2076.8</ele>
        <time>2026-07-10T09:24:11+00:00</time>
      </trkpt>
      <trkpt lat="44.70499" lon="6.34004">
        <ele>2076.1</ele>
        <time>2026-07-10T09:24:13+00:00</time>
      </trkpt>
      <trkpt lat="44.70501" lon="6.34002">
        <ele>2076</ele>
        <time>2026-07-10T09:24:16+00:00</time>
      </trkpt>
      <trkpt lat="44.70503" lon="6.33999">
        <ele>2075.5</ele>
        <time>2026-07-10T09:24:18+00:00</time>
      </trkpt>
      <trkpt lat="44.70506" lon="6.33996">
        <ele>2075.2</ele>
        <time>2026-07-10T09:24:19+00:00</time>
      </trkpt>
      <trkpt lat="44.70508" lon="6.33993">
        <ele>2074.6</ele>
        <time>2026-07-10T09:24:21+00:00</time>
      </trkpt>
      <trkpt lat="44.7051" lon="6.3399">
        <ele>2074</ele>
        <time>2026-07-10T09:24:23+00:00</time>
      </trkpt>
      <trkpt lat="44.70512" lon="6.33988">
        <ele>2073.8</ele>
        <time>2026-07-10T09:24:25+00:00</time>
      </trkpt>
      <trkpt lat="44.70514" lon="6.33986">
        <ele>2073.5</ele>
        <time>2026-07-10T09:24:30+00:00</time>
      </trkpt>
      <trkpt lat="44.70515" lon="6.33985">
        <ele>2073.3</ele>
        <time>2026-07-10T09:24:32+00:00</time>
      </trkpt>
      <trkpt lat="44.70519" lon="6.33983">
        <ele>2073.5</ele>
        <time>2026-07-10T09:24:33+00:00</time>
      </trkpt>
      <trkpt lat="44.70522" lon="6.33981">
        <ele>2073.4</ele>
        <time>2026-07-10T09:24:35+00:00</time>
      </trkpt>
      <trkpt lat="44.70524" lon="6.3398">
        <ele>2073.5</ele>
        <time>2026-07-10T09:24:36+00:00</time>
      </trkpt>
      <trkpt lat="44.70528" lon="6.33979">
        <ele>2074</ele>
        <time>2026-07-10T09:24:38+00:00</time>
      </trkpt>
      <trkpt lat="44.7053" lon="6.33979">
        <ele>2075</ele>
        <time>2026-07-10T09:24:39+00:00</time>
      </trkpt>
      <trkpt lat="44.70533" lon="6.33977">
        <ele>2075.5</ele>
        <time>2026-07-10T09:24:42+00:00</time>
      </trkpt>
      <trkpt lat="44.70535" lon="6.33974">
        <ele>2075.3</ele>
        <time>2026-07-10T09:24:43+00:00</time>
      </trkpt>
      <trkpt lat="44.70535" lon="6.3397">
        <ele>2074.3</ele>
        <time>2026-07-10T09:24:45+00:00</time>
      </trkpt>
      <trkpt lat="44.70536" lon="6.33966">
        <ele>2074.2</ele>
        <time>2026-07-10T09:24:47+00:00</time>
      </trkpt>
      <trkpt lat="44.70536" lon="6.33962">
        <ele>2073.5</ele>
        <time>2026-07-10T09:24:49+00:00</time>
      </trkpt>
      <trkpt lat="44.70535" lon="6.33959">
        <ele>2072.5</ele>
        <time>2026-07-10T09:24:52+00:00</time>
      </trkpt>
      <trkpt lat="44.70534" lon="6.33955">
        <ele>2071.3</ele>
        <time>2026-07-10T09:24:53+00:00</time>
      </trkpt>
      <trkpt lat="44.70534" lon="6.33951">
        <ele>2070.7</ele>
        <time>2026-07-10T09:24:56+00:00</time>
      </trkpt>
      <trkpt lat="44.70533" lon="6.33947">
        <ele>2069.4</ele>
        <time>2026-07-10T09:24:57+00:00</time>
      </trkpt>
      <trkpt lat="44.70533" lon="6.33943">
        <ele>2068.9</ele>
        <time>2026-07-10T09:25:00+00:00</time>
      </trkpt>
      <trkpt lat="44.70534" lon="6.33939">
        <ele>2069.1</ele>
        <time>2026-07-10T09:25:02+00:00</time>
      </trkpt>
      <trkpt lat="44.70535" lon="6.33935">
        <ele>2069.3</ele>
        <time>2026-07-10T09:25:03+00:00</time>
      </trkpt>
      <trkpt lat="44.70536" lon="6.33932">
        <ele>2069.6</ele>
        <time>2026-07-10T09:25:05+00:00</time>
      </trkpt>
      <trkpt lat="44.70538" lon="6.33928">
        <ele>2070.3</ele>
        <time>2026-07-10T09:25:07+00:00</time>
      </trkpt>
      <trkpt lat="44.70538" lon="6.33924">
        <ele>2069.9</ele>
        <time>2026-07-10T09:25:09+00:00</time>
      </trkpt>
      <trkpt lat="44.70539" lon="6.3392">
        <ele>2070</ele>
        <time>2026-07-10T09:25:11+00:00</time>
      </trkpt>
      <trkpt lat="44.70539" lon="6.33917">
        <ele>2069.7</ele>
        <time>2026-07-10T09:25:13+00:00</time>
      </trkpt>
      <trkpt lat="44.70539" lon="6.33913">
        <ele>2069.2</ele>
        <time>2026-07-10T09:25:16+00:00</time>
      </trkpt>
      <trkpt lat="44.7054" lon="6.33909">
        <ele>2069.1</ele>
        <time>2026-07-10T09:25:18+00:00</time>
      </trkpt>
      <trkpt lat="44.70541" lon="6.33905">
        <ele>2069</ele>
        <time>2026-07-10T09:25:20+00:00</time>
      </trkpt>
      <trkpt lat="44.70543" lon="6.33903">
        <ele>2069.7</ele>
        <time>2026-07-10T09:25:21+00:00</time>
      </trkpt>
      <trkpt lat="44.70546" lon="6.33901">
        <ele>2079</ele>
        <time>2026-07-10T09:25:24+00:00</time>
      </trkpt>
      <trkpt lat="44.70548" lon="6.33899">
        <ele>2071.4</ele>
        <time>2026-07-10T09:25:26+00:00</time>
      </trkpt>
      <trkpt lat="44.7055" lon="6.33897">
        <ele>2071.9</ele>
        <time>2026-07-10T09:25:28+00:00</time>
      </trkpt>
      <trkpt lat="44.70552" lon="6.33895">
        <ele>2072.5</ele>
        <time>2026-07-10T09:25:29+00:00</time>
      </trkpt>
      <trkpt lat="44.70554" lon="6.33892">
        <ele>2072.9</ele>
        <time>2026-07-10T09:25:31+00:00</time>
      </trkpt>
      <trkpt lat="44.70556" lon="6.33889">
        <ele>2080</ele>
        <time>2026-07-10T09:25:34+00:00</time>
      </trkpt>
      <trkpt lat="44.70558" lon="6.33887">
        <ele>2073.8</ele>
        <time>2026-07-10T09:25:36+00:00</time>
      </trkpt>
      <trkpt lat="44.7056" lon="6.33884">
        <ele>2074.2</ele>
        <time>2026-07-10T09:25:38+00:00</time>
      </trkpt>
      <trkpt lat="44.70562" lon="6.33881">
        <ele>2074.5</ele>
        <time>2026-07-10T09:25:39+00:00</time>
      </trkpt>
      <trkpt lat="44.70564" lon="6.33878">
        <ele>2074.9</ele>
        <time>2026-07-10T09:25:41+00:00</time>
      </trkpt>
      <trkpt lat="44.70565" lon="6.33876">
        <ele>2074.9</ele>
        <time>2026-07-10T09:25:43+00:00</time>
      </trkpt>
      <trkpt lat="44.70565" lon="6.33872">
        <ele>2074.2</ele>
        <time>2026-07-10T09:25:45+00:00</time>
      </trkpt>
      <trkpt lat="44.70565" lon="6.33869">
        <ele>2073.6</ele>
        <time>2026-07-10T09:25:47+00:00</time>
      </trkpt>
      <trkpt lat="44.70563" lon="6.33866">
        <ele>2072.1</ele>
        <time>2026-07-10T09:25:49+00:00</time>
      </trkpt>
      <trkpt lat="44.70562" lon="6.33862">
        <ele>2071</ele>
        <time>2026-07-10T09:25:51+00:00</time>
      </trkpt>
      <trkpt lat="44.70562" lon="6.33858">
        <ele>2070.2</ele>
        <time>2026-07-10T09:25:53+00:00</time>
      </trkpt>
      <trkpt lat="44.70561" lon="6.33855">
        <ele>2069.2</ele>
        <time>2026-07-10T09:25:56+00:00</time>
      </trkpt>
      <trkpt lat="44.7056" lon="6.3385">
        <ele>2067.9</ele>
        <time>2026-07-10T09:25:58+00:00</time>
      </trkpt>
      <trkpt lat="44.7056" lon="6.33847">
        <ele>2067.3</ele>
        <time>2026-07-10T09:25:59+00:00</time>
      </trkpt>
      <trkpt lat="44.70561" lon="6.33843">
        <ele>2067</ele>
        <time>2026-07-10T09:26:02+00:00</time>
      </trkpt>
      <trkpt lat="44.70561" lon="6.33839">
        <ele>2078</ele>
        <time>2026-07-10T09:26:04+00:00</time>
      </trkpt>
      <trkpt lat="44.70562" lon="6.33835">
        <ele>2065.9</ele>
        <time>2026-07-10T09:26:06+00:00</time>
      </trkpt>
      <trkpt lat="44.70562" lon="6.33832">
        <ele>2065.3</ele>
        <time>2026-07-10T09:26:07+00:00</time>
      </trkpt>
      <trkpt lat="44.70563" lon="6.33828">
        <ele>2064.9</ele>
        <time>2026-07-10T09:26:09+00:00</time>
      </trkpt>
      <trkpt lat="44.70563" lon="6.33824">
        <ele>2064.1</ele>
        <time>2026-07-10T09:26:12+00:00</time>
      </trkpt>
      <trkpt lat="44.70563" lon="6.3382">
        <ele>2075</ele>
        <time>2026-07-10T09:26:14+00:00</time>
      </trkpt>
      <trkpt lat="44.70563" lon="6.33816">
        <ele>2062.5</ele>
        <time>2026-07-10T09:26:15+00:00</time>
      </trkpt>
      <trkpt lat="44.70563" lon="6.33812">
        <ele>2061.7</ele>
        <time>2026-07-10T09:26:18+00:00</time>
      </trkpt>
      <trkpt lat="44.70562" lon="6.33809">
        <ele>2060.8</ele>
        <time>2026-07-10T09:26:19+00:00</time>
      </trkpt>
      <trkpt lat="44.70562" lon="6.33805">
        <ele>2060</ele>
        <time>2026-07-10T09:26:22+00:00</time>
      </trkpt>
      <trkpt lat="44.70561" lon="6.33802">
        <ele>2072</ele>
        <time>2026-07-10T09:26:24+00:00</time>
      </trkpt>
      <trkpt lat="44.70561" lon="6.33798">
        <ele>2058.5</ele>
        <time>2026-07-10T09:26:25+00:00</time>
      </trkpt>
      <trkpt lat="44.70562" lon="6.33794">
        <ele>2058.1</ele>
        <time>2026-07-10T09:26:27+00:00</time>
      </trkpt>
      <trkpt lat="44.70563" lon="6.33791">
        <ele>2057.9</ele>
        <time>2026-07-10T09:26:29+00:00</time>
      </trkpt>
      <trkpt lat="44.70564" lon="6.33788">
        <ele>2057.6</ele>
        <time>2026-07-10T09:26:32+00:00</time>
      </trkpt>
      <trkpt lat="44.70565" lon="6.33784">
        <ele>2070</ele>
        <time>2026-07-10T09:26:34+00:00</time>
      </trkpt>
      <trkpt lat="44.70567" lon="6.33783">
        <ele>2057.5</ele>
        <time>2026-07-10T09:26:35+00:00</time>
      </trkpt>
      <trkpt lat="44.70569" lon="6.3378">
        <ele>2057.3</ele>
        <time>2026-07-10T09:26:37+00:00</time>
      </trkpt>
      <trkpt lat="44.70572" lon="6.33779">
        <ele>2057.8</ele>
        <time>2026-07-10T09:26:38+00:00</time>
      </trkpt>
      <trkpt lat="44.70573" lon="6.33776">
        <ele>2057.3</ele>
        <time>2026-07-10T09:26:41+00:00</time>
      </trkpt>
      <trkpt lat="44.70574" lon="6.33773">
        <ele>2056.8</ele>
        <time>2026-07-10T09:26:42+00:00</time>
      </trkpt>
      <trkpt lat="44.70575" lon="6.33769">
        <ele>2066</ele>
        <time>2026-07-10T09:26:44+00:00</time>
      </trkpt>
      <trkpt lat="44.70575" lon="6.33766">
        <ele>2055.2</ele>
        <time>2026-07-10T09:26:46+00:00</time>
      </trkpt>
      <trkpt lat="44.70575" lon="6.33763">
        <ele>2054.5</ele>
        <time>2026-07-10T09:26:49+00:00</time>
      </trkpt>
      <trkpt lat="44.70575" lon="6.33759">
        <ele>2053.5</ele>
        <time>2026-07-10T09:26:51+00:00</time>
      </trkpt>
      <trkpt lat="44.70575" lon="6.33757">
        <ele>2053</ele>
        <time>2026-07-10T09:26:52+00:00</time>
      </trkpt>
      <trkpt lat="44.70573" lon="6.33754">
        <ele>2063</ele>
        <time>2026-07-10T09:26:54+00:00</time>
      </trkpt>
      <trkpt lat="44.70572" lon="6.33752">
        <ele>2051.1</ele>
        <time>2026-07-10T09:26:57+00:00</time>
      </trkpt>
      <trkpt lat="44.70569" lon="6.33752">
        <ele>2050.4</ele>
        <time>2026-07-10T09:26:59+00:00</time>
      </trkpt>
      <trkpt lat="44.70567" lon="6.3375">
        <ele>2049.5</ele>
        <time>2026-07-10T09:27:00+00:00</time>
      </trkpt>
      <trkpt lat="44.70565" lon="6.33749">
        <ele>2048.8</ele>
        <time>2026-07-10T09:27:03+00:00</time>
      </trkpt>
      <trkpt lat="44.70563" lon="6.33746">
        <ele>2059</ele>
        <time>2026-07-10T09:27:04+00:00</time>
      </trkpt>
      <trkpt lat="44.70563" lon="6.33743">
        <ele>2046.8</ele>
        <time>2026-07-10T09:27:06+00:00</time>
      </trkpt>
      <trkpt lat="44.70564" lon="6.33741">
        <ele>2046.6</ele>
        <time>2026-07-10T09:27:08+00:00</time>
      </trkpt>
      <trkpt lat="44.70565" lon="6.33739">
        <ele>2046.3</ele>
        <time>2026-07-10T09:27:10+00:00</time>
      </trkpt>
      <trkpt lat="44.70565" lon="6.33736">
        <ele>2045.5</ele>
        <time>2026-07-10T09:27:13+00:00</time>
      </trkpt>
      <trkpt lat="44.70564" lon="6.33733">
        <ele>2057</ele>
        <time>2026-07-10T09:27:14+00:00</time>
      </trkpt>
      <trkpt lat="44.70561" lon="6.33733">
        <ele>2043.9</ele>
        <time>2026-07-10T09:27:17+00:00</time>
      </trkpt>
      <trkpt lat="44.70559" lon="6.33734">
        <ele>2043.7</ele>
        <time>2026-07-10T09:27:18+00:00</time>
      </trkpt>
      <trkpt lat="44.70555" lon="6.33735">
        <ele>2043.1</ele>
        <time>2026-07-10T09:27:20+00:00</time>
      </trkpt>
      <trkpt lat="44.70552" lon="6.33734">
        <ele>2042.2</ele>
        <time>2026-07-10T09:27:23+00:00</time>
      </trkpt>
      <trkpt lat="44.7055" lon="6.33733">
        <ele>2041.6</ele>
        <time>2026-07-10T09:27:25+00:00</time>
      </trkpt>
      <trkpt lat="44.70547" lon="6.33731">
        <ele>2040.5</ele>
        <time>2026-07-10T09:27:27+00:00</time>
      </trkpt>
      <trkpt lat="44.70547" lon="6.33727">
        <ele>2039.6</ele>
        <time>2026-07-10T09:27:28+00:00</time>
      </trkpt>
      <trkpt lat="44.70547" lon="6.33723">
        <ele>2038.6</ele>
        <time>2026-07-10T09:27:31+00:00</time>
      </trkpt>
      <trkpt lat="44.70549" lon="6.3372">
        <ele>2038.3</ele>
        <time>2026-07-10T09:27:33+00:00</time>
      </trkpt>
      <trkpt lat="44.7055" lon="6.33716">
        <ele>2037.7</ele>
        <time>2026-07-10T09:27:35+00:00</time>
      </trkpt>
      <trkpt lat="44.70552" lon="6.33713">
        <ele>2037.4</ele>
        <time>2026-07-10T09:27:37+00:00</time>
      </trkpt>
      <trkpt lat="44.70553" lon="6.33709">
        <ele>2036.7</ele>
        <time>2026-07-10T09:27:39+00:00</time>
      </trkpt>
      <trkpt lat="44.70554" lon="6.33706">
        <ele>2036.2</ele>
        <time>2026-07-10T09:27:40+00:00</time>
      </trkpt>
      <trkpt lat="44.70556" lon="6.33702">
        <ele>2035.7</ele>
        <time>2026-07-10T09:27:42+00:00</time>
      </trkpt>
      <trkpt lat="44.70556" lon="6.33699">
        <ele>2048</ele>
        <time>2026-07-10T09:27:44+00:00</time>
      </trkpt>
      <trkpt lat="44.70556" lon="6.33695">
        <ele>2034.2</ele>
        <time>2026-07-10T09:27:46+00:00</time>
      </trkpt>
      <trkpt lat="44.70557" lon="6.33691">
        <ele>2033.6</ele>
        <time>2026-07-10T09:27:49+00:00</time>
      </trkpt>
      <trkpt lat="44.70557" lon="6.33688">
        <ele>2032.9</ele>
        <time>2026-07-10T09:27:51+00:00</time>
      </trkpt>
      <trkpt lat="44.70558" lon="6.33685">
        <ele>2032.5</ele>
        <time>2026-07-10T09:27:52+00:00</time>
      </trkpt>
      <trkpt lat="44.70558" lon="6.33682">
        <ele>2044</ele>
        <time>2026-07-10T09:27:54+00:00</time>
      </trkpt>
      <trkpt lat="44.70558" lon="6.33679">
        <ele>2031.2</ele>
        <time>2026-07-10T09:27:56+00:00</time>
      </trkpt>
      <trkpt lat="44.70559" lon="6.33677">
        <ele>2031</ele>
        <time>2026-07-10T09:27:59+00:00</time>
      </trkpt>
      <trkpt lat="44.70561" lon="6.33674">
        <ele>2030.8</ele>
        <time>2026-07-10T09:28:00+00:00</time>
      </trkpt>
      <trkpt lat="44.70561" lon="6.3367">
        <ele>2029.9</ele>
        <time>2026-07-10T09:28:03+00:00</time>
      </trkpt>
      <trkpt lat="44.70559" lon="6.33666">
        <ele>2028.9</ele>
        <time>2026-07-10T09:28:05+00:00</time>
      </trkpt>
      <trkpt lat="44.70559" lon="6.33663">
        <ele>2029.6</ele>
        <time>2026-07-10T09:28:06+00:00</time>
      </trkpt>
      <trkpt lat="44.70557" lon="6.33659">
        <ele>2030.2</ele>
        <time>2026-07-10T09:28:08+00:00</time>
      </trkpt>
      <trkpt lat="44.70556" lon="6.33657">
        <ele>2030.5</ele>
        <time>2026-07-10T09:28:10+00:00</time>
      </trkpt>
      <trkpt lat="44.70554" lon="6.33656">
        <ele>2030.5</ele>
        <time>2026-07-10T09:28:13+00:00</time>
      </trkpt>
      <trkpt lat="44.70544" lon="6.33658">
        <ele>2028.5</ele>
        <time>2026-07-10T09:28:17+00:00</time>
      </trkpt>
      <trkpt lat="44.70534" lon="6.33662">
        <ele>2026.1</ele>
        <time>2026-07-10T09:28:25+00:00</time>
      </trkpt>
      <trkpt lat="44.70525" lon="6.33661">
        <ele>2025</ele>
        <time>2026-07-10T09:28:33+00:00</time>
      </trkpt>
      <trkpt lat="44.70515" lon="6.33659">
        <ele>2023.7</ele>
        <time>2026-07-10T09:28:39+00:00</time>
      </trkpt>
      <trkpt lat="44.70506" lon="6.33653">
        <ele>2023.2</ele>
        <time>2026-07-10T09:28:47+00:00</time>
      </trkpt>
      <trkpt lat="44.70504" lon="6.3365">
        <ele>2023.2</ele>
        <time>2026-07-10T09:28:50+00:00</time>
      </trkpt>
      <trkpt lat="44.70502" lon="6.33648">
        <ele>2023.1</ele>
        <time>2026-07-10T09:28:51+00:00</time>
      </trkpt>
      <trkpt lat="44.705" lon="6.33649">
        <ele>2036</ele>
        <time>2026-07-10T09:28:54+00:00</time>
      </trkpt>
      <trkpt lat="44.70498" lon="6.33651">
        <ele>2021.9</ele>
        <time>2026-07-10T09:28:56+00:00</time>
      </trkpt>
      <trkpt lat="44.70496" lon="6.33652">
        <ele>2021.4</ele>
        <time>2026-07-10T09:28:57+00:00</time>
      </trkpt>
      <trkpt lat="44.70493" lon="6.33651">
        <ele>2020.9</ele>
        <time>2026-07-10T09:28:58+00:00</time>
      </trkpt>
      <trkpt lat="44.70491" lon="6.33649">
        <ele>2020.7</ele>
        <time>2026-07-10T09:29:01+00:00</time>
      </trkpt>
      <trkpt lat="44.70488" lon="6.33648">
        <ele>2020.2</ele>
        <time>2026-07-10T09:29:03+00:00</time>
      </trkpt>
      <trkpt lat="44.70486" lon="6.33646">
        <ele>2020</ele>
        <time>2026-07-10T09:29:05+00:00</time>
      </trkpt>
      <trkpt lat="44.70483" lon="6.33645">
        <ele>2019.4</ele>
        <time>2026-07-10T09:29:06+00:00</time>
      </trkpt>
      <trkpt lat="44.7048" lon="6.33643">
        <ele>2018.8</ele>
        <time>2026-07-10T09:29:08+00:00</time>
      </trkpt>
      <trkpt lat="44.70477" lon="6.33643">
        <ele>2018.1</ele>
        <time>2026-07-10T09:29:11+00:00</time>
      </trkpt>
      <trkpt lat="44.70475" lon="6.33644">
        <ele>2017.6</ele>
        <time>2026-07-10T09:29:12+00:00</time>
      </trkpt>
      <trkpt lat="44.70472" lon="6.33645">
        <ele>2031</ele>
        <time>2026-07-10T09:29:14+00:00</time>
      </trkpt>
      <trkpt lat="44.70469" lon="6.33648">
        <ele>2016.6</ele>
        <time>2026-07-10T09:29:16+00:00</time>
      </trkpt>
      <trkpt lat="44.70466" lon="6.33649">
        <ele>2016.2</ele>
        <time>2026-07-10T09:29:19+00:00</time>
      </trkpt>
      <trkpt lat="44.70463" lon="6.33649">
        <ele>2015.8</ele>
        <time>2026-07-10T09:29:20+00:00</time>
      </trkpt>
      <trkpt lat="44.70459" lon="6.33649">
        <ele>2015.3</ele>
        <time>2026-07-10T09:29:22+00:00</time>
      </trkpt>
      <trkpt lat="44.70456" lon="6.33649">
        <ele>2027</ele>
        <time>2026-07-10T09:29:24+00:00</time>
      </trkpt>
      <trkpt lat="44.70453" lon="6.33648">
        <ele>2014.5</ele>
        <time>2026-07-10T09:29:27+00:00</time>
      </trkpt>
      <trkpt lat="44.7045" lon="6.33648">
        <ele>2014.1</ele>
        <time>2026-07-10T09:29:29+00:00</time>
      </trkpt>
      <trkpt lat="44.70447" lon="6.33648">
        <ele>2013.7</ele>
        <time>2026-07-10T09:29:31+00:00</time>
      </trkpt>
      <trkpt lat="44.70444" lon="6.33646">
        <ele>2013.2</ele>
        <time>2026-07-10T09:29:32+00:00</time>
      </trkpt>
      <trkpt lat="44.70441" lon="6.33645">
        <ele>2025</ele>
        <time>2026-07-10T09:29:34+00:00</time>
      </trkpt>
      <trkpt lat="44.70439" lon="6.33643">
        <ele>2012.2</ele>
        <time>2026-07-10T09:29:36+00:00</time>
      </trkpt>
      <trkpt lat="44.70436" lon="6.33643">
        <ele>2011.8</ele>
        <time>2026-07-10T09:29:38+00:00</time>
      </trkpt>
      <trkpt lat="44.70433" lon="6.33643">
        <ele>2011.3</ele>
        <time>2026-07-10T09:29:41+00:00</time>
      </trkpt>
      <trkpt lat="44.70431" lon="6.33643">
        <ele>2010.9</ele>
        <time>2026-07-10T09:29:42+00:00</time>
      </trkpt>
      <trkpt lat="44.70428" lon="6.33643">
        <ele>2024</ele>
        <time>2026-07-10T09:29:44+00:00</time>
      </trkpt>
      <trkpt lat="44.70426" lon="6.33643">
        <ele>2010.1</ele>
        <time>2026-07-10T09:29:47+00:00</time>
      </trkpt>
      <trkpt lat="44.70424" lon="6.33643">
        <ele>2009.8</ele>
        <time>2026-07-10T09:29:48+00:00</time>
      </trkpt>
      <trkpt lat="44.70422" lon="6.33642">
        <ele>2009.5</ele>
        <time>2026-07-10T09:29:51+00:00</time>
      </trkpt>
      <trkpt lat="44.70418" lon="6.33642">
        <ele>2008.9</ele>
        <time>2026-07-10T09:29:52+00:00</time>
      </trkpt>
      <trkpt lat="44.70415" lon="6.33641">
        <ele>2008.6</ele>
        <time>2026-07-10T09:29:55+00:00</time>
      </trkpt>
      <trkpt lat="44.70412" lon="6.33642">
        <ele>2008.1</ele>
        <time>2026-07-10T09:29:56+00:00</time>
      </trkpt>
      <trkpt lat="44.70409" lon="6.33641">
        <ele>2007.9</ele>
        <time>2026-07-10T09:29:59+00:00</time>
      </trkpt>
      <trkpt lat="44.70407" lon="6.3364">
        <ele>2007.8</ele>
        <time>2026-07-10T09:30:00+00:00</time>
      </trkpt>
      <trkpt lat="44.70404" lon="6.3364">
        <ele>2007.5</ele>
        <time>2026-07-10T09:30:03+00:00</time>
      </trkpt>
      <trkpt lat="44.704" lon="6.33639">
        <ele>2020</ele>
        <time>2026-07-10T09:30:04+00:00</time>
      </trkpt>
      <trkpt lat="44.70397" lon="6.33639">
        <ele>2006.9</ele>
        <time>2026-07-10T09:30:07+00:00</time>
      </trkpt>
      <trkpt lat="44.70394" lon="6.33638">
        <ele>2006.8</ele>
        <time>2026-07-10T09:30:09+00:00</time>
      </trkpt>
      <trkpt lat="44.70391" lon="6.33637">
        <ele>2006.8</ele>
        <time>2026-07-10T09:30:11+00:00</time>
      </trkpt>
      <trkpt lat="44.70388" lon="6.33637">
        <ele>2006.4</ele>
        <time>2026-07-10T09:30:12+00:00</time>
      </trkpt>
      <trkpt lat="44.70385" lon="6.33636">
        <ele>2020</ele>
        <time>2026-07-10T09:30:14+00:00</time>
      </trkpt>
      <trkpt lat="44.70382" lon="6.33636">
        <ele>2005.9</ele>
        <time>2026-07-10T09:30:16+00:00</time>
      </trkpt>
      <trkpt lat="44.7038" lon="6.33635">
        <ele>2005.9</ele>
        <time>2026-07-10T09:30:19+00:00</time>
      </trkpt>
      <trkpt lat="44.70377" lon="6.33635">
        <ele>2005.5</ele>
        <time>2026-07-10T09:30:21+00:00</time>
      </trkpt>
      <trkpt lat="44.70374" lon="6.33635">
        <ele>2005.1</ele>
        <time>2026-07-10T09:30:22+00:00</time>
      </trkpt>
      <trkpt lat="44.70371" lon="6.33635">
        <ele>2004.6</ele>
        <time>2026-07-10T09:30:25+00:00</time>
      </trkpt>
      <trkpt lat="44.70368" lon="6.33635">
        <ele>2004.2</ele>
        <time>2026-07-10T09:30:26+00:00</time>
      </trkpt>
      <trkpt lat="44.70366" lon="6.33634">
        <ele>2004.3</ele>
        <time>2026-07-10T09:30:28+00:00</time>
      </trkpt>
      <trkpt lat="44.70363" lon="6.33634">
        <ele>2003.8</ele>
        <time>2026-07-10T09:30:30+00:00</time>
      </trkpt>
      <trkpt lat="44.70361" lon="6.33633">
        <ele>2003.9</ele>
        <time>2026-07-10T09:30:32+00:00</time>
      </trkpt>
      <trkpt lat="44.70358" lon="6.33632">
        <ele>2004</ele>
        <time>2026-07-10T09:30:35+00:00</time>
      </trkpt>
      <trkpt lat="44.70354" lon="6.33631">
        <ele>2004</ele>
        <time>2026-07-10T09:30:36+00:00</time>
      </trkpt>
      <trkpt lat="44.70351" lon="6.3363">
        <ele>2004</ele>
        <time>2026-07-10T09:30:38+00:00</time>
      </trkpt>
      <trkpt lat="44.70349" lon="6.3363">
        <ele>2003.9</ele>
        <time>2026-07-10T09:30:41+00:00</time>
      </trkpt>
      <trkpt lat="44.70346" lon="6.33629">
        <ele>2003.9</ele>
        <time>2026-07-10T09:30:42+00:00</time>
      </trkpt>
      <trkpt lat="44.70343" lon="6.33629">
        <ele>2018</ele>
        <time>2026-07-10T09:30:44+00:00</time>
      </trkpt>
      <trkpt lat="44.7034" lon="6.3363">
        <ele>2003.1</ele>
        <time>2026-07-10T09:30:47+00:00</time>
      </trkpt>
      <trkpt lat="44.70337" lon="6.3363">
        <ele>2002.9</ele>
        <time>2026-07-10T09:30:49+00:00</time>
      </trkpt>
      <trkpt lat="44.70334" lon="6.33629">
        <ele>2002.9</ele>
        <time>2026-07-10T09:30:50+00:00</time>
      </trkpt>
      <trkpt lat="44.70331" lon="6.33629">
        <ele>2002.7</ele>
        <time>2026-07-10T09:30:52+00:00</time>
      </trkpt>
      <trkpt lat="44.70328" lon="6.33629">
        <ele>2017</ele>
        <time>2026-07-10T09:30:54+00:00</time>
      </trkpt>
      <trkpt lat="44.70326" lon="6.33628">
        <ele>2002.6</ele>
        <time>2026-07-10T09:30:57+00:00</time>
      </trkpt>
      <trkpt lat="44.70323" lon="6.33628">
        <ele>2002.3</ele>
        <time>2026-07-10T09:30:58+00:00</time>
      </trkpt>
      <trkpt lat="44.7032" lon="6.33628">
        <ele>2002.1</ele>
        <time>2026-07-10T09:31:00+00:00</time>
      </trkpt>
      <trkpt lat="44.70317" lon="6.33626">
        <ele>2002.3</ele>
        <time>2026-07-10T09:31:03+00:00</time>
      </trkpt>
      <trkpt lat="44.70314" lon="6.33625">
        <ele>2017</ele>
        <time>2026-07-10T09:31:04+00:00</time>
      </trkpt>
      <trkpt lat="44.70311" lon="6.33623">
        <ele>2002.4</ele>
        <time>2026-07-10T09:31:06+00:00</time>
      </trkpt>
      <trkpt lat="44.70309" lon="6.33622">
        <ele>2002.4</ele>
        <time>2026-07-10T09:31:09+00:00</time>
      </trkpt>
      <trkpt lat="44.70306" lon="6.33619">
        <ele>2002.6</ele>
        <time>2026-07-10T09:31:11+00:00</time>
      </trkpt>
      <trkpt lat="44.70304" lon="6.33616">
        <ele>2002.6</ele>
        <time>2026-07-10T09:31:12+00:00</time>
      </trkpt>
      <trkpt lat="44.70301" lon="6.33613">
        <ele>2017</ele>
        <time>2026-07-10T09:31:14+00:00</time>
      </trkpt>
      <trkpt lat="44.70298" lon="6.33612">
        <ele>2001.4</ele>
        <time>2026-07-10T09:31:16+00:00</time>
      </trkpt>
      <trkpt lat="44.70296" lon="6.33611">
        <ele>2000.9</ele>
        <time>2026-07-10T09:31:19+00:00</time>
      </trkpt>
      <trkpt lat="44.70293" lon="6.33608">
        <ele>2000.4</ele>
        <time>2026-07-10T09:31:20+00:00</time>
      </trkpt>
      <trkpt lat="44.70291" lon="6.33606">
        <ele>2000</ele>
        <time>2026-07-10T09:31:22+00:00</time>
      </trkpt>
      <trkpt lat="44.70289" lon="6.33603">
        <ele>2017</ele>
        <time>2026-07-10T09:31:24+00:00</time>
      </trkpt>
      <trkpt lat="44.70287" lon="6.33599">
        <ele>1999.4</ele>
        <time>2026-07-10T09:31:26+00:00</time>
      </trkpt>
      <trkpt lat="44.70286" lon="6.33596">
        <ele>1999.4</ele>
        <time>2026-07-10T09:31:28+00:00</time>
      </trkpt>
      <trkpt lat="44.70284" lon="6.33593">
        <ele>1998.9</ele>
        <time>2026-07-10T09:31:30+00:00</time>
      </trkpt>
      <trkpt lat="44.70283" lon="6.3359">
        <ele>1998.8</ele>
        <time>2026-07-10T09:31:32+00:00</time>
      </trkpt>
      <trkpt lat="44.7028" lon="6.33587">
        <ele>1997.7</ele>
        <time>2026-07-10T09:31:35+00:00</time>
      </trkpt>
      <trkpt lat="44.70278" lon="6.33585">
        <ele>1997</ele>
        <time>2026-07-10T09:31:36+00:00</time>
      </trkpt>
      <trkpt lat="44.70277" lon="6.33582">
        <ele>1996</ele>
        <time>2026-07-10T09:31:39+00:00</time>
      </trkpt>
      <trkpt lat="44.70277" lon="6.33582">
        <ele>2021</ele>
        <time>2026-07-10T09:31:43+00:00</time>
      </trkpt>
      <trkpt lat="44.70277" lon="6.33583">
        <ele>2022</ele>
        <time>2026-07-10T09:33:12+00:00</time>
      </trkpt>
      <trkpt lat="44.70278" lon="6.33584">
        <ele>1997.1</ele>
        <time>2026-07-10T09:33:14+00:00</time>
      </trkpt>
      <trkpt lat="44.70279" lon="6.33586">
        <ele>1997.4</ele>
        <time>2026-07-10T09:33:15+00:00</time>
      </trkpt>
      <trkpt lat="44.70282" lon="6.33585">
        <ele>2021</ele>
        <time>2026-07-10T09:33:22+00:00</time>
      </trkpt>
      <trkpt lat="44.70283" lon="6.33583">
        <ele>1999.4</ele>
        <time>2026-07-10T09:33:24+00:00</time>
      </trkpt>
      <trkpt lat="44.70284" lon="6.3358">
        <ele>1999.4</ele>
        <time>2026-07-10T09:33:28+00:00</time>
      </trkpt>
      <trkpt lat="44.70286" lon="6.33572">
        <ele>1999.5</ele>
        <time>2026-07-10T09:33:44+00:00</time>
      </trkpt>
      <trkpt lat="44.70284" lon="6.3357">
        <ele>1998</ele>
        <time>2026-07-10T09:33:48+00:00</time>
      </trkpt>
      <trkpt lat="44.70282" lon="6.33567">
        <ele>1996.3</ele>
        <time>2026-07-10T09:33:49+00:00</time>
      </trkpt>
      <trkpt lat="44.70282" lon="6.33564">
        <ele>1995.8</ele>
        <time>2026-07-10T09:33:51+00:00</time>
      </trkpt>
      <trkpt lat="44.70284" lon="6.33561">
        <ele>1996.7</ele>
        <time>2026-07-10T09:33:54+00:00</time>
      </trkpt>
      <trkpt lat="44.70286" lon="6.33556">
        <ele>1997.6</ele>
        <time>2026-07-10T09:33:58+00:00</time>
      </trkpt>
      <trkpt lat="44.70282" lon="6.33547">
        <ele>1991.1</ele>
        <time>2026-07-10T09:34:04+00:00</time>
      </trkpt>
      <trkpt lat="44.7028" lon="6.33545">
        <ele>1988.7</ele>
        <time>2026-07-10T09:34:07+00:00</time>
      </trkpt>
      <trkpt lat="44.7028" lon="6.33542">
        <ele>1987.5</ele>
        <time>2026-07-10T09:34:08+00:00</time>
      </trkpt>
      <trkpt lat="44.70281" lon="6.33538">
        <ele>1986.8</ele>
        <time>2026-07-10T09:34:10+00:00</time>
      </trkpt>
      <trkpt lat="44.70284" lon="6.33536">
        <ele>2007</ele>
        <time>2026-07-10T09:34:12+00:00</time>
      </trkpt>
      <trkpt lat="44.70286" lon="6.33534">
        <ele>1989.7</ele>
        <time>2026-07-10T09:34:14+00:00</time>
      </trkpt>
      <trkpt lat="44.70288" lon="6.33532">
        <ele>1990.7</ele>
        <time>2026-07-10T09:34:16+00:00</time>
      </trkpt>
      <trkpt lat="44.7029" lon="6.33529">
        <ele>1991.4</ele>
        <time>2026-07-10T09:34:20+00:00</time>
      </trkpt>
      <trkpt lat="44.70287" lon="6.33529">
        <ele>1988.7</ele>
        <time>2026-07-10T09:34:23+00:00</time>
      </trkpt>
      <trkpt lat="44.70285" lon="6.3353">
        <ele>1987.3</ele>
        <time>2026-07-10T09:34:26+00:00</time>
      </trkpt>
      <trkpt lat="44.70284" lon="6.3353">
        <ele>1986.4</ele>
        <time>2026-07-10T09:34:27+00:00</time>
      </trkpt>
      <trkpt lat="44.70282" lon="6.33531">
        <ele>1985</ele>
        <time>2026-07-10T09:34:30+00:00</time>
      </trkpt>
      <trkpt lat="44.7028" lon="6.33531">
        <ele>1983.2</ele>
        <time>2026-07-10T09:34:31+00:00</time>
      </trkpt>
      <trkpt lat="44.70278" lon="6.3353">
        <ele>1981.1</ele>
        <time>2026-07-10T09:34:33+00:00</time>
      </trkpt>
      <trkpt lat="44.70275" lon="6.33531">
        <ele>1979.3</ele>
        <time>2026-07-10T09:34:37+00:00</time>
      </trkpt>
      <trkpt lat="44.70274" lon="6.33533">
        <ele>1979.4</ele>
        <time>2026-07-10T09:34:38+00:00</time>
      </trkpt>
      <trkpt lat="44.70272" lon="6.33533">
        <ele>1978</ele>
        <time>2026-07-10T09:34:41+00:00</time>
      </trkpt>
      <trkpt lat="44.70271" lon="6.33535">
        <ele>1996</ele>
        <time>2026-07-10T09:34:42+00:00</time>
      </trkpt>
      <trkpt lat="44.70269" lon="6.33537">
        <ele>1977.3</ele>
        <time>2026-07-10T09:34:44+00:00</time>
      </trkpt>
      <trkpt lat="44.70269" lon="6.33534">
        <ele>1976.2</ele>
        <time>2026-07-10T09:34:47+00:00</time>
      </trkpt>
      <trkpt lat="44.7027" lon="6.33531">
        <ele>1975.9</ele>
        <time>2026-07-10T09:34:49+00:00</time>
      </trkpt>
      <trkpt lat="44.70271" lon="6.33528">
        <ele>1975.4</ele>
        <time>2026-07-10T09:34:51+00:00</time>
      </trkpt>
      <trkpt lat="44.70272" lon="6.33525">
        <ele>1975.1</ele>
        <time>2026-07-10T09:34:54+00:00</time>
      </trkpt>
      <trkpt lat="44.70273" lon="6.33522">
        <ele>1974.6</ele>
        <time>2026-07-10T09:34:56+00:00</time>
      </trkpt>
      <trkpt lat="44.70274" lon="6.33519">
        <ele>1974.2</ele>
        <time>2026-07-10T09:34:57+00:00</time>
      </trkpt>
      <trkpt lat="44.70275" lon="6.33517">
        <ele>1974</ele>
        <time>2026-07-10T09:34:59+00:00</time>
      </trkpt>
      <trkpt lat="44.70276" lon="6.33514">
        <ele>1988</ele>
        <time>2026-07-10T09:35:02+00:00</time>
      </trkpt>
      <trkpt lat="44.70277" lon="6.33512">
        <ele>1973.3</ele>
        <time>2026-07-10T09:35:03+00:00</time>
      </trkpt>
      <trkpt lat="44.70275" lon="6.3351">
        <ele>1971.4</ele>
        <time>2026-07-10T09:35:07+00:00</time>
      </trkpt>
      <trkpt lat="44.70272" lon="6.3351">
        <ele>1969.7</ele>
        <time>2026-07-10T09:35:08+00:00</time>
      </trkpt>
      <trkpt lat="44.70271" lon="6.33508">
        <ele>1968.4</ele>
        <time>2026-07-10T09:35:11+00:00</time>
      </trkpt>
      <trkpt lat="44.70271" lon="6.33505">
        <ele>1967.3</ele>
        <time>2026-07-10T09:35:13+00:00</time>
      </trkpt>
      <trkpt lat="44.70272" lon="6.33501">
        <ele>1966.4</ele>
        <time>2026-07-10T09:35:14+00:00</time>
      </trkpt>
      <trkpt lat="44.70273" lon="6.33497">
        <ele>1966</ele>
        <time>2026-07-10T09:35:16+00:00</time>
      </trkpt>
      <trkpt lat="44.70274" lon="6.33493">
        <ele>1965.7</ele>
        <time>2026-07-10T09:35:19+00:00</time>
      </trkpt>
      <trkpt lat="44.70276" lon="6.3349">
        <ele>1966</ele>
        <time>2026-07-10T09:35:21+00:00</time>
      </trkpt>
      <trkpt lat="44.70278" lon="6.33486">
        <ele>1966.1</ele>
        <time>2026-07-10T09:35:23+00:00</time>
      </trkpt>
      <trkpt lat="44.7028" lon="6.33483">
        <ele>1966.6</ele>
        <time>2026-07-10T09:35:24+00:00</time>
      </trkpt>
      <trkpt lat="44.70282" lon="6.3348">
        <ele>1967</ele>
        <time>2026-07-10T09:35:26+00:00</time>
      </trkpt>
      <trkpt lat="44.70284" lon="6.33478">
        <ele>1967.5</ele>
        <time>2026-07-10T09:35:28+00:00</time>
      </trkpt>
      <trkpt lat="44.70286" lon="6.33476">
        <ele>1967.9</ele>
        <time>2026-07-10T09:35:31+00:00</time>
      </trkpt>
      <trkpt lat="44.70289" lon="6.33474">
        <ele>1984</ele>
        <time>2026-07-10T09:35:32+00:00</time>
      </trkpt>
      <trkpt lat="44.70291" lon="6.33472">
        <ele>1969.1</ele>
        <time>2026-07-10T09:35:34+00:00</time>
      </trkpt>
      <trkpt lat="44.70293" lon="6.33469">
        <ele>1969.5</ele>
        <time>2026-07-10T09:35:36+00:00</time>
      </trkpt>
      <trkpt lat="44.70295" lon="6.33466">
        <ele>1969.7</ele>
        <time>2026-07-10T09:35:38+00:00</time>
      </trkpt>
      <trkpt lat="44.70297" lon="6.33463">
        <ele>1970</ele>
        <time>2026-07-10T09:35:40+00:00</time>
      </trkpt>
      <trkpt lat="44.70299" lon="6.33459">
        <ele>1969.9</ele>
        <time>2026-07-10T09:35:43+00:00</time>
      </trkpt>
      <trkpt lat="44.70301" lon="6.33457">
        <ele>1970.3</ele>
        <time>2026-07-10T09:35:44+00:00</time>
      </trkpt>
      <trkpt lat="44.70303" lon="6.33454">
        <ele>1970.4</ele>
        <time>2026-07-10T09:35:47+00:00</time>
      </trkpt>
      <trkpt lat="44.70305" lon="6.33452">
        <ele>1970.7</ele>
        <time>2026-07-10T09:35:49+00:00</time>
      </trkpt>
      <trkpt lat="44.70307" lon="6.33449">
        <ele>1971</ele>
        <time>2026-07-10T09:35:50+00:00</time>
      </trkpt>
      <trkpt lat="44.70309" lon="6.33446">
        <ele>1988</ele>
        <time>2026-07-10T09:35:52+00:00</time>
      </trkpt>
      <trkpt lat="44.70312" lon="6.33443">
        <ele>1972.3</ele>
        <time>2026-07-10T09:35:54+00:00</time>
      </trkpt>
      <trkpt lat="44.70314" lon="6.3344">
        <ele>1972.8</ele>
        <time>2026-07-10T09:35:57+00:00</time>
      </trkpt>
      <trkpt lat="44.70315" lon="6.33436">
        <ele>1972.7</ele>
        <time>2026-07-10T09:35:58+00:00</time>
      </trkpt>
      <trkpt lat="44.70316" lon="6.33432">
        <ele>1972.5</ele>
        <time>2026-07-10T09:36:00+00:00</time>
      </trkpt>
      <trkpt lat="44.70317" lon="6.33429">
        <ele>1972.4</ele>
        <time>2026-07-10T09:36:03+00:00</time>
      </trkpt>
      <trkpt lat="44.70319" lon="6.33426">
        <ele>1972.7</ele>
        <time>2026-07-10T09:36:04+00:00</time>
      </trkpt>
      <trkpt lat="44.7032" lon="6.33422">
        <ele>1972.3</ele>
        <time>2026-07-10T09:36:07+00:00</time>
      </trkpt>
      <trkpt lat="44.70321" lon="6.33419">
        <ele>1972</ele>
        <time>2026-07-10T09:36:09+00:00</time>
      </trkpt>
      <trkpt lat="44.70322" lon="6.33415">
        <ele>1971.6</ele>
        <time>2026-07-10T09:36:11+00:00</time>
      </trkpt>
      <trkpt lat="44.70322" lon="6.33411">
        <ele>1986</ele>
        <time>2026-07-10T09:36:12+00:00</time>
      </trkpt>
      <trkpt lat="44.70322" lon="6.33408">
        <ele>1970.1</ele>
        <time>2026-07-10T09:36:14+00:00</time>
      </trkpt>
      <trkpt lat="44.70323" lon="6.33404">
        <ele>1969.6</ele>
        <time>2026-07-10T09:36:17+00:00</time>
      </trkpt>
      <trkpt lat="44.70324" lon="6.33401">
        <ele>1969.3</ele>
        <time>2026-07-10T09:36:19+00:00</time>
      </trkpt>
      <trkpt lat="44.70325" lon="6.33398">
        <ele>1968.9</ele>
        <time>2026-07-10T09:36:21+00:00</time>
      </trkpt>
      <trkpt lat="44.70325" lon="6.33395">
        <ele>1985</ele>
        <time>2026-07-10T09:36:22+00:00</time>
      </trkpt>
      <trkpt lat="44.70325" lon="6.33391">
        <ele>1967.4</ele>
        <time>2026-07-10T09:36:24+00:00</time>
      </trkpt>
      <trkpt lat="44.70326" lon="6.33387">
        <ele>1966.7</ele>
        <time>2026-07-10T09:36:27+00:00</time>
      </trkpt>
      <trkpt lat="44.70328" lon="6.33383">
        <ele>1966.4</ele>
        <time>2026-07-10T09:36:28+00:00</time>
      </trkpt>
      <trkpt lat="44.7033" lon="6.33381">
        <ele>1966.5</ele>
        <time>2026-07-10T09:36:30+00:00</time>
      </trkpt>
      <trkpt lat="44.70331" lon="6.33377">
        <ele>1965.8</ele>
        <time>2026-07-10T09:36:33+00:00</time>
      </trkpt>
      <trkpt lat="44.70329" lon="6.33376">
        <ele>1965.1</ele>
        <time>2026-07-10T09:36:36+00:00</time>
      </trkpt>
      <trkpt lat="44.70326" lon="6.33376">
        <ele>1964.4</ele>
        <time>2026-07-10T09:36:38+00:00</time>
      </trkpt>
      <trkpt lat="44.70323" lon="6.33376">
        <ele>1963.6</ele>
        <time>2026-07-10T09:36:40+00:00</time>
      </trkpt>
      <trkpt lat="44.7032" lon="6.33374">
        <ele>1979</ele>
        <time>2026-07-10T09:36:42+00:00</time>
      </trkpt>
      <trkpt lat="44.70317" lon="6.33374">
        <ele>1961.7</ele>
        <time>2026-07-10T09:36:44+00:00</time>
      </trkpt>
      <trkpt lat="44.70314" lon="6.33373">
        <ele>1960.7</ele>
        <time>2026-07-10T09:36:46+00:00</time>
      </trkpt>
      <trkpt lat="44.70311" lon="6.33374">
        <ele>1960.2</ele>
        <time>2026-07-10T09:36:48+00:00</time>
      </trkpt>
      <trkpt lat="44.70308" lon="6.33375">
        <ele>1959.6</ele>
        <time>2026-07-10T09:36:50+00:00</time>
      </trkpt>
      <trkpt lat="44.70306" lon="6.33376">
        <ele>1976</ele>
        <time>2026-07-10T09:36:52+00:00</time>
      </trkpt>
      <trkpt lat="44.70303" lon="6.33378">
        <ele>1958.9</ele>
        <time>2026-07-10T09:36:54+00:00</time>
      </trkpt>
      <trkpt lat="44.70301" lon="6.3338">
        <ele>1958.8</ele>
        <time>2026-07-10T09:36:57+00:00</time>
      </trkpt>
      <trkpt lat="44.70299" lon="6.3338">
        <ele>1958.3</ele>
        <time>2026-07-10T09:36:58+00:00</time>
      </trkpt>
      <trkpt lat="44.70296" lon="6.33383">
        <ele>1958</ele>
        <time>2026-07-10T09:37:00+00:00</time>
      </trkpt>
      <trkpt lat="44.70295" lon="6.33385">
        <ele>1972</ele>
        <time>2026-07-10T09:37:02+00:00</time>
      </trkpt>
      <trkpt lat="44.70293" lon="6.33388">
        <ele>1958.2</ele>
        <time>2026-07-10T09:37:04+00:00</time>
      </trkpt>
      <trkpt lat="44.70291" lon="6.3339">
        <ele>1957.9</ele>
        <time>2026-07-10T09:37:06+00:00</time>
      </trkpt>
      <trkpt lat="44.70288" lon="6.33392">
        <ele>1957.3</ele>
        <time>2026-07-10T09:37:08+00:00</time>
      </trkpt>
      <trkpt lat="44.70285" lon="6.33394">
        <ele>1956.7</ele>
        <time>2026-07-10T09:37:10+00:00</time>
      </trkpt>
      <trkpt lat="44.70283" lon="6.33394">
        <ele>1956.1</ele>
        <time>2026-07-10T09:37:13+00:00</time>
      </trkpt>
      <trkpt lat="44.7028" lon="6.33394">
        <ele>1955.2</ele>
        <time>2026-07-10T09:37:15+00:00</time>
      </trkpt>
      <trkpt lat="44.70277" lon="6.33394">
        <ele>1954.4</ele>
        <time>2026-07-10T09:37:16+00:00</time>
      </trkpt>
      <trkpt lat="44.70274" lon="6.33394">
        <ele>1953.7</ele>
        <time>2026-07-10T09:37:19+00:00</time>
      </trkpt>
      <trkpt lat="44.70271" lon="6.33395">
        <ele>1953.1</ele>
        <time>2026-07-10T09:37:20+00:00</time>
      </trkpt>
      <trkpt lat="44.70268" lon="6.33395">
        <ele>1952.5</ele>
        <time>2026-07-10T09:37:23+00:00</time>
      </trkpt>
      <trkpt lat="44.70266" lon="6.33396">
        <ele>1952.1</ele>
        <time>2026-07-10T09:37:25+00:00</time>
      </trkpt>
      <trkpt lat="44.70263" lon="6.33397">
        <ele>1951.5</ele>
        <time>2026-07-10T09:37:27+00:00</time>
      </trkpt>
      <trkpt lat="44.70261" lon="6.33398">
        <ele>1951.2</ele>
        <time>2026-07-10T09:37:28+00:00</time>
      </trkpt>
      <trkpt lat="44.70258" lon="6.33399">
        <ele>1950.6</ele>
        <time>2026-07-10T09:37:30+00:00</time>
      </trkpt>
      <trkpt lat="44.70255" lon="6.334">
        <ele>1950</ele>
        <time>2026-07-10T09:37:33+00:00</time>
      </trkpt>
      <trkpt lat="44.70252" lon="6.334">
        <ele>1949.3</ele>
        <time>2026-07-10T09:37:34+00:00</time>
      </trkpt>
      <trkpt lat="44.7025" lon="6.334">
        <ele>1948.8</ele>
        <time>2026-07-10T09:37:36+00:00</time>
      </trkpt>
      <trkpt lat="44.70248" lon="6.33402">
        <ele>1948.3</ele>
        <time>2026-07-10T09:37:39+00:00</time>
      </trkpt>
      <trkpt lat="44.70247" lon="6.33404">
        <ele>1948.1</ele>
        <time>2026-07-10T09:37:41+00:00</time>
      </trkpt>
      <trkpt lat="44.70245" lon="6.33406">
        <ele>1963</ele>
        <time>2026-07-10T09:37:42+00:00</time>
      </trkpt>
      <trkpt lat="44.70243" lon="6.33409">
        <ele>1947.3</ele>
        <time>2026-07-10T09:37:44+00:00</time>
      </trkpt>
      <trkpt lat="44.70242" lon="6.33412">
        <ele>1947.3</ele>
        <time>2026-07-10T09:37:46+00:00</time>
      </trkpt>
      <trkpt lat="44.70239" lon="6.33413">
        <ele>1946.5</ele>
        <time>2026-07-10T09:37:49+00:00</time>
      </trkpt>
      <trkpt lat="44.70235" lon="6.33412">
        <ele>1945.2</ele>
        <time>2026-07-10T09:37:51+00:00</time>
      </trkpt>
      <trkpt lat="44.70234" lon="6.33409">
        <ele>1961</ele>
        <time>2026-07-10T09:37:52+00:00</time>
      </trkpt>
      <trkpt lat="44.70233" lon="6.33406">
        <ele>1943.9</ele>
        <time>2026-07-10T09:37:54+00:00</time>
      </trkpt>
      <trkpt lat="44.70234" lon="6.33403">
        <ele>1943.8</ele>
        <time>2026-07-10T09:37:56+00:00</time>
      </trkpt>
      <trkpt lat="44.70236" lon="6.33399">
        <ele>1944.1</ele>
        <time>2026-07-10T09:37:59+00:00</time>
      </trkpt>
      <trkpt lat="44.70237" lon="6.33396">
        <ele>1944.1</ele>
        <time>2026-07-10T09:38:01+00:00</time>
      </trkpt>
      <trkpt lat="44.70238" lon="6.33392">
        <ele>1958</ele>
        <time>2026-07-10T09:38:02+00:00</time>
      </trkpt>
      <trkpt lat="44.70239" lon="6.33388">
        <ele>1943.8</ele>
        <time>2026-07-10T09:38:04+00:00</time>
      </trkpt>
      <trkpt lat="44.7024" lon="6.33384">
        <ele>1943.2</ele>
        <time>2026-07-10T09:38:06+00:00</time>
      </trkpt>
      <trkpt lat="44.70242" lon="6.3338">
        <ele>1943</ele>
        <time>2026-07-10T09:38:08+00:00</time>
      </trkpt>
      <trkpt lat="44.70243" lon="6.33377">
        <ele>1942.6</ele>
        <time>2026-07-10T09:38:11+00:00</time>
      </trkpt>
      <trkpt lat="44.70244" lon="6.33373">
        <ele>1957</ele>
        <time>2026-07-10T09:38:12+00:00</time>
      </trkpt>
      <trkpt lat="44.70245" lon="6.33369">
        <ele>1941.3</ele>
        <time>2026-07-10T09:38:14+00:00</time>
      </trkpt>
      <trkpt lat="44.70245" lon="6.33365">
        <ele>1940.3</ele>
        <time>2026-07-10T09:38:16+00:00</time>
      </trkpt>
      <trkpt lat="44.70246" lon="6.33361">
        <ele>1939.7</ele>
        <time>2026-07-10T09:38:18+00:00</time>
      </trkpt>
      <trkpt lat="44.70247" lon="6.33358">
        <ele>1939.5</ele>
        <time>2026-07-10T09:38:21+00:00</time>
      </trkpt>
      <trkpt lat="44.70248" lon="6.33354">
        <ele>1954</ele>
        <time>2026-07-10T09:38:22+00:00</time>
      </trkpt>
      <trkpt lat="44.70248" lon="6.33349">
        <ele>1938.2</ele>
        <time>2026-07-10T09:38:25+00:00</time>
      </trkpt>
      <trkpt lat="44.70248" lon="6.33345">
        <ele>1937.5</ele>
        <time>2026-07-10T09:38:27+00:00</time>
      </trkpt>
      <trkpt lat="44.70248" lon="6.33341">
        <ele>1936.8</ele>
        <time>2026-07-10T09:38:28+00:00</time>
      </trkpt>
      <trkpt lat="44.70249" lon="6.33336">
        <ele>1951</ele>
        <time>2026-07-10T09:38:32+00:00</time>
      </trkpt>
      <trkpt lat="44.70249" lon="6.33332">
        <ele>1935.7</ele>
        <time>2026-07-10T09:38:34+00:00</time>
      </trkpt>
      <trkpt lat="44.7025" lon="6.33328">
        <ele>1935.8</ele>
        <time>2026-07-10T09:38:36+00:00</time>
      </trkpt>
      <trkpt lat="44.7025" lon="6.33324">
        <ele>1935.7</ele>
        <time>2026-07-10T09:38:38+00:00</time>
      </trkpt>
      <trkpt lat="44.70251" lon="6.3332">
        <ele>1935.7</ele>
        <time>2026-07-10T09:38:40+00:00</time>
      </trkpt>
      <trkpt lat="44.70252" lon="6.33315">
        <ele>1950</ele>
        <time>2026-07-10T09:38:42+00:00</time>
      </trkpt>
      <trkpt lat="44.70251" lon="6.33311">
        <ele>1935.4</ele>
        <time>2026-07-10T09:38:45+00:00</time>
      </trkpt>
      <trkpt lat="44.70251" lon="6.33307">
        <ele>1935.2</ele>
        <time>2026-07-10T09:38:47+00:00</time>
      </trkpt>
      <trkpt lat="44.70251" lon="6.33303">
        <ele>1935</ele>
        <time>2026-07-10T09:38:49+00:00</time>
      </trkpt>
      <trkpt lat="44.70251" lon="6.33299">
        <ele>1934.7</ele>
        <time>2026-07-10T09:38:50+00:00</time>
      </trkpt>
      <trkpt lat="44.70251" lon="6.33294">
        <ele>1950</ele>
        <time>2026-07-10T09:38:52+00:00</time>
      </trkpt>
      <trkpt lat="44.70251" lon="6.3329">
        <ele>1934</ele>
        <time>2026-07-10T09:38:54+00:00</time>
      </trkpt>
      <trkpt lat="44.70251" lon="6.33286">
        <ele>1933.7</ele>
        <time>2026-07-10T09:38:56+00:00</time>
      </trkpt>
      <trkpt lat="44.7025" lon="6.33282">
        <ele>1933.3</ele>
        <time>2026-07-10T09:38:58+00:00</time>
      </trkpt>
      <trkpt lat="44.70249" lon="6.33279">
        <ele>1932.9</ele>
        <time>2026-07-10T09:39:00+00:00</time>
      </trkpt>
      <trkpt lat="44.70248" lon="6.33276">
        <ele>1948</ele>
        <time>2026-07-10T09:39:02+00:00</time>
      </trkpt>
      <trkpt lat="44.70246" lon="6.33273">
        <ele>1931.4</ele>
        <time>2026-07-10T09:39:04+00:00</time>
      </trkpt>
      <trkpt lat="44.70245" lon="6.3327">
        <ele>1930.7</ele>
        <time>2026-07-10T09:39:07+00:00</time>
      </trkpt>
      <trkpt lat="44.70245" lon="6.33266">
        <ele>1930.1</ele>
        <time>2026-07-10T09:39:08+00:00</time>
      </trkpt>
      <trkpt lat="44.70244" lon="6.33262">
        <ele>1929.3</ele>
        <time>2026-07-10T09:39:11+00:00</time>
      </trkpt>
      <trkpt lat="44.70244" lon="6.33258">
        <ele>1928.7</ele>
        <time>2026-07-10T09:39:13+00:00</time>
      </trkpt>
      <trkpt lat="44.70245" lon="6.33254">
        <ele>1928.3</ele>
        <time>2026-07-10T09:39:15+00:00</time>
      </trkpt>
      <trkpt lat="44.70246" lon="6.3325">
        <ele>1928</ele>
        <time>2026-07-10T09:39:17+00:00</time>
      </trkpt>
      <trkpt lat="44.70247" lon="6.33246">
        <ele>1927.7</ele>
        <time>2026-07-10T09:39:18+00:00</time>
      </trkpt>
      <trkpt lat="44.70248" lon="6.33242">
        <ele>1927.4</ele>
        <time>2026-07-10T09:39:20+00:00</time>
      </trkpt>
      <trkpt lat="44.70249" lon="6.33238">
        <ele>1927.1</ele>
        <time>2026-07-10T09:39:23+00:00</time>
      </trkpt>
      <trkpt lat="44.7025" lon="6.33234">
        <ele>1926.7</ele>
        <time>2026-07-10T09:39:25+00:00</time>
      </trkpt>
      <trkpt lat="44.7025" lon="6.3323">
        <ele>1926.1</ele>
        <time>2026-07-10T09:39:27+00:00</time>
      </trkpt>
      <trkpt lat="44.70249" lon="6.33226">
        <ele>1925.4</ele>
        <time>2026-07-10T09:39:29+00:00</time>
      </trkpt>
      <trkpt lat="44.70247" lon="6.33224">
        <ele>1924.7</ele>
        <time>2026-07-10T09:39:30+00:00</time>
      </trkpt>
      <trkpt lat="44.70245" lon="6.33224">
        <ele>1940</ele>
        <time>2026-07-10T09:39:32+00:00</time>
      </trkpt>
      <trkpt lat="44.70243" lon="6.33222">
        <ele>1923.7</ele>
        <time>2026-07-10T09:39:34+00:00</time>
      </trkpt>
      <trkpt lat="44.70241" lon="6.3322">
        <ele>1923.3</ele>
        <time>2026-07-10T09:39:37+00:00</time>
      </trkpt>
      <trkpt lat="44.70239" lon="6.33218">
        <ele>1922.9</ele>
        <time>2026-07-10T09:39:38+00:00</time>
      </trkpt>
      <trkpt lat="44.70237" lon="6.33216">
        <ele>1922.4</ele>
        <time>2026-07-10T09:39:40+00:00</time>
      </trkpt>
      <trkpt lat="44.70235" lon="6.33214">
        <ele>1938</ele>
        <time>2026-07-10T09:39:42+00:00</time>
      </trkpt>
      <trkpt lat="44.70233" lon="6.33212">
        <ele>1921.6</ele>
        <time>2026-07-10T09:39:45+00:00</time>
      </trkpt>
      <trkpt lat="44.70231" lon="6.33209">
        <ele>1921.1</ele>
        <time>2026-07-10T09:39:47+00:00</time>
      </trkpt>
      <trkpt lat="44.70229" lon="6.33207">
        <ele>1920.7</ele>
        <time>2026-07-10T09:39:48+00:00</time>
      </trkpt>
      <trkpt lat="44.70227" lon="6.33204">
        <ele>1920.2</ele>
        <time>2026-07-10T09:39:50+00:00</time>
      </trkpt>
      <trkpt lat="44.70226" lon="6.33201">
        <ele>1936</ele>
        <time>2026-07-10T09:39:52+00:00</time>
      </trkpt>
      <trkpt lat="44.70224" lon="6.33197">
        <ele>1919.4</ele>
        <time>2026-07-10T09:39:54+00:00</time>
      </trkpt>
      <trkpt lat="44.70222" lon="6.33195">
        <ele>1918.9</ele>
        <time>2026-07-10T09:39:56+00:00</time>
      </trkpt>
      <trkpt lat="44.70221" lon="6.33192">
        <ele>1918.3</ele>
        <time>2026-07-10T09:39:58+00:00</time>
      </trkpt>
      <trkpt lat="44.70219" lon="6.33189">
        <ele>1917.4</ele>
        <time>2026-07-10T09:40:00+00:00</time>
      </trkpt>
      <trkpt lat="44.70218" lon="6.33186">
        <ele>1933</ele>
        <time>2026-07-10T09:40:02+00:00</time>
      </trkpt>
      <trkpt lat="44.70216" lon="6.33183">
        <ele>1915.9</ele>
        <time>2026-07-10T09:40:05+00:00</time>
      </trkpt>
      <trkpt lat="44.70214" lon="6.3318">
        <ele>1915</ele>
        <time>2026-07-10T09:40:06+00:00</time>
      </trkpt>
      <trkpt lat="44.70213" lon="6.33176">
        <ele>1914.5</ele>
        <time>2026-07-10T09:40:08+00:00</time>
      </trkpt>
      <trkpt lat="44.70211" lon="6.33173">
        <ele>1913.6</ele>
        <time>2026-07-10T09:40:11+00:00</time>
      </trkpt>
      <trkpt lat="44.70211" lon="6.3317">
        <ele>1931</ele>
        <time>2026-07-10T09:40:12+00:00</time>
      </trkpt>
      <trkpt lat="44.70209" lon="6.33167">
        <ele>1912.7</ele>
        <time>2026-07-10T09:40:14+00:00</time>
      </trkpt>
      <trkpt lat="44.70208" lon="6.33164">
        <ele>1912.4</ele>
        <time>2026-07-10T09:40:16+00:00</time>
      </trkpt>
      <trkpt lat="44.70206" lon="6.33161">
        <ele>1911.9</ele>
        <time>2026-07-10T09:40:18+00:00</time>
      </trkpt>
      <trkpt lat="44.70204" lon="6.33158">
        <ele>1911.3</ele>
        <time>2026-07-10T09:40:20+00:00</time>
      </trkpt>
      <trkpt lat="44.70202" lon="6.33154">
        <ele>1910.8</ele>
        <time>2026-07-10T09:40:23+00:00</time>
      </trkpt>
      <trkpt lat="44.702" lon="6.33151">
        <ele>1910.3</ele>
        <time>2026-07-10T09:40:25+00:00</time>
      </trkpt>
      <trkpt lat="44.70198" lon="6.33148">
        <ele>1909.7</ele>
        <time>2026-07-10T09:40:27+00:00</time>
      </trkpt>
      <trkpt lat="44.70197" lon="6.33145">
        <ele>1909.5</ele>
        <time>2026-07-10T09:40:28+00:00</time>
      </trkpt>
      <trkpt lat="44.70195" lon="6.33142">
        <ele>1909.1</ele>
        <time>2026-07-10T09:40:31+00:00</time>
      </trkpt>
      <trkpt lat="44.70194" lon="6.33139">
        <ele>1908.8</ele>
        <time>2026-07-10T09:40:33+00:00</time>
      </trkpt>
      <trkpt lat="44.70193" lon="6.33135">
        <ele>1908</ele>
        <time>2026-07-10T09:40:34+00:00</time>
      </trkpt>
      <trkpt lat="44.70192" lon="6.33131">
        <ele>1907.3</ele>
        <time>2026-07-10T09:40:36+00:00</time>
      </trkpt>
      <trkpt lat="44.70192" lon="6.33127">
        <ele>1907.1</ele>
        <time>2026-07-10T09:40:39+00:00</time>
      </trkpt>
      <trkpt lat="44.70192" lon="6.33123">
        <ele>1906.9</ele>
        <time>2026-07-10T09:40:41+00:00</time>
      </trkpt>
      <trkpt lat="44.70192" lon="6.33118">
        <ele>1924</ele>
        <time>2026-07-10T09:40:42+00:00</time>
      </trkpt>
      <trkpt lat="44.70193" lon="6.33114">
        <ele>1906.7</ele>
        <time>2026-07-10T09:40:44+00:00</time>
      </trkpt>
      <trkpt lat="44.70194" lon="6.3311">
        <ele>1906.7</ele>
        <time>2026-07-10T09:40:46+00:00</time>
      </trkpt>
      <trkpt lat="44.70195" lon="6.33106">
        <ele>1906.6</ele>
        <time>2026-07-10T09:40:49+00:00</time>
      </trkpt>
      <trkpt lat="44.70197" lon="6.33103">
        <ele>1906.8</ele>
        <time>2026-07-10T09:40:50+00:00</time>
      </trkpt>
      <trkpt lat="44.70198" lon="6.33099">
        <ele>1922</ele>
        <time>2026-07-10T09:40:52+00:00</time>
      </trkpt>
      <trkpt lat="44.70199" lon="6.33095">
        <ele>1906.5</ele>
        <time>2026-07-10T09:40:55+00:00</time>
      </trkpt>
      <trkpt lat="44.702" lon="6.33092">
        <ele>1906.4</ele>
        <time>2026-07-10T09:40:57+00:00</time>
      </trkpt>
      <trkpt lat="44.70202" lon="6.33088">
        <ele>1906.5</ele>
        <time>2026-07-10T09:40:58+00:00</time>
      </trkpt>
      <trkpt lat="44.70204" lon="6.33085">
        <ele>1906.6</ele>
        <time>2026-07-10T09:41:00+00:00</time>
      </trkpt>
      <trkpt lat="44.70206" lon="6.33081">
        <ele>1907</ele>
        <time>2026-07-10T09:41:03+00:00</time>
      </trkpt>
      <trkpt lat="44.70206" lon="6.33076">
        <ele>1907.1</ele>
        <time>2026-07-10T09:41:05+00:00</time>
      </trkpt>
      <trkpt lat="44.70206" lon="6.33073">
        <ele>1907.1</ele>
        <time>2026-07-10T09:41:06+00:00</time>
      </trkpt>
      <trkpt lat="44.70206" lon="6.33069">
        <ele>1907.2</ele>
        <time>2026-07-10T09:41:08+00:00</time>
      </trkpt>
      <trkpt lat="44.70205" lon="6.33066">
        <ele>1907</ele>
        <time>2026-07-10T09:41:10+00:00</time>
      </trkpt>
      <trkpt lat="44.70203" lon="6.33063">
        <ele>1920</ele>
        <time>2026-07-10T09:41:12+00:00</time>
      </trkpt>
      <trkpt lat="44.70201" lon="6.3306">
        <ele>1906.3</ele>
        <time>2026-07-10T09:41:15+00:00</time>
      </trkpt>
      <trkpt lat="44.702" lon="6.33056">
        <ele>1906.2</ele>
        <time>2026-07-10T09:41:16+00:00</time>
      </trkpt>
      <trkpt lat="44.70198" lon="6.33053">
        <ele>1905.9</ele>
        <time>2026-07-10T09:41:19+00:00</time>
      </trkpt>
      <trkpt lat="44.70196" lon="6.33051">
        <ele>1905.5</ele>
        <time>2026-07-10T09:41:21+00:00</time>
      </trkpt>
      <trkpt lat="44.70193" lon="6.3305">
        <ele>1905</ele>
        <time>2026-07-10T09:41:23+00:00</time>
      </trkpt>
      <trkpt lat="44.7019" lon="6.33051">
        <ele>1904.5</ele>
        <time>2026-07-10T09:41:25+00:00</time>
      </trkpt>
      <trkpt lat="44.70187" lon="6.33051">
        <ele>1904</ele>
        <time>2026-07-10T09:41:26+00:00</time>
      </trkpt>
      <trkpt lat="44.70184" lon="6.3305">
        <ele>1903.6</ele>
        <time>2026-07-10T09:41:29+00:00</time>
      </trkpt>
      <trkpt lat="44.70181" lon="6.3305">
        <ele>1903.2</ele>
        <time>2026-07-10T09:41:30+00:00</time>
      </trkpt>
      <trkpt lat="44.70178" lon="6.33049">
        <ele>1921</ele>
        <time>2026-07-10T09:41:32+00:00</time>
      </trkpt>
      <trkpt lat="44.70176" lon="6.33046">
        <ele>1902.5</ele>
        <time>2026-07-10T09:41:34+00:00</time>
      </trkpt>
      <trkpt lat="44.70173" lon="6.33043">
        <ele>1902</ele>
        <time>2026-07-10T09:41:36+00:00</time>
      </trkpt>
      <trkpt lat="44.70172" lon="6.3304">
        <ele>1901.9</ele>
        <time>2026-07-10T09:41:39+00:00</time>
      </trkpt>
      <trkpt lat="44.70171" lon="6.33037">
        <ele>1901.7</ele>
        <time>2026-07-10T09:41:41+00:00</time>
      </trkpt>
      <trkpt lat="44.7017" lon="6.33033">
        <ele>1901.6</ele>
        <time>2026-07-10T09:41:43+00:00</time>
      </trkpt>
      <trkpt lat="44.70168" lon="6.33031">
        <ele>1901.2</ele>
        <time>2026-07-10T09:41:45+00:00</time>
      </trkpt>
      <trkpt lat="44.70166" lon="6.33028">
        <ele>1900.9</ele>
        <time>2026-07-10T09:41:46+00:00</time>
      </trkpt>
      <trkpt lat="44.70161" lon="6.33021">
        <ele>1900.1</ele>
        <time>2026-07-10T09:41:53+00:00</time>
      </trkpt>
      <trkpt lat="44.7016" lon="6.3302">
        <ele>1900</ele>
        <time>2026-07-10T09:41:54+00:00</time>
      </trkpt>
      <trkpt lat="44.70158" lon="6.33019">
        <ele>1899.7</ele>
        <time>2026-07-10T09:41:55+00:00</time>
      </trkpt>
      <trkpt lat="44.70156" lon="6.33018">
        <ele>1899.3</ele>
        <time>2026-07-10T09:41:56+00:00</time>
      </trkpt>
      <trkpt lat="44.7015" lon="6.33013">
        <ele>1898.3</ele>
        <time>2026-07-10T09:42:00+00:00</time>
      </trkpt>
      <trkpt lat="44.70146" lon="6.33013">
        <ele>1897.6</ele>
        <time>2026-07-10T09:42:01+00:00</time>
      </trkpt>
      <trkpt lat="44.70143" lon="6.33012">
        <ele>1897.1</ele>
        <time>2026-07-10T09:42:04+00:00</time>
      </trkpt>
      <trkpt lat="44.7014" lon="6.33012">
        <ele>1896.6</ele>
        <time>2026-07-10T09:42:05+00:00</time>
      </trkpt>
      <trkpt lat="44.70138" lon="6.33011">
        <ele>1896.2</ele>
        <time>2026-07-10T09:42:07+00:00</time>
      </trkpt>
      <trkpt lat="44.70135" lon="6.33011">
        <ele>1895.6</ele>
        <time>2026-07-10T09:42:08+00:00</time>
      </trkpt>
      <trkpt lat="44.70132" lon="6.3301">
        <ele>1895</ele>
        <time>2026-07-10T09:42:11+00:00</time>
      </trkpt>
      <trkpt lat="44.70129" lon="6.33009">
        <ele>1912</ele>
        <time>2026-07-10T09:42:12+00:00</time>
      </trkpt>
      <trkpt lat="44.70126" lon="6.33009">
        <ele>1893.7</ele>
        <time>2026-07-10T09:42:15+00:00</time>
      </trkpt>
      <trkpt lat="44.70124" lon="6.33008">
        <ele>1893.2</ele>
        <time>2026-07-10T09:42:17+00:00</time>
      </trkpt>
      <trkpt lat="44.70121" lon="6.33007">
        <ele>1892.6</ele>
        <time>2026-07-10T09:42:18+00:00</time>
      </trkpt>
      <trkpt lat="44.70118" lon="6.33006">
        <ele>1891.9</ele>
        <time>2026-07-10T09:42:21+00:00</time>
      </trkpt>
      <trkpt lat="44.70116" lon="6.33005">
        <ele>1891.4</ele>
        <time>2026-07-10T09:42:23+00:00</time>
      </trkpt>
      <trkpt lat="44.70113" lon="6.33003">
        <ele>1890.6</ele>
        <time>2026-07-10T09:42:24+00:00</time>
      </trkpt>
      <trkpt lat="44.7011" lon="6.33003">
        <ele>1889.9</ele>
        <time>2026-07-10T09:42:26+00:00</time>
      </trkpt>
      <trkpt lat="44.70107" lon="6.33002">
        <ele>1888.9</ele>
        <time>2026-07-10T09:42:28+00:00</time>
      </trkpt>
      <trkpt lat="44.70104" lon="6.33001">
        <ele>1888</ele>
        <time>2026-07-10T09:42:31+00:00</time>
      </trkpt>
      <trkpt lat="44.70102" lon="6.32999">
        <ele>1909</ele>
        <time>2026-07-10T09:42:32+00:00</time>
      </trkpt>
      <trkpt lat="44.701" lon="6.32997">
        <ele>1886.8</ele>
        <time>2026-07-10T09:42:35+00:00</time>
      </trkpt>
      <trkpt lat="44.70097" lon="6.32996">
        <ele>1886</ele>
        <time>2026-07-10T09:42:37+00:00</time>
      </trkpt>
      <trkpt lat="44.70094" lon="6.32995">
        <ele>1885.2</ele>
        <time>2026-07-10T09:42:39+00:00</time>
      </trkpt>
      <trkpt lat="44.70092" lon="6.32993">
        <ele>1884.7</ele>
        <time>2026-07-10T09:42:41+00:00</time>
      </trkpt>
      <trkpt lat="44.70089" lon="6.32992">
        <ele>1906</ele>
        <time>2026-07-10T09:42:42+00:00</time>
      </trkpt>
      <trkpt lat="44.70087" lon="6.3299">
        <ele>1883.4</ele>
        <time>2026-07-10T09:42:44+00:00</time>
      </trkpt>
      <trkpt lat="44.70084" lon="6.32988">
        <ele>1882.6</ele>
        <time>2026-07-10T09:42:46+00:00</time>
      </trkpt>
      <trkpt lat="44.70082" lon="6.32986">
        <ele>1882.2</ele>
        <time>2026-07-10T09:42:49+00:00</time>
      </trkpt>
      <trkpt lat="44.7008" lon="6.32984">
        <ele>1881.8</ele>
        <time>2026-07-10T09:42:50+00:00</time>
      </trkpt>
      <trkpt lat="44.70077" lon="6.32983">
        <ele>1881.2</ele>
        <time>2026-07-10T09:42:53+00:00</time>
      </trkpt>
      <trkpt lat="44.70074" lon="6.32982">
        <ele>1880.6</ele>
        <time>2026-07-10T09:42:55+00:00</time>
      </trkpt>
      <trkpt lat="44.70069" lon="6.32981">
        <ele>1879.6</ele>
        <time>2026-07-10T09:42:57+00:00</time>
      </trkpt>
      <trkpt lat="44.70066" lon="6.3298">
        <ele>1879.2</ele>
        <time>2026-07-10T09:43:00+00:00</time>
      </trkpt>
      <trkpt lat="44.70063" lon="6.32979">
        <ele>1900</ele>
        <time>2026-07-10T09:43:02+00:00</time>
      </trkpt>
      <trkpt lat="44.7006" lon="6.32978">
        <ele>1878.4</ele>
        <time>2026-07-10T09:43:03+00:00</time>
      </trkpt>
      <trkpt lat="44.70057" lon="6.32977">
        <ele>1878.1</ele>
        <time>2026-07-10T09:43:05+00:00</time>
      </trkpt>
      <trkpt lat="44.70055" lon="6.32976">
        <ele>1877.9</ele>
        <time>2026-07-10T09:43:07+00:00</time>
      </trkpt>
      <trkpt lat="44.70052" lon="6.32974">
        <ele>1877.8</ele>
        <time>2026-07-10T09:43:09+00:00</time>
      </trkpt>
      <trkpt lat="44.70049" lon="6.32972">
        <ele>1877.6</ele>
        <time>2026-07-10T09:43:11+00:00</time>
      </trkpt>
      <trkpt lat="44.70046" lon="6.32971">
        <ele>1877.1</ele>
        <time>2026-07-10T09:43:13+00:00</time>
      </trkpt>
      <trkpt lat="44.70044" lon="6.3297">
        <ele>1876.8</ele>
        <time>2026-07-10T09:43:16+00:00</time>
      </trkpt>
      <trkpt lat="44.70042" lon="6.32969">
        <ele>1876.4</ele>
        <time>2026-07-10T09:43:18+00:00</time>
      </trkpt>
      <trkpt lat="44.70039" lon="6.32969">
        <ele>1875.7</ele>
        <time>2026-07-10T09:43:19+00:00</time>
      </trkpt>
      <trkpt lat="44.70036" lon="6.32968">
        <ele>1898</ele>
        <time>2026-07-10T09:43:22+00:00</time>
      </trkpt>
      <trkpt lat="44.70033" lon="6.32966">
        <ele>1874.7</ele>
        <time>2026-07-10T09:43:24+00:00</time>
      </trkpt>
      <trkpt lat="44.70031" lon="6.32965">
        <ele>1874.3</ele>
        <time>2026-07-10T09:43:26+00:00</time>
      </trkpt>
      <trkpt lat="44.70029" lon="6.32964">
        <ele>1873.9</ele>
        <time>2026-07-10T09:43:27+00:00</time>
      </trkpt>
      <trkpt lat="44.70027" lon="6.32963">
        <ele>1873.4</ele>
        <time>2026-07-10T09:43:29+00:00</time>
      </trkpt>
      <trkpt lat="44.70025" lon="6.32962">
        <ele>1896</ele>
        <time>2026-07-10T09:43:32+00:00</time>
      </trkpt>
      <trkpt lat="44.70023" lon="6.32959">
        <ele>1872.5</ele>
        <time>2026-07-10T09:43:33+00:00</time>
      </trkpt>
      <trkpt lat="44.70021" lon="6.32956">
        <ele>1872.1</ele>
        <time>2026-07-10T09:43:35+00:00</time>
      </trkpt>
      <trkpt lat="44.7002" lon="6.32954">
        <ele>1872</ele>
        <time>2026-07-10T09:43:37+00:00</time>
      </trkpt>
      <trkpt lat="44.70019" lon="6.32951">
        <ele>1871.9</ele>
        <time>2026-07-10T09:43:40+00:00</time>
      </trkpt>
      <trkpt lat="44.70019" lon="6.32948">
        <ele>1872.2</ele>
        <time>2026-07-10T09:43:41+00:00</time>
      </trkpt>
      <trkpt lat="44.7002" lon="6.32944">
        <ele>1872.7</ele>
        <time>2026-07-10T09:43:43+00:00</time>
      </trkpt>
      <trkpt lat="44.70019" lon="6.32941">
        <ele>1872.2</ele>
        <time>2026-07-10T09:43:45+00:00</time>
      </trkpt>
      <trkpt lat="44.70018" lon="6.32937">
        <ele>1871.7</ele>
        <time>2026-07-10T09:43:48+00:00</time>
      </trkpt>
      <trkpt lat="44.70017" lon="6.32933">
        <ele>1871.1</ele>
        <time>2026-07-10T09:43:49+00:00</time>
      </trkpt>
      <trkpt lat="44.70015" lon="6.32928">
        <ele>1870.4</ele>
        <time>2026-07-10T09:43:51+00:00</time>
      </trkpt>
      <trkpt lat="44.70014" lon="6.32924">
        <ele>1869.9</ele>
        <time>2026-07-10T09:43:54+00:00</time>
      </trkpt>
      <trkpt lat="44.70013" lon="6.3292">
        <ele>1869.5</ele>
        <time>2026-07-10T09:43:56+00:00</time>
      </trkpt>
      <trkpt lat="44.70012" lon="6.32916">
        <ele>1869.2</ele>
        <time>2026-07-10T09:43:58+00:00</time>
      </trkpt>
      <trkpt lat="44.7001" lon="6.32914">
        <ele>1868.8</ele>
        <time>2026-07-10T09:44:00+00:00</time>
      </trkpt>
      <trkpt lat="44.70007" lon="6.32912">
        <ele>1889</ele>
        <time>2026-07-10T09:44:02+00:00</time>
      </trkpt>
      <trkpt lat="44.70004" lon="6.32909">
        <ele>1867.9</ele>
        <time>2026-07-10T09:44:03+00:00</time>
      </trkpt>
      <trkpt lat="44.70001" lon="6.32908">
        <ele>1867.5</ele>
        <time>2026-07-10T09:44:05+00:00</time>
      </trkpt>
      <trkpt lat="44.69999" lon="6.32906">
        <ele>1867.1</ele>
        <time>2026-07-10T09:44:08+00:00</time>
      </trkpt>
      <trkpt lat="44.69996" lon="6.32904">
        <ele>1866.4</ele>
        <time>2026-07-10T09:44:10+00:00</time>
      </trkpt>
      <trkpt lat="44.69994" lon="6.32903">
        <ele>1889</ele>
        <time>2026-07-10T09:44:12+00:00</time>
      </trkpt>
      <trkpt lat="44.69992" lon="6.32902">
        <ele>1865.5</ele>
        <time>2026-07-10T09:44:13+00:00</time>
      </trkpt>
      <trkpt lat="44.69989" lon="6.32901">
        <ele>1864.8</ele>
        <time>2026-07-10T09:44:15+00:00</time>
      </trkpt>
      <trkpt lat="44.69987" lon="6.32899">
        <ele>1864.5</ele>
        <time>2026-07-10T09:44:17+00:00</time>
      </trkpt>
      <trkpt lat="44.69981" lon="6.32888">
        <ele>1864.1</ele>
        <time>2026-07-10T09:44:23+00:00</time>
      </trkpt>
      <trkpt lat="44.69978" lon="6.32884">
        <ele>1864.2</ele>
        <time>2026-07-10T09:44:26+00:00</time>
      </trkpt>
      <trkpt lat="44.69975" lon="6.32882">
        <ele>1864</ele>
        <time>2026-07-10T09:44:28+00:00</time>
      </trkpt>
      <trkpt lat="44.69972" lon="6.32881">
        <ele>1863.6</ele>
        <time>2026-07-10T09:44:30+00:00</time>
      </trkpt>
      <trkpt lat="44.6997" lon="6.32879">
        <ele>1886</ele>
        <time>2026-07-10T09:44:32+00:00</time>
      </trkpt>
      <trkpt lat="44.69967" lon="6.32877">
        <ele>1862.9</ele>
        <time>2026-07-10T09:44:35+00:00</time>
      </trkpt>
      <trkpt lat="44.69965" lon="6.32876">
        <ele>1862.4</ele>
        <time>2026-07-10T09:44:37+00:00</time>
      </trkpt>
      <trkpt lat="44.69962" lon="6.32874">
        <ele>1861.9</ele>
        <time>2026-07-10T09:44:39+00:00</time>
      </trkpt>
      <trkpt lat="44.6996" lon="6.32871">
        <ele>1861.9</ele>
        <time>2026-07-10T09:44:40+00:00</time>
      </trkpt>
      <trkpt lat="44.69957" lon="6.32868">
        <ele>1861.6</ele>
        <time>2026-07-10T09:44:43+00:00</time>
      </trkpt>
      <trkpt lat="44.69956" lon="6.32866">
        <ele>1861.7</ele>
        <time>2026-07-10T09:44:44+00:00</time>
      </trkpt>
      <trkpt lat="44.69955" lon="6.32863">
        <ele>1862</ele>
        <time>2026-07-10T09:44:45+00:00</time>
      </trkpt>
      <trkpt lat="44.69953" lon="6.3286">
        <ele>1862</ele>
        <time>2026-07-10T09:44:47+00:00</time>
      </trkpt>
      <trkpt lat="44.6995" lon="6.32857">
        <ele>1861.8</ele>
        <time>2026-07-10T09:44:50+00:00</time>
      </trkpt>
      <trkpt lat="44.69949" lon="6.32855">
        <ele>1884</ele>
        <time>2026-07-10T09:44:52+00:00</time>
      </trkpt>
      <trkpt lat="44.69946" lon="6.32852">
        <ele>1861.8</ele>
        <time>2026-07-10T09:44:53+00:00</time>
      </trkpt>
      <trkpt lat="44.69945" lon="6.32849">
        <ele>1862.2</ele>
        <time>2026-07-10T09:44:56+00:00</time>
      </trkpt>
      <trkpt lat="44.69943" lon="6.32846">
        <ele>1862.3</ele>
        <time>2026-07-10T09:44:58+00:00</time>
      </trkpt>
      <trkpt lat="44.6994" lon="6.32844">
        <ele>1861.8</ele>
        <time>2026-07-10T09:44:59+00:00</time>
      </trkpt>
      <trkpt lat="44.69938" lon="6.32843">
        <ele>1861.4</ele>
        <time>2026-07-10T09:45:01+00:00</time>
      </trkpt>
      <trkpt lat="44.69931" lon="6.32834">
        <ele>1861.5</ele>
        <time>2026-07-10T09:45:07+00:00</time>
      </trkpt>
      <trkpt lat="44.69929" lon="6.32828">
        <ele>1862.3</ele>
        <time>2026-07-10T09:45:09+00:00</time>
      </trkpt>
      <trkpt lat="44.69927" lon="6.32826">
        <ele>1882</ele>
        <time>2026-07-10T09:45:12+00:00</time>
      </trkpt>
      <trkpt lat="44.6992" lon="6.32816">
        <ele>1862</ele>
        <time>2026-07-10T09:45:18+00:00</time>
      </trkpt>
      <trkpt lat="44.69912" lon="6.32808">
        <ele>1860.7</ele>
        <time>2026-07-10T09:45:26+00:00</time>
      </trkpt>
      <trkpt lat="44.69904" lon="6.32802">
        <ele>1859.7</ele>
        <time>2026-07-10T09:45:33+00:00</time>
      </trkpt>
      <trkpt lat="44.69895" lon="6.32796">
        <ele>1858.4</ele>
        <time>2026-07-10T09:45:39+00:00</time>
      </trkpt>
      <trkpt lat="44.69886" lon="6.32788">
        <ele>1857.8</ele>
        <time>2026-07-10T09:45:46+00:00</time>
      </trkpt>
      <trkpt lat="44.69877" lon="6.32785">
        <ele>1856.1</ele>
        <time>2026-07-10T09:45:53+00:00</time>
      </trkpt>
      <trkpt lat="44.69868" lon="6.32784">
        <ele>1853.8</ele>
        <time>2026-07-10T09:46:00+00:00</time>
      </trkpt>
      <trkpt lat="44.69859" lon="6.32778">
        <ele>1853.5</ele>
        <time>2026-07-10T09:46:07+00:00</time>
      </trkpt>
      <trkpt lat="44.69849" lon="6.32777">
        <ele>1851.6</ele>
        <time>2026-07-10T09:46:13+00:00</time>
      </trkpt>
      <trkpt lat="44.69846" lon="6.32776">
        <ele>1851.2</ele>
        <time>2026-07-10T09:46:15+00:00</time>
      </trkpt>
      <trkpt lat="44.69844" lon="6.32776">
        <ele>1850.7</ele>
        <time>2026-07-10T09:46:16+00:00</time>
      </trkpt>
      <trkpt lat="44.69842" lon="6.32776">
        <ele>1850.3</ele>
        <time>2026-07-10T09:46:17+00:00</time>
      </trkpt>
      <trkpt lat="44.6984" lon="6.32774">
        <ele>1850.3</ele>
        <time>2026-07-10T09:46:18+00:00</time>
      </trkpt>
      <trkpt lat="44.69837" lon="6.32773">
        <ele>1849.9</ele>
        <time>2026-07-10T09:46:20+00:00</time>
      </trkpt>
      <trkpt lat="44.69835" lon="6.32771">
        <ele>1872</ele>
        <time>2026-07-10T09:46:22+00:00</time>
      </trkpt>
      <trkpt lat="44.69833" lon="6.3277">
        <ele>1849.6</ele>
        <time>2026-07-10T09:46:25+00:00</time>
      </trkpt>
      <trkpt lat="44.69831" lon="6.32769">
        <ele>1849.6</ele>
        <time>2026-07-10T09:46:27+00:00</time>
      </trkpt>
      <trkpt lat="44.69829" lon="6.32769">
        <ele>1849.3</ele>
        <time>2026-07-10T09:46:31+00:00</time>
      </trkpt>
      <trkpt lat="44.69826" lon="6.32769">
        <ele>1848.8</ele>
        <time>2026-07-10T09:46:33+00:00</time>
      </trkpt>
      <trkpt lat="44.69823" lon="6.3277">
        <ele>1848.2</ele>
        <time>2026-07-10T09:46:35+00:00</time>
      </trkpt>
      <trkpt lat="44.6982" lon="6.3277">
        <ele>1847.8</ele>
        <time>2026-07-10T09:46:36+00:00</time>
      </trkpt>
      <trkpt lat="44.69817" lon="6.32769">
        <ele>1847.5</ele>
        <time>2026-07-10T09:46:38+00:00</time>
      </trkpt>
      <trkpt lat="44.69814" lon="6.32767">
        <ele>1847.5</ele>
        <time>2026-07-10T09:46:40+00:00</time>
      </trkpt>
      <trkpt lat="44.69812" lon="6.32767">
        <ele>1847.3</ele>
        <time>2026-07-10T09:46:41+00:00</time>
      </trkpt>
      <trkpt lat="44.69814" lon="6.32766">
        <ele>1847.8</ele>
        <time>2026-07-10T09:46:45+00:00</time>
      </trkpt>
      <trkpt lat="44.69821" lon="6.32765">
        <ele>1849</ele>
        <time>2026-07-10T09:46:49+00:00</time>
      </trkpt>
      <trkpt lat="44.69822" lon="6.32761">
        <ele>1871</ele>
        <time>2026-07-10T09:46:52+00:00</time>
      </trkpt>
      <trkpt lat="44.69822" lon="6.32758">
        <ele>1850.6</ele>
        <time>2026-07-10T09:46:53+00:00</time>
      </trkpt>
      <trkpt lat="44.69821" lon="6.32756">
        <ele>1850.9</ele>
        <time>2026-07-10T09:46:56+00:00</time>
      </trkpt>
      <trkpt lat="44.69819" lon="6.32754">
        <ele>1851.1</ele>
        <time>2026-07-10T09:46:58+00:00</time>
      </trkpt>
      <trkpt lat="44.69815" lon="6.32742">
        <ele>1852.8</ele>
        <time>2026-07-10T09:47:04+00:00</time>
      </trkpt>
      <trkpt lat="44.6981" lon="6.32731">
        <ele>1873</ele>
        <time>2026-07-10T09:47:12+00:00</time>
      </trkpt>
      <trkpt lat="44.69807" lon="6.32717">
        <ele>1855.1</ele>
        <time>2026-07-10T09:47:19+00:00</time>
      </trkpt>
      <trkpt lat="44.69802" lon="6.32706">
        <ele>1855.6</ele>
        <time>2026-07-10T09:47:27+00:00</time>
      </trkpt>
      <trkpt lat="44.69799" lon="6.32706">
        <ele>1855.1</ele>
        <time>2026-07-10T09:47:28+00:00</time>
      </trkpt>
      <trkpt lat="44.69796" lon="6.32704">
        <ele>1854.8</ele>
        <time>2026-07-10T09:47:31+00:00</time>
      </trkpt>
      <trkpt lat="44.69793" lon="6.32704">
        <ele>1854.2</ele>
        <time>2026-07-10T09:47:33+00:00</time>
      </trkpt>
      <trkpt lat="44.69791" lon="6.32702">
        <ele>1854.1</ele>
        <time>2026-07-10T09:47:35+00:00</time>
      </trkpt>
      <trkpt lat="44.69789" lon="6.32699">
        <ele>1854.3</ele>
        <time>2026-07-10T09:47:37+00:00</time>
      </trkpt>
      <trkpt lat="44.69787" lon="6.32698">
        <ele>1854.1</ele>
        <time>2026-07-10T09:47:39+00:00</time>
      </trkpt>
      <trkpt lat="44.69784" lon="6.32697">
        <ele>1853.7</ele>
        <time>2026-07-10T09:47:41+00:00</time>
      </trkpt>
      <trkpt lat="44.69781" lon="6.32697">
        <ele>1853.1</ele>
        <time>2026-07-10T09:47:43+00:00</time>
      </trkpt>
      <trkpt lat="44.69778" lon="6.32698">
        <ele>1852.4</ele>
        <time>2026-07-10T09:47:45+00:00</time>
      </trkpt>
      <trkpt lat="44.69776" lon="6.32698">
        <ele>1852</ele>
        <time>2026-07-10T09:47:46+00:00</time>
      </trkpt>
      <trkpt lat="44.69774" lon="6.32699">
        <ele>1851.4</ele>
        <time>2026-07-10T09:47:47+00:00</time>
      </trkpt>
      <trkpt lat="44.69772" lon="6.32699">
        <ele>1851</ele>
        <time>2026-07-10T09:47:48+00:00</time>
      </trkpt>
      <trkpt lat="44.6977" lon="6.32699">
        <ele>1850.6</ele>
        <time>2026-07-10T09:47:49+00:00</time>
      </trkpt>
      <trkpt lat="44.69768" lon="6.32697">
        <ele>1850.5</ele>
        <time>2026-07-10T09:47:51+00:00</time>
      </trkpt>
      <trkpt lat="44.69765" lon="6.32696">
        <ele>1850</ele>
        <time>2026-07-10T09:47:53+00:00</time>
      </trkpt>
      <trkpt lat="44.69763" lon="6.32694">
        <ele>1849.8</ele>
        <time>2026-07-10T09:47:55+00:00</time>
      </trkpt>
      <trkpt lat="44.69761" lon="6.32692">
        <ele>1849.6</ele>
        <time>2026-07-10T09:47:57+00:00</time>
      </trkpt>
      <trkpt lat="44.69759" lon="6.3269">
        <ele>1849.4</ele>
        <time>2026-07-10T09:47:59+00:00</time>
      </trkpt>
      <trkpt lat="44.69753" lon="6.32678">
        <ele>1849.4</ele>
        <time>2026-07-10T09:48:06+00:00</time>
      </trkpt>
      <trkpt lat="44.69751" lon="6.32673">
        <ele>1849.5</ele>
        <time>2026-07-10T09:48:08+00:00</time>
      </trkpt>
      <trkpt lat="44.69751" lon="6.3267">
        <ele>1849.8</ele>
        <time>2026-07-10T09:48:09+00:00</time>
      </trkpt>
      <trkpt lat="44.69749" lon="6.32665">
        <ele>1849.9</ele>
        <time>2026-07-10T09:48:10+00:00</time>
      </trkpt>
      <trkpt lat="44.69749" lon="6.32662">
        <ele>1874</ele>
        <time>2026-07-10T09:48:12+00:00</time>
      </trkpt>
      <trkpt lat="44.69747" lon="6.3266">
        <ele>1849.8</ele>
        <time>2026-07-10T09:48:14+00:00</time>
      </trkpt>
      <trkpt lat="44.69744" lon="6.32658">
        <ele>1849.4</ele>
        <time>2026-07-10T09:48:16+00:00</time>
      </trkpt>
      <trkpt lat="44.69743" lon="6.32655">
        <ele>1849.3</ele>
        <time>2026-07-10T09:48:19+00:00</time>
      </trkpt>
      <trkpt lat="44.69741" lon="6.32653">
        <ele>1849</ele>
        <time>2026-07-10T09:48:21+00:00</time>
      </trkpt>
      <trkpt lat="44.69739" lon="6.3265">
        <ele>1848.8</ele>
        <time>2026-07-10T09:48:23+00:00</time>
      </trkpt>
      <trkpt lat="44.69738" lon="6.32648">
        <ele>1848.7</ele>
        <time>2026-07-10T09:48:25+00:00</time>
      </trkpt>
      <trkpt lat="44.69737" lon="6.32645">
        <ele>1848.5</ele>
        <time>2026-07-10T09:48:27+00:00</time>
      </trkpt>
      <trkpt lat="44.69737" lon="6.32641">
        <ele>1848.6</ele>
        <time>2026-07-10T09:48:29+00:00</time>
      </trkpt>
      <trkpt lat="44.69737" lon="6.32637">
        <ele>1848.6</ele>
        <time>2026-07-10T09:48:31+00:00</time>
      </trkpt>
      <trkpt lat="44.69737" lon="6.32633">
        <ele>1848.5</ele>
        <time>2026-07-10T09:48:33+00:00</time>
      </trkpt>
      <trkpt lat="44.69737" lon="6.3263">
        <ele>1848.5</ele>
        <time>2026-07-10T09:48:35+00:00</time>
      </trkpt>
      <trkpt lat="44.69736" lon="6.32626">
        <ele>1872</ele>
        <time>2026-07-10T09:48:37+00:00</time>
      </trkpt>
    </trkseg>
  </trk>
</gpx>